<?xml version="1.0" encoding="UTF-8" standalone="yes"?>
<gpx
 xmlns="http://www.topografix.com/GPX/1/1"
 creator="OziExplorer Version 3956f - http://www.oziexplorer.com"
 version="1.1"
 xmlns:xsi="http://www.w3.org/2001/XMLSchema-instance"
 xsi:schemaLocation="http://www.topografix.com/GPX/1/1 http://www.topografix.com/GPX/1/1/gpx.xsd">
<metadata>
 <time>2017-09-12T08:50:44Z</time>
 <bounds minlat="31.618579" minlon="34.916128" maxlat="31.677670" maxlon="34.991621"/>
</metadata>
<trk>
 <name>Britaniya-Adulem_Izm</name>
 <desc>Britaniya-Adulem_Izm</desc>
<trkseg>
<trkpt lat="31.6774723" lon="34.9299986">
<ele>323.999969</ele>
<time>2016-09-02T03:29:44.000Z</time>
</trkpt>
<trkpt lat="31.6775286" lon="34.9300001">
<ele>323.799988</ele>
<time>2016-09-02T03:36:03.000Z</time>
</trkpt>
<trkpt lat="31.6775888" lon="34.9299211">
<ele>324.399994</ele>
<time>2016-09-02T03:36:15.000Z</time>
</trkpt>
<trkpt lat="31.6775907" lon="34.9297890">
<ele>326.000000</ele>
<time>2016-09-02T03:36:22.000Z</time>
</trkpt>
<trkpt lat="31.6775992" lon="34.9296564">
<ele>328.400024</ele>
<time>2016-09-02T03:36:27.000Z</time>
</trkpt>
<trkpt lat="31.6776121" lon="34.9295393">
<ele>330.200012</ele>
<time>2016-09-02T03:36:32.000Z</time>
</trkpt>
<trkpt lat="31.6776316" lon="34.9294332">
<ele>331.000000</ele>
<time>2016-09-02T03:36:38.000Z</time>
</trkpt>
<trkpt lat="31.6776376" lon="34.9293164">
<ele>331.799988</ele>
<time>2016-09-02T03:36:45.000Z</time>
</trkpt>
<trkpt lat="31.6776535" lon="34.9291976">
<ele>332.799988</ele>
<time>2016-09-02T03:36:52.000Z</time>
</trkpt>
<trkpt lat="31.6776603" lon="34.9290800">
<ele>333.600006</ele>
<time>2016-09-02T03:36:59.000Z</time>
</trkpt>
<trkpt lat="31.6776444" lon="34.9289719">
<ele>334.399994</ele>
<time>2016-09-02T03:37:05.000Z</time>
</trkpt>
<trkpt lat="31.6776333" lon="34.9288623">
<ele>335.000031</ele>
<time>2016-09-02T03:37:11.000Z</time>
</trkpt>
<trkpt lat="31.6776200" lon="34.9287448">
<ele>335.800018</ele>
<time>2016-09-02T03:37:17.000Z</time>
</trkpt>
<trkpt lat="31.6776146" lon="34.9286258">
<ele>335.399994</ele>
<time>2016-09-02T03:37:23.000Z</time>
</trkpt>
<trkpt lat="31.6776121" lon="34.9285136">
<ele>334.799988</ele>
<time>2016-09-02T03:37:28.000Z</time>
</trkpt>
<trkpt lat="31.6776138" lon="34.9283880">
<ele>334.200043</ele>
<time>2016-09-02T03:37:34.000Z</time>
</trkpt>
<trkpt lat="31.6776098" lon="34.9282814">
<ele>333.600006</ele>
<time>2016-09-02T03:37:39.000Z</time>
</trkpt>
<trkpt lat="31.6776033" lon="34.9281705">
<ele>333.200012</ele>
<time>2016-09-02T03:37:43.000Z</time>
</trkpt>
<trkpt lat="31.6775962" lon="34.9280543">
<ele>332.600006</ele>
<time>2016-09-02T03:37:47.000Z</time>
</trkpt>
<trkpt lat="31.6776081" lon="34.9279342">
<ele>332.000000</ele>
<time>2016-09-02T03:37:51.000Z</time>
</trkpt>
<trkpt lat="31.6776349" lon="34.9277974">
<ele>330.000000</ele>
<time>2016-09-02T03:37:55.000Z</time>
</trkpt>
<trkpt lat="31.6776558" lon="34.9276596">
<ele>327.600037</ele>
<time>2016-09-02T03:37:58.000Z</time>
</trkpt>
<trkpt lat="31.6776698" lon="34.9275310">
<ele>325.399994</ele>
<time>2016-09-02T03:38:01.000Z</time>
</trkpt>
<trkpt lat="31.6776562" lon="34.9274186">
<ele>323.399994</ele>
<time>2016-09-02T03:38:04.000Z</time>
</trkpt>
<trkpt lat="31.6775694" lon="34.9273552">
<ele>321.800018</ele>
<time>2016-09-02T03:38:07.000Z</time>
</trkpt>
<trkpt lat="31.6774474" lon="34.9273591">
<ele>321.399994</ele>
<time>2016-09-02T03:38:10.000Z</time>
</trkpt>
<trkpt lat="31.6773470" lon="34.9273865">
<ele>321.800018</ele>
<time>2016-09-02T03:38:14.000Z</time>
</trkpt>
<trkpt lat="31.6772537" lon="34.9273853">
<ele>322.799988</ele>
<time>2016-09-02T03:38:19.000Z</time>
</trkpt>
<trkpt lat="31.6771572" lon="34.9273523">
<ele>323.200043</ele>
<time>2016-09-02T03:38:24.000Z</time>
</trkpt>
<trkpt lat="31.6770620" lon="34.9273166">
<ele>323.600006</ele>
<time>2016-09-02T03:38:29.000Z</time>
</trkpt>
<trkpt lat="31.6769742" lon="34.9272834">
<ele>323.999969</ele>
<time>2016-09-02T03:38:34.000Z</time>
</trkpt>
<trkpt lat="31.6768819" lon="34.9272437">
<ele>324.200012</ele>
<time>2016-09-02T03:38:39.000Z</time>
</trkpt>
<trkpt lat="31.6767781" lon="34.9272042">
<ele>324.799957</ele>
<time>2016-09-02T03:38:45.000Z</time>
</trkpt>
<trkpt lat="31.6766793" lon="34.9271695">
<ele>325.200012</ele>
<time>2016-09-02T03:38:51.000Z</time>
</trkpt>
<trkpt lat="31.6765867" lon="34.9271350">
<ele>325.399994</ele>
<time>2016-09-02T03:38:57.000Z</time>
</trkpt>
<trkpt lat="31.6764922" lon="34.9271083">
<ele>326.000000</ele>
<time>2016-09-02T03:39:03.000Z</time>
</trkpt>
<trkpt lat="31.6763938" lon="34.9270852">
<ele>327.200012</ele>
<time>2016-09-02T03:39:10.000Z</time>
</trkpt>
<trkpt lat="31.6762988" lon="34.9270540">
<ele>328.200012</ele>
<time>2016-09-02T03:39:17.000Z</time>
</trkpt>
<trkpt lat="31.6762208" lon="34.9271157">
<ele>330.000000</ele>
<time>2016-09-02T03:39:25.000Z</time>
</trkpt>
<trkpt lat="31.6762107" lon="34.9272349">
<ele>331.799988</ele>
<time>2016-09-02T03:39:34.000Z</time>
</trkpt>
<trkpt lat="31.6762151" lon="34.9273441">
<ele>333.200012</ele>
<time>2016-09-02T03:39:41.000Z</time>
</trkpt>
<trkpt lat="31.6762154" lon="34.9274685">
<ele>334.799988</ele>
<time>2016-09-02T03:39:49.000Z</time>
</trkpt>
<trkpt lat="31.6761927" lon="34.9275877">
<ele>336.600006</ele>
<time>2016-09-02T03:39:56.000Z</time>
</trkpt>
<trkpt lat="31.6761607" lon="34.9277081">
<ele>337.999969</ele>
<time>2016-09-02T03:40:03.000Z</time>
</trkpt>
<trkpt lat="31.6760609" lon="34.9277485">
<ele>339.600006</ele>
<time>2016-09-02T03:40:10.000Z</time>
</trkpt>
<trkpt lat="31.6759543" lon="34.9277684">
<ele>341.000000</ele>
<time>2016-09-02T03:40:17.000Z</time>
</trkpt>
<trkpt lat="31.6758610" lon="34.9277989">
<ele>342.200012</ele>
<time>2016-09-02T03:40:22.000Z</time>
</trkpt>
<trkpt lat="31.6757540" lon="34.9278331">
<ele>343.600006</ele>
<time>2016-09-02T03:40:27.000Z</time>
</trkpt>
<trkpt lat="31.6756540" lon="34.9278828">
<ele>345.000000</ele>
<time>2016-09-02T03:40:31.000Z</time>
</trkpt>
<trkpt lat="31.6755431" lon="34.9279179">
<ele>345.600006</ele>
<time>2016-09-02T03:40:35.000Z</time>
</trkpt>
<trkpt lat="31.6754254" lon="34.9279492">
<ele>346.000031</ele>
<time>2016-09-02T03:40:39.000Z</time>
</trkpt>
<trkpt lat="31.6753286" lon="34.9279776">
<ele>346.399994</ele>
<time>2016-09-02T03:40:42.000Z</time>
</trkpt>
<trkpt lat="31.6752362" lon="34.9280007">
<ele>346.600006</ele>
<time>2016-09-02T03:40:45.000Z</time>
</trkpt>
<trkpt lat="31.6751315" lon="34.9280392">
<ele>347.000000</ele>
<time>2016-09-02T03:40:50.000Z</time>
</trkpt>
<trkpt lat="31.6750225" lon="34.9280453">
<ele>347.399994</ele>
<time>2016-09-02T03:40:56.000Z</time>
</trkpt>
<trkpt lat="31.6749383" lon="34.9280083">
<ele>348.000000</ele>
<time>2016-09-02T03:41:02.000Z</time>
</trkpt>
<trkpt lat="31.6748582" lon="34.9280120">
<ele>348.200043</ele>
<time>2016-09-02T03:41:21.000Z</time>
</trkpt>
<trkpt lat="31.6747740" lon="34.9280245">
<ele>348.799988</ele>
<time>2016-09-02T03:41:34.000Z</time>
</trkpt>
<trkpt lat="31.6746820" lon="34.9280598">
<ele>349.399994</ele>
<time>2016-09-02T03:41:41.000Z</time>
</trkpt>
<trkpt lat="31.6745877" lon="34.9280810">
<ele>350.000000</ele>
<time>2016-09-02T03:41:47.000Z</time>
</trkpt>
<trkpt lat="31.6744987" lon="34.9281048">
<ele>350.600006</ele>
<time>2016-09-02T03:41:53.000Z</time>
</trkpt>
<trkpt lat="31.6744150" lon="34.9281564">
<ele>351.000000</ele>
<time>2016-09-02T03:41:59.000Z</time>
</trkpt>
<trkpt lat="31.6743156" lon="34.9281855">
<ele>351.600006</ele>
<time>2016-09-02T03:42:05.000Z</time>
</trkpt>
<trkpt lat="31.6742198" lon="34.9282139">
<ele>352.600037</ele>
<time>2016-09-02T03:42:11.000Z</time>
</trkpt>
<trkpt lat="31.6741240" lon="34.9281674">
<ele>354.000000</ele>
<time>2016-09-02T03:42:17.000Z</time>
</trkpt>
<trkpt lat="31.6740739" lon="34.9280749">
<ele>354.799988</ele>
<time>2016-09-02T03:42:23.000Z</time>
</trkpt>
<trkpt lat="31.6740355" lon="34.9279762">
<ele>355.599976</ele>
<time>2016-09-02T03:42:29.000Z</time>
</trkpt>
<trkpt lat="31.6739765" lon="34.9278899">
<ele>356.399963</ele>
<time>2016-09-02T03:42:35.000Z</time>
</trkpt>
<trkpt lat="31.6739228" lon="34.9278037">
<ele>356.799988</ele>
<time>2016-09-02T03:42:41.000Z</time>
</trkpt>
<trkpt lat="31.6738932" lon="34.9276885">
<ele>356.399963</ele>
<time>2016-09-02T03:42:48.000Z</time>
</trkpt>
<trkpt lat="31.6739069" lon="34.9275843">
<ele>355.399994</ele>
<time>2016-09-02T03:42:54.000Z</time>
</trkpt>
<trkpt lat="31.6738933" lon="34.9274656">
<ele>354.600006</ele>
<time>2016-09-02T03:43:00.000Z</time>
</trkpt>
<trkpt lat="31.6738562" lon="34.9273449">
<ele>354.200012</ele>
<time>2016-09-02T03:43:05.000Z</time>
</trkpt>
<trkpt lat="31.6737935" lon="34.9272478">
<ele>354.399994</ele>
<time>2016-09-02T03:43:10.000Z</time>
</trkpt>
<trkpt lat="31.6737210" lon="34.9271774">
<ele>355.000000</ele>
<time>2016-09-02T03:43:15.000Z</time>
</trkpt>
<trkpt lat="31.6736488" lon="34.9271023">
<ele>355.599976</ele>
<time>2016-09-02T03:43:20.000Z</time>
</trkpt>
<trkpt lat="31.6735669" lon="34.9270245">
<ele>356.000000</ele>
<time>2016-09-02T03:43:26.000Z</time>
</trkpt>
<trkpt lat="31.6734895" lon="34.9269442">
<ele>356.200012</ele>
<time>2016-09-02T03:43:32.000Z</time>
</trkpt>
<trkpt lat="31.6734224" lon="34.9268735">
<ele>356.399963</ele>
<time>2016-09-02T03:43:37.000Z</time>
</trkpt>
<trkpt lat="31.6733452" lon="34.9267993">
<ele>356.600006</ele>
<time>2016-09-02T03:43:43.000Z</time>
</trkpt>
<trkpt lat="31.6732739" lon="34.9267168">
<ele>356.600006</ele>
<time>2016-09-02T03:43:49.000Z</time>
</trkpt>
<trkpt lat="31.6731993" lon="34.9266405">
<ele>356.799988</ele>
<time>2016-09-02T03:43:54.000Z</time>
</trkpt>
<trkpt lat="31.6731272" lon="34.9265475">
<ele>355.799988</ele>
<time>2016-09-02T03:43:59.000Z</time>
</trkpt>
<trkpt lat="31.6730377" lon="34.9264486">
<ele>354.799988</ele>
<time>2016-09-02T03:44:03.000Z</time>
</trkpt>
<trkpt lat="31.6729358" lon="34.9263462">
<ele>353.799988</ele>
<time>2016-09-02T03:44:06.000Z</time>
</trkpt>
<trkpt lat="31.6728751" lon="34.9262572">
<ele>352.799957</ele>
<time>2016-09-02T03:44:08.000Z</time>
</trkpt>
<trkpt lat="31.6728351" lon="34.9261467">
<ele>351.000000</ele>
<time>2016-09-02T03:44:10.000Z</time>
</trkpt>
<trkpt lat="31.6728020" lon="34.9260315">
<ele>349.200012</ele>
<time>2016-09-02T03:44:12.000Z</time>
</trkpt>
<trkpt lat="31.6727381" lon="34.9259093">
<ele>347.200012</ele>
<time>2016-09-02T03:44:15.000Z</time>
</trkpt>
<trkpt lat="31.6726481" lon="34.9258443">
<ele>346.600006</ele>
<time>2016-09-02T03:44:18.000Z</time>
</trkpt>
<trkpt lat="31.6725728" lon="34.9258680">
<ele>347.399994</ele>
<time>2016-09-02T03:46:26.000Z</time>
</trkpt>
<trkpt lat="31.6725130" lon="34.9259865">
<ele>349.799957</ele>
<time>2016-09-02T03:46:30.000Z</time>
</trkpt>
<trkpt lat="31.6724601" lon="34.9260991">
<ele>351.999969</ele>
<time>2016-09-02T03:46:33.000Z</time>
</trkpt>
<trkpt lat="31.6723940" lon="34.9262219">
<ele>354.600006</ele>
<time>2016-09-02T03:46:35.000Z</time>
</trkpt>
<trkpt lat="31.6723012" lon="34.9263839">
<ele>354.600006</ele>
<time>2016-09-02T03:46:37.000Z</time>
</trkpt>
<trkpt lat="31.6721977" lon="34.9265396">
<ele>353.200012</ele>
<time>2016-09-02T03:46:39.000Z</time>
</trkpt>
<trkpt lat="31.6720748" lon="34.9266634">
<ele>351.399994</ele>
<time>2016-09-02T03:46:41.000Z</time>
</trkpt>
<trkpt lat="31.6719971" lon="34.9267213">
<ele>350.000000</ele>
<time>2016-09-02T03:46:42.000Z</time>
</trkpt>
<trkpt lat="31.6719068" lon="34.9267729">
<ele>348.399994</ele>
<time>2016-09-02T03:46:43.000Z</time>
</trkpt>
<trkpt lat="31.6718062" lon="34.9268197">
<ele>346.399994</ele>
<time>2016-09-02T03:46:44.000Z</time>
</trkpt>
<trkpt lat="31.6717035" lon="34.9268655">
<ele>344.599976</ele>
<time>2016-09-02T03:46:45.000Z</time>
</trkpt>
<trkpt lat="31.6716145" lon="34.9269100">
<ele>342.799988</ele>
<time>2016-09-02T03:46:46.000Z</time>
</trkpt>
<trkpt lat="31.6714877" lon="34.9269949">
<ele>341.000000</ele>
<time>2016-09-02T03:46:48.000Z</time>
</trkpt>
<trkpt lat="31.6713982" lon="34.9270811">
<ele>341.399994</ele>
<time>2016-09-02T03:46:51.000Z</time>
</trkpt>
<trkpt lat="31.6713425" lon="34.9271759">
<ele>342.000000</ele>
<time>2016-09-02T03:46:55.000Z</time>
</trkpt>
<trkpt lat="31.6712960" lon="34.9272974">
<ele>343.000000</ele>
<time>2016-09-02T03:46:59.000Z</time>
</trkpt>
<trkpt lat="31.6712155" lon="34.9273556">
<ele>343.200012</ele>
<time>2016-09-02T03:47:02.000Z</time>
</trkpt>
<trkpt lat="31.6711014" lon="34.9273332">
<ele>342.200012</ele>
<time>2016-09-02T03:47:05.000Z</time>
</trkpt>
<trkpt lat="31.6709772" lon="34.9272800">
<ele>341.000000</ele>
<time>2016-09-02T03:47:08.000Z</time>
</trkpt>
<trkpt lat="31.6708724" lon="34.9272401">
<ele>339.799988</ele>
<time>2016-09-02T03:47:10.000Z</time>
</trkpt>
<trkpt lat="31.6707482" lon="34.9271927">
<ele>338.200012</ele>
<time>2016-09-02T03:47:12.000Z</time>
</trkpt>
<trkpt lat="31.6705980" lon="34.9271382">
<ele>337.199982</ele>
<time>2016-09-02T03:47:14.000Z</time>
</trkpt>
<trkpt lat="31.6704214" lon="34.9270816">
<ele>336.799988</ele>
<time>2016-09-02T03:47:16.000Z</time>
</trkpt>
<trkpt lat="31.6703276" lon="34.9270524">
<ele>336.200012</ele>
<time>2016-09-02T03:47:17.000Z</time>
</trkpt>
<trkpt lat="31.6702312" lon="34.9270153">
<ele>335.399994</ele>
<time>2016-09-02T03:47:18.000Z</time>
</trkpt>
<trkpt lat="31.6701364" lon="34.9269728">
<ele>334.399994</ele>
<time>2016-09-02T03:47:19.000Z</time>
</trkpt>
<trkpt lat="31.6700430" lon="34.9269289">
<ele>333.399994</ele>
<time>2016-09-02T03:47:20.000Z</time>
</trkpt>
<trkpt lat="31.6699489" lon="34.9268878">
<ele>332.600006</ele>
<time>2016-09-02T03:47:21.000Z</time>
</trkpt>
<trkpt lat="31.6698568" lon="34.9268475">
<ele>331.799988</ele>
<time>2016-09-02T03:47:22.000Z</time>
</trkpt>
<trkpt lat="31.6697674" lon="34.9268064">
<ele>331.399963</ele>
<time>2016-09-02T03:47:23.000Z</time>
</trkpt>
<trkpt lat="31.6696800" lon="34.9267620">
<ele>331.000000</ele>
<time>2016-09-02T03:47:24.000Z</time>
</trkpt>
<trkpt lat="31.6695950" lon="34.9267200">
<ele>330.599976</ele>
<time>2016-09-02T03:47:25.000Z</time>
</trkpt>
<trkpt lat="31.6694296" lon="34.9266406">
<ele>329.799988</ele>
<time>2016-09-02T03:47:27.000Z</time>
</trkpt>
<trkpt lat="31.6693459" lon="34.9265986">
<ele>328.600006</ele>
<time>2016-09-02T03:47:28.000Z</time>
</trkpt>
<trkpt lat="31.6691749" lon="34.9265118">
<ele>326.199982</ele>
<time>2016-09-02T03:47:30.000Z</time>
</trkpt>
<trkpt lat="31.6690505" lon="34.9264228">
<ele>324.600006</ele>
<time>2016-09-02T03:47:32.000Z</time>
</trkpt>
<trkpt lat="31.6689910" lon="34.9263273">
<ele>324.399994</ele>
<time>2016-09-02T03:47:34.000Z</time>
</trkpt>
<trkpt lat="31.6689958" lon="34.9261860">
<ele>324.399994</ele>
<time>2016-09-02T03:47:37.000Z</time>
</trkpt>
<trkpt lat="31.6690068" lon="34.9260466">
<ele>323.600006</ele>
<time>2016-09-02T03:47:40.000Z</time>
</trkpt>
<trkpt lat="31.6690034" lon="34.9259057">
<ele>323.200043</ele>
<time>2016-09-02T03:47:43.000Z</time>
</trkpt>
<trkpt lat="31.6689877" lon="34.9257732">
<ele>323.000000</ele>
<time>2016-09-02T03:47:46.000Z</time>
</trkpt>
<trkpt lat="31.6689747" lon="34.9256478">
<ele>322.799988</ele>
<time>2016-09-02T03:47:49.000Z</time>
</trkpt>
<trkpt lat="31.6689587" lon="34.9255325">
<ele>322.600006</ele>
<time>2016-09-02T03:47:52.000Z</time>
</trkpt>
<trkpt lat="31.6689430" lon="34.9254183">
<ele>322.399994</ele>
<time>2016-09-02T03:47:55.000Z</time>
</trkpt>
<trkpt lat="31.6689310" lon="34.9253090">
<ele>323.399994</ele>
<time>2016-09-02T03:47:58.000Z</time>
</trkpt>
<trkpt lat="31.6689190" lon="34.9251969">
<ele>323.799988</ele>
<time>2016-09-02T03:48:01.000Z</time>
</trkpt>
<trkpt lat="31.6689033" lon="34.9250852">
<ele>324.399994</ele>
<time>2016-09-02T03:48:04.000Z</time>
</trkpt>
<trkpt lat="31.6688884" lon="34.9249734">
<ele>324.799957</ele>
<time>2016-09-02T03:48:07.000Z</time>
</trkpt>
<trkpt lat="31.6688751" lon="34.9248681">
<ele>325.399994</ele>
<time>2016-09-02T03:48:10.000Z</time>
</trkpt>
<trkpt lat="31.6688579" lon="34.9247236">
<ele>326.000000</ele>
<time>2016-09-02T03:48:14.000Z</time>
</trkpt>
<trkpt lat="31.6688347" lon="34.9245836">
<ele>326.600006</ele>
<time>2016-09-02T03:48:18.000Z</time>
</trkpt>
<trkpt lat="31.6688204" lon="34.9244397">
<ele>327.799988</ele>
<time>2016-09-02T03:48:22.000Z</time>
</trkpt>
<trkpt lat="31.6688045" lon="34.9242996">
<ele>328.600006</ele>
<time>2016-09-02T03:48:26.000Z</time>
</trkpt>
<trkpt lat="31.6687853" lon="34.9241669">
<ele>329.000000</ele>
<time>2016-09-02T03:48:30.000Z</time>
</trkpt>
<trkpt lat="31.6687718" lon="34.9240331">
<ele>329.399994</ele>
<time>2016-09-02T03:48:34.000Z</time>
</trkpt>
<trkpt lat="31.6687513" lon="34.9239168">
<ele>329.799988</ele>
<time>2016-09-02T03:48:38.000Z</time>
</trkpt>
<trkpt lat="31.6687340" lon="34.9238104">
<ele>330.200012</ele>
<time>2016-09-02T03:48:42.000Z</time>
</trkpt>
<trkpt lat="31.6687153" lon="34.9236809">
<ele>331.000000</ele>
<time>2016-09-02T03:48:47.000Z</time>
</trkpt>
<trkpt lat="31.6686958" lon="34.9235522">
<ele>332.399994</ele>
<time>2016-09-02T03:48:52.000Z</time>
</trkpt>
<trkpt lat="31.6686840" lon="34.9234219">
<ele>333.600006</ele>
<time>2016-09-02T03:48:57.000Z</time>
</trkpt>
<trkpt lat="31.6686704" lon="34.9233095">
<ele>334.399994</ele>
<time>2016-09-02T03:49:01.000Z</time>
</trkpt>
<trkpt lat="31.6686625" lon="34.9231985">
<ele>335.000031</ele>
<time>2016-09-02T03:49:05.000Z</time>
</trkpt>
<trkpt lat="31.6686575" lon="34.9230687">
<ele>335.399994</ele>
<time>2016-09-02T03:49:10.000Z</time>
</trkpt>
<trkpt lat="31.6686527" lon="34.9229422">
<ele>336.000000</ele>
<time>2016-09-02T03:49:15.000Z</time>
</trkpt>
<trkpt lat="31.6686532" lon="34.9228356">
<ele>335.800018</ele>
<time>2016-09-02T03:49:19.000Z</time>
</trkpt>
<trkpt lat="31.6686544" lon="34.9227186">
<ele>335.200012</ele>
<time>2016-09-02T03:49:23.000Z</time>
</trkpt>
<trkpt lat="31.6686524" lon="34.9226027">
<ele>334.600006</ele>
<time>2016-09-02T03:49:27.000Z</time>
</trkpt>
<trkpt lat="31.6686501" lon="34.9224829">
<ele>334.399994</ele>
<time>2016-09-02T03:49:31.000Z</time>
</trkpt>
<trkpt lat="31.6686532" lon="34.9223649">
<ele>334.399994</ele>
<time>2016-09-02T03:49:35.000Z</time>
</trkpt>
<trkpt lat="31.6686485" lon="34.9222460">
<ele>334.799988</ele>
<time>2016-09-02T03:49:39.000Z</time>
</trkpt>
<trkpt lat="31.6686471" lon="34.9221138">
<ele>335.000031</ele>
<time>2016-09-02T03:49:43.000Z</time>
</trkpt>
<trkpt lat="31.6686422" lon="34.9219891">
<ele>334.000000</ele>
<time>2016-09-02T03:49:47.000Z</time>
</trkpt>
<trkpt lat="31.6686312" lon="34.9218644">
<ele>332.799988</ele>
<time>2016-09-02T03:49:51.000Z</time>
</trkpt>
<trkpt lat="31.6686048" lon="34.9217373">
<ele>331.799988</ele>
<time>2016-09-02T03:49:55.000Z</time>
</trkpt>
<trkpt lat="31.6685703" lon="34.9216112">
<ele>331.200012</ele>
<time>2016-09-02T03:49:59.000Z</time>
</trkpt>
<trkpt lat="31.6685303" lon="34.9215197">
<ele>331.600006</ele>
<time>2016-09-02T03:50:02.000Z</time>
</trkpt>
<trkpt lat="31.6684645" lon="34.9214017">
<ele>332.399994</ele>
<time>2016-09-02T03:50:06.000Z</time>
</trkpt>
<trkpt lat="31.6683916" lon="34.9212934">
<ele>333.399994</ele>
<time>2016-09-02T03:50:10.000Z</time>
</trkpt>
<trkpt lat="31.6683211" lon="34.9211973">
<ele>333.799988</ele>
<time>2016-09-02T03:50:14.000Z</time>
</trkpt>
<trkpt lat="31.6682523" lon="34.9211155">
<ele>333.799988</ele>
<time>2016-09-02T03:50:18.000Z</time>
</trkpt>
<trkpt lat="31.6681749" lon="34.9210427">
<ele>333.600006</ele>
<time>2016-09-02T03:50:23.000Z</time>
</trkpt>
<trkpt lat="31.6680942" lon="34.9209774">
<ele>332.799988</ele>
<time>2016-09-02T03:50:28.000Z</time>
</trkpt>
<trkpt lat="31.6679902" lon="34.9209959">
<ele>333.600006</ele>
<time>2016-09-02T03:50:33.000Z</time>
</trkpt>
<trkpt lat="31.6679130" lon="34.9210534">
<ele>334.600006</ele>
<time>2016-09-02T03:50:38.000Z</time>
</trkpt>
<trkpt lat="31.6678542" lon="34.9211603">
<ele>336.399994</ele>
<time>2016-09-02T03:50:44.000Z</time>
</trkpt>
<trkpt lat="31.6678039" lon="34.9212534">
<ele>337.600006</ele>
<time>2016-09-02T03:50:49.000Z</time>
</trkpt>
<trkpt lat="31.6677540" lon="34.9213540">
<ele>339.000000</ele>
<time>2016-09-02T03:50:55.000Z</time>
</trkpt>
<trkpt lat="31.6677058" lon="34.9214505">
<ele>340.399994</ele>
<time>2016-09-02T03:51:01.000Z</time>
</trkpt>
<trkpt lat="31.6676590" lon="34.9215474">
<ele>341.799988</ele>
<time>2016-09-02T03:51:07.000Z</time>
</trkpt>
<trkpt lat="31.6676063" lon="34.9216394">
<ele>343.600006</ele>
<time>2016-09-02T03:51:13.000Z</time>
</trkpt>
<trkpt lat="31.6675542" lon="34.9217236">
<ele>345.200012</ele>
<time>2016-09-02T03:51:19.000Z</time>
</trkpt>
<trkpt lat="31.6674896" lon="34.9218010">
<ele>346.800018</ele>
<time>2016-09-02T03:51:25.000Z</time>
</trkpt>
<trkpt lat="31.6674199" lon="34.9218786">
<ele>348.399994</ele>
<time>2016-09-02T03:51:31.000Z</time>
</trkpt>
<trkpt lat="31.6673375" lon="34.9219500">
<ele>349.799957</ele>
<time>2016-09-02T03:51:37.000Z</time>
</trkpt>
<trkpt lat="31.6672424" lon="34.9219953">
<ele>350.600006</ele>
<time>2016-09-02T03:51:43.000Z</time>
</trkpt>
<trkpt lat="31.6671479" lon="34.9220172">
<ele>351.600006</ele>
<time>2016-09-02T03:51:49.000Z</time>
</trkpt>
<trkpt lat="31.6670459" lon="34.9220258">
<ele>352.399994</ele>
<time>2016-09-02T03:51:55.000Z</time>
</trkpt>
<trkpt lat="31.6669479" lon="34.9220203">
<ele>352.600037</ele>
<time>2016-09-02T03:52:01.000Z</time>
</trkpt>
<trkpt lat="31.6668542" lon="34.9219871">
<ele>352.200012</ele>
<time>2016-09-02T03:52:07.000Z</time>
</trkpt>
<trkpt lat="31.6667665" lon="34.9219518">
<ele>351.799988</ele>
<time>2016-09-02T03:52:13.000Z</time>
</trkpt>
<trkpt lat="31.6666783" lon="34.9219776">
<ele>352.799957</ele>
<time>2016-09-02T03:52:19.000Z</time>
</trkpt>
<trkpt lat="31.6666849" lon="34.9220981">
<ele>355.799988</ele>
<time>2016-09-02T03:52:25.000Z</time>
</trkpt>
<trkpt lat="31.6667449" lon="34.9222059">
<ele>357.200012</ele>
<time>2016-09-02T03:52:31.000Z</time>
</trkpt>
<trkpt lat="31.6668370" lon="34.9222766">
<ele>358.000000</ele>
<time>2016-09-02T03:52:37.000Z</time>
</trkpt>
<trkpt lat="31.6669249" lon="34.9223212">
<ele>358.399994</ele>
<time>2016-09-02T03:52:42.000Z</time>
</trkpt>
<trkpt lat="31.6670263" lon="34.9223685">
<ele>358.599976</ele>
<time>2016-09-02T03:52:48.000Z</time>
</trkpt>
<trkpt lat="31.6671151" lon="34.9224035">
<ele>358.799988</ele>
<time>2016-09-02T03:52:53.000Z</time>
</trkpt>
<trkpt lat="31.6672068" lon="34.9224252">
<ele>358.799988</ele>
<time>2016-09-02T03:52:58.000Z</time>
</trkpt>
<trkpt lat="31.6673140" lon="34.9224533">
<ele>358.599976</ele>
<time>2016-09-02T03:53:04.000Z</time>
</trkpt>
<trkpt lat="31.6674121" lon="34.9224734">
<ele>358.000000</ele>
<time>2016-09-02T03:53:10.000Z</time>
</trkpt>
<trkpt lat="31.6674926" lon="34.9224220">
<ele>355.799988</ele>
<time>2016-09-02T03:53:18.000Z</time>
</trkpt>
<trkpt lat="31.6675914" lon="34.9223741">
<ele>353.200012</ele>
<time>2016-09-02T03:53:24.000Z</time>
</trkpt>
<trkpt lat="31.6676870" lon="34.9223882">
<ele>351.999969</ele>
<time>2016-09-02T03:53:29.000Z</time>
</trkpt>
<trkpt lat="31.6677379" lon="34.9224698">
<ele>352.399994</ele>
<time>2016-09-02T03:53:34.000Z</time>
</trkpt>
<trkpt lat="31.6677325" lon="34.9225754">
<ele>354.200012</ele>
<time>2016-09-02T03:53:38.000Z</time>
</trkpt>
<trkpt lat="31.6676861" lon="34.9226832">
<ele>356.799988</ele>
<time>2016-09-02T03:53:42.000Z</time>
</trkpt>
<trkpt lat="31.6675982" lon="34.9227554">
<ele>359.600006</ele>
<time>2016-09-02T03:53:46.000Z</time>
</trkpt>
<trkpt lat="31.6675080" lon="34.9228142">
<ele>362.000000</ele>
<time>2016-09-02T03:53:50.000Z</time>
</trkpt>
<trkpt lat="31.6674043" lon="34.9228598">
<ele>364.600006</ele>
<time>2016-09-02T03:53:54.000Z</time>
</trkpt>
<trkpt lat="31.6672961" lon="34.9228836">
<ele>365.799988</ele>
<time>2016-09-02T03:53:58.000Z</time>
</trkpt>
<trkpt lat="31.6671826" lon="34.9228952">
<ele>366.200012</ele>
<time>2016-09-02T03:54:02.000Z</time>
</trkpt>
<trkpt lat="31.6670760" lon="34.9228639">
<ele>365.799988</ele>
<time>2016-09-02T03:54:06.000Z</time>
</trkpt>
<trkpt lat="31.6670091" lon="34.9227854">
<ele>364.799988</ele>
<time>2016-09-02T03:54:10.000Z</time>
</trkpt>
<trkpt lat="31.6670117" lon="34.9226764">
<ele>363.399994</ele>
<time>2016-09-02T03:54:14.000Z</time>
</trkpt>
<trkpt lat="31.6670958" lon="34.9226290">
<ele>362.600006</ele>
<time>2016-09-02T03:54:22.000Z</time>
</trkpt>
<trkpt lat="31.6672124" lon="34.9226145">
<ele>361.799988</ele>
<time>2016-09-02T03:54:27.000Z</time>
</trkpt>
<trkpt lat="31.6673130" lon="34.9226078">
<ele>361.200012</ele>
<time>2016-09-02T03:54:31.000Z</time>
</trkpt>
<trkpt lat="31.6674047" lon="34.9225784">
<ele>359.799988</ele>
<time>2016-09-02T03:56:02.000Z</time>
</trkpt>
<trkpt lat="31.6674984" lon="34.9225618">
<ele>358.000000</ele>
<time>2016-09-02T03:56:12.000Z</time>
</trkpt>
<trkpt lat="31.6675421" lon="34.9224859">
<ele>356.000000</ele>
<time>2016-09-02T03:56:25.000Z</time>
</trkpt>
<trkpt lat="31.6674727" lon="34.9224061">
<ele>355.799988</ele>
<time>2016-09-02T03:56:36.000Z</time>
</trkpt>
<trkpt lat="31.6673860" lon="34.9224019">
<ele>357.200012</ele>
<time>2016-09-02T03:57:55.000Z</time>
</trkpt>
<trkpt lat="31.6672738" lon="34.9224124">
<ele>358.200012</ele>
<time>2016-09-02T03:58:03.000Z</time>
</trkpt>
<trkpt lat="31.6671543" lon="34.9223821">
<ele>358.200012</ele>
<time>2016-09-02T03:58:07.000Z</time>
</trkpt>
<trkpt lat="31.6670293" lon="34.9223364">
<ele>358.000000</ele>
<time>2016-09-02T03:58:10.000Z</time>
</trkpt>
<trkpt lat="31.6669310" lon="34.9222919">
<ele>357.799988</ele>
<time>2016-09-02T03:58:12.000Z</time>
</trkpt>
<trkpt lat="31.6668223" lon="34.9222384">
<ele>357.399994</ele>
<time>2016-09-02T03:58:14.000Z</time>
</trkpt>
<trkpt lat="31.6667254" lon="34.9221597">
<ele>356.600006</ele>
<time>2016-09-02T03:58:16.000Z</time>
</trkpt>
<trkpt lat="31.6666757" lon="34.9220561">
<ele>355.000000</ele>
<time>2016-09-02T03:58:18.000Z</time>
</trkpt>
<trkpt lat="31.6667065" lon="34.9219468">
<ele>351.799988</ele>
<time>2016-09-02T03:58:21.000Z</time>
</trkpt>
<trkpt lat="31.6668339" lon="34.9219742">
<ele>351.999969</ele>
<time>2016-09-02T03:58:24.000Z</time>
</trkpt>
<trkpt lat="31.6669528" lon="34.9220212">
<ele>352.600037</ele>
<time>2016-09-02T03:58:26.000Z</time>
</trkpt>
<trkpt lat="31.6670962" lon="34.9220336">
<ele>352.399994</ele>
<time>2016-09-02T03:58:28.000Z</time>
</trkpt>
<trkpt lat="31.6672511" lon="34.9220020">
<ele>350.799988</ele>
<time>2016-09-02T03:58:30.000Z</time>
</trkpt>
<trkpt lat="31.6673758" lon="34.9219314">
<ele>349.600006</ele>
<time>2016-09-02T03:58:32.000Z</time>
</trkpt>
<trkpt lat="31.6674856" lon="34.9218310">
<ele>347.399994</ele>
<time>2016-09-02T03:58:34.000Z</time>
</trkpt>
<trkpt lat="31.6675670" lon="34.9217245">
<ele>345.200012</ele>
<time>2016-09-02T03:58:36.000Z</time>
</trkpt>
<trkpt lat="31.6676227" lon="34.9216389">
<ele>343.399994</ele>
<time>2016-09-02T03:59:03.000Z</time>
</trkpt>
<trkpt lat="31.6676846" lon="34.9215446">
<ele>341.600037</ele>
<time>2016-09-02T03:59:06.000Z</time>
</trkpt>
<trkpt lat="31.6677391" lon="34.9214479">
<ele>340.399994</ele>
<time>2016-09-02T03:59:08.000Z</time>
</trkpt>
<trkpt lat="31.6678034" lon="34.9213264">
<ele>338.600006</ele>
<time>2016-09-02T03:59:10.000Z</time>
</trkpt>
<trkpt lat="31.6678627" lon="34.9211955">
<ele>336.799988</ele>
<time>2016-09-02T03:59:12.000Z</time>
</trkpt>
<trkpt lat="31.6678777" lon="34.9210771">
<ele>335.000031</ele>
<time>2016-09-02T03:59:15.000Z</time>
</trkpt>
<trkpt lat="31.6677824" lon="34.9210703">
<ele>335.000031</ele>
<time>2016-09-02T03:59:19.000Z</time>
</trkpt>
<trkpt lat="31.6677327" lon="34.9211864">
<ele>336.799988</ele>
<time>2016-09-02T03:59:24.000Z</time>
</trkpt>
<trkpt lat="31.6676790" lon="34.9213026">
<ele>338.399994</ele>
<time>2016-09-02T03:59:28.000Z</time>
</trkpt>
<trkpt lat="31.6676251" lon="34.9214161">
<ele>340.000000</ele>
<time>2016-09-02T03:59:32.000Z</time>
</trkpt>
<trkpt lat="31.6675755" lon="34.9215173">
<ele>341.600037</ele>
<time>2016-09-02T03:59:36.000Z</time>
</trkpt>
<trkpt lat="31.6675168" lon="34.9216021">
<ele>343.399994</ele>
<time>2016-09-02T03:59:40.000Z</time>
</trkpt>
<trkpt lat="31.6674470" lon="34.9216756">
<ele>345.000000</ele>
<time>2016-09-02T03:59:44.000Z</time>
</trkpt>
<trkpt lat="31.6673527" lon="34.9217505">
<ele>346.600006</ele>
<time>2016-09-02T03:59:49.000Z</time>
</trkpt>
<trkpt lat="31.6672655" lon="34.9217898">
<ele>346.800018</ele>
<time>2016-09-02T03:59:53.000Z</time>
</trkpt>
<trkpt lat="31.6671619" lon="34.9218087">
<ele>346.600006</ele>
<time>2016-09-02T03:59:57.000Z</time>
</trkpt>
<trkpt lat="31.6670380" lon="34.9217958">
<ele>346.399994</ele>
<time>2016-09-02T04:00:01.000Z</time>
</trkpt>
<trkpt lat="31.6669346" lon="34.9217549">
<ele>345.799988</ele>
<time>2016-09-02T04:00:04.000Z</time>
</trkpt>
<trkpt lat="31.6668219" lon="34.9216782">
<ele>344.200012</ele>
<time>2016-09-02T04:00:07.000Z</time>
</trkpt>
<trkpt lat="31.6667398" lon="34.9216070">
<ele>342.799988</ele>
<time>2016-09-02T04:00:09.000Z</time>
</trkpt>
<trkpt lat="31.6666545" lon="34.9215222">
<ele>341.000000</ele>
<time>2016-09-02T04:00:11.000Z</time>
</trkpt>
<trkpt lat="31.6665650" lon="34.9214306">
<ele>339.000000</ele>
<time>2016-09-02T04:00:13.000Z</time>
</trkpt>
<trkpt lat="31.6664673" lon="34.9213419">
<ele>337.399994</ele>
<time>2016-09-02T04:00:15.000Z</time>
</trkpt>
<trkpt lat="31.6663576" lon="34.9212619">
<ele>336.200012</ele>
<time>2016-09-02T04:00:17.000Z</time>
</trkpt>
<trkpt lat="31.6662396" lon="34.9211903">
<ele>335.399994</ele>
<time>2016-09-02T04:00:19.000Z</time>
</trkpt>
<trkpt lat="31.6661120" lon="34.9211361">
<ele>335.000031</ele>
<time>2016-09-02T04:00:21.000Z</time>
</trkpt>
<trkpt lat="31.6659811" lon="34.9210996">
<ele>335.200012</ele>
<time>2016-09-02T04:00:23.000Z</time>
</trkpt>
<trkpt lat="31.6658518" lon="34.9210744">
<ele>335.600006</ele>
<time>2016-09-02T04:00:25.000Z</time>
</trkpt>
<trkpt lat="31.6657179" lon="34.9210454">
<ele>336.000000</ele>
<time>2016-09-02T04:00:27.000Z</time>
</trkpt>
<trkpt lat="31.6655812" lon="34.9210097">
<ele>336.399994</ele>
<time>2016-09-02T04:00:29.000Z</time>
</trkpt>
<trkpt lat="31.6654443" lon="34.9209732">
<ele>336.799988</ele>
<time>2016-09-02T04:00:31.000Z</time>
</trkpt>
<trkpt lat="31.6653048" lon="34.9209369">
<ele>336.399994</ele>
<time>2016-09-02T04:00:33.000Z</time>
</trkpt>
<trkpt lat="31.6651633" lon="34.9209014">
<ele>335.800018</ele>
<time>2016-09-02T04:00:35.000Z</time>
</trkpt>
<trkpt lat="31.6650204" lon="34.9208705">
<ele>335.399994</ele>
<time>2016-09-02T04:00:37.000Z</time>
</trkpt>
<trkpt lat="31.6648810" lon="34.9208562">
<ele>335.200012</ele>
<time>2016-09-02T04:00:39.000Z</time>
</trkpt>
<trkpt lat="31.6647630" lon="34.9208696">
<ele>334.600006</ele>
<time>2016-09-02T04:00:41.000Z</time>
</trkpt>
<trkpt lat="31.6646669" lon="34.9209375">
<ele>335.200012</ele>
<time>2016-09-02T04:00:43.000Z</time>
</trkpt>
<trkpt lat="31.6646229" lon="34.9210417">
<ele>336.600006</ele>
<time>2016-09-02T04:00:45.000Z</time>
</trkpt>
<trkpt lat="31.6646325" lon="34.9211507">
<ele>338.200012</ele>
<time>2016-09-02T04:00:47.000Z</time>
</trkpt>
<trkpt lat="31.6646629" lon="34.9212661">
<ele>340.000000</ele>
<time>2016-09-02T04:00:49.000Z</time>
</trkpt>
<trkpt lat="31.6647000" lon="34.9213852">
<ele>342.000000</ele>
<time>2016-09-02T04:00:51.000Z</time>
</trkpt>
<trkpt lat="31.6647400" lon="34.9215021">
<ele>343.799988</ele>
<time>2016-09-02T04:00:53.000Z</time>
</trkpt>
<trkpt lat="31.6647796" lon="34.9216145">
<ele>345.799988</ele>
<time>2016-09-02T04:00:55.000Z</time>
</trkpt>
<trkpt lat="31.6648233" lon="34.9217206">
<ele>347.600006</ele>
<time>2016-09-02T04:00:57.000Z</time>
</trkpt>
<trkpt lat="31.6648642" lon="34.9218218">
<ele>349.399994</ele>
<time>2016-09-02T04:00:59.000Z</time>
</trkpt>
<trkpt lat="31.6648945" lon="34.9219704">
<ele>351.399994</ele>
<time>2016-09-02T04:01:02.000Z</time>
</trkpt>
<trkpt lat="31.6648585" lon="34.9221028">
<ele>352.200012</ele>
<time>2016-09-02T04:01:05.000Z</time>
</trkpt>
<trkpt lat="31.6647669" lon="34.9221786">
<ele>351.199982</ele>
<time>2016-09-02T04:01:08.000Z</time>
</trkpt>
<trkpt lat="31.6646462" lon="34.9221873">
<ele>348.799988</ele>
<time>2016-09-02T04:01:11.000Z</time>
</trkpt>
<trkpt lat="31.6645464" lon="34.9221773">
<ele>346.800018</ele>
<time>2016-09-02T04:01:13.000Z</time>
</trkpt>
<trkpt lat="31.6644323" lon="34.9221657">
<ele>344.599976</ele>
<time>2016-09-02T04:01:15.000Z</time>
</trkpt>
<trkpt lat="31.6643062" lon="34.9221538">
<ele>342.000000</ele>
<time>2016-09-02T04:01:17.000Z</time>
</trkpt>
<trkpt lat="31.6641693" lon="34.9221478">
<ele>339.399994</ele>
<time>2016-09-02T04:01:19.000Z</time>
</trkpt>
<trkpt lat="31.6640230" lon="34.9221434">
<ele>337.399994</ele>
<time>2016-09-02T04:01:21.000Z</time>
</trkpt>
<trkpt lat="31.6638796" lon="34.9221115">
<ele>336.000000</ele>
<time>2016-09-02T04:01:23.000Z</time>
</trkpt>
<trkpt lat="31.6637438" lon="34.9220303">
<ele>333.799988</ele>
<time>2016-09-02T04:01:25.000Z</time>
</trkpt>
<trkpt lat="31.6636115" lon="34.9219583">
<ele>331.799988</ele>
<time>2016-09-02T04:01:27.000Z</time>
</trkpt>
<trkpt lat="31.6634685" lon="34.9219332">
<ele>330.599976</ele>
<time>2016-09-02T04:01:29.000Z</time>
</trkpt>
<trkpt lat="31.6633201" lon="34.9219592">
<ele>330.399994</ele>
<time>2016-09-02T04:01:31.000Z</time>
</trkpt>
<trkpt lat="31.6631854" lon="34.9220077">
<ele>331.000000</ele>
<time>2016-09-02T04:01:33.000Z</time>
</trkpt>
<trkpt lat="31.6630588" lon="34.9220393">
<ele>333.200012</ele>
<time>2016-09-02T04:01:35.000Z</time>
</trkpt>
<trkpt lat="31.6629587" lon="34.9220059">
<ele>334.200043</ele>
<time>2016-09-02T04:01:37.000Z</time>
</trkpt>
<trkpt lat="31.6628769" lon="34.9219102">
<ele>334.399994</ele>
<time>2016-09-02T04:01:39.000Z</time>
</trkpt>
<trkpt lat="31.6628308" lon="34.9217787">
<ele>334.200043</ele>
<time>2016-09-02T04:01:41.000Z</time>
</trkpt>
<trkpt lat="31.6627994" lon="34.9216250">
<ele>333.000000</ele>
<time>2016-09-02T04:01:43.000Z</time>
</trkpt>
<trkpt lat="31.6627599" lon="34.9214589">
<ele>330.599976</ele>
<time>2016-09-02T04:01:45.000Z</time>
</trkpt>
<trkpt lat="31.6627019" lon="34.9212858">
<ele>328.799988</ele>
<time>2016-09-02T04:01:47.000Z</time>
</trkpt>
<trkpt lat="31.6626275" lon="34.9211211">
<ele>328.600006</ele>
<time>2016-09-02T04:01:49.000Z</time>
</trkpt>
<trkpt lat="31.6625617" lon="34.9209827">
<ele>329.000000</ele>
<time>2016-09-02T04:01:51.000Z</time>
</trkpt>
<trkpt lat="31.6625111" lon="34.9208736">
<ele>329.399994</ele>
<time>2016-09-02T04:01:53.000Z</time>
</trkpt>
<trkpt lat="31.6624607" lon="34.9207625">
<ele>329.600006</ele>
<time>2016-09-02T04:01:56.000Z</time>
</trkpt>
<trkpt lat="31.6624189" lon="34.9206487">
<ele>329.600006</ele>
<time>2016-09-02T04:02:00.000Z</time>
</trkpt>
<trkpt lat="31.6623728" lon="34.9205521">
<ele>330.000000</ele>
<time>2016-09-02T04:02:04.000Z</time>
</trkpt>
<trkpt lat="31.6623357" lon="34.9204454">
<ele>330.000000</ele>
<time>2016-09-02T04:02:08.000Z</time>
</trkpt>
<trkpt lat="31.6622969" lon="34.9203086">
<ele>329.200012</ele>
<time>2016-09-02T04:02:12.000Z</time>
</trkpt>
<trkpt lat="31.6622552" lon="34.9201919">
<ele>328.600006</ele>
<time>2016-09-02T04:02:15.000Z</time>
</trkpt>
<trkpt lat="31.6622137" lon="34.9200964">
<ele>328.400024</ele>
<time>2016-09-02T04:02:18.000Z</time>
</trkpt>
<trkpt lat="31.6621574" lon="34.9200034">
<ele>328.400024</ele>
<time>2016-09-02T04:02:23.000Z</time>
</trkpt>
<trkpt lat="31.6621019" lon="34.9199167">
<ele>328.400024</ele>
<time>2016-09-02T04:02:29.000Z</time>
</trkpt>
<trkpt lat="31.6620478" lon="34.9198223">
<ele>328.400024</ele>
<time>2016-09-02T04:02:35.000Z</time>
</trkpt>
<trkpt lat="31.6619889" lon="34.9197132">
<ele>328.200012</ele>
<time>2016-09-02T04:02:40.000Z</time>
</trkpt>
<trkpt lat="31.6619191" lon="34.9196434">
<ele>328.799988</ele>
<time>2016-09-02T04:02:44.000Z</time>
</trkpt>
<trkpt lat="31.6618346" lon="34.9196158">
<ele>330.000000</ele>
<time>2016-09-02T04:02:52.000Z</time>
</trkpt>
<trkpt lat="31.6617425" lon="34.9195789">
<ele>331.200012</ele>
<time>2016-09-02T04:02:59.000Z</time>
</trkpt>
<trkpt lat="31.6616567" lon="34.9195416">
<ele>332.200012</ele>
<time>2016-09-02T04:03:05.000Z</time>
</trkpt>
<trkpt lat="31.6615580" lon="34.9195113">
<ele>333.399994</ele>
<time>2016-09-02T04:03:11.000Z</time>
</trkpt>
<trkpt lat="31.6614581" lon="34.9195246">
<ele>333.600006</ele>
<time>2016-09-02T04:03:17.000Z</time>
</trkpt>
<trkpt lat="31.6614253" lon="34.9196171">
<ele>334.799988</ele>
<time>2016-09-02T04:03:23.000Z</time>
</trkpt>
<trkpt lat="31.6614602" lon="34.9197179">
<ele>336.600006</ele>
<time>2016-09-02T04:03:32.000Z</time>
</trkpt>
<trkpt lat="31.6614840" lon="34.9198056">
<ele>338.200012</ele>
<time>2016-09-02T04:03:43.000Z</time>
</trkpt>
<trkpt lat="31.6614929" lon="34.9199095">
<ele>340.000000</ele>
<time>2016-09-02T04:03:54.000Z</time>
</trkpt>
<trkpt lat="31.6614993" lon="34.9200206">
<ele>341.799988</ele>
<time>2016-09-02T04:04:04.000Z</time>
</trkpt>
<trkpt lat="31.6615121" lon="34.9201289">
<ele>343.600006</ele>
<time>2016-09-02T04:04:13.000Z</time>
</trkpt>
<trkpt lat="31.6615224" lon="34.9202415">
<ele>345.399963</ele>
<time>2016-09-02T04:04:21.000Z</time>
</trkpt>
<trkpt lat="31.6615254" lon="34.9203521">
<ele>347.200012</ele>
<time>2016-09-02T04:04:28.000Z</time>
</trkpt>
<trkpt lat="31.6615319" lon="34.9204712">
<ele>348.600006</ele>
<time>2016-09-02T04:04:37.000Z</time>
</trkpt>
<trkpt lat="31.6615373" lon="34.9205833">
<ele>349.600006</ele>
<time>2016-09-02T04:04:46.000Z</time>
</trkpt>
<trkpt lat="31.6615368" lon="34.9207023">
<ele>351.000000</ele>
<time>2016-09-02T04:04:55.000Z</time>
</trkpt>
<trkpt lat="31.6615071" lon="34.9208003">
<ele>352.200012</ele>
<time>2016-09-02T04:05:02.000Z</time>
</trkpt>
<trkpt lat="31.6614766" lon="34.9209075">
<ele>353.000000</ele>
<time>2016-09-02T04:05:09.000Z</time>
</trkpt>
<trkpt lat="31.6614157" lon="34.9209947">
<ele>353.400024</ele>
<time>2016-09-02T04:05:17.000Z</time>
</trkpt>
<trkpt lat="31.6613534" lon="34.9210670">
<ele>353.799988</ele>
<time>2016-09-02T04:05:25.000Z</time>
</trkpt>
<trkpt lat="31.6612677" lon="34.9211206">
<ele>355.399994</ele>
<time>2016-09-02T04:05:33.000Z</time>
</trkpt>
<trkpt lat="31.6611788" lon="34.9211700">
<ele>357.000000</ele>
<time>2016-09-02T04:05:38.000Z</time>
</trkpt>
<trkpt lat="31.6610854" lon="34.9211807">
<ele>357.799988</ele>
<time>2016-09-02T04:05:44.000Z</time>
</trkpt>
<trkpt lat="31.6609836" lon="34.9211867">
<ele>358.399994</ele>
<time>2016-09-02T04:05:51.000Z</time>
</trkpt>
<trkpt lat="31.6608867" lon="34.9211867">
<ele>358.799988</ele>
<time>2016-09-02T04:05:58.000Z</time>
</trkpt>
<trkpt lat="31.6607867" lon="34.9211882">
<ele>359.399994</ele>
<time>2016-09-02T04:06:06.000Z</time>
</trkpt>
<trkpt lat="31.6606953" lon="34.9211916">
<ele>360.000031</ele>
<time>2016-09-02T04:06:14.000Z</time>
</trkpt>
<trkpt lat="31.6605923" lon="34.9211960">
<ele>360.800018</ele>
<time>2016-09-02T04:06:22.000Z</time>
</trkpt>
<trkpt lat="31.6604944" lon="34.9212017">
<ele>361.799988</ele>
<time>2016-09-02T04:06:30.000Z</time>
</trkpt>
<trkpt lat="31.6603980" lon="34.9212184">
<ele>362.999969</ele>
<time>2016-09-02T04:06:38.000Z</time>
</trkpt>
<trkpt lat="31.6603001" lon="34.9212339">
<ele>364.200012</ele>
<time>2016-09-02T04:06:46.000Z</time>
</trkpt>
<trkpt lat="31.6602087" lon="34.9212352">
<ele>365.000000</ele>
<time>2016-09-02T04:06:53.000Z</time>
</trkpt>
<trkpt lat="31.6601117" lon="34.9212201">
<ele>365.399994</ele>
<time>2016-09-02T04:06:58.000Z</time>
</trkpt>
<trkpt lat="31.6599966" lon="34.9211785">
<ele>365.399994</ele>
<time>2016-09-02T04:07:02.000Z</time>
</trkpt>
<trkpt lat="31.6598954" lon="34.9211299">
<ele>364.799988</ele>
<time>2016-09-02T04:07:05.000Z</time>
</trkpt>
<trkpt lat="31.6597823" lon="34.9210771">
<ele>364.799988</ele>
<time>2016-09-02T04:07:08.000Z</time>
</trkpt>
<trkpt lat="31.6596694" lon="34.9210375">
<ele>365.200012</ele>
<time>2016-09-02T04:07:11.000Z</time>
</trkpt>
<trkpt lat="31.6595668" lon="34.9210101">
<ele>365.399994</ele>
<time>2016-09-02T04:07:14.000Z</time>
</trkpt>
<trkpt lat="31.6594782" lon="34.9209784">
<ele>365.399994</ele>
<time>2016-09-02T04:07:17.000Z</time>
</trkpt>
<trkpt lat="31.6593657" lon="34.9209479">
<ele>365.600006</ele>
<time>2016-09-02T04:07:21.000Z</time>
</trkpt>
<trkpt lat="31.6592682" lon="34.9209449">
<ele>366.399994</ele>
<time>2016-09-02T04:07:24.000Z</time>
</trkpt>
<trkpt lat="31.6591636" lon="34.9209677">
<ele>367.600006</ele>
<time>2016-09-02T04:07:27.000Z</time>
</trkpt>
<trkpt lat="31.6590833" lon="34.9210168">
<ele>369.200012</ele>
<time>2016-09-02T04:07:30.000Z</time>
</trkpt>
<trkpt lat="31.6590058" lon="34.9211051">
<ele>371.000000</ele>
<time>2016-09-02T04:07:34.000Z</time>
</trkpt>
<trkpt lat="31.6589426" lon="34.9212141">
<ele>372.399994</ele>
<time>2016-09-02T04:07:38.000Z</time>
</trkpt>
<trkpt lat="31.6588829" lon="34.9213202">
<ele>373.200043</ele>
<time>2016-09-02T04:07:42.000Z</time>
</trkpt>
<trkpt lat="31.6588365" lon="34.9214360">
<ele>373.799988</ele>
<time>2016-09-02T04:07:46.000Z</time>
</trkpt>
<trkpt lat="31.6587943" lon="34.9215423">
<ele>374.600006</ele>
<time>2016-09-02T04:07:50.000Z</time>
</trkpt>
<trkpt lat="31.6587432" lon="34.9216658">
<ele>375.200012</ele>
<time>2016-09-02T04:07:54.000Z</time>
</trkpt>
<trkpt lat="31.6586675" lon="34.9217953">
<ele>375.600006</ele>
<time>2016-09-02T04:07:57.000Z</time>
</trkpt>
<trkpt lat="31.6585821" lon="34.9218927">
<ele>375.200012</ele>
<time>2016-09-02T04:07:59.000Z</time>
</trkpt>
<trkpt lat="31.6584747" lon="34.9219778">
<ele>374.200012</ele>
<time>2016-09-02T04:08:01.000Z</time>
</trkpt>
<trkpt lat="31.6583518" lon="34.9220760">
<ele>373.200043</ele>
<time>2016-09-02T04:08:03.000Z</time>
</trkpt>
<trkpt lat="31.6582250" lon="34.9221907">
<ele>371.000000</ele>
<time>2016-09-02T04:08:05.000Z</time>
</trkpt>
<trkpt lat="31.6581200" lon="34.9223163">
<ele>368.799988</ele>
<time>2016-09-02T04:08:07.000Z</time>
</trkpt>
<trkpt lat="31.6580361" lon="34.9224287">
<ele>366.399994</ele>
<time>2016-09-02T04:08:09.000Z</time>
</trkpt>
<trkpt lat="31.6579536" lon="34.9225177">
<ele>364.200012</ele>
<time>2016-09-02T04:08:11.000Z</time>
</trkpt>
<trkpt lat="31.6578738" lon="34.9226066">
<ele>362.199982</ele>
<time>2016-09-02T04:08:13.000Z</time>
</trkpt>
<trkpt lat="31.6577775" lon="34.9226957">
<ele>361.799988</ele>
<time>2016-09-02T04:08:15.000Z</time>
</trkpt>
<trkpt lat="31.6576857" lon="34.9227536">
<ele>361.000000</ele>
<time>2016-09-02T04:08:17.000Z</time>
</trkpt>
<trkpt lat="31.6575659" lon="34.9227154">
<ele>359.000000</ele>
<time>2016-09-02T04:08:20.000Z</time>
</trkpt>
<trkpt lat="31.6574787" lon="34.9226713">
<ele>357.200012</ele>
<time>2016-09-02T04:08:22.000Z</time>
</trkpt>
<trkpt lat="31.6573748" lon="34.9226600">
<ele>355.599976</ele>
<time>2016-09-02T04:08:24.000Z</time>
</trkpt>
<trkpt lat="31.6572732" lon="34.9226666">
<ele>355.599976</ele>
<time>2016-09-02T04:08:26.000Z</time>
</trkpt>
<trkpt lat="31.6571725" lon="34.9226581">
<ele>355.799988</ele>
<time>2016-09-02T04:08:28.000Z</time>
</trkpt>
<trkpt lat="31.6570722" lon="34.9226328">
<ele>355.799988</ele>
<time>2016-09-02T04:08:30.000Z</time>
</trkpt>
<trkpt lat="31.6569833" lon="34.9226076">
<ele>355.799988</ele>
<time>2016-09-02T04:08:32.000Z</time>
</trkpt>
<trkpt lat="31.6568667" lon="34.9225692">
<ele>355.599976</ele>
<time>2016-09-02T04:08:35.000Z</time>
</trkpt>
<trkpt lat="31.6567570" lon="34.9225243">
<ele>355.399994</ele>
<time>2016-09-02T04:08:38.000Z</time>
</trkpt>
<trkpt lat="31.6566565" lon="34.9224669">
<ele>355.000000</ele>
<time>2016-09-02T04:08:41.000Z</time>
</trkpt>
<trkpt lat="31.6565660" lon="34.9224026">
<ele>354.399994</ele>
<time>2016-09-02T04:08:45.000Z</time>
</trkpt>
<trkpt lat="31.6564721" lon="34.9223298">
<ele>354.600006</ele>
<time>2016-09-02T04:08:49.000Z</time>
</trkpt>
<trkpt lat="31.6563862" lon="34.9222672">
<ele>355.000000</ele>
<time>2016-09-02T04:08:53.000Z</time>
</trkpt>
<trkpt lat="31.6563064" lon="34.9222097">
<ele>355.399994</ele>
<time>2016-09-02T04:08:58.000Z</time>
</trkpt>
<trkpt lat="31.6562132" lon="34.9221747">
<ele>356.200012</ele>
<time>2016-09-02T04:09:03.000Z</time>
</trkpt>
<trkpt lat="31.6561140" lon="34.9221346">
<ele>357.200012</ele>
<time>2016-09-02T04:09:08.000Z</time>
</trkpt>
<trkpt lat="31.6560133" lon="34.9220993">
<ele>358.000000</ele>
<time>2016-09-02T04:09:13.000Z</time>
</trkpt>
<trkpt lat="31.6559118" lon="34.9220780">
<ele>359.200043</ele>
<time>2016-09-02T04:09:17.000Z</time>
</trkpt>
<trkpt lat="31.6558154" lon="34.9220512">
<ele>360.000031</ele>
<time>2016-09-02T04:09:21.000Z</time>
</trkpt>
<trkpt lat="31.6557188" lon="34.9220263">
<ele>360.800018</ele>
<time>2016-09-02T04:09:25.000Z</time>
</trkpt>
<trkpt lat="31.6556204" lon="34.9220033">
<ele>362.199982</ele>
<time>2016-09-02T04:09:29.000Z</time>
</trkpt>
<trkpt lat="31.6555273" lon="34.9219773">
<ele>363.200012</ele>
<time>2016-09-02T04:09:33.000Z</time>
</trkpt>
<trkpt lat="31.6554178" lon="34.9219412">
<ele>364.000000</ele>
<time>2016-09-02T04:09:37.000Z</time>
</trkpt>
<trkpt lat="31.6553267" lon="34.9219109">
<ele>364.799988</ele>
<time>2016-09-02T04:09:40.000Z</time>
</trkpt>
<trkpt lat="31.6552282" lon="34.9218779">
<ele>365.600006</ele>
<time>2016-09-02T04:09:44.000Z</time>
</trkpt>
<trkpt lat="31.6551405" lon="34.9218461">
<ele>366.399994</ele>
<time>2016-09-02T04:09:49.000Z</time>
</trkpt>
<trkpt lat="31.6550415" lon="34.9218083">
<ele>367.200012</ele>
<time>2016-09-02T04:09:55.000Z</time>
</trkpt>
<trkpt lat="31.6549487" lon="34.9217848">
<ele>368.000000</ele>
<time>2016-09-02T04:10:01.000Z</time>
</trkpt>
<trkpt lat="31.6548455" lon="34.9217565">
<ele>369.000000</ele>
<time>2016-09-02T04:10:07.000Z</time>
</trkpt>
<trkpt lat="31.6547583" lon="34.9217114">
<ele>369.799988</ele>
<time>2016-09-02T04:10:14.000Z</time>
</trkpt>
<trkpt lat="31.6546742" lon="34.9216650">
<ele>370.799988</ele>
<time>2016-09-02T04:10:21.000Z</time>
</trkpt>
<trkpt lat="31.6545893" lon="34.9216125">
<ele>371.600006</ele>
<time>2016-09-02T04:10:28.000Z</time>
</trkpt>
<trkpt lat="31.6545021" lon="34.9215648">
<ele>372.600006</ele>
<time>2016-09-02T04:10:34.000Z</time>
</trkpt>
<trkpt lat="31.6544069" lon="34.9215110">
<ele>373.399994</ele>
<time>2016-09-02T04:10:40.000Z</time>
</trkpt>
<trkpt lat="31.6543167" lon="34.9215082">
<ele>374.800018</ele>
<time>2016-09-02T04:10:45.000Z</time>
</trkpt>
<trkpt lat="31.6542434" lon="34.9215672">
<ele>375.799988</ele>
<time>2016-09-02T04:10:50.000Z</time>
</trkpt>
<trkpt lat="31.6542075" lon="34.9216879">
<ele>376.600006</ele>
<time>2016-09-02T04:10:55.000Z</time>
</trkpt>
<trkpt lat="31.6541262" lon="34.9217647">
<ele>377.799957</ele>
<time>2016-09-02T04:11:00.000Z</time>
</trkpt>
<trkpt lat="31.6540620" lon="34.9216986">
<ele>378.200012</ele>
<time>2016-09-02T04:11:08.000Z</time>
</trkpt>
<trkpt lat="31.6540503" lon="34.9215919">
<ele>378.000000</ele>
<time>2016-09-02T04:11:13.000Z</time>
</trkpt>
<trkpt lat="31.6540375" lon="34.9214726">
<ele>377.799957</ele>
<time>2016-09-02T04:11:17.000Z</time>
</trkpt>
<trkpt lat="31.6540173" lon="34.9213497">
<ele>377.399994</ele>
<time>2016-09-02T04:11:21.000Z</time>
</trkpt>
<trkpt lat="31.6539977" lon="34.9212272">
<ele>376.999969</ele>
<time>2016-09-02T04:11:25.000Z</time>
</trkpt>
<trkpt lat="31.6539530" lon="34.9211030">
<ele>376.999969</ele>
<time>2016-09-02T04:11:29.000Z</time>
</trkpt>
<trkpt lat="31.6538974" lon="34.9209864">
<ele>376.999969</ele>
<time>2016-09-02T04:11:33.000Z</time>
</trkpt>
<trkpt lat="31.6538678" lon="34.9208863">
<ele>376.999969</ele>
<time>2016-09-02T04:11:36.000Z</time>
</trkpt>
<trkpt lat="31.6538667" lon="34.9207764">
<ele>377.200012</ele>
<time>2016-09-02T04:11:39.000Z</time>
</trkpt>
<trkpt lat="31.6539061" lon="34.9206692">
<ele>377.399994</ele>
<time>2016-09-02T04:11:42.000Z</time>
</trkpt>
<trkpt lat="31.6539541" lon="34.9205618">
<ele>377.600037</ele>
<time>2016-09-02T04:11:45.000Z</time>
</trkpt>
<trkpt lat="31.6539827" lon="34.9204433">
<ele>377.799957</ele>
<time>2016-09-02T04:11:48.000Z</time>
</trkpt>
<trkpt lat="31.6539860" lon="34.9203174">
<ele>378.200012</ele>
<time>2016-09-02T04:11:51.000Z</time>
</trkpt>
<trkpt lat="31.6539705" lon="34.9201957">
<ele>378.600006</ele>
<time>2016-09-02T04:11:54.000Z</time>
</trkpt>
<trkpt lat="31.6539424" lon="34.9200650">
<ele>379.000000</ele>
<time>2016-09-02T04:11:58.000Z</time>
</trkpt>
<trkpt lat="31.6539138" lon="34.9199249">
<ele>379.399994</ele>
<time>2016-09-02T04:12:02.000Z</time>
</trkpt>
<trkpt lat="31.6538942" lon="34.9198103">
<ele>379.600006</ele>
<time>2016-09-02T04:12:05.000Z</time>
</trkpt>
<trkpt lat="31.6538787" lon="34.9196893">
<ele>380.000000</ele>
<time>2016-09-02T04:12:08.000Z</time>
</trkpt>
<trkpt lat="31.6538640" lon="34.9195698">
<ele>380.399994</ele>
<time>2016-09-02T04:12:11.000Z</time>
</trkpt>
<trkpt lat="31.6538460" lon="34.9194512">
<ele>380.399994</ele>
<time>2016-09-02T04:12:14.000Z</time>
</trkpt>
<trkpt lat="31.6538285" lon="34.9193336">
<ele>380.200012</ele>
<time>2016-09-02T04:12:17.000Z</time>
</trkpt>
<trkpt lat="31.6538076" lon="34.9192235">
<ele>380.000000</ele>
<time>2016-09-02T04:12:20.000Z</time>
</trkpt>
<trkpt lat="31.6537842" lon="34.9191153">
<ele>379.799988</ele>
<time>2016-09-02T04:12:23.000Z</time>
</trkpt>
<trkpt lat="31.6537538" lon="34.9190024">
<ele>379.600006</ele>
<time>2016-09-02T04:12:26.000Z</time>
</trkpt>
<trkpt lat="31.6537181" lon="34.9188905">
<ele>379.399994</ele>
<time>2016-09-02T04:12:29.000Z</time>
</trkpt>
<trkpt lat="31.6536790" lon="34.9187794">
<ele>379.200012</ele>
<time>2016-09-02T04:12:32.000Z</time>
</trkpt>
<trkpt lat="31.6536220" lon="34.9186676">
<ele>378.400024</ele>
<time>2016-09-02T04:12:35.000Z</time>
</trkpt>
<trkpt lat="31.6535444" lon="34.9185586">
<ele>377.200012</ele>
<time>2016-09-02T04:12:38.000Z</time>
</trkpt>
<trkpt lat="31.6534626" lon="34.9184601">
<ele>376.000000</ele>
<time>2016-09-02T04:12:41.000Z</time>
</trkpt>
<trkpt lat="31.6533758" lon="34.9183576">
<ele>374.800018</ele>
<time>2016-09-02T04:12:44.000Z</time>
</trkpt>
<trkpt lat="31.6532768" lon="34.9182534">
<ele>373.600006</ele>
<time>2016-09-02T04:12:47.000Z</time>
</trkpt>
<trkpt lat="31.6532002" lon="34.9181941">
<ele>372.799988</ele>
<time>2016-09-02T04:12:49.000Z</time>
</trkpt>
<trkpt lat="31.6530711" lon="34.9181448">
<ele>373.799988</ele>
<time>2016-09-02T04:12:52.000Z</time>
</trkpt>
<trkpt lat="31.6529501" lon="34.9181122">
<ele>375.000000</ele>
<time>2016-09-02T04:12:55.000Z</time>
</trkpt>
<trkpt lat="31.6528368" lon="34.9180845">
<ele>376.000000</ele>
<time>2016-09-02T04:12:58.000Z</time>
</trkpt>
<trkpt lat="31.6527264" lon="34.9180562">
<ele>376.999969</ele>
<time>2016-09-02T04:13:01.000Z</time>
</trkpt>
<trkpt lat="31.6526175" lon="34.9180293">
<ele>378.200012</ele>
<time>2016-09-02T04:13:04.000Z</time>
</trkpt>
<trkpt lat="31.6525110" lon="34.9179967">
<ele>379.000000</ele>
<time>2016-09-02T04:13:07.000Z</time>
</trkpt>
<trkpt lat="31.6524017" lon="34.9179616">
<ele>380.000000</ele>
<time>2016-09-02T04:13:10.000Z</time>
</trkpt>
<trkpt lat="31.6522898" lon="34.9179211">
<ele>380.000000</ele>
<time>2016-09-02T04:13:13.000Z</time>
</trkpt>
<trkpt lat="31.6521767" lon="34.9178854">
<ele>379.799988</ele>
<time>2016-09-02T04:13:16.000Z</time>
</trkpt>
<trkpt lat="31.6520608" lon="34.9178523">
<ele>379.200012</ele>
<time>2016-09-02T04:13:19.000Z</time>
</trkpt>
<trkpt lat="31.6519413" lon="34.9178189">
<ele>378.600006</ele>
<time>2016-09-02T04:13:22.000Z</time>
</trkpt>
<trkpt lat="31.6518157" lon="34.9177828">
<ele>378.200012</ele>
<time>2016-09-02T04:13:25.000Z</time>
</trkpt>
<trkpt lat="31.6516827" lon="34.9177422">
<ele>377.399994</ele>
<time>2016-09-02T04:13:28.000Z</time>
</trkpt>
<trkpt lat="31.6515906" lon="34.9177118">
<ele>376.999969</ele>
<time>2016-09-02T04:13:30.000Z</time>
</trkpt>
<trkpt lat="31.6514974" lon="34.9176832">
<ele>376.999969</ele>
<time>2016-09-02T04:13:32.000Z</time>
</trkpt>
<trkpt lat="31.6514047" lon="34.9176549">
<ele>377.600037</ele>
<time>2016-09-02T04:13:34.000Z</time>
</trkpt>
<trkpt lat="31.6513143" lon="34.9176248">
<ele>378.200012</ele>
<time>2016-09-02T04:13:36.000Z</time>
</trkpt>
<trkpt lat="31.6512251" lon="34.9175917">
<ele>378.799988</ele>
<time>2016-09-02T04:13:38.000Z</time>
</trkpt>
<trkpt lat="31.6510924" lon="34.9175472">
<ele>378.799988</ele>
<time>2016-09-02T04:13:41.000Z</time>
</trkpt>
<trkpt lat="31.6510046" lon="34.9175186">
<ele>378.600006</ele>
<time>2016-09-02T04:13:43.000Z</time>
</trkpt>
<trkpt lat="31.6509162" lon="34.9174911">
<ele>378.600006</ele>
<time>2016-09-02T04:13:45.000Z</time>
</trkpt>
<trkpt lat="31.6508280" lon="34.9174639">
<ele>378.400024</ele>
<time>2016-09-02T04:13:47.000Z</time>
</trkpt>
<trkpt lat="31.6507400" lon="34.9174370">
<ele>378.400024</ele>
<time>2016-09-02T04:13:49.000Z</time>
</trkpt>
<trkpt lat="31.6506083" lon="34.9173948">
<ele>378.200012</ele>
<time>2016-09-02T04:13:52.000Z</time>
</trkpt>
<trkpt lat="31.6504772" lon="34.9173528">
<ele>378.200012</ele>
<time>2016-09-02T04:13:55.000Z</time>
</trkpt>
<trkpt lat="31.6503898" lon="34.9173233">
<ele>378.200012</ele>
<time>2016-09-02T04:13:57.000Z</time>
</trkpt>
<trkpt lat="31.6503017" lon="34.9172943">
<ele>378.200012</ele>
<time>2016-09-02T04:13:59.000Z</time>
</trkpt>
<trkpt lat="31.6502147" lon="34.9172643">
<ele>378.200012</ele>
<time>2016-09-02T04:14:01.000Z</time>
</trkpt>
<trkpt lat="31.6500843" lon="34.9172226">
<ele>378.200012</ele>
<time>2016-09-02T04:14:04.000Z</time>
</trkpt>
<trkpt lat="31.6499531" lon="34.9171773">
<ele>378.200012</ele>
<time>2016-09-02T04:14:07.000Z</time>
</trkpt>
<trkpt lat="31.6498230" lon="34.9171345">
<ele>378.200012</ele>
<time>2016-09-02T04:14:10.000Z</time>
</trkpt>
<trkpt lat="31.6496964" lon="34.9170863">
<ele>378.400024</ele>
<time>2016-09-02T04:14:13.000Z</time>
</trkpt>
<trkpt lat="31.6495698" lon="34.9170419">
<ele>378.200012</ele>
<time>2016-09-02T04:14:16.000Z</time>
</trkpt>
<trkpt lat="31.6494438" lon="34.9169966">
<ele>377.600037</ele>
<time>2016-09-02T04:14:19.000Z</time>
</trkpt>
<trkpt lat="31.6493210" lon="34.9169473">
<ele>376.999969</ele>
<time>2016-09-02T04:14:22.000Z</time>
</trkpt>
<trkpt lat="31.6491978" lon="34.9169000">
<ele>376.399994</ele>
<time>2016-09-02T04:14:25.000Z</time>
</trkpt>
<trkpt lat="31.6490766" lon="34.9168517">
<ele>375.600006</ele>
<time>2016-09-02T04:14:28.000Z</time>
</trkpt>
<trkpt lat="31.6489550" lon="34.9168042">
<ele>376.000000</ele>
<time>2016-09-02T04:14:31.000Z</time>
</trkpt>
<trkpt lat="31.6488373" lon="34.9167565">
<ele>376.999969</ele>
<time>2016-09-02T04:14:34.000Z</time>
</trkpt>
<trkpt lat="31.6487228" lon="34.9167002">
<ele>377.600037</ele>
<time>2016-09-02T04:14:37.000Z</time>
</trkpt>
<trkpt lat="31.6486090" lon="34.9166373">
<ele>378.200012</ele>
<time>2016-09-02T04:14:40.000Z</time>
</trkpt>
<trkpt lat="31.6484957" lon="34.9165809">
<ele>378.400024</ele>
<time>2016-09-02T04:14:43.000Z</time>
</trkpt>
<trkpt lat="31.6483850" lon="34.9165267">
<ele>378.200012</ele>
<time>2016-09-02T04:14:46.000Z</time>
</trkpt>
<trkpt lat="31.6482808" lon="34.9164739">
<ele>378.200012</ele>
<time>2016-09-02T04:14:49.000Z</time>
</trkpt>
<trkpt lat="31.6481773" lon="34.9164215">
<ele>378.200012</ele>
<time>2016-09-02T04:14:52.000Z</time>
</trkpt>
<trkpt lat="31.6480778" lon="34.9163676">
<ele>378.200012</ele>
<time>2016-09-02T04:14:55.000Z</time>
</trkpt>
<trkpt lat="31.6479748" lon="34.9163171">
<ele>378.200012</ele>
<time>2016-09-02T04:14:58.000Z</time>
</trkpt>
<trkpt lat="31.6478671" lon="34.9162685">
<ele>378.400024</ele>
<time>2016-09-02T04:15:01.000Z</time>
</trkpt>
<trkpt lat="31.6477655" lon="34.9162197">
<ele>378.400024</ele>
<time>2016-09-02T04:15:04.000Z</time>
</trkpt>
<trkpt lat="31.6476602" lon="34.9161853">
<ele>378.400024</ele>
<time>2016-09-02T04:15:07.000Z</time>
</trkpt>
<trkpt lat="31.6475474" lon="34.9161527">
<ele>378.400024</ele>
<time>2016-09-02T04:15:10.000Z</time>
</trkpt>
<trkpt lat="31.6474303" lon="34.9161281">
<ele>378.600006</ele>
<time>2016-09-02T04:15:13.000Z</time>
</trkpt>
<trkpt lat="31.6473267" lon="34.9161448">
<ele>378.600006</ele>
<time>2016-09-02T04:15:16.000Z</time>
</trkpt>
<trkpt lat="31.6472471" lon="34.9162109">
<ele>378.200012</ele>
<time>2016-09-02T04:15:20.000Z</time>
</trkpt>
<trkpt lat="31.6472738" lon="34.9163470">
<ele>379.200012</ele>
<time>2016-09-02T04:15:24.000Z</time>
</trkpt>
<trkpt lat="31.6473177" lon="34.9164603">
<ele>380.200012</ele>
<time>2016-09-02T04:15:28.000Z</time>
</trkpt>
<trkpt lat="31.6473646" lon="34.9165770">
<ele>381.200012</ele>
<time>2016-09-02T04:15:32.000Z</time>
</trkpt>
<trkpt lat="31.6474819" lon="34.9167667">
<ele>381.799988</ele>
<time>2016-09-02T04:26:01.000Z</time>
</trkpt>
<trkpt lat="31.6475199" lon="34.9168904">
<ele>382.200012</ele>
<time>2016-09-02T04:26:05.000Z</time>
</trkpt>
<trkpt lat="31.6475443" lon="34.9170019">
<ele>382.600006</ele>
<time>2016-09-02T04:26:08.000Z</time>
</trkpt>
<trkpt lat="31.6475780" lon="34.9171127">
<ele>382.799988</ele>
<time>2016-09-02T04:26:11.000Z</time>
</trkpt>
<trkpt lat="31.6476189" lon="34.9172291">
<ele>382.600006</ele>
<time>2016-09-02T04:26:14.000Z</time>
</trkpt>
<trkpt lat="31.6476402" lon="34.9173237">
<ele>382.600006</ele>
<time>2016-09-02T04:27:24.000Z</time>
</trkpt>
<trkpt lat="31.6476610" lon="34.9174473">
<ele>382.600006</ele>
<time>2016-09-02T04:27:29.000Z</time>
</trkpt>
<trkpt lat="31.6476863" lon="34.9175564">
<ele>382.399994</ele>
<time>2016-09-02T04:27:32.000Z</time>
</trkpt>
<trkpt lat="31.6476895" lon="34.9176796">
<ele>382.200012</ele>
<time>2016-09-02T04:27:35.000Z</time>
</trkpt>
<trkpt lat="31.6476118" lon="34.9177872">
<ele>382.200012</ele>
<time>2016-09-02T04:27:38.000Z</time>
</trkpt>
<trkpt lat="31.6474959" lon="34.9177967">
<ele>382.200012</ele>
<time>2016-09-02T04:27:41.000Z</time>
</trkpt>
<trkpt lat="31.6473871" lon="34.9177253">
<ele>382.200012</ele>
<time>2016-09-02T04:27:44.000Z</time>
</trkpt>
<trkpt lat="31.6472895" lon="34.9176765">
<ele>382.200012</ele>
<time>2016-09-02T04:27:46.000Z</time>
</trkpt>
<trkpt lat="31.6471667" lon="34.9176169">
<ele>381.799988</ele>
<time>2016-09-02T04:27:48.000Z</time>
</trkpt>
<trkpt lat="31.6470313" lon="34.9175528">
<ele>381.600006</ele>
<time>2016-09-02T04:27:50.000Z</time>
</trkpt>
<trkpt lat="31.6469109" lon="34.9174979">
<ele>381.200012</ele>
<time>2016-09-02T04:27:52.000Z</time>
</trkpt>
<trkpt lat="31.6468056" lon="34.9174502">
<ele>380.799988</ele>
<time>2016-09-02T04:27:54.000Z</time>
</trkpt>
<trkpt lat="31.6467116" lon="34.9174269">
<ele>380.200012</ele>
<time>2016-09-02T04:27:57.000Z</time>
</trkpt>
<trkpt lat="31.6466202" lon="34.9173987">
<ele>379.799988</ele>
<time>2016-09-02T04:28:22.000Z</time>
</trkpt>
<trkpt lat="31.6465261" lon="34.9173656">
<ele>379.200012</ele>
<time>2016-09-02T04:28:25.000Z</time>
</trkpt>
<trkpt lat="31.6464398" lon="34.9173846">
<ele>379.200012</ele>
<time>2016-09-02T04:28:28.000Z</time>
</trkpt>
<trkpt lat="31.6464574" lon="34.9174934">
<ele>378.400024</ele>
<time>2016-09-02T04:28:32.000Z</time>
</trkpt>
<trkpt lat="31.6465608" lon="34.9175342">
<ele>378.400024</ele>
<time>2016-09-02T04:28:35.000Z</time>
</trkpt>
<trkpt lat="31.6466552" lon="34.9175907">
<ele>378.799988</ele>
<time>2016-09-02T04:28:37.000Z</time>
</trkpt>
<trkpt lat="31.6467414" lon="34.9176952">
<ele>378.799988</ele>
<time>2016-09-02T04:28:39.000Z</time>
</trkpt>
<trkpt lat="31.6467969" lon="34.9178545">
<ele>378.200012</ele>
<time>2016-09-02T04:28:41.000Z</time>
</trkpt>
<trkpt lat="31.6468079" lon="34.9180410">
<ele>377.399994</ele>
<time>2016-09-02T04:28:43.000Z</time>
</trkpt>
<trkpt lat="31.6467962" lon="34.9181444">
<ele>376.799988</ele>
<time>2016-09-02T04:28:44.000Z</time>
</trkpt>
<trkpt lat="31.6467442" lon="34.9183607">
<ele>374.000031</ele>
<time>2016-09-02T04:28:46.000Z</time>
</trkpt>
<trkpt lat="31.6467158" lon="34.9184703">
<ele>372.399994</ele>
<time>2016-09-02T04:28:47.000Z</time>
</trkpt>
<trkpt lat="31.6466895" lon="34.9185826">
<ele>370.799988</ele>
<time>2016-09-02T04:28:48.000Z</time>
</trkpt>
<trkpt lat="31.6466645" lon="34.9186993">
<ele>369.200012</ele>
<time>2016-09-02T04:28:49.000Z</time>
</trkpt>
<trkpt lat="31.6466414" lon="34.9188190">
<ele>368.399994</ele>
<time>2016-09-02T04:28:50.000Z</time>
</trkpt>
<trkpt lat="31.6466191" lon="34.9189381">
<ele>367.600006</ele>
<time>2016-09-02T04:28:51.000Z</time>
</trkpt>
<trkpt lat="31.6465961" lon="34.9190556">
<ele>366.600037</ele>
<time>2016-09-02T04:28:52.000Z</time>
</trkpt>
<trkpt lat="31.6465317" lon="34.9192800">
<ele>364.600006</ele>
<time>2016-09-02T04:28:54.000Z</time>
</trkpt>
<trkpt lat="31.6464875" lon="34.9193902">
<ele>364.200012</ele>
<time>2016-09-02T04:28:55.000Z</time>
</trkpt>
<trkpt lat="31.6464379" lon="34.9195039">
<ele>364.000000</ele>
<time>2016-09-02T04:28:56.000Z</time>
</trkpt>
<trkpt lat="31.6463842" lon="34.9196201">
<ele>363.399994</ele>
<time>2016-09-02T04:28:57.000Z</time>
</trkpt>
<trkpt lat="31.6463278" lon="34.9197373">
<ele>363.399994</ele>
<time>2016-09-02T04:28:58.000Z</time>
</trkpt>
<trkpt lat="31.6462705" lon="34.9198557">
<ele>363.600006</ele>
<time>2016-09-02T04:28:59.000Z</time>
</trkpt>
<trkpt lat="31.6462139" lon="34.9199751">
<ele>363.799957</ele>
<time>2016-09-02T04:29:00.000Z</time>
</trkpt>
<trkpt lat="31.6461607" lon="34.9200950">
<ele>363.200012</ele>
<time>2016-09-02T04:29:01.000Z</time>
</trkpt>
<trkpt lat="31.6461120" lon="34.9202144">
<ele>361.600006</ele>
<time>2016-09-02T04:29:02.000Z</time>
</trkpt>
<trkpt lat="31.6460647" lon="34.9203314">
<ele>360.000031</ele>
<time>2016-09-02T04:29:03.000Z</time>
</trkpt>
<trkpt lat="31.6460157" lon="34.9204433">
<ele>358.799988</ele>
<time>2016-09-02T04:29:04.000Z</time>
</trkpt>
<trkpt lat="31.6459633" lon="34.9205531">
<ele>358.599976</ele>
<time>2016-09-02T04:29:05.000Z</time>
</trkpt>
<trkpt lat="31.6459088" lon="34.9206606">
<ele>358.000000</ele>
<time>2016-09-02T04:29:06.000Z</time>
</trkpt>
<trkpt lat="31.6458528" lon="34.9207679">
<ele>356.200012</ele>
<time>2016-09-02T04:29:07.000Z</time>
</trkpt>
<trkpt lat="31.6457956" lon="34.9208745">
<ele>354.399994</ele>
<time>2016-09-02T04:29:08.000Z</time>
</trkpt>
<trkpt lat="31.6457382" lon="34.9209802">
<ele>352.600037</ele>
<time>2016-09-02T04:29:09.000Z</time>
</trkpt>
<trkpt lat="31.6456831" lon="34.9210858">
<ele>351.199982</ele>
<time>2016-09-02T04:29:10.000Z</time>
</trkpt>
<trkpt lat="31.6456290" lon="34.9211907">
<ele>350.600006</ele>
<time>2016-09-02T04:29:11.000Z</time>
</trkpt>
<trkpt lat="31.6455741" lon="34.9212948">
<ele>350.000000</ele>
<time>2016-09-02T04:29:12.000Z</time>
</trkpt>
<trkpt lat="31.6455211" lon="34.9213998">
<ele>350.399994</ele>
<time>2016-09-02T04:29:13.000Z</time>
</trkpt>
<trkpt lat="31.6454731" lon="34.9215069">
<ele>350.799988</ele>
<time>2016-09-02T04:29:14.000Z</time>
</trkpt>
<trkpt lat="31.6454303" lon="34.9216135">
<ele>351.000000</ele>
<time>2016-09-02T04:29:15.000Z</time>
</trkpt>
<trkpt lat="31.6453919" lon="34.9217174">
<ele>351.399994</ele>
<time>2016-09-02T04:29:16.000Z</time>
</trkpt>
<trkpt lat="31.6453283" lon="34.9219266">
<ele>349.200012</ele>
<time>2016-09-02T04:29:18.000Z</time>
</trkpt>
<trkpt lat="31.6452978" lon="34.9220324">
<ele>347.799988</ele>
<time>2016-09-02T04:29:19.000Z</time>
</trkpt>
<trkpt lat="31.6452621" lon="34.9221377">
<ele>346.800018</ele>
<time>2016-09-02T04:29:20.000Z</time>
</trkpt>
<trkpt lat="31.6452202" lon="34.9222441">
<ele>346.000031</ele>
<time>2016-09-02T04:29:21.000Z</time>
</trkpt>
<trkpt lat="31.6451752" lon="34.9223543">
<ele>345.200012</ele>
<time>2016-09-02T04:29:22.000Z</time>
</trkpt>
<trkpt lat="31.6451295" lon="34.9224700">
<ele>344.000000</ele>
<time>2016-09-02T04:29:23.000Z</time>
</trkpt>
<trkpt lat="31.6450855" lon="34.9225914">
<ele>342.600006</ele>
<time>2016-09-02T04:29:24.000Z</time>
</trkpt>
<trkpt lat="31.6450476" lon="34.9227194">
<ele>341.399994</ele>
<time>2016-09-02T04:29:25.000Z</time>
</trkpt>
<trkpt lat="31.6450164" lon="34.9228495">
<ele>340.200012</ele>
<time>2016-09-02T04:29:26.000Z</time>
</trkpt>
<trkpt lat="31.6449876" lon="34.9229779">
<ele>338.399994</ele>
<time>2016-09-02T04:29:27.000Z</time>
</trkpt>
<trkpt lat="31.6449623" lon="34.9231030">
<ele>336.799988</ele>
<time>2016-09-02T04:29:28.000Z</time>
</trkpt>
<trkpt lat="31.6449458" lon="34.9232247">
<ele>335.399994</ele>
<time>2016-09-02T04:29:29.000Z</time>
</trkpt>
<trkpt lat="31.6449374" lon="34.9233426">
<ele>334.399994</ele>
<time>2016-09-02T04:29:30.000Z</time>
</trkpt>
<trkpt lat="31.6449371" lon="34.9234571">
<ele>333.399994</ele>
<time>2016-09-02T04:29:31.000Z</time>
</trkpt>
<trkpt lat="31.6449458" lon="34.9235684">
<ele>332.600006</ele>
<time>2016-09-02T04:29:32.000Z</time>
</trkpt>
<trkpt lat="31.6449643" lon="34.9236736">
<ele>332.000000</ele>
<time>2016-09-02T04:29:33.000Z</time>
</trkpt>
<trkpt lat="31.6449879" lon="34.9237716">
<ele>331.200012</ele>
<time>2016-09-02T04:29:34.000Z</time>
</trkpt>
<trkpt lat="31.6450252" lon="34.9239327">
<ele>329.399994</ele>
<time>2016-09-02T04:29:36.000Z</time>
</trkpt>
<trkpt lat="31.6450522" lon="34.9240557">
<ele>328.600006</ele>
<time>2016-09-02T04:29:38.000Z</time>
</trkpt>
<trkpt lat="31.6451066" lon="34.9241790">
<ele>328.000000</ele>
<time>2016-09-02T04:29:41.000Z</time>
</trkpt>
<trkpt lat="31.6452098" lon="34.9242410">
<ele>328.000000</ele>
<time>2016-09-02T04:29:44.000Z</time>
</trkpt>
<trkpt lat="31.6453300" lon="34.9243014">
<ele>328.200012</ele>
<time>2016-09-02T04:29:47.000Z</time>
</trkpt>
<trkpt lat="31.6454185" lon="34.9243520">
<ele>328.200012</ele>
<time>2016-09-02T04:29:49.000Z</time>
</trkpt>
<trkpt lat="31.6455132" lon="34.9244223">
<ele>328.200012</ele>
<time>2016-09-02T04:29:51.000Z</time>
</trkpt>
<trkpt lat="31.6456070" lon="34.9245138">
<ele>328.000000</ele>
<time>2016-09-02T04:29:53.000Z</time>
</trkpt>
<trkpt lat="31.6457058" lon="34.9246101">
<ele>327.600037</ele>
<time>2016-09-02T04:29:55.000Z</time>
</trkpt>
<trkpt lat="31.6458081" lon="34.9247027">
<ele>327.200012</ele>
<time>2016-09-02T04:29:57.000Z</time>
</trkpt>
<trkpt lat="31.6459048" lon="34.9247946">
<ele>326.600006</ele>
<time>2016-09-02T04:29:59.000Z</time>
</trkpt>
<trkpt lat="31.6459857" lon="34.9248828">
<ele>326.000000</ele>
<time>2016-09-02T04:30:01.000Z</time>
</trkpt>
<trkpt lat="31.6460601" lon="34.9249605">
<ele>325.600006</ele>
<time>2016-09-02T04:30:03.000Z</time>
</trkpt>
<trkpt lat="31.6461167" lon="34.9250566">
<ele>324.799957</ele>
<time>2016-09-02T04:30:05.000Z</time>
</trkpt>
<trkpt lat="31.6461774" lon="34.9251646">
<ele>323.999969</ele>
<time>2016-09-02T04:30:07.000Z</time>
</trkpt>
<trkpt lat="31.6462690" lon="34.9252430">
<ele>323.600006</ele>
<time>2016-09-02T04:30:09.000Z</time>
</trkpt>
<trkpt lat="31.6463627" lon="34.9253209">
<ele>323.200043</ele>
<time>2016-09-02T04:30:11.000Z</time>
</trkpt>
<trkpt lat="31.6464192" lon="34.9254319">
<ele>322.399994</ele>
<time>2016-09-02T04:30:13.000Z</time>
</trkpt>
<trkpt lat="31.6464027" lon="34.9255554">
<ele>321.200012</ele>
<time>2016-09-02T04:30:15.000Z</time>
</trkpt>
<trkpt lat="31.6463633" lon="34.9256641">
<ele>320.200012</ele>
<time>2016-09-02T04:30:17.000Z</time>
</trkpt>
<trkpt lat="31.6463473" lon="34.9257738">
<ele>319.200012</ele>
<time>2016-09-02T04:30:19.000Z</time>
</trkpt>
<trkpt lat="31.6463609" lon="34.9258808">
<ele>318.399994</ele>
<time>2016-09-02T04:30:21.000Z</time>
</trkpt>
<trkpt lat="31.6463970" lon="34.9259842">
<ele>317.600006</ele>
<time>2016-09-02T04:30:23.000Z</time>
</trkpt>
<trkpt lat="31.6464592" lon="34.9260838">
<ele>317.000000</ele>
<time>2016-09-02T04:30:25.000Z</time>
</trkpt>
<trkpt lat="31.6465352" lon="34.9261921">
<ele>316.399994</ele>
<time>2016-09-02T04:30:27.000Z</time>
</trkpt>
<trkpt lat="31.6466064" lon="34.9263268">
<ele>315.799988</ele>
<time>2016-09-02T04:30:29.000Z</time>
</trkpt>
<trkpt lat="31.6466603" lon="34.9264904">
<ele>315.600006</ele>
<time>2016-09-02T04:30:31.000Z</time>
</trkpt>
<trkpt lat="31.6466816" lon="34.9266802">
<ele>315.200012</ele>
<time>2016-09-02T04:30:33.000Z</time>
</trkpt>
<trkpt lat="31.6466627" lon="34.9268566">
<ele>315.000000</ele>
<time>2016-09-02T04:30:35.000Z</time>
</trkpt>
<trkpt lat="31.6466064" lon="34.9270065">
<ele>315.000000</ele>
<time>2016-09-02T04:30:37.000Z</time>
</trkpt>
<trkpt lat="31.6465384" lon="34.9271452">
<ele>315.200012</ele>
<time>2016-09-02T04:30:39.000Z</time>
</trkpt>
<trkpt lat="31.6464764" lon="34.9272803">
<ele>316.399994</ele>
<time>2016-09-02T04:30:41.000Z</time>
</trkpt>
<trkpt lat="31.6464204" lon="34.9274108">
<ele>317.799988</ele>
<time>2016-09-02T04:30:43.000Z</time>
</trkpt>
<trkpt lat="31.6463614" lon="34.9275341">
<ele>319.200012</ele>
<time>2016-09-02T04:30:45.000Z</time>
</trkpt>
<trkpt lat="31.6463018" lon="34.9276506">
<ele>320.600006</ele>
<time>2016-09-02T04:30:47.000Z</time>
</trkpt>
<trkpt lat="31.6462463" lon="34.9277643">
<ele>320.600006</ele>
<time>2016-09-02T04:30:49.000Z</time>
</trkpt>
<trkpt lat="31.6461892" lon="34.9278788">
<ele>320.000000</ele>
<time>2016-09-02T04:30:51.000Z</time>
</trkpt>
<trkpt lat="31.6461278" lon="34.9279908">
<ele>321.000031</ele>
<time>2016-09-02T04:30:53.000Z</time>
</trkpt>
<trkpt lat="31.6460654" lon="34.9281007">
<ele>322.600006</ele>
<time>2016-09-02T04:30:55.000Z</time>
</trkpt>
<trkpt lat="31.6460016" lon="34.9282086">
<ele>323.999969</ele>
<time>2016-09-02T04:30:57.000Z</time>
</trkpt>
<trkpt lat="31.6459407" lon="34.9283196">
<ele>323.000000</ele>
<time>2016-09-02T04:30:59.000Z</time>
</trkpt>
<trkpt lat="31.6458773" lon="34.9284269">
<ele>322.000000</ele>
<time>2016-09-02T04:31:01.000Z</time>
</trkpt>
<trkpt lat="31.6458085" lon="34.9285281">
<ele>321.000031</ele>
<time>2016-09-02T04:31:03.000Z</time>
</trkpt>
<trkpt lat="31.6457338" lon="34.9286232">
<ele>320.000000</ele>
<time>2016-09-02T04:31:05.000Z</time>
</trkpt>
<trkpt lat="31.6456546" lon="34.9287120">
<ele>320.200012</ele>
<time>2016-09-02T04:31:07.000Z</time>
</trkpt>
<trkpt lat="31.6455710" lon="34.9287945">
<ele>321.600006</ele>
<time>2016-09-02T04:31:09.000Z</time>
</trkpt>
<trkpt lat="31.6454879" lon="34.9288729">
<ele>323.600006</ele>
<time>2016-09-02T04:31:11.000Z</time>
</trkpt>
<trkpt lat="31.6454070" lon="34.9289509">
<ele>325.399994</ele>
<time>2016-09-02T04:31:13.000Z</time>
</trkpt>
<trkpt lat="31.6453274" lon="34.9290228">
<ele>327.399994</ele>
<time>2016-09-02T04:31:15.000Z</time>
</trkpt>
<trkpt lat="31.6452495" lon="34.9290897">
<ele>329.200012</ele>
<time>2016-09-02T04:31:17.000Z</time>
</trkpt>
<trkpt lat="31.6451758" lon="34.9291539">
<ele>329.200012</ele>
<time>2016-09-02T04:31:19.000Z</time>
</trkpt>
<trkpt lat="31.6450689" lon="34.9292446">
<ele>328.000000</ele>
<time>2016-09-02T04:31:22.000Z</time>
</trkpt>
<trkpt lat="31.6449651" lon="34.9293393">
<ele>326.999969</ele>
<time>2016-09-02T04:31:25.000Z</time>
</trkpt>
<trkpt lat="31.6448551" lon="34.9294308">
<ele>325.799988</ele>
<time>2016-09-02T04:31:28.000Z</time>
</trkpt>
<trkpt lat="31.6447790" lon="34.9294921">
<ele>326.199982</ele>
<time>2016-09-02T04:31:30.000Z</time>
</trkpt>
<trkpt lat="31.6447032" lon="34.9295568">
<ele>326.600006</ele>
<time>2016-09-02T04:31:32.000Z</time>
</trkpt>
<trkpt lat="31.6445904" lon="34.9296489">
<ele>328.400024</ele>
<time>2016-09-02T04:31:35.000Z</time>
</trkpt>
<trkpt lat="31.6444824" lon="34.9297401">
<ele>330.399994</ele>
<time>2016-09-02T04:31:38.000Z</time>
</trkpt>
<trkpt lat="31.6443733" lon="34.9298276">
<ele>332.399994</ele>
<time>2016-09-02T04:31:41.000Z</time>
</trkpt>
<trkpt lat="31.6442592" lon="34.9299090">
<ele>332.799988</ele>
<time>2016-09-02T04:31:44.000Z</time>
</trkpt>
<trkpt lat="31.6441848" lon="34.9299646">
<ele>332.000000</ele>
<time>2016-09-02T04:31:46.000Z</time>
</trkpt>
<trkpt lat="31.6440716" lon="34.9300417">
<ele>330.799988</ele>
<time>2016-09-02T04:31:49.000Z</time>
</trkpt>
<trkpt lat="31.6439598" lon="34.9301223">
<ele>330.599976</ele>
<time>2016-09-02T04:31:52.000Z</time>
</trkpt>
<trkpt lat="31.6438436" lon="34.9301980">
<ele>331.399963</ele>
<time>2016-09-02T04:31:55.000Z</time>
</trkpt>
<trkpt lat="31.6437625" lon="34.9302445">
<ele>331.600006</ele>
<time>2016-09-02T04:31:57.000Z</time>
</trkpt>
<trkpt lat="31.6436841" lon="34.9302943">
<ele>331.600006</ele>
<time>2016-09-02T04:31:59.000Z</time>
</trkpt>
<trkpt lat="31.6435722" lon="34.9303743">
<ele>331.399963</ele>
<time>2016-09-02T04:32:02.000Z</time>
</trkpt>
<trkpt lat="31.6434650" lon="34.9304538">
<ele>332.600006</ele>
<time>2016-09-02T04:32:05.000Z</time>
</trkpt>
<trkpt lat="31.6433605" lon="34.9305284">
<ele>334.399994</ele>
<time>2016-09-02T04:32:08.000Z</time>
</trkpt>
<trkpt lat="31.6432573" lon="34.9305966">
<ele>334.200043</ele>
<time>2016-09-02T04:32:11.000Z</time>
</trkpt>
<trkpt lat="31.6431544" lon="34.9306642">
<ele>334.000000</ele>
<time>2016-09-02T04:32:14.000Z</time>
</trkpt>
<trkpt lat="31.6430542" lon="34.9307364">
<ele>335.000031</ele>
<time>2016-09-02T04:32:17.000Z</time>
</trkpt>
<trkpt lat="31.6429575" lon="34.9308068">
<ele>336.000000</ele>
<time>2016-09-02T04:32:20.000Z</time>
</trkpt>
<trkpt lat="31.6428592" lon="34.9308728">
<ele>337.000000</ele>
<time>2016-09-02T04:32:23.000Z</time>
</trkpt>
<trkpt lat="31.6427640" lon="34.9309376">
<ele>336.600006</ele>
<time>2016-09-02T04:32:26.000Z</time>
</trkpt>
<trkpt lat="31.6426774" lon="34.9310019">
<ele>335.800018</ele>
<time>2016-09-02T04:32:29.000Z</time>
</trkpt>
<trkpt lat="31.6425896" lon="34.9310604">
<ele>335.200012</ele>
<time>2016-09-02T04:32:32.000Z</time>
</trkpt>
<trkpt lat="31.6424976" lon="34.9311243">
<ele>334.399994</ele>
<time>2016-09-02T04:32:35.000Z</time>
</trkpt>
<trkpt lat="31.6424026" lon="34.9311842">
<ele>333.799988</ele>
<time>2016-09-02T04:32:38.000Z</time>
</trkpt>
<trkpt lat="31.6423028" lon="34.9312381">
<ele>333.600006</ele>
<time>2016-09-02T04:32:41.000Z</time>
</trkpt>
<trkpt lat="31.6422014" lon="34.9312929">
<ele>334.799988</ele>
<time>2016-09-02T04:32:44.000Z</time>
</trkpt>
<trkpt lat="31.6420983" lon="34.9313502">
<ele>336.000000</ele>
<time>2016-09-02T04:32:47.000Z</time>
</trkpt>
<trkpt lat="31.6419941" lon="34.9314079">
<ele>337.399994</ele>
<time>2016-09-02T04:32:50.000Z</time>
</trkpt>
<trkpt lat="31.6418929" lon="34.9314699">
<ele>338.600006</ele>
<time>2016-09-02T04:32:53.000Z</time>
</trkpt>
<trkpt lat="31.6418034" lon="34.9315250">
<ele>339.600006</ele>
<time>2016-09-02T04:32:56.000Z</time>
</trkpt>
<trkpt lat="31.6417071" lon="34.9315647">
<ele>339.000000</ele>
<time>2016-09-02T04:32:59.000Z</time>
</trkpt>
<trkpt lat="31.6416072" lon="34.9316069">
<ele>338.200012</ele>
<time>2016-09-02T04:33:02.000Z</time>
</trkpt>
<trkpt lat="31.6415084" lon="34.9316563">
<ele>337.600006</ele>
<time>2016-09-02T04:33:05.000Z</time>
</trkpt>
<trkpt lat="31.6414098" lon="34.9317070">
<ele>338.399994</ele>
<time>2016-09-02T04:33:08.000Z</time>
</trkpt>
<trkpt lat="31.6413082" lon="34.9317567">
<ele>339.000000</ele>
<time>2016-09-02T04:33:11.000Z</time>
</trkpt>
<trkpt lat="31.6412019" lon="34.9318078">
<ele>339.200012</ele>
<time>2016-09-02T04:33:14.000Z</time>
</trkpt>
<trkpt lat="31.6410915" lon="34.9318620">
<ele>338.799957</ele>
<time>2016-09-02T04:33:17.000Z</time>
</trkpt>
<trkpt lat="31.6409790" lon="34.9319188">
<ele>338.399994</ele>
<time>2016-09-02T04:33:20.000Z</time>
</trkpt>
<trkpt lat="31.6408629" lon="34.9319737">
<ele>337.999969</ele>
<time>2016-09-02T04:33:23.000Z</time>
</trkpt>
<trkpt lat="31.6407449" lon="34.9320263">
<ele>337.600006</ele>
<time>2016-09-02T04:33:26.000Z</time>
</trkpt>
<trkpt lat="31.6406239" lon="34.9320742">
<ele>337.600006</ele>
<time>2016-09-02T04:33:29.000Z</time>
</trkpt>
<trkpt lat="31.6405029" lon="34.9321253">
<ele>339.000000</ele>
<time>2016-09-02T04:33:32.000Z</time>
</trkpt>
<trkpt lat="31.6403823" lon="34.9321736">
<ele>340.200012</ele>
<time>2016-09-02T04:33:35.000Z</time>
</trkpt>
<trkpt lat="31.6402617" lon="34.9322223">
<ele>341.399994</ele>
<time>2016-09-02T04:33:38.000Z</time>
</trkpt>
<trkpt lat="31.6401422" lon="34.9322698">
<ele>342.799988</ele>
<time>2016-09-02T04:33:41.000Z</time>
</trkpt>
<trkpt lat="31.6400247" lon="34.9323148">
<ele>343.200012</ele>
<time>2016-09-02T04:33:44.000Z</time>
</trkpt>
<trkpt lat="31.6399122" lon="34.9323616">
<ele>342.600006</ele>
<time>2016-09-02T04:33:47.000Z</time>
</trkpt>
<trkpt lat="31.6398000" lon="34.9324074">
<ele>342.200012</ele>
<time>2016-09-02T04:33:50.000Z</time>
</trkpt>
<trkpt lat="31.6396891" lon="34.9324538">
<ele>342.000000</ele>
<time>2016-09-02T04:33:53.000Z</time>
</trkpt>
<trkpt lat="31.6395851" lon="34.9325037">
<ele>341.600037</ele>
<time>2016-09-02T04:33:56.000Z</time>
</trkpt>
<trkpt lat="31.6394869" lon="34.9325543">
<ele>341.399994</ele>
<time>2016-09-02T04:33:59.000Z</time>
</trkpt>
<trkpt lat="31.6393896" lon="34.9326012">
<ele>341.200012</ele>
<time>2016-09-02T04:34:02.000Z</time>
</trkpt>
<trkpt lat="31.6392909" lon="34.9326574">
<ele>340.799988</ele>
<time>2016-09-02T04:34:05.000Z</time>
</trkpt>
<trkpt lat="31.6391902" lon="34.9327183">
<ele>340.399994</ele>
<time>2016-09-02T04:34:08.000Z</time>
</trkpt>
<trkpt lat="31.6390862" lon="34.9327766">
<ele>340.000000</ele>
<time>2016-09-02T04:34:11.000Z</time>
</trkpt>
<trkpt lat="31.6389869" lon="34.9328410">
<ele>339.600006</ele>
<time>2016-09-02T04:34:14.000Z</time>
</trkpt>
<trkpt lat="31.6388884" lon="34.9329093">
<ele>340.000000</ele>
<time>2016-09-02T04:34:17.000Z</time>
</trkpt>
<trkpt lat="31.6387877" lon="34.9329828">
<ele>341.399994</ele>
<time>2016-09-02T04:34:20.000Z</time>
</trkpt>
<trkpt lat="31.6386866" lon="34.9330617">
<ele>342.799988</ele>
<time>2016-09-02T04:34:23.000Z</time>
</trkpt>
<trkpt lat="31.6385849" lon="34.9331438">
<ele>344.200012</ele>
<time>2016-09-02T04:34:26.000Z</time>
</trkpt>
<trkpt lat="31.6384837" lon="34.9332308">
<ele>345.200012</ele>
<time>2016-09-02T04:34:29.000Z</time>
</trkpt>
<trkpt lat="31.6383854" lon="34.9333188">
<ele>344.799988</ele>
<time>2016-09-02T04:34:32.000Z</time>
</trkpt>
<trkpt lat="31.6382909" lon="34.9334127">
<ele>344.200012</ele>
<time>2016-09-02T04:34:35.000Z</time>
</trkpt>
<trkpt lat="31.6381935" lon="34.9335060">
<ele>343.600006</ele>
<time>2016-09-02T04:34:38.000Z</time>
</trkpt>
<trkpt lat="31.6380979" lon="34.9336011">
<ele>345.399963</ele>
<time>2016-09-02T04:34:41.000Z</time>
</trkpt>
<trkpt lat="31.6380076" lon="34.9336955">
<ele>345.799988</ele>
<time>2016-09-02T04:34:44.000Z</time>
</trkpt>
<trkpt lat="31.6379199" lon="34.9337940">
<ele>346.800018</ele>
<time>2016-09-02T04:34:47.000Z</time>
</trkpt>
<trkpt lat="31.6378327" lon="34.9338979">
<ele>348.799988</ele>
<time>2016-09-02T04:34:50.000Z</time>
</trkpt>
<trkpt lat="31.6377533" lon="34.9340110">
<ele>350.799988</ele>
<time>2016-09-02T04:34:53.000Z</time>
</trkpt>
<trkpt lat="31.6376786" lon="34.9341316">
<ele>351.600006</ele>
<time>2016-09-02T04:34:56.000Z</time>
</trkpt>
<trkpt lat="31.6376312" lon="34.9342190">
<ele>350.600006</ele>
<time>2016-09-02T04:34:58.000Z</time>
</trkpt>
<trkpt lat="31.6375618" lon="34.9343589">
<ele>349.000031</ele>
<time>2016-09-02T04:35:01.000Z</time>
</trkpt>
<trkpt lat="31.6375141" lon="34.9344539">
<ele>348.000000</ele>
<time>2016-09-02T04:35:03.000Z</time>
</trkpt>
<trkpt lat="31.6374684" lon="34.9345499">
<ele>346.800018</ele>
<time>2016-09-02T04:35:05.000Z</time>
</trkpt>
<trkpt lat="31.6374232" lon="34.9346451">
<ele>347.399994</ele>
<time>2016-09-02T04:35:07.000Z</time>
</trkpt>
<trkpt lat="31.6373768" lon="34.9347423">
<ele>346.800018</ele>
<time>2016-09-02T04:35:09.000Z</time>
</trkpt>
<trkpt lat="31.6373306" lon="34.9348392">
<ele>347.200012</ele>
<time>2016-09-02T04:35:11.000Z</time>
</trkpt>
<trkpt lat="31.6372852" lon="34.9349360">
<ele>348.399994</ele>
<time>2016-09-02T04:35:13.000Z</time>
</trkpt>
<trkpt lat="31.6372399" lon="34.9350305">
<ele>349.399994</ele>
<time>2016-09-02T04:35:15.000Z</time>
</trkpt>
<trkpt lat="31.6371940" lon="34.9351228">
<ele>350.600006</ele>
<time>2016-09-02T04:35:17.000Z</time>
</trkpt>
<trkpt lat="31.6371492" lon="34.9352134">
<ele>351.600006</ele>
<time>2016-09-02T04:35:19.000Z</time>
</trkpt>
<trkpt lat="31.6370853" lon="34.9353474">
<ele>350.600006</ele>
<time>2016-09-02T04:35:22.000Z</time>
</trkpt>
<trkpt lat="31.6370235" lon="34.9354762">
<ele>351.000000</ele>
<time>2016-09-02T04:35:25.000Z</time>
</trkpt>
<trkpt lat="31.6369624" lon="34.9356008">
<ele>352.200012</ele>
<time>2016-09-02T04:35:28.000Z</time>
</trkpt>
<trkpt lat="31.6369313" lon="34.9356360">
<ele>352.799957</ele>
<time>2016-09-02T04:36:33.000Z</time>
</trkpt>
<trkpt lat="31.6368593" lon="34.9355907">
<ele>353.000000</ele>
<time>2016-09-02T04:36:41.000Z</time>
</trkpt>
<trkpt lat="31.6367563" lon="34.9356508">
<ele>353.799988</ele>
<time>2016-09-02T04:36:56.000Z</time>
</trkpt>
<trkpt lat="31.6366651" lon="34.9357439">
<ele>352.200012</ele>
<time>2016-09-02T04:37:00.000Z</time>
</trkpt>
<trkpt lat="31.6365891" lon="34.9358052">
<ele>350.799988</ele>
<time>2016-09-02T04:37:03.000Z</time>
</trkpt>
<trkpt lat="31.6364807" lon="34.9358627">
<ele>350.200012</ele>
<time>2016-09-02T04:37:07.000Z</time>
</trkpt>
<trkpt lat="31.6363900" lon="34.9358906">
<ele>351.199982</ele>
<time>2016-09-02T04:37:10.000Z</time>
</trkpt>
<trkpt lat="31.6362995" lon="34.9359230">
<ele>352.200012</ele>
<time>2016-09-02T04:37:13.000Z</time>
</trkpt>
<trkpt lat="31.6362152" lon="34.9359727">
<ele>352.799957</ele>
<time>2016-09-02T04:37:16.000Z</time>
</trkpt>
<trkpt lat="31.6361169" lon="34.9360530">
<ele>352.600037</ele>
<time>2016-09-02T04:37:20.000Z</time>
</trkpt>
<trkpt lat="31.6360116" lon="34.9361198">
<ele>352.600037</ele>
<time>2016-09-02T04:37:24.000Z</time>
</trkpt>
<trkpt lat="31.6359249" lon="34.9361518">
<ele>353.000000</ele>
<time>2016-09-02T04:37:27.000Z</time>
</trkpt>
<trkpt lat="31.6358100" lon="34.9361680">
<ele>353.799988</ele>
<time>2016-09-02T04:37:31.000Z</time>
</trkpt>
<trkpt lat="31.6356980" lon="34.9361843">
<ele>354.799988</ele>
<time>2016-09-02T04:37:35.000Z</time>
</trkpt>
<trkpt lat="31.6356095" lon="34.9361662">
<ele>355.000000</ele>
<time>2016-09-02T04:37:39.000Z</time>
</trkpt>
<trkpt lat="31.6355105" lon="34.9361747">
<ele>355.200012</ele>
<time>2016-09-02T04:37:45.000Z</time>
</trkpt>
<trkpt lat="31.6354442" lon="34.9362577">
<ele>354.600006</ele>
<time>2016-09-02T04:37:52.000Z</time>
</trkpt>
<trkpt lat="31.6353907" lon="34.9363768">
<ele>354.200012</ele>
<time>2016-09-02T04:39:08.000Z</time>
</trkpt>
<trkpt lat="31.6353523" lon="34.9364771">
<ele>354.000000</ele>
<time>2016-09-02T04:39:12.000Z</time>
</trkpt>
<trkpt lat="31.6353125" lon="34.9365930">
<ele>353.600006</ele>
<time>2016-09-02T04:39:16.000Z</time>
</trkpt>
<trkpt lat="31.6352733" lon="34.9367251">
<ele>353.400024</ele>
<time>2016-09-02T04:39:20.000Z</time>
</trkpt>
<trkpt lat="31.6352412" lon="34.9368304">
<ele>353.600006</ele>
<time>2016-09-02T04:39:23.000Z</time>
</trkpt>
<trkpt lat="31.6351950" lon="34.9369258">
<ele>354.000000</ele>
<time>2016-09-02T04:39:26.000Z</time>
</trkpt>
<trkpt lat="31.6351355" lon="34.9370082">
<ele>354.399994</ele>
<time>2016-09-02T04:39:29.000Z</time>
</trkpt>
<trkpt lat="31.6350678" lon="34.9370871">
<ele>355.000000</ele>
<time>2016-09-02T04:39:32.000Z</time>
</trkpt>
<trkpt lat="31.6350057" lon="34.9371727">
<ele>356.399963</ele>
<time>2016-09-02T04:39:35.000Z</time>
</trkpt>
<trkpt lat="31.6349440" lon="34.9372645">
<ele>357.000000</ele>
<time>2016-09-02T04:39:38.000Z</time>
</trkpt>
<trkpt lat="31.6348875" lon="34.9373527">
<ele>357.200012</ele>
<time>2016-09-02T04:39:41.000Z</time>
</trkpt>
<trkpt lat="31.6348299" lon="34.9374371">
<ele>357.600006</ele>
<time>2016-09-02T04:39:44.000Z</time>
</trkpt>
<trkpt lat="31.6347671" lon="34.9375178">
<ele>358.799988</ele>
<time>2016-09-02T04:39:47.000Z</time>
</trkpt>
<trkpt lat="31.6347043" lon="34.9376126">
<ele>360.200012</ele>
<time>2016-09-02T04:39:51.000Z</time>
</trkpt>
<trkpt lat="31.6346402" lon="34.9377283">
<ele>361.200012</ele>
<time>2016-09-02T04:39:55.000Z</time>
</trkpt>
<trkpt lat="31.6345683" lon="34.9378336">
<ele>361.799988</ele>
<time>2016-09-02T04:39:59.000Z</time>
</trkpt>
<trkpt lat="31.6344951" lon="34.9379235">
<ele>362.600006</ele>
<time>2016-09-02T04:40:03.000Z</time>
</trkpt>
<trkpt lat="31.6344476" lon="34.9380133">
<ele>364.200012</ele>
<time>2016-09-02T04:40:08.000Z</time>
</trkpt>
<trkpt lat="31.6344072" lon="34.9381387">
<ele>366.000000</ele>
<time>2016-09-02T04:40:13.000Z</time>
</trkpt>
<trkpt lat="31.6343665" lon="34.9382577">
<ele>367.799988</ele>
<time>2016-09-02T04:40:17.000Z</time>
</trkpt>
<trkpt lat="31.6343301" lon="34.9383824">
<ele>367.200012</ele>
<time>2016-09-02T04:40:21.000Z</time>
</trkpt>
<trkpt lat="31.6342900" lon="34.9384799">
<ele>366.600037</ele>
<time>2016-09-02T04:40:25.000Z</time>
</trkpt>
<trkpt lat="31.6342491" lon="34.9385964">
<ele>365.799988</ele>
<time>2016-09-02T04:40:29.000Z</time>
</trkpt>
<trkpt lat="31.6342050" lon="34.9387096">
<ele>365.200012</ele>
<time>2016-09-02T04:40:33.000Z</time>
</trkpt>
<trkpt lat="31.6341460" lon="34.9388037">
<ele>365.600006</ele>
<time>2016-09-02T04:40:37.000Z</time>
</trkpt>
<trkpt lat="31.6340805" lon="34.9388936">
<ele>365.399994</ele>
<time>2016-09-02T04:40:42.000Z</time>
</trkpt>
<trkpt lat="31.6340244" lon="34.9389879">
<ele>365.000000</ele>
<time>2016-09-02T04:40:48.000Z</time>
</trkpt>
<trkpt lat="31.6339677" lon="34.9390852">
<ele>366.399994</ele>
<time>2016-09-02T04:40:53.000Z</time>
</trkpt>
<trkpt lat="31.6339133" lon="34.9391960">
<ele>368.000000</ele>
<time>2016-09-02T04:40:58.000Z</time>
</trkpt>
<trkpt lat="31.6338725" lon="34.9393005">
<ele>369.200012</ele>
<time>2016-09-02T04:41:02.000Z</time>
</trkpt>
<trkpt lat="31.6338259" lon="34.9394195">
<ele>370.399963</ele>
<time>2016-09-02T04:41:06.000Z</time>
</trkpt>
<trkpt lat="31.6337835" lon="34.9395434">
<ele>370.200012</ele>
<time>2016-09-02T04:41:10.000Z</time>
</trkpt>
<trkpt lat="31.6337502" lon="34.9396531">
<ele>371.000000</ele>
<time>2016-09-02T04:41:14.000Z</time>
</trkpt>
<trkpt lat="31.6337118" lon="34.9397733">
<ele>372.200012</ele>
<time>2016-09-02T04:41:18.000Z</time>
</trkpt>
<trkpt lat="31.6336729" lon="34.9398965">
<ele>373.600006</ele>
<time>2016-09-02T04:41:22.000Z</time>
</trkpt>
<trkpt lat="31.6336175" lon="34.9400158">
<ele>374.800018</ele>
<time>2016-09-02T04:41:26.000Z</time>
</trkpt>
<trkpt lat="31.6335404" lon="34.9401137">
<ele>374.399994</ele>
<time>2016-09-02T04:41:30.000Z</time>
</trkpt>
<trkpt lat="31.6334588" lon="34.9401924">
<ele>374.000031</ele>
<time>2016-09-02T04:41:34.000Z</time>
</trkpt>
<trkpt lat="31.6333726" lon="34.9402481">
<ele>373.799988</ele>
<time>2016-09-02T04:41:38.000Z</time>
</trkpt>
<trkpt lat="31.6332806" lon="34.9403110">
<ele>373.399994</ele>
<time>2016-09-02T04:41:44.000Z</time>
</trkpt>
<trkpt lat="31.6331860" lon="34.9403577">
<ele>373.399994</ele>
<time>2016-09-02T04:41:49.000Z</time>
</trkpt>
<trkpt lat="31.6330913" lon="34.9404176">
<ele>374.399994</ele>
<time>2016-09-02T04:41:54.000Z</time>
</trkpt>
<trkpt lat="31.6330041" lon="34.9404858">
<ele>375.799988</ele>
<time>2016-09-02T04:41:59.000Z</time>
</trkpt>
<trkpt lat="31.6329239" lon="34.9405717">
<ele>376.999969</ele>
<time>2016-09-02T04:42:04.000Z</time>
</trkpt>
<trkpt lat="31.6328525" lon="34.9406646">
<ele>378.200012</ele>
<time>2016-09-02T04:42:09.000Z</time>
</trkpt>
<trkpt lat="31.6327929" lon="34.9407503">
<ele>379.200012</ele>
<time>2016-09-02T04:42:13.000Z</time>
</trkpt>
<trkpt lat="31.6327305" lon="34.9408368">
<ele>379.399994</ele>
<time>2016-09-02T04:42:17.000Z</time>
</trkpt>
<trkpt lat="31.6326644" lon="34.9409138">
<ele>378.600006</ele>
<time>2016-09-02T04:42:21.000Z</time>
</trkpt>
<trkpt lat="31.6325793" lon="34.9409962">
<ele>377.600037</ele>
<time>2016-09-02T04:42:26.000Z</time>
</trkpt>
<trkpt lat="31.6325032" lon="34.9410528">
<ele>376.999969</ele>
<time>2016-09-02T04:42:30.000Z</time>
</trkpt>
<trkpt lat="31.6324073" lon="34.9411099">
<ele>376.399994</ele>
<time>2016-09-02T04:42:35.000Z</time>
</trkpt>
<trkpt lat="31.6323174" lon="34.9411844">
<ele>375.799988</ele>
<time>2016-09-02T04:42:40.000Z</time>
</trkpt>
<trkpt lat="31.6322350" lon="34.9412663">
<ele>376.000000</ele>
<time>2016-09-02T04:42:45.000Z</time>
</trkpt>
<trkpt lat="31.6321638" lon="34.9413588">
<ele>376.999969</ele>
<time>2016-09-02T04:42:50.000Z</time>
</trkpt>
<trkpt lat="31.6320962" lon="34.9414552">
<ele>377.799957</ele>
<time>2016-09-02T04:42:55.000Z</time>
</trkpt>
<trkpt lat="31.6320377" lon="34.9415703">
<ele>378.799988</ele>
<time>2016-09-02T04:43:00.000Z</time>
</trkpt>
<trkpt lat="31.6319963" lon="34.9416662">
<ele>379.600006</ele>
<time>2016-09-02T04:43:04.000Z</time>
</trkpt>
<trkpt lat="31.6319572" lon="34.9417592">
<ele>380.000000</ele>
<time>2016-09-02T04:43:08.000Z</time>
</trkpt>
<trkpt lat="31.6318963" lon="34.9418646">
<ele>380.399994</ele>
<time>2016-09-02T04:43:13.000Z</time>
</trkpt>
<trkpt lat="31.6318305" lon="34.9419719">
<ele>380.799988</ele>
<time>2016-09-02T04:43:18.000Z</time>
</trkpt>
<trkpt lat="31.6317544" lon="34.9420568">
<ele>381.200012</ele>
<time>2016-09-02T04:43:24.000Z</time>
</trkpt>
<trkpt lat="31.6316810" lon="34.9421370">
<ele>382.200012</ele>
<time>2016-09-02T04:43:29.000Z</time>
</trkpt>
<trkpt lat="31.6316046" lon="34.9422189">
<ele>382.799988</ele>
<time>2016-09-02T04:43:34.000Z</time>
</trkpt>
<trkpt lat="31.6315445" lon="34.9423075">
<ele>382.399994</ele>
<time>2016-09-02T04:43:39.000Z</time>
</trkpt>
<trkpt lat="31.6315004" lon="34.9424183">
<ele>382.799988</ele>
<time>2016-09-02T04:43:44.000Z</time>
</trkpt>
<trkpt lat="31.6314642" lon="34.9425315">
<ele>383.799988</ele>
<time>2016-09-02T04:43:49.000Z</time>
</trkpt>
<trkpt lat="31.6314275" lon="34.9426477">
<ele>384.600006</ele>
<time>2016-09-02T04:43:54.000Z</time>
</trkpt>
<trkpt lat="31.6313797" lon="34.9427540">
<ele>385.800018</ele>
<time>2016-09-02T04:43:59.000Z</time>
</trkpt>
<trkpt lat="31.6313224" lon="34.9428440">
<ele>385.600006</ele>
<time>2016-09-02T04:44:04.000Z</time>
</trkpt>
<trkpt lat="31.6312573" lon="34.9429276">
<ele>385.800018</ele>
<time>2016-09-02T04:44:10.000Z</time>
</trkpt>
<trkpt lat="31.6311855" lon="34.9430239">
<ele>387.399994</ele>
<time>2016-09-02T04:44:16.000Z</time>
</trkpt>
<trkpt lat="31.6311122" lon="34.9431160">
<ele>389.000000</ele>
<time>2016-09-02T04:44:22.000Z</time>
</trkpt>
<trkpt lat="31.6310406" lon="34.9432085">
<ele>390.600006</ele>
<time>2016-09-02T04:44:28.000Z</time>
</trkpt>
<trkpt lat="31.6309688" lon="34.9433010">
<ele>390.799988</ele>
<time>2016-09-02T04:44:34.000Z</time>
</trkpt>
<trkpt lat="31.6309029" lon="34.9433742">
<ele>390.399994</ele>
<time>2016-09-02T04:44:39.000Z</time>
</trkpt>
<trkpt lat="31.6308424" lon="34.9434583">
<ele>390.000000</ele>
<time>2016-09-02T04:44:44.000Z</time>
</trkpt>
<trkpt lat="31.6307928" lon="34.9435512">
<ele>389.799988</ele>
<time>2016-09-02T04:44:49.000Z</time>
</trkpt>
<trkpt lat="31.6307529" lon="34.9436542">
<ele>389.399994</ele>
<time>2016-09-02T04:44:55.000Z</time>
</trkpt>
<trkpt lat="31.6307111" lon="34.9437532">
<ele>389.200012</ele>
<time>2016-09-02T04:45:02.000Z</time>
</trkpt>
<trkpt lat="31.6306640" lon="34.9438551">
<ele>389.600006</ele>
<time>2016-09-02T04:45:09.000Z</time>
</trkpt>
<trkpt lat="31.6306183" lon="34.9439522">
<ele>390.399994</ele>
<time>2016-09-02T04:45:16.000Z</time>
</trkpt>
<trkpt lat="31.6305455" lon="34.9440436">
<ele>391.200012</ele>
<time>2016-09-02T04:45:22.000Z</time>
</trkpt>
<trkpt lat="31.6305112" lon="34.9441487">
<ele>391.799988</ele>
<time>2016-09-02T04:45:27.000Z</time>
</trkpt>
<trkpt lat="31.6304584" lon="34.9442365">
<ele>392.400024</ele>
<time>2016-09-02T04:45:32.000Z</time>
</trkpt>
<trkpt lat="31.6303897" lon="34.9443148">
<ele>392.600006</ele>
<time>2016-09-02T04:45:38.000Z</time>
</trkpt>
<trkpt lat="31.6303143" lon="34.9443717">
<ele>391.200012</ele>
<time>2016-09-02T04:46:05.000Z</time>
</trkpt>
<trkpt lat="31.6302478" lon="34.9443702">
<ele>390.399994</ele>
<time>2016-09-02T04:47:10.000Z</time>
</trkpt>
<trkpt lat="31.6301332" lon="34.9443697">
<ele>389.200012</ele>
<time>2016-09-02T04:47:33.000Z</time>
</trkpt>
<trkpt lat="31.6300306" lon="34.9443602">
<ele>388.200012</ele>
<time>2016-09-02T04:47:36.000Z</time>
</trkpt>
<trkpt lat="31.6299210" lon="34.9443527">
<ele>387.199982</ele>
<time>2016-09-02T04:47:39.000Z</time>
</trkpt>
<trkpt lat="31.6298277" lon="34.9443412">
<ele>386.200012</ele>
<time>2016-09-02T04:47:41.000Z</time>
</trkpt>
<trkpt lat="31.6297305" lon="34.9443320">
<ele>385.399994</ele>
<time>2016-09-02T04:47:43.000Z</time>
</trkpt>
<trkpt lat="31.6296118" lon="34.9443351">
<ele>384.200043</ele>
<time>2016-09-02T04:47:46.000Z</time>
</trkpt>
<trkpt lat="31.6295207" lon="34.9443826">
<ele>382.600006</ele>
<time>2016-09-02T04:47:50.000Z</time>
</trkpt>
<trkpt lat="31.6294049" lon="34.9444386">
<ele>380.399994</ele>
<time>2016-09-02T04:47:53.000Z</time>
</trkpt>
<trkpt lat="31.6293100" lon="34.9444522">
<ele>379.000000</ele>
<time>2016-09-02T04:47:55.000Z</time>
</trkpt>
<trkpt lat="31.6291777" lon="34.9444204">
<ele>378.000000</ele>
<time>2016-09-02T04:47:58.000Z</time>
</trkpt>
<trkpt lat="31.6290843" lon="34.9443373">
<ele>377.799957</ele>
<time>2016-09-02T04:48:01.000Z</time>
</trkpt>
<trkpt lat="31.6290019" lon="34.9442572">
<ele>377.799957</ele>
<time>2016-09-02T04:48:04.000Z</time>
</trkpt>
<trkpt lat="31.6289188" lon="34.9441721">
<ele>377.399994</ele>
<time>2016-09-02T04:48:07.000Z</time>
</trkpt>
<trkpt lat="31.6288292" lon="34.9440832">
<ele>376.999969</ele>
<time>2016-09-02T04:48:10.000Z</time>
</trkpt>
<trkpt lat="31.6287289" lon="34.9439864">
<ele>376.399994</ele>
<time>2016-09-02T04:48:13.000Z</time>
</trkpt>
<trkpt lat="31.6286509" lon="34.9439004">
<ele>376.199982</ele>
<time>2016-09-02T04:48:15.000Z</time>
</trkpt>
<trkpt lat="31.6285752" lon="34.9438045">
<ele>376.199982</ele>
<time>2016-09-02T04:48:17.000Z</time>
</trkpt>
<trkpt lat="31.6285023" lon="34.9437111">
<ele>376.199982</ele>
<time>2016-09-02T04:48:19.000Z</time>
</trkpt>
<trkpt lat="31.6284305" lon="34.9436211">
<ele>376.199982</ele>
<time>2016-09-02T04:48:21.000Z</time>
</trkpt>
<trkpt lat="31.6283567" lon="34.9435375">
<ele>376.199982</ele>
<time>2016-09-02T04:48:23.000Z</time>
</trkpt>
<trkpt lat="31.6282806" lon="34.9434539">
<ele>376.199982</ele>
<time>2016-09-02T04:48:25.000Z</time>
</trkpt>
<trkpt lat="31.6281998" lon="34.9433706">
<ele>376.000000</ele>
<time>2016-09-02T04:48:27.000Z</time>
</trkpt>
<trkpt lat="31.6281168" lon="34.9432918">
<ele>375.600006</ele>
<time>2016-09-02T04:48:29.000Z</time>
</trkpt>
<trkpt lat="31.6280405" lon="34.9432313">
<ele>375.000000</ele>
<time>2016-09-02T04:48:31.000Z</time>
</trkpt>
<trkpt lat="31.6279246" lon="34.9431377">
<ele>374.000031</ele>
<time>2016-09-02T04:48:34.000Z</time>
</trkpt>
<trkpt lat="31.6278360" lon="34.9430703">
<ele>373.200043</ele>
<time>2016-09-02T04:48:36.000Z</time>
</trkpt>
<trkpt lat="31.6277497" lon="34.9429953">
<ele>372.600006</ele>
<time>2016-09-02T04:48:38.000Z</time>
</trkpt>
<trkpt lat="31.6276587" lon="34.9429139">
<ele>372.000000</ele>
<time>2016-09-02T04:48:41.000Z</time>
</trkpt>
<trkpt lat="31.6275851" lon="34.9428459">
<ele>371.399994</ele>
<time>2016-09-02T04:48:43.000Z</time>
</trkpt>
<trkpt lat="31.6274920" lon="34.9427794">
<ele>370.399963</ele>
<time>2016-09-02T04:48:45.000Z</time>
</trkpt>
<trkpt lat="31.6273921" lon="34.9427051">
<ele>369.200012</ele>
<time>2016-09-02T04:48:47.000Z</time>
</trkpt>
<trkpt lat="31.6272826" lon="34.9426307">
<ele>367.600006</ele>
<time>2016-09-02T04:48:49.000Z</time>
</trkpt>
<trkpt lat="31.6271743" lon="34.9425598">
<ele>365.799988</ele>
<time>2016-09-02T04:48:51.000Z</time>
</trkpt>
<trkpt lat="31.6270769" lon="34.9424765">
<ele>364.600006</ele>
<time>2016-09-02T04:48:53.000Z</time>
</trkpt>
<trkpt lat="31.6269815" lon="34.9423959">
<ele>363.200012</ele>
<time>2016-09-02T04:48:55.000Z</time>
</trkpt>
<trkpt lat="31.6268835" lon="34.9423105">
<ele>361.799988</ele>
<time>2016-09-02T04:48:57.000Z</time>
</trkpt>
<trkpt lat="31.6267796" lon="34.9422127">
<ele>360.600006</ele>
<time>2016-09-02T04:48:59.000Z</time>
</trkpt>
<trkpt lat="31.6266815" lon="34.9421067">
<ele>359.399994</ele>
<time>2016-09-02T04:49:01.000Z</time>
</trkpt>
<trkpt lat="31.6265965" lon="34.9420080">
<ele>358.200012</ele>
<time>2016-09-02T04:49:03.000Z</time>
</trkpt>
<trkpt lat="31.6265188" lon="34.9419335">
<ele>357.000000</ele>
<time>2016-09-02T04:49:05.000Z</time>
</trkpt>
<trkpt lat="31.6264197" lon="34.9418617">
<ele>355.599976</ele>
<time>2016-09-02T04:49:08.000Z</time>
</trkpt>
<trkpt lat="31.6263353" lon="34.9418076">
<ele>354.399994</ele>
<time>2016-09-02T04:49:11.000Z</time>
</trkpt>
<trkpt lat="31.6262751" lon="34.9417087">
<ele>354.000000</ele>
<time>2016-09-02T04:49:14.000Z</time>
</trkpt>
<trkpt lat="31.6262031" lon="34.9415843">
<ele>353.400024</ele>
<time>2016-09-02T04:49:17.000Z</time>
</trkpt>
<trkpt lat="31.6261484" lon="34.9414896">
<ele>353.000000</ele>
<time>2016-09-02T04:49:19.000Z</time>
</trkpt>
<trkpt lat="31.6260790" lon="34.9413931">
<ele>352.399994</ele>
<time>2016-09-02T04:49:21.000Z</time>
</trkpt>
<trkpt lat="31.6259957" lon="34.9412932">
<ele>351.600006</ele>
<time>2016-09-02T04:49:23.000Z</time>
</trkpt>
<trkpt lat="31.6259067" lon="34.9411943">
<ele>350.399994</ele>
<time>2016-09-02T04:49:25.000Z</time>
</trkpt>
<trkpt lat="31.6258412" lon="34.9411041">
<ele>349.200012</ele>
<time>2016-09-02T04:49:27.000Z</time>
</trkpt>
<trkpt lat="31.6257749" lon="34.9409838">
<ele>348.200043</ele>
<time>2016-09-02T04:49:30.000Z</time>
</trkpt>
<trkpt lat="31.6257284" lon="34.9408947">
<ele>347.600006</ele>
<time>2016-09-02T04:49:32.000Z</time>
</trkpt>
<trkpt lat="31.6256812" lon="34.9407875">
<ele>347.000000</ele>
<time>2016-09-02T04:49:36.000Z</time>
</trkpt>
<trkpt lat="31.6256530" lon="34.9406942">
<ele>347.200012</ele>
<time>2016-09-02T04:49:43.000Z</time>
</trkpt>
<trkpt lat="31.6256288" lon="34.9405955">
<ele>347.200012</ele>
<time>2016-09-02T04:50:07.000Z</time>
</trkpt>
<trkpt lat="31.6255769" lon="34.9404815">
<ele>347.200012</ele>
<time>2016-09-02T04:50:13.000Z</time>
</trkpt>
<trkpt lat="31.6255478" lon="34.9403780">
<ele>347.000000</ele>
<time>2016-09-02T04:50:17.000Z</time>
</trkpt>
<trkpt lat="31.6255137" lon="34.9402800">
<ele>346.200012</ele>
<time>2016-09-02T04:50:20.000Z</time>
</trkpt>
<trkpt lat="31.6254711" lon="34.9401616">
<ele>345.399963</ele>
<time>2016-09-02T04:50:23.000Z</time>
</trkpt>
<trkpt lat="31.6254201" lon="34.9400253">
<ele>345.200012</ele>
<time>2016-09-02T04:50:26.000Z</time>
</trkpt>
<trkpt lat="31.6254020" lon="34.9398923">
<ele>345.600006</ele>
<time>2016-09-02T04:50:29.000Z</time>
</trkpt>
<trkpt lat="31.6253915" lon="34.9397690">
<ele>346.200012</ele>
<time>2016-09-02T04:50:32.000Z</time>
</trkpt>
<trkpt lat="31.6253671" lon="34.9396579">
<ele>346.399994</ele>
<time>2016-09-02T04:50:35.000Z</time>
</trkpt>
<trkpt lat="31.6253229" lon="34.9395473">
<ele>346.000031</ele>
<time>2016-09-02T04:50:38.000Z</time>
</trkpt>
<trkpt lat="31.6252438" lon="34.9394169">
<ele>344.399994</ele>
<time>2016-09-02T04:50:41.000Z</time>
</trkpt>
<trkpt lat="31.6251855" lon="34.9393147">
<ele>343.399994</ele>
<time>2016-09-02T04:50:43.000Z</time>
</trkpt>
<trkpt lat="31.6251420" lon="34.9392033">
<ele>342.600006</ele>
<time>2016-09-02T04:50:45.000Z</time>
</trkpt>
<trkpt lat="31.6251082" lon="34.9390968">
<ele>341.799988</ele>
<time>2016-09-02T04:50:47.000Z</time>
</trkpt>
<trkpt lat="31.6250721" lon="34.9389880">
<ele>341.200012</ele>
<time>2016-09-02T04:50:49.000Z</time>
</trkpt>
<trkpt lat="31.6250332" lon="34.9388762">
<ele>340.799988</ele>
<time>2016-09-02T04:50:51.000Z</time>
</trkpt>
<trkpt lat="31.6249975" lon="34.9387709">
<ele>340.799988</ele>
<time>2016-09-02T04:50:53.000Z</time>
</trkpt>
<trkpt lat="31.6249526" lon="34.9386654">
<ele>340.200012</ele>
<time>2016-09-02T04:50:55.000Z</time>
</trkpt>
<trkpt lat="31.6249125" lon="34.9385564">
<ele>339.399994</ele>
<time>2016-09-02T04:50:57.000Z</time>
</trkpt>
<trkpt lat="31.6248655" lon="34.9384578">
<ele>338.399994</ele>
<time>2016-09-02T04:50:59.000Z</time>
</trkpt>
<trkpt lat="31.6248206" lon="34.9383594">
<ele>337.999969</ele>
<time>2016-09-02T04:51:01.000Z</time>
</trkpt>
<trkpt lat="31.6247827" lon="34.9382572">
<ele>338.200012</ele>
<time>2016-09-02T04:51:03.000Z</time>
</trkpt>
<trkpt lat="31.6247462" lon="34.9381555">
<ele>338.200012</ele>
<time>2016-09-02T04:51:05.000Z</time>
</trkpt>
<trkpt lat="31.6246895" lon="34.9380181">
<ele>338.200012</ele>
<time>2016-09-02T04:51:08.000Z</time>
</trkpt>
<trkpt lat="31.6246446" lon="34.9378914">
<ele>338.200012</ele>
<time>2016-09-02T04:51:11.000Z</time>
</trkpt>
<trkpt lat="31.6245951" lon="34.9377902">
<ele>337.399994</ele>
<time>2016-09-02T04:51:14.000Z</time>
</trkpt>
<trkpt lat="31.6245318" lon="34.9376764">
<ele>336.399994</ele>
<time>2016-09-02T04:51:18.000Z</time>
</trkpt>
<trkpt lat="31.6244788" lon="34.9375722">
<ele>335.600006</ele>
<time>2016-09-02T04:51:21.000Z</time>
</trkpt>
<trkpt lat="31.6244343" lon="34.9374691">
<ele>335.200012</ele>
<time>2016-09-02T04:51:24.000Z</time>
</trkpt>
<trkpt lat="31.6243986" lon="34.9373568">
<ele>335.600006</ele>
<time>2016-09-02T04:51:27.000Z</time>
</trkpt>
<trkpt lat="31.6243660" lon="34.9372329">
<ele>336.200012</ele>
<time>2016-09-02T04:51:30.000Z</time>
</trkpt>
<trkpt lat="31.6243324" lon="34.9370990">
<ele>336.799988</ele>
<time>2016-09-02T04:51:33.000Z</time>
</trkpt>
<trkpt lat="31.6242973" lon="34.9369620">
<ele>336.000000</ele>
<time>2016-09-02T04:51:36.000Z</time>
</trkpt>
<trkpt lat="31.6242586" lon="34.9368083">
<ele>334.399994</ele>
<time>2016-09-02T04:51:39.000Z</time>
</trkpt>
<trkpt lat="31.6242313" lon="34.9366943">
<ele>333.399994</ele>
<time>2016-09-02T04:51:41.000Z</time>
</trkpt>
<trkpt lat="31.6242068" lon="34.9365842">
<ele>332.399994</ele>
<time>2016-09-02T04:51:43.000Z</time>
</trkpt>
<trkpt lat="31.6241669" lon="34.9364462">
<ele>331.000000</ele>
<time>2016-09-02T04:51:46.000Z</time>
</trkpt>
<trkpt lat="31.6241436" lon="34.9363231">
<ele>330.200012</ele>
<time>2016-09-02T04:51:49.000Z</time>
</trkpt>
<trkpt lat="31.6241268" lon="34.9361969">
<ele>329.799988</ele>
<time>2016-09-02T04:51:52.000Z</time>
</trkpt>
<trkpt lat="31.6240933" lon="34.9360491">
<ele>328.600006</ele>
<time>2016-09-02T04:51:55.000Z</time>
</trkpt>
<trkpt lat="31.6240675" lon="34.9359443">
<ele>327.600037</ele>
<time>2016-09-02T04:51:57.000Z</time>
</trkpt>
<trkpt lat="31.6240370" lon="34.9358374">
<ele>326.399994</ele>
<time>2016-09-02T04:51:59.000Z</time>
</trkpt>
<trkpt lat="31.6240059" lon="34.9357268">
<ele>325.799988</ele>
<time>2016-09-02T04:52:01.000Z</time>
</trkpt>
<trkpt lat="31.6239823" lon="34.9356137">
<ele>325.600006</ele>
<time>2016-09-02T04:52:03.000Z</time>
</trkpt>
<trkpt lat="31.6239671" lon="34.9355017">
<ele>325.399994</ele>
<time>2016-09-02T04:52:05.000Z</time>
</trkpt>
<trkpt lat="31.6239505" lon="34.9353884">
<ele>325.200012</ele>
<time>2016-09-02T04:52:07.000Z</time>
</trkpt>
<trkpt lat="31.6239315" lon="34.9352719">
<ele>324.600006</ele>
<time>2016-09-02T04:52:09.000Z</time>
</trkpt>
<trkpt lat="31.6239159" lon="34.9351529">
<ele>324.399994</ele>
<time>2016-09-02T04:52:11.000Z</time>
</trkpt>
<trkpt lat="31.6239124" lon="34.9350294">
<ele>324.200012</ele>
<time>2016-09-02T04:52:13.000Z</time>
</trkpt>
<trkpt lat="31.6239132" lon="34.9349012">
<ele>323.999969</ele>
<time>2016-09-02T04:52:15.000Z</time>
</trkpt>
<trkpt lat="31.6239138" lon="34.9347759">
<ele>323.799988</ele>
<time>2016-09-02T04:52:17.000Z</time>
</trkpt>
<trkpt lat="31.6239107" lon="34.9346625">
<ele>323.799988</ele>
<time>2016-09-02T04:52:19.000Z</time>
</trkpt>
<trkpt lat="31.6238973" lon="34.9345160">
<ele>323.200043</ele>
<time>2016-09-02T04:52:22.000Z</time>
</trkpt>
<trkpt lat="31.6238676" lon="34.9344084">
<ele>322.399994</ele>
<time>2016-09-02T04:52:25.000Z</time>
</trkpt>
<trkpt lat="31.6238253" lon="34.9343165">
<ele>322.000000</ele>
<time>2016-09-02T04:53:04.000Z</time>
</trkpt>
<trkpt lat="31.6237794" lon="34.9342151">
<ele>321.600006</ele>
<time>2016-09-02T04:53:09.000Z</time>
</trkpt>
<trkpt lat="31.6237217" lon="34.9340975">
<ele>321.200012</ele>
<time>2016-09-02T04:53:13.000Z</time>
</trkpt>
<trkpt lat="31.6236727" lon="34.9339777">
<ele>320.799988</ele>
<time>2016-09-02T04:53:16.000Z</time>
</trkpt>
<trkpt lat="31.6236305" lon="34.9338505">
<ele>320.600006</ele>
<time>2016-09-02T04:53:19.000Z</time>
</trkpt>
<trkpt lat="31.6235971" lon="34.9337141">
<ele>320.399963</ele>
<time>2016-09-02T04:53:22.000Z</time>
</trkpt>
<trkpt lat="31.6235606" lon="34.9335694">
<ele>319.399994</ele>
<time>2016-09-02T04:53:25.000Z</time>
</trkpt>
<trkpt lat="31.6235618" lon="34.9334151">
<ele>318.799988</ele>
<time>2016-09-02T04:53:28.000Z</time>
</trkpt>
<trkpt lat="31.6235698" lon="34.9332710">
<ele>318.399994</ele>
<time>2016-09-02T04:53:31.000Z</time>
</trkpt>
<trkpt lat="31.6235625" lon="34.9331254">
<ele>318.399994</ele>
<time>2016-09-02T04:53:34.000Z</time>
</trkpt>
<trkpt lat="31.6235385" lon="34.9330184">
<ele>318.200012</ele>
<time>2016-09-02T04:53:36.000Z</time>
</trkpt>
<trkpt lat="31.6235046" lon="34.9329124">
<ele>317.799988</ele>
<time>2016-09-02T04:53:38.000Z</time>
</trkpt>
<trkpt lat="31.6234701" lon="34.9328121">
<ele>317.000000</ele>
<time>2016-09-02T04:53:40.000Z</time>
</trkpt>
<trkpt lat="31.6234090" lon="34.9326734">
<ele>316.000000</ele>
<time>2016-09-02T04:53:43.000Z</time>
</trkpt>
<trkpt lat="31.6233844" lon="34.9325156">
<ele>315.600006</ele>
<time>2016-09-02T04:53:46.000Z</time>
</trkpt>
<trkpt lat="31.6233757" lon="34.9323985">
<ele>315.399994</ele>
<time>2016-09-02T04:53:48.000Z</time>
</trkpt>
<trkpt lat="31.6233592" lon="34.9322609">
<ele>315.000000</ele>
<time>2016-09-02T04:53:51.000Z</time>
</trkpt>
<trkpt lat="31.6233315" lon="34.9321483">
<ele>314.600006</ele>
<time>2016-09-02T04:53:54.000Z</time>
</trkpt>
<trkpt lat="31.6232610" lon="34.9320662">
<ele>313.200012</ele>
<time>2016-09-02T04:53:58.000Z</time>
</trkpt>
<trkpt lat="31.6231756" lon="34.9320280">
<ele>312.000000</ele>
<time>2016-09-02T04:54:03.000Z</time>
</trkpt>
<trkpt lat="31.6231096" lon="34.9321051">
<ele>312.999969</ele>
<time>2016-09-02T04:54:08.000Z</time>
</trkpt>
<trkpt lat="31.6230544" lon="34.9321970">
<ele>313.600006</ele>
<time>2016-09-02T04:54:15.000Z</time>
</trkpt>
<trkpt lat="31.6230123" lon="34.9322947">
<ele>314.000000</ele>
<time>2016-09-02T04:54:21.000Z</time>
</trkpt>
<trkpt lat="31.6229567" lon="34.9323817">
<ele>314.799988</ele>
<time>2016-09-02T04:54:26.000Z</time>
</trkpt>
<trkpt lat="31.6228932" lon="34.9324601">
<ele>315.600006</ele>
<time>2016-09-02T04:54:31.000Z</time>
</trkpt>
<trkpt lat="31.6228452" lon="34.9325359">
<ele>316.200012</ele>
<time>2016-09-02T04:54:43.000Z</time>
</trkpt>
<trkpt lat="31.6228070" lon="34.9325969">
<ele>315.799988</ele>
<time>2016-09-02T05:03:37.000Z</time>
</trkpt>
<trkpt lat="31.6227232" lon="34.9326518">
<ele>315.600006</ele>
<time>2016-09-02T05:03:59.000Z</time>
</trkpt>
<trkpt lat="31.6226525" lon="34.9327173">
<ele>315.000000</ele>
<time>2016-09-02T05:04:04.000Z</time>
</trkpt>
<trkpt lat="31.6225840" lon="34.9328017">
<ele>314.400024</ele>
<time>2016-09-02T05:04:09.000Z</time>
</trkpt>
<trkpt lat="31.6225118" lon="34.9328900">
<ele>313.799957</ele>
<time>2016-09-02T05:04:14.000Z</time>
</trkpt>
<trkpt lat="31.6224458" lon="34.9329701">
<ele>314.000000</ele>
<time>2016-09-02T05:04:19.000Z</time>
</trkpt>
<trkpt lat="31.6223841" lon="34.9330460">
<ele>314.400024</ele>
<time>2016-09-02T05:04:24.000Z</time>
</trkpt>
<trkpt lat="31.6223196" lon="34.9331221">
<ele>315.600006</ele>
<time>2016-09-02T05:04:29.000Z</time>
</trkpt>
<trkpt lat="31.6222563" lon="34.9332026">
<ele>317.200012</ele>
<time>2016-09-02T05:04:34.000Z</time>
</trkpt>
<trkpt lat="31.6221870" lon="34.9332935">
<ele>319.000000</ele>
<time>2016-09-02T05:04:40.000Z</time>
</trkpt>
<trkpt lat="31.6221137" lon="34.9333864">
<ele>321.000031</ele>
<time>2016-09-02T05:04:46.000Z</time>
</trkpt>
<trkpt lat="31.6220420" lon="34.9334775">
<ele>322.000000</ele>
<time>2016-09-02T05:04:52.000Z</time>
</trkpt>
<trkpt lat="31.6219751" lon="34.9335689">
<ele>321.000031</ele>
<time>2016-09-02T05:04:58.000Z</time>
</trkpt>
<trkpt lat="31.6219089" lon="34.9336577">
<ele>320.200012</ele>
<time>2016-09-02T05:05:04.000Z</time>
</trkpt>
<trkpt lat="31.6218464" lon="34.9337457">
<ele>319.599976</ele>
<time>2016-09-02T05:05:10.000Z</time>
</trkpt>
<trkpt lat="31.6217842" lon="34.9338376">
<ele>321.200012</ele>
<time>2016-09-02T05:05:16.000Z</time>
</trkpt>
<trkpt lat="31.6217213" lon="34.9339324">
<ele>323.000000</ele>
<time>2016-09-02T05:05:22.000Z</time>
</trkpt>
<trkpt lat="31.6216623" lon="34.9340248">
<ele>323.399994</ele>
<time>2016-09-02T05:05:28.000Z</time>
</trkpt>
<trkpt lat="31.6216161" lon="34.9341296">
<ele>323.799988</ele>
<time>2016-09-02T05:05:34.000Z</time>
</trkpt>
<trkpt lat="31.6215791" lon="34.9342452">
<ele>324.399994</ele>
<time>2016-09-02T05:05:40.000Z</time>
</trkpt>
<trkpt lat="31.6215449" lon="34.9343601">
<ele>324.799957</ele>
<time>2016-09-02T05:05:46.000Z</time>
</trkpt>
<trkpt lat="31.6215077" lon="34.9344749">
<ele>325.799988</ele>
<time>2016-09-02T05:05:52.000Z</time>
</trkpt>
<trkpt lat="31.6214836" lon="34.9345771">
<ele>326.799988</ele>
<time>2016-09-02T05:05:57.000Z</time>
</trkpt>
<trkpt lat="31.6214496" lon="34.9346917">
<ele>328.400024</ele>
<time>2016-09-02T05:06:02.000Z</time>
</trkpt>
<trkpt lat="31.6214167" lon="34.9348085">
<ele>330.200012</ele>
<time>2016-09-02T05:06:08.000Z</time>
</trkpt>
<trkpt lat="31.6213950" lon="34.9349305">
<ele>331.600006</ele>
<time>2016-09-02T05:06:14.000Z</time>
</trkpt>
<trkpt lat="31.6213611" lon="34.9350310">
<ele>333.200012</ele>
<time>2016-09-02T05:06:19.000Z</time>
</trkpt>
<trkpt lat="31.6213210" lon="34.9351395">
<ele>335.000031</ele>
<time>2016-09-02T05:06:25.000Z</time>
</trkpt>
<trkpt lat="31.6212980" lon="34.9352423">
<ele>335.600006</ele>
<time>2016-09-02T05:06:30.000Z</time>
</trkpt>
<trkpt lat="31.6212654" lon="34.9353625">
<ele>335.399994</ele>
<time>2016-09-02T05:06:36.000Z</time>
</trkpt>
<trkpt lat="31.6212449" lon="34.9354700">
<ele>336.000000</ele>
<time>2016-09-02T05:06:41.000Z</time>
</trkpt>
<trkpt lat="31.6212170" lon="34.9355923">
<ele>337.600006</ele>
<time>2016-09-02T05:06:47.000Z</time>
</trkpt>
<trkpt lat="31.6212004" lon="34.9356995">
<ele>339.000000</ele>
<time>2016-09-02T05:06:52.000Z</time>
</trkpt>
<trkpt lat="31.6211818" lon="34.9358266">
<ele>340.600006</ele>
<time>2016-09-02T05:06:58.000Z</time>
</trkpt>
<trkpt lat="31.6211721" lon="34.9359364">
<ele>341.600037</ele>
<time>2016-09-02T05:07:03.000Z</time>
</trkpt>
<trkpt lat="31.6211595" lon="34.9360457">
<ele>341.600037</ele>
<time>2016-09-02T05:07:08.000Z</time>
</trkpt>
<trkpt lat="31.6211502" lon="34.9361529">
<ele>341.600037</ele>
<time>2016-09-02T05:07:13.000Z</time>
</trkpt>
<trkpt lat="31.6211382" lon="34.9362643">
<ele>342.000000</ele>
<time>2016-09-02T05:07:18.000Z</time>
</trkpt>
<trkpt lat="31.6211276" lon="34.9363776">
<ele>342.799988</ele>
<time>2016-09-02T05:07:23.000Z</time>
</trkpt>
<trkpt lat="31.6211179" lon="34.9364962">
<ele>343.799988</ele>
<time>2016-09-02T05:07:28.000Z</time>
</trkpt>
<trkpt lat="31.6211096" lon="34.9366077">
<ele>344.599976</ele>
<time>2016-09-02T05:07:33.000Z</time>
</trkpt>
<trkpt lat="31.6211034" lon="34.9367198">
<ele>345.200012</ele>
<time>2016-09-02T05:07:38.000Z</time>
</trkpt>
<trkpt lat="31.6210994" lon="34.9368431">
<ele>345.399963</ele>
<time>2016-09-02T05:07:44.000Z</time>
</trkpt>
<trkpt lat="31.6211008" lon="34.9369570">
<ele>345.600006</ele>
<time>2016-09-02T05:07:50.000Z</time>
</trkpt>
<trkpt lat="31.6210992" lon="34.9370697">
<ele>346.000031</ele>
<time>2016-09-02T05:07:56.000Z</time>
</trkpt>
<trkpt lat="31.6211057" lon="34.9371787">
<ele>347.000000</ele>
<time>2016-09-02T05:08:01.000Z</time>
</trkpt>
<trkpt lat="31.6211113" lon="34.9372888">
<ele>348.000000</ele>
<time>2016-09-02T05:08:06.000Z</time>
</trkpt>
<trkpt lat="31.6211170" lon="34.9374070">
<ele>349.000031</ele>
<time>2016-09-02T05:08:12.000Z</time>
</trkpt>
<trkpt lat="31.6211157" lon="34.9375283">
<ele>350.000000</ele>
<time>2016-09-02T05:08:18.000Z</time>
</trkpt>
<trkpt lat="31.6211087" lon="34.9376468">
<ele>350.799988</ele>
<time>2016-09-02T05:08:24.000Z</time>
</trkpt>
<trkpt lat="31.6210973" lon="34.9377655">
<ele>351.399994</ele>
<time>2016-09-02T05:08:30.000Z</time>
</trkpt>
<trkpt lat="31.6210897" lon="34.9378828">
<ele>352.200012</ele>
<time>2016-09-02T05:08:36.000Z</time>
</trkpt>
<trkpt lat="31.6210920" lon="34.9380050">
<ele>352.600037</ele>
<time>2016-09-02T05:08:42.000Z</time>
</trkpt>
<trkpt lat="31.6211034" lon="34.9381199">
<ele>353.000000</ele>
<time>2016-09-02T05:08:47.000Z</time>
</trkpt>
<trkpt lat="31.6211244" lon="34.9382345">
<ele>353.600006</ele>
<time>2016-09-02T05:08:52.000Z</time>
</trkpt>
<trkpt lat="31.6211403" lon="34.9383462">
<ele>354.000000</ele>
<time>2016-09-02T05:08:57.000Z</time>
</trkpt>
<trkpt lat="31.6211605" lon="34.9384642">
<ele>354.799988</ele>
<time>2016-09-02T05:09:02.000Z</time>
</trkpt>
<trkpt lat="31.6211801" lon="34.9385797">
<ele>355.799988</ele>
<time>2016-09-02T05:09:07.000Z</time>
</trkpt>
<trkpt lat="31.6212042" lon="34.9386964">
<ele>356.799988</ele>
<time>2016-09-02T05:09:12.000Z</time>
</trkpt>
<trkpt lat="31.6212299" lon="34.9388149">
<ele>357.399994</ele>
<time>2016-09-02T05:09:17.000Z</time>
</trkpt>
<trkpt lat="31.6212439" lon="34.9389266">
<ele>357.600006</ele>
<time>2016-09-02T05:09:22.000Z</time>
</trkpt>
<trkpt lat="31.6212670" lon="34.9390343">
<ele>358.000000</ele>
<time>2016-09-02T05:09:27.000Z</time>
</trkpt>
<trkpt lat="31.6212823" lon="34.9391474">
<ele>358.200012</ele>
<time>2016-09-02T05:09:32.000Z</time>
</trkpt>
<trkpt lat="31.6212977" lon="34.9392585">
<ele>358.399994</ele>
<time>2016-09-02T05:09:37.000Z</time>
</trkpt>
<trkpt lat="31.6213048" lon="34.9393712">
<ele>358.799988</ele>
<time>2016-09-02T05:09:42.000Z</time>
</trkpt>
<trkpt lat="31.6213107" lon="34.9394883">
<ele>359.600006</ele>
<time>2016-09-02T05:09:47.000Z</time>
</trkpt>
<trkpt lat="31.6213157" lon="34.9396046">
<ele>360.399994</ele>
<time>2016-09-02T05:09:52.000Z</time>
</trkpt>
<trkpt lat="31.6213198" lon="34.9397213">
<ele>360.399994</ele>
<time>2016-09-02T05:09:57.000Z</time>
</trkpt>
<trkpt lat="31.6213206" lon="34.9398321">
<ele>360.600006</ele>
<time>2016-09-02T05:10:02.000Z</time>
</trkpt>
<trkpt lat="31.6213233" lon="34.9399406">
<ele>360.800018</ele>
<time>2016-09-02T05:10:07.000Z</time>
</trkpt>
<trkpt lat="31.6213193" lon="34.9400511">
<ele>360.800018</ele>
<time>2016-09-02T05:10:12.000Z</time>
</trkpt>
<trkpt lat="31.6213106" lon="34.9401658">
<ele>361.000000</ele>
<time>2016-09-02T05:10:17.000Z</time>
</trkpt>
<trkpt lat="31.6212936" lon="34.9402806">
<ele>361.399994</ele>
<time>2016-09-02T05:10:22.000Z</time>
</trkpt>
<trkpt lat="31.6212777" lon="34.9403957">
<ele>362.000000</ele>
<time>2016-09-02T05:10:27.000Z</time>
</trkpt>
<trkpt lat="31.6212549" lon="34.9404973">
<ele>362.399994</ele>
<time>2016-09-02T05:10:32.000Z</time>
</trkpt>
<trkpt lat="31.6212256" lon="34.9406185">
<ele>362.999969</ele>
<time>2016-09-02T05:10:38.000Z</time>
</trkpt>
<trkpt lat="31.6212051" lon="34.9407348">
<ele>363.600006</ele>
<time>2016-09-02T05:10:43.000Z</time>
</trkpt>
<trkpt lat="31.6211879" lon="34.9408559">
<ele>364.200012</ele>
<time>2016-09-02T05:10:48.000Z</time>
</trkpt>
<trkpt lat="31.6211584" lon="34.9409587">
<ele>364.600006</ele>
<time>2016-09-02T05:10:53.000Z</time>
</trkpt>
<trkpt lat="31.6211271" lon="34.9410588">
<ele>365.200012</ele>
<time>2016-09-02T05:10:58.000Z</time>
</trkpt>
<trkpt lat="31.6210939" lon="34.9411787">
<ele>365.799988</ele>
<time>2016-09-02T05:11:04.000Z</time>
</trkpt>
<trkpt lat="31.6210652" lon="34.9412940">
<ele>366.200012</ele>
<time>2016-09-02T05:11:10.000Z</time>
</trkpt>
<trkpt lat="31.6210448" lon="34.9413980">
<ele>366.799988</ele>
<time>2016-09-02T05:11:15.000Z</time>
</trkpt>
<trkpt lat="31.6210236" lon="34.9415037">
<ele>367.200012</ele>
<time>2016-09-02T05:11:20.000Z</time>
</trkpt>
<trkpt lat="31.6210003" lon="34.9416089">
<ele>367.799988</ele>
<time>2016-09-02T05:11:25.000Z</time>
</trkpt>
<trkpt lat="31.6209761" lon="34.9417283">
<ele>368.200012</ele>
<time>2016-09-02T05:11:31.000Z</time>
</trkpt>
<trkpt lat="31.6209449" lon="34.9418406">
<ele>368.399994</ele>
<time>2016-09-02T05:11:37.000Z</time>
</trkpt>
<trkpt lat="31.6209167" lon="34.9419496">
<ele>368.799988</ele>
<time>2016-09-02T05:11:43.000Z</time>
</trkpt>
<trkpt lat="31.6208889" lon="34.9420553">
<ele>369.200012</ele>
<time>2016-09-02T05:11:49.000Z</time>
</trkpt>
<trkpt lat="31.6208599" lon="34.9421682">
<ele>370.399963</ele>
<time>2016-09-02T05:11:55.000Z</time>
</trkpt>
<trkpt lat="31.6208358" lon="34.9422853">
<ele>371.200012</ele>
<time>2016-09-02T05:12:01.000Z</time>
</trkpt>
<trkpt lat="31.6208070" lon="34.9424012">
<ele>371.000000</ele>
<time>2016-09-02T05:12:07.000Z</time>
</trkpt>
<trkpt lat="31.6207921" lon="34.9425072">
<ele>371.200012</ele>
<time>2016-09-02T05:12:12.000Z</time>
</trkpt>
<trkpt lat="31.6207778" lon="34.9426209">
<ele>371.200012</ele>
<time>2016-09-02T05:12:18.000Z</time>
</trkpt>
<trkpt lat="31.6207693" lon="34.9427449">
<ele>371.600006</ele>
<time>2016-09-02T05:12:24.000Z</time>
</trkpt>
<trkpt lat="31.6207580" lon="34.9428644">
<ele>371.600006</ele>
<time>2016-09-02T05:12:29.000Z</time>
</trkpt>
<trkpt lat="31.6207405" lon="34.9429679">
<ele>372.399994</ele>
<time>2016-09-02T05:12:34.000Z</time>
</trkpt>
<trkpt lat="31.6207229" lon="34.9430689">
<ele>373.000000</ele>
<time>2016-09-02T05:12:39.000Z</time>
</trkpt>
<trkpt lat="31.6206985" lon="34.9431882">
<ele>373.600006</ele>
<time>2016-09-02T05:12:45.000Z</time>
</trkpt>
<trkpt lat="31.6206736" lon="34.9433074">
<ele>374.600006</ele>
<time>2016-09-02T05:12:51.000Z</time>
</trkpt>
<trkpt lat="31.6206572" lon="34.9434281">
<ele>375.799988</ele>
<time>2016-09-02T05:12:57.000Z</time>
</trkpt>
<trkpt lat="31.6206383" lon="34.9435533">
<ele>376.999969</ele>
<time>2016-09-02T05:13:03.000Z</time>
</trkpt>
<trkpt lat="31.6206133" lon="34.9436680">
<ele>378.200012</ele>
<time>2016-09-02T05:13:09.000Z</time>
</trkpt>
<trkpt lat="31.6205899" lon="34.9437875">
<ele>378.799988</ele>
<time>2016-09-02T05:13:15.000Z</time>
</trkpt>
<trkpt lat="31.6205755" lon="34.9438947">
<ele>379.399994</ele>
<time>2016-09-02T05:13:20.000Z</time>
</trkpt>
<trkpt lat="31.6205702" lon="34.9440181">
<ele>380.000000</ele>
<time>2016-09-02T05:13:26.000Z</time>
</trkpt>
<trkpt lat="31.6205745" lon="34.9441426">
<ele>380.600037</ele>
<time>2016-09-02T05:13:32.000Z</time>
</trkpt>
<trkpt lat="31.6205938" lon="34.9442624">
<ele>381.000000</ele>
<time>2016-09-02T05:13:38.000Z</time>
</trkpt>
<trkpt lat="31.6206077" lon="34.9443681">
<ele>381.399963</ele>
<time>2016-09-02T05:13:43.000Z</time>
</trkpt>
<trkpt lat="31.6206335" lon="34.9444857">
<ele>381.799988</ele>
<time>2016-09-02T05:13:49.000Z</time>
</trkpt>
<trkpt lat="31.6206620" lon="34.9445878">
<ele>382.200012</ele>
<time>2016-09-02T05:13:54.000Z</time>
</trkpt>
<trkpt lat="31.6206908" lon="34.9446953">
<ele>382.799988</ele>
<time>2016-09-02T05:13:59.000Z</time>
</trkpt>
<trkpt lat="31.6207282" lon="34.9448115">
<ele>384.200043</ele>
<time>2016-09-02T05:14:05.000Z</time>
</trkpt>
<trkpt lat="31.6207622" lon="34.9449245">
<ele>385.600006</ele>
<time>2016-09-02T05:14:11.000Z</time>
</trkpt>
<trkpt lat="31.6207877" lon="34.9450242">
<ele>386.600006</ele>
<time>2016-09-02T05:14:16.000Z</time>
</trkpt>
<trkpt lat="31.6208189" lon="34.9451313">
<ele>387.799988</ele>
<time>2016-09-02T05:14:21.000Z</time>
</trkpt>
<trkpt lat="31.6208607" lon="34.9452335">
<ele>389.200012</ele>
<time>2016-09-02T05:14:26.000Z</time>
</trkpt>
<trkpt lat="31.6208994" lon="34.9453291">
<ele>390.600006</ele>
<time>2016-09-02T05:14:31.000Z</time>
</trkpt>
<trkpt lat="31.6209443" lon="34.9454397">
<ele>391.799988</ele>
<time>2016-09-02T05:14:37.000Z</time>
</trkpt>
<trkpt lat="31.6209900" lon="34.9455523">
<ele>392.200012</ele>
<time>2016-09-02T05:14:43.000Z</time>
</trkpt>
<trkpt lat="31.6210369" lon="34.9456571">
<ele>392.600006</ele>
<time>2016-09-02T05:14:49.000Z</time>
</trkpt>
<trkpt lat="31.6210855" lon="34.9457664">
<ele>393.000000</ele>
<time>2016-09-02T05:14:55.000Z</time>
</trkpt>
<trkpt lat="31.6211305" lon="34.9458607">
<ele>393.399994</ele>
<time>2016-09-02T05:15:00.000Z</time>
</trkpt>
<trkpt lat="31.6211797" lon="34.9459533">
<ele>394.399994</ele>
<time>2016-09-02T05:15:05.000Z</time>
</trkpt>
<trkpt lat="31.6212334" lon="34.9460444">
<ele>395.399963</ele>
<time>2016-09-02T05:15:10.000Z</time>
</trkpt>
<trkpt lat="31.6213099" lon="34.9461351">
<ele>396.600006</ele>
<time>2016-09-02T05:15:16.000Z</time>
</trkpt>
<trkpt lat="31.6213932" lon="34.9462162">
<ele>397.799988</ele>
<time>2016-09-02T05:15:21.000Z</time>
</trkpt>
<trkpt lat="31.6214681" lon="34.9463054">
<ele>398.600006</ele>
<time>2016-09-02T05:15:26.000Z</time>
</trkpt>
<trkpt lat="31.6215319" lon="34.9463937">
<ele>399.200012</ele>
<time>2016-09-02T05:15:31.000Z</time>
</trkpt>
<trkpt lat="31.6215944" lon="34.9464746">
<ele>399.800018</ele>
<time>2016-09-02T05:15:36.000Z</time>
</trkpt>
<trkpt lat="31.6216611" lon="34.9465492">
<ele>400.600006</ele>
<time>2016-09-02T05:15:41.000Z</time>
</trkpt>
<trkpt lat="31.6217402" lon="34.9466313">
<ele>401.600006</ele>
<time>2016-09-02T05:15:47.000Z</time>
</trkpt>
<trkpt lat="31.6218253" lon="34.9467082">
<ele>402.600006</ele>
<time>2016-09-02T05:15:53.000Z</time>
</trkpt>
<trkpt lat="31.6219033" lon="34.9467648">
<ele>403.600006</ele>
<time>2016-09-02T05:15:58.000Z</time>
</trkpt>
<trkpt lat="31.6219847" lon="34.9468249">
<ele>404.600006</ele>
<time>2016-09-02T05:16:03.000Z</time>
</trkpt>
<trkpt lat="31.6220603" lon="34.9468929">
<ele>405.399994</ele>
<time>2016-09-02T05:16:08.000Z</time>
</trkpt>
<trkpt lat="31.6221442" lon="34.9469723">
<ele>406.400024</ele>
<time>2016-09-02T05:16:14.000Z</time>
</trkpt>
<trkpt lat="31.6222266" lon="34.9470501">
<ele>407.399994</ele>
<time>2016-09-02T05:16:20.000Z</time>
</trkpt>
<trkpt lat="31.6223010" lon="34.9471154">
<ele>408.200012</ele>
<time>2016-09-02T05:16:25.000Z</time>
</trkpt>
<trkpt lat="31.6223758" lon="34.9471757">
<ele>408.599976</ele>
<time>2016-09-02T05:16:30.000Z</time>
</trkpt>
<trkpt lat="31.6224659" lon="34.9472458">
<ele>408.799988</ele>
<time>2016-09-02T05:16:36.000Z</time>
</trkpt>
<trkpt lat="31.6225423" lon="34.9473054">
<ele>409.000000</ele>
<time>2016-09-02T05:16:41.000Z</time>
</trkpt>
<trkpt lat="31.6226171" lon="34.9473669">
<ele>409.200043</ele>
<time>2016-09-02T05:16:46.000Z</time>
</trkpt>
<trkpt lat="31.6227043" lon="34.9474321">
<ele>409.399963</ele>
<time>2016-09-02T05:16:52.000Z</time>
</trkpt>
<trkpt lat="31.6227872" lon="34.9474851">
<ele>409.799988</ele>
<time>2016-09-02T05:16:57.000Z</time>
</trkpt>
<trkpt lat="31.6228752" lon="34.9475519">
<ele>410.000031</ele>
<time>2016-09-02T05:17:03.000Z</time>
</trkpt>
<trkpt lat="31.6229622" lon="34.9476294">
<ele>410.200012</ele>
<time>2016-09-02T05:17:09.000Z</time>
</trkpt>
<trkpt lat="31.6229961" lon="34.9477213">
<ele>409.799988</ele>
<time>2016-09-02T05:17:14.000Z</time>
</trkpt>
<trkpt lat="31.6229070" lon="34.9477766">
<ele>409.000000</ele>
<time>2016-09-02T05:17:20.000Z</time>
</trkpt>
<trkpt lat="31.6228047" lon="34.9478224">
<ele>408.200012</ele>
<time>2016-09-02T05:17:25.000Z</time>
</trkpt>
<trkpt lat="31.6227295" lon="34.9478885">
<ele>407.399994</ele>
<time>2016-09-02T05:17:30.000Z</time>
</trkpt>
<trkpt lat="31.6226648" lon="34.9479606">
<ele>407.000000</ele>
<time>2016-09-02T05:17:34.000Z</time>
</trkpt>
<trkpt lat="31.6225824" lon="34.9480325">
<ele>406.799988</ele>
<time>2016-09-02T05:17:37.000Z</time>
</trkpt>
<trkpt lat="31.6224768" lon="34.9481081">
<ele>406.000000</ele>
<time>2016-09-02T05:17:40.000Z</time>
</trkpt>
<trkpt lat="31.6223654" lon="34.9481983">
<ele>404.799988</ele>
<time>2016-09-02T05:17:43.000Z</time>
</trkpt>
<trkpt lat="31.6222909" lon="34.9482645">
<ele>404.399994</ele>
<time>2016-09-02T05:17:45.000Z</time>
</trkpt>
<trkpt lat="31.6221973" lon="34.9483556">
<ele>404.000000</ele>
<time>2016-09-02T05:17:48.000Z</time>
</trkpt>
<trkpt lat="31.6221076" lon="34.9484234">
<ele>403.799988</ele>
<time>2016-09-02T05:17:51.000Z</time>
</trkpt>
<trkpt lat="31.6220191" lon="34.9484740">
<ele>403.200012</ele>
<time>2016-09-02T05:17:54.000Z</time>
</trkpt>
<trkpt lat="31.6219461" lon="34.9485346">
<ele>401.999969</ele>
<time>2016-09-02T05:17:57.000Z</time>
</trkpt>
<trkpt lat="31.6218431" lon="34.9486098">
<ele>400.600006</ele>
<time>2016-09-02T05:18:01.000Z</time>
</trkpt>
<trkpt lat="31.6217632" lon="34.9486720">
<ele>399.600006</ele>
<time>2016-09-02T05:18:04.000Z</time>
</trkpt>
<trkpt lat="31.6216668" lon="34.9487458">
<ele>398.200043</ele>
<time>2016-09-02T05:18:08.000Z</time>
</trkpt>
<trkpt lat="31.6215800" lon="34.9488343">
<ele>397.600006</ele>
<time>2016-09-02T05:18:12.000Z</time>
</trkpt>
<trkpt lat="31.6214809" lon="34.9489044">
<ele>395.600006</ele>
<time>2016-09-02T05:18:15.000Z</time>
</trkpt>
<trkpt lat="31.6213881" lon="34.9489943">
<ele>394.599976</ele>
<time>2016-09-02T05:18:18.000Z</time>
</trkpt>
<trkpt lat="31.6212963" lon="34.9490834">
<ele>393.600006</ele>
<time>2016-09-02T05:18:21.000Z</time>
</trkpt>
<trkpt lat="31.6212128" lon="34.9491712">
<ele>392.600006</ele>
<time>2016-09-02T05:18:24.000Z</time>
</trkpt>
<trkpt lat="31.6211215" lon="34.9492752">
<ele>390.399994</ele>
<time>2016-09-02T05:18:27.000Z</time>
</trkpt>
<trkpt lat="31.6210339" lon="34.9493379">
<ele>387.799988</ele>
<time>2016-09-02T05:18:30.000Z</time>
</trkpt>
<trkpt lat="31.6209484" lon="34.9494206">
<ele>385.000031</ele>
<time>2016-09-02T05:18:33.000Z</time>
</trkpt>
<trkpt lat="31.6208567" lon="34.9495152">
<ele>381.600006</ele>
<time>2016-09-02T05:18:36.000Z</time>
</trkpt>
<trkpt lat="31.6207828" lon="34.9495870">
<ele>379.399994</ele>
<time>2016-09-02T05:18:38.000Z</time>
</trkpt>
<trkpt lat="31.6207014" lon="34.9496447">
<ele>378.000000</ele>
<time>2016-09-02T05:18:40.000Z</time>
</trkpt>
<trkpt lat="31.6205758" lon="34.9497100">
<ele>376.799988</ele>
<time>2016-09-02T05:18:43.000Z</time>
</trkpt>
<trkpt lat="31.6204767" lon="34.9497355">
<ele>375.799988</ele>
<time>2016-09-02T05:18:45.000Z</time>
</trkpt>
<trkpt lat="31.6203728" lon="34.9497487">
<ele>375.000000</ele>
<time>2016-09-02T05:18:47.000Z</time>
</trkpt>
<trkpt lat="31.6202697" lon="34.9497531">
<ele>374.000031</ele>
<time>2016-09-02T05:18:49.000Z</time>
</trkpt>
<trkpt lat="31.6201667" lon="34.9497530">
<ele>373.200043</ele>
<time>2016-09-02T05:18:51.000Z</time>
</trkpt>
<trkpt lat="31.6200553" lon="34.9497539">
<ele>372.200012</ele>
<time>2016-09-02T05:18:53.000Z</time>
</trkpt>
<trkpt lat="31.6199360" lon="34.9497707">
<ele>370.399963</ele>
<time>2016-09-02T05:18:55.000Z</time>
</trkpt>
<trkpt lat="31.6198090" lon="34.9498117">
<ele>368.200012</ele>
<time>2016-09-02T05:18:57.000Z</time>
</trkpt>
<trkpt lat="31.6196787" lon="34.9498715">
<ele>366.000000</ele>
<time>2016-09-02T05:18:59.000Z</time>
</trkpt>
<trkpt lat="31.6195527" lon="34.9499272">
<ele>364.000000</ele>
<time>2016-09-02T05:19:01.000Z</time>
</trkpt>
<trkpt lat="31.6194347" lon="34.9499740">
<ele>362.199982</ele>
<time>2016-09-02T05:19:03.000Z</time>
</trkpt>
<trkpt lat="31.6193296" lon="34.9500292">
<ele>360.000031</ele>
<time>2016-09-02T05:19:05.000Z</time>
</trkpt>
<trkpt lat="31.6192294" lon="34.9501093">
<ele>357.600006</ele>
<time>2016-09-02T05:19:07.000Z</time>
</trkpt>
<trkpt lat="31.6191384" lon="34.9502086">
<ele>355.200012</ele>
<time>2016-09-02T05:19:09.000Z</time>
</trkpt>
<trkpt lat="31.6190453" lon="34.9503044">
<ele>352.600037</ele>
<time>2016-09-02T05:19:11.000Z</time>
</trkpt>
<trkpt lat="31.6189445" lon="34.9503886">
<ele>350.399994</ele>
<time>2016-09-02T05:19:13.000Z</time>
</trkpt>
<trkpt lat="31.6188517" lon="34.9504763">
<ele>349.600006</ele>
<time>2016-09-02T05:19:15.000Z</time>
</trkpt>
<trkpt lat="31.6187692" lon="34.9505775">
<ele>349.600006</ele>
<time>2016-09-02T05:19:17.000Z</time>
</trkpt>
<trkpt lat="31.6186939" lon="34.9506894">
<ele>349.600006</ele>
<time>2016-09-02T05:19:19.000Z</time>
</trkpt>
<trkpt lat="31.6186328" lon="34.9508199">
<ele>349.799957</ele>
<time>2016-09-02T05:19:21.000Z</time>
</trkpt>
<trkpt lat="31.6185918" lon="34.9509612">
<ele>350.200012</ele>
<time>2016-09-02T05:19:23.000Z</time>
</trkpt>
<trkpt lat="31.6185790" lon="34.9511017">
<ele>350.799988</ele>
<time>2016-09-02T05:19:25.000Z</time>
</trkpt>
<trkpt lat="31.6185952" lon="34.9512180">
<ele>351.799988</ele>
<time>2016-09-02T05:19:27.000Z</time>
</trkpt>
<trkpt lat="31.6186376" lon="34.9513320">
<ele>352.600037</ele>
<time>2016-09-02T05:19:30.000Z</time>
</trkpt>
<trkpt lat="31.6186816" lon="34.9514484">
<ele>353.400024</ele>
<time>2016-09-02T05:19:34.000Z</time>
</trkpt>
<trkpt lat="31.6187143" lon="34.9515676">
<ele>354.200012</ele>
<time>2016-09-02T05:19:38.000Z</time>
</trkpt>
<trkpt lat="31.6187261" lon="34.9516871">
<ele>354.600006</ele>
<time>2016-09-02T05:19:42.000Z</time>
</trkpt>
<trkpt lat="31.6187472" lon="34.9518046">
<ele>355.000000</ele>
<time>2016-09-02T05:19:46.000Z</time>
</trkpt>
<trkpt lat="31.6187683" lon="34.9519214">
<ele>356.200012</ele>
<time>2016-09-02T05:19:50.000Z</time>
</trkpt>
<trkpt lat="31.6188021" lon="34.9520347">
<ele>357.399994</ele>
<time>2016-09-02T05:19:54.000Z</time>
</trkpt>
<trkpt lat="31.6188416" lon="34.9521420">
<ele>358.000000</ele>
<time>2016-09-02T05:19:58.000Z</time>
</trkpt>
<trkpt lat="31.6188936" lon="34.9522590">
<ele>358.200012</ele>
<time>2016-09-02T05:20:03.000Z</time>
</trkpt>
<trkpt lat="31.6189424" lon="34.9523510">
<ele>358.599976</ele>
<time>2016-09-02T05:20:07.000Z</time>
</trkpt>
<trkpt lat="31.6189991" lon="34.9524395">
<ele>358.799988</ele>
<time>2016-09-02T05:20:11.000Z</time>
</trkpt>
<trkpt lat="31.6190605" lon="34.9525282">
<ele>359.799988</ele>
<time>2016-09-02T05:20:16.000Z</time>
</trkpt>
<trkpt lat="31.6191325" lon="34.9526180">
<ele>361.399994</ele>
<time>2016-09-02T05:20:22.000Z</time>
</trkpt>
<trkpt lat="31.6191884" lon="34.9527127">
<ele>362.600006</ele>
<time>2016-09-02T05:20:28.000Z</time>
</trkpt>
<trkpt lat="31.6192423" lon="34.9528030">
<ele>363.799957</ele>
<time>2016-09-02T05:20:33.000Z</time>
</trkpt>
<trkpt lat="31.6192999" lon="34.9528902">
<ele>365.000000</ele>
<time>2016-09-02T05:20:38.000Z</time>
</trkpt>
<trkpt lat="31.6193613" lon="34.9529800">
<ele>365.399994</ele>
<time>2016-09-02T05:20:43.000Z</time>
</trkpt>
<trkpt lat="31.6194293" lon="34.9530593">
<ele>365.799988</ele>
<time>2016-09-02T05:20:48.000Z</time>
</trkpt>
<trkpt lat="31.6194791" lon="34.9531562">
<ele>365.600006</ele>
<time>2016-09-02T05:20:53.000Z</time>
</trkpt>
<trkpt lat="31.6195508" lon="34.9532377">
<ele>366.200012</ele>
<time>2016-09-02T05:20:58.000Z</time>
</trkpt>
<trkpt lat="31.6196337" lon="34.9533173">
<ele>366.799988</ele>
<time>2016-09-02T05:21:04.000Z</time>
</trkpt>
<trkpt lat="31.6197118" lon="34.9533821">
<ele>367.600006</ele>
<time>2016-09-02T05:21:09.000Z</time>
</trkpt>
<trkpt lat="31.6197924" lon="34.9534403">
<ele>368.600006</ele>
<time>2016-09-02T05:21:14.000Z</time>
</trkpt>
<trkpt lat="31.6198739" lon="34.9535009">
<ele>369.599976</ele>
<time>2016-09-02T05:21:19.000Z</time>
</trkpt>
<trkpt lat="31.6199528" lon="34.9535551">
<ele>370.200012</ele>
<time>2016-09-02T05:21:24.000Z</time>
</trkpt>
<trkpt lat="31.6200342" lon="34.9536076">
<ele>370.799988</ele>
<time>2016-09-02T05:21:29.000Z</time>
</trkpt>
<trkpt lat="31.6201209" lon="34.9536675">
<ele>371.399994</ele>
<time>2016-09-02T05:21:35.000Z</time>
</trkpt>
<trkpt lat="31.6201979" lon="34.9537196">
<ele>372.000000</ele>
<time>2016-09-02T05:21:40.000Z</time>
</trkpt>
<trkpt lat="31.6202848" lon="34.9537736">
<ele>373.000000</ele>
<time>2016-09-02T05:21:46.000Z</time>
</trkpt>
<trkpt lat="31.6203799" lon="34.9538339">
<ele>374.000031</ele>
<time>2016-09-02T05:21:52.000Z</time>
</trkpt>
<trkpt lat="31.6204729" lon="34.9538970">
<ele>375.200012</ele>
<time>2016-09-02T05:21:58.000Z</time>
</trkpt>
<trkpt lat="31.6205450" lon="34.9539670">
<ele>375.799988</ele>
<time>2016-09-02T05:22:03.000Z</time>
</trkpt>
<trkpt lat="31.6206186" lon="34.9540279">
<ele>376.399994</ele>
<time>2016-09-02T05:22:09.000Z</time>
</trkpt>
<trkpt lat="31.6206984" lon="34.9540935">
<ele>377.200012</ele>
<time>2016-09-02T05:22:15.000Z</time>
</trkpt>
<trkpt lat="31.6207766" lon="34.9541528">
<ele>377.600037</ele>
<time>2016-09-02T05:22:21.000Z</time>
</trkpt>
<trkpt lat="31.6208652" lon="34.9542139">
<ele>378.200012</ele>
<time>2016-09-02T05:22:28.000Z</time>
</trkpt>
<trkpt lat="31.6209424" lon="34.9542833">
<ele>378.600006</ele>
<time>2016-09-02T05:22:35.000Z</time>
</trkpt>
<trkpt lat="31.6210066" lon="34.9543660">
<ele>378.600006</ele>
<time>2016-09-02T05:22:42.000Z</time>
</trkpt>
<trkpt lat="31.6210683" lon="34.9544396">
<ele>378.799988</ele>
<time>2016-09-02T05:22:50.000Z</time>
</trkpt>
<trkpt lat="31.6211171" lon="34.9545399">
<ele>378.400024</ele>
<time>2016-09-02T05:22:58.000Z</time>
</trkpt>
<trkpt lat="31.6211547" lon="34.9546479">
<ele>379.399994</ele>
<time>2016-09-02T05:23:07.000Z</time>
</trkpt>
<trkpt lat="31.6212020" lon="34.9547479">
<ele>381.200012</ele>
<time>2016-09-02T05:23:16.000Z</time>
</trkpt>
<trkpt lat="31.6212460" lon="34.9548506">
<ele>383.000000</ele>
<time>2016-09-02T05:23:25.000Z</time>
</trkpt>
<trkpt lat="31.6212834" lon="34.9549474">
<ele>384.600006</ele>
<time>2016-09-02T05:23:34.000Z</time>
</trkpt>
<trkpt lat="31.6213294" lon="34.9550132">
<ele>386.000000</ele>
<time>2016-09-02T05:23:52.000Z</time>
</trkpt>
<trkpt lat="31.6213720" lon="34.9551083">
<ele>387.600006</ele>
<time>2016-09-02T05:24:11.000Z</time>
</trkpt>
<trkpt lat="31.6214345" lon="34.9551776">
<ele>389.200012</ele>
<time>2016-09-02T05:24:31.000Z</time>
</trkpt>
<trkpt lat="31.6214941" lon="34.9552584">
<ele>390.799988</ele>
<time>2016-09-02T05:24:48.000Z</time>
</trkpt>
<trkpt lat="31.6215466" lon="34.9553485">
<ele>392.799988</ele>
<time>2016-09-02T05:25:04.000Z</time>
</trkpt>
<trkpt lat="31.6216020" lon="34.9554344">
<ele>394.599976</ele>
<time>2016-09-02T05:25:18.000Z</time>
</trkpt>
<trkpt lat="31.6216583" lon="34.9555217">
<ele>396.200012</ele>
<time>2016-09-02T05:25:32.000Z</time>
</trkpt>
<trkpt lat="31.6217074" lon="34.9556115">
<ele>397.600006</ele>
<time>2016-09-02T05:25:44.000Z</time>
</trkpt>
<trkpt lat="31.6217595" lon="34.9557044">
<ele>399.399994</ele>
<time>2016-09-02T05:25:52.000Z</time>
</trkpt>
<trkpt lat="31.6218094" lon="34.9558016">
<ele>401.000000</ele>
<time>2016-09-02T05:26:01.000Z</time>
</trkpt>
<trkpt lat="31.6218562" lon="34.9558924">
<ele>402.600006</ele>
<time>2016-09-02T05:26:09.000Z</time>
</trkpt>
<trkpt lat="31.6219009" lon="34.9559937">
<ele>404.399994</ele>
<time>2016-09-02T05:26:17.000Z</time>
</trkpt>
<trkpt lat="31.6219768" lon="34.9560613">
<ele>406.000000</ele>
<time>2016-09-02T05:26:26.000Z</time>
</trkpt>
<trkpt lat="31.6220388" lon="34.9561467">
<ele>407.799988</ele>
<time>2016-09-02T05:26:34.000Z</time>
</trkpt>
<trkpt lat="31.6220912" lon="34.9562352">
<ele>409.399963</ele>
<time>2016-09-02T05:26:42.000Z</time>
</trkpt>
<trkpt lat="31.6221531" lon="34.9563133">
<ele>410.200012</ele>
<time>2016-09-02T05:26:50.000Z</time>
</trkpt>
<trkpt lat="31.6222213" lon="34.9563972">
<ele>410.800018</ele>
<time>2016-09-02T05:27:00.000Z</time>
</trkpt>
<trkpt lat="31.6222710" lon="34.9564857">
<ele>411.399994</ele>
<time>2016-09-02T05:27:08.000Z</time>
</trkpt>
<trkpt lat="31.6222870" lon="34.9565893">
<ele>411.200012</ele>
<time>2016-09-02T05:27:16.000Z</time>
</trkpt>
<trkpt lat="31.6222946" lon="34.9567017">
<ele>411.200012</ele>
<time>2016-09-02T05:27:25.000Z</time>
</trkpt>
<trkpt lat="31.6223454" lon="34.9567941">
<ele>411.600006</ele>
<time>2016-09-02T05:27:33.000Z</time>
</trkpt>
<trkpt lat="31.6224105" lon="34.9568812">
<ele>411.600006</ele>
<time>2016-09-02T05:27:41.000Z</time>
</trkpt>
<trkpt lat="31.6225016" lon="34.9569267">
<ele>411.799988</ele>
<time>2016-09-02T05:27:47.000Z</time>
</trkpt>
<trkpt lat="31.6225827" lon="34.9569949">
<ele>411.799988</ele>
<time>2016-09-02T05:27:53.000Z</time>
</trkpt>
<trkpt lat="31.6226767" lon="34.9570320">
<ele>411.799988</ele>
<time>2016-09-02T05:27:59.000Z</time>
</trkpt>
<trkpt lat="31.6227765" lon="34.9570586">
<ele>412.000000</ele>
<time>2016-09-02T05:28:05.000Z</time>
</trkpt>
<trkpt lat="31.6228752" lon="34.9570643">
<ele>412.200043</ele>
<time>2016-09-02T05:28:11.000Z</time>
</trkpt>
<trkpt lat="31.6229842" lon="34.9570625">
<ele>412.600006</ele>
<time>2016-09-02T05:28:17.000Z</time>
</trkpt>
<trkpt lat="31.6230813" lon="34.9570468">
<ele>412.799988</ele>
<time>2016-09-02T05:28:22.000Z</time>
</trkpt>
<trkpt lat="31.6231741" lon="34.9570364">
<ele>413.200012</ele>
<time>2016-09-02T05:28:28.000Z</time>
</trkpt>
<trkpt lat="31.6231782" lon="34.9571235">
<ele>412.600006</ele>
<time>2016-09-02T05:28:35.000Z</time>
</trkpt>
<trkpt lat="31.6231451" lon="34.9571812">
<ele>411.799988</ele>
<time>2016-09-02T05:35:48.000Z</time>
</trkpt>
<trkpt lat="31.6231200" lon="34.9572850">
<ele>410.800018</ele>
<time>2016-09-02T05:35:52.000Z</time>
</trkpt>
<trkpt lat="31.6231039" lon="34.9574002">
<ele>409.600006</ele>
<time>2016-09-02T05:35:55.000Z</time>
</trkpt>
<trkpt lat="31.6230906" lon="34.9575424">
<ele>408.200012</ele>
<time>2016-09-02T05:35:58.000Z</time>
</trkpt>
<trkpt lat="31.6230780" lon="34.9576563">
<ele>407.200012</ele>
<time>2016-09-02T05:36:00.000Z</time>
</trkpt>
<trkpt lat="31.6230623" lon="34.9577919">
<ele>405.799988</ele>
<time>2016-09-02T05:36:02.000Z</time>
</trkpt>
<trkpt lat="31.6230451" lon="34.9579358">
<ele>405.200012</ele>
<time>2016-09-02T05:36:04.000Z</time>
</trkpt>
<trkpt lat="31.6230119" lon="34.9580805">
<ele>404.200012</ele>
<time>2016-09-02T05:36:06.000Z</time>
</trkpt>
<trkpt lat="31.6229828" lon="34.9582245">
<ele>403.200012</ele>
<time>2016-09-02T05:36:08.000Z</time>
</trkpt>
<trkpt lat="31.6229678" lon="34.9583703">
<ele>402.200012</ele>
<time>2016-09-02T05:36:10.000Z</time>
</trkpt>
<trkpt lat="31.6229580" lon="34.9585209">
<ele>401.199982</ele>
<time>2016-09-02T05:36:12.000Z</time>
</trkpt>
<trkpt lat="31.6229541" lon="34.9586726">
<ele>400.399994</ele>
<time>2016-09-02T05:36:14.000Z</time>
</trkpt>
<trkpt lat="31.6229536" lon="34.9588211">
<ele>399.800018</ele>
<time>2016-09-02T05:36:16.000Z</time>
</trkpt>
<trkpt lat="31.6229383" lon="34.9589636">
<ele>399.399994</ele>
<time>2016-09-02T05:36:18.000Z</time>
</trkpt>
<trkpt lat="31.6229065" lon="34.9590965">
<ele>399.000031</ele>
<time>2016-09-02T05:36:20.000Z</time>
</trkpt>
<trkpt lat="31.6228714" lon="34.9592226">
<ele>398.799988</ele>
<time>2016-09-02T05:36:22.000Z</time>
</trkpt>
<trkpt lat="31.6228336" lon="34.9593379">
<ele>398.600006</ele>
<time>2016-09-02T05:36:24.000Z</time>
</trkpt>
<trkpt lat="31.6227957" lon="34.9594497">
<ele>398.399994</ele>
<time>2016-09-02T05:36:26.000Z</time>
</trkpt>
<trkpt lat="31.6227586" lon="34.9595561">
<ele>398.200043</ele>
<time>2016-09-02T05:36:28.000Z</time>
</trkpt>
<trkpt lat="31.6227053" lon="34.9596492">
<ele>398.399994</ele>
<time>2016-09-02T05:36:30.000Z</time>
</trkpt>
<trkpt lat="31.6226295" lon="34.9597188">
<ele>399.000031</ele>
<time>2016-09-02T05:36:32.000Z</time>
</trkpt>
<trkpt lat="31.6225388" lon="34.9597709">
<ele>399.600006</ele>
<time>2016-09-02T05:36:34.000Z</time>
</trkpt>
<trkpt lat="31.6224413" lon="34.9598024">
<ele>399.399994</ele>
<time>2016-09-02T05:36:36.000Z</time>
</trkpt>
<trkpt lat="31.6223394" lon="34.9598219">
<ele>399.399994</ele>
<time>2016-09-02T05:36:38.000Z</time>
</trkpt>
<trkpt lat="31.6222363" lon="34.9598548">
<ele>399.399994</ele>
<time>2016-09-02T05:36:40.000Z</time>
</trkpt>
<trkpt lat="31.6221218" lon="34.9599083">
<ele>399.200012</ele>
<time>2016-09-02T05:36:42.000Z</time>
</trkpt>
<trkpt lat="31.6219958" lon="34.9599787">
<ele>399.000031</ele>
<time>2016-09-02T05:36:44.000Z</time>
</trkpt>
<trkpt lat="31.6218740" lon="34.9600648">
<ele>398.200043</ele>
<time>2016-09-02T05:36:46.000Z</time>
</trkpt>
<trkpt lat="31.6217510" lon="34.9601634">
<ele>396.799988</ele>
<time>2016-09-02T05:36:48.000Z</time>
</trkpt>
<trkpt lat="31.6216143" lon="34.9602565">
<ele>395.600006</ele>
<time>2016-09-02T05:36:50.000Z</time>
</trkpt>
<trkpt lat="31.6214669" lon="34.9603380">
<ele>395.000000</ele>
<time>2016-09-02T05:36:52.000Z</time>
</trkpt>
<trkpt lat="31.6213190" lon="34.9604190">
<ele>394.200012</ele>
<time>2016-09-02T05:36:54.000Z</time>
</trkpt>
<trkpt lat="31.6211729" lon="34.9604989">
<ele>394.599976</ele>
<time>2016-09-02T05:36:56.000Z</time>
</trkpt>
<trkpt lat="31.6210279" lon="34.9605768">
<ele>395.000000</ele>
<time>2016-09-02T05:36:58.000Z</time>
</trkpt>
<trkpt lat="31.6208835" lon="34.9606586">
<ele>394.799988</ele>
<time>2016-09-02T05:37:00.000Z</time>
</trkpt>
<trkpt lat="31.6207538" lon="34.9607534">
<ele>392.400024</ele>
<time>2016-09-02T05:37:02.000Z</time>
</trkpt>
<trkpt lat="31.6206358" lon="34.9608547">
<ele>390.600006</ele>
<time>2016-09-02T05:37:04.000Z</time>
</trkpt>
<trkpt lat="31.6205098" lon="34.9609548">
<ele>389.399994</ele>
<time>2016-09-02T05:37:06.000Z</time>
</trkpt>
<trkpt lat="31.6203744" lon="34.9610529">
<ele>387.399994</ele>
<time>2016-09-02T05:37:08.000Z</time>
</trkpt>
<trkpt lat="31.6202380" lon="34.9611334">
<ele>385.399994</ele>
<time>2016-09-02T05:37:10.000Z</time>
</trkpt>
<trkpt lat="31.6201137" lon="34.9612083">
<ele>383.399994</ele>
<time>2016-09-02T05:37:12.000Z</time>
</trkpt>
<trkpt lat="31.6199820" lon="34.9612756">
<ele>382.000000</ele>
<time>2016-09-02T05:37:14.000Z</time>
</trkpt>
<trkpt lat="31.6198551" lon="34.9613526">
<ele>380.600037</ele>
<time>2016-09-02T05:37:16.000Z</time>
</trkpt>
<trkpt lat="31.6197466" lon="34.9614417">
<ele>379.600006</ele>
<time>2016-09-02T05:37:18.000Z</time>
</trkpt>
<trkpt lat="31.6196727" lon="34.9615304">
<ele>378.799988</ele>
<time>2016-09-02T05:37:20.000Z</time>
</trkpt>
<trkpt lat="31.6196280" lon="34.9616295">
<ele>378.000000</ele>
<time>2016-09-02T05:37:22.000Z</time>
</trkpt>
<trkpt lat="31.6195982" lon="34.9617369">
<ele>377.399994</ele>
<time>2016-09-02T05:37:24.000Z</time>
</trkpt>
<trkpt lat="31.6195858" lon="34.9618416">
<ele>376.799988</ele>
<time>2016-09-02T05:37:26.000Z</time>
</trkpt>
<trkpt lat="31.6195827" lon="34.9619499">
<ele>376.000000</ele>
<time>2016-09-02T05:37:28.000Z</time>
</trkpt>
<trkpt lat="31.6195861" lon="34.9620600">
<ele>375.200012</ele>
<time>2016-09-02T05:37:30.000Z</time>
</trkpt>
<trkpt lat="31.6196153" lon="34.9622003">
<ele>375.399994</ele>
<time>2016-09-02T05:37:33.000Z</time>
</trkpt>
<trkpt lat="31.6196505" lon="34.9623058">
<ele>375.799988</ele>
<time>2016-09-02T05:37:36.000Z</time>
</trkpt>
<trkpt lat="31.6196937" lon="34.9624062">
<ele>376.199982</ele>
<time>2016-09-02T05:37:40.000Z</time>
</trkpt>
<trkpt lat="31.6197431" lon="34.9625249">
<ele>376.799988</ele>
<time>2016-09-02T05:37:45.000Z</time>
</trkpt>
<trkpt lat="31.6197770" lon="34.9626394">
<ele>377.200012</ele>
<time>2016-09-02T05:37:49.000Z</time>
</trkpt>
<trkpt lat="31.6198103" lon="34.9627533">
<ele>377.600037</ele>
<time>2016-09-02T05:37:53.000Z</time>
</trkpt>
<trkpt lat="31.6198496" lon="34.9628663">
<ele>378.000000</ele>
<time>2016-09-02T05:37:57.000Z</time>
</trkpt>
<trkpt lat="31.6199094" lon="34.9629590">
<ele>379.000000</ele>
<time>2016-09-02T05:38:01.000Z</time>
</trkpt>
<trkpt lat="31.6199552" lon="34.9630533">
<ele>379.600006</ele>
<time>2016-09-02T05:38:06.000Z</time>
</trkpt>
<trkpt lat="31.6200017" lon="34.9631472">
<ele>380.399994</ele>
<time>2016-09-02T05:38:11.000Z</time>
</trkpt>
<trkpt lat="31.6200539" lon="34.9632374">
<ele>381.200012</ele>
<time>2016-09-02T05:38:16.000Z</time>
</trkpt>
<trkpt lat="31.6201003" lon="34.9633369">
<ele>382.000000</ele>
<time>2016-09-02T05:38:21.000Z</time>
</trkpt>
<trkpt lat="31.6201539" lon="34.9634367">
<ele>383.000000</ele>
<time>2016-09-02T05:38:26.000Z</time>
</trkpt>
<trkpt lat="31.6202019" lon="34.9635341">
<ele>383.799988</ele>
<time>2016-09-02T05:38:31.000Z</time>
</trkpt>
<trkpt lat="31.6202502" lon="34.9636293">
<ele>384.600006</ele>
<time>2016-09-02T05:38:36.000Z</time>
</trkpt>
<trkpt lat="31.6203017" lon="34.9637261">
<ele>385.399994</ele>
<time>2016-09-02T05:38:41.000Z</time>
</trkpt>
<trkpt lat="31.6203593" lon="34.9638218">
<ele>386.000000</ele>
<time>2016-09-02T05:38:46.000Z</time>
</trkpt>
<trkpt lat="31.6204265" lon="34.9639068">
<ele>386.399994</ele>
<time>2016-09-02T05:38:51.000Z</time>
</trkpt>
<trkpt lat="31.6204952" lon="34.9639910">
<ele>387.000000</ele>
<time>2016-09-02T05:38:56.000Z</time>
</trkpt>
<trkpt lat="31.6205507" lon="34.9640866">
<ele>387.399994</ele>
<time>2016-09-02T05:39:01.000Z</time>
</trkpt>
<trkpt lat="31.6205971" lon="34.9641789">
<ele>387.600006</ele>
<time>2016-09-02T05:39:06.000Z</time>
</trkpt>
<trkpt lat="31.6206534" lon="34.9642635">
<ele>387.999969</ele>
<time>2016-09-02T05:39:11.000Z</time>
</trkpt>
<trkpt lat="31.6207047" lon="34.9643586">
<ele>388.399994</ele>
<time>2016-09-02T05:39:16.000Z</time>
</trkpt>
<trkpt lat="31.6207599" lon="34.9644508">
<ele>388.600006</ele>
<time>2016-09-02T05:39:21.000Z</time>
</trkpt>
<trkpt lat="31.6208167" lon="34.9645429">
<ele>389.000000</ele>
<time>2016-09-02T05:39:26.000Z</time>
</trkpt>
<trkpt lat="31.6208790" lon="34.9646198">
<ele>389.600006</ele>
<time>2016-09-02T05:39:31.000Z</time>
</trkpt>
<trkpt lat="31.6209650" lon="34.9646974">
<ele>390.199982</ele>
<time>2016-09-02T05:39:37.000Z</time>
</trkpt>
<trkpt lat="31.6210433" lon="34.9647700">
<ele>391.000000</ele>
<time>2016-09-02T05:39:43.000Z</time>
</trkpt>
<trkpt lat="31.6211338" lon="34.9648419">
<ele>391.799988</ele>
<time>2016-09-02T05:39:49.000Z</time>
</trkpt>
<trkpt lat="31.6212196" lon="34.9649180">
<ele>392.600006</ele>
<time>2016-09-02T05:39:55.000Z</time>
</trkpt>
<trkpt lat="31.6213040" lon="34.9649845">
<ele>393.399994</ele>
<time>2016-09-02T05:40:01.000Z</time>
</trkpt>
<trkpt lat="31.6213866" lon="34.9650483">
<ele>394.200012</ele>
<time>2016-09-02T05:40:07.000Z</time>
</trkpt>
<trkpt lat="31.6214695" lon="34.9651072">
<ele>395.000000</ele>
<time>2016-09-02T05:40:13.000Z</time>
</trkpt>
<trkpt lat="31.6215536" lon="34.9651563">
<ele>395.799988</ele>
<time>2016-09-02T05:40:19.000Z</time>
</trkpt>
<trkpt lat="31.6216359" lon="34.9652087">
<ele>396.399994</ele>
<time>2016-09-02T05:40:25.000Z</time>
</trkpt>
<trkpt lat="31.6217193" lon="34.9652522">
<ele>396.799988</ele>
<time>2016-09-02T05:40:31.000Z</time>
</trkpt>
<trkpt lat="31.6218051" lon="34.9652932">
<ele>397.399994</ele>
<time>2016-09-02T05:40:37.000Z</time>
</trkpt>
<trkpt lat="31.6218957" lon="34.9653288">
<ele>398.000000</ele>
<time>2016-09-02T05:40:43.000Z</time>
</trkpt>
<trkpt lat="31.6219957" lon="34.9653610">
<ele>398.799988</ele>
<time>2016-09-02T05:40:50.000Z</time>
</trkpt>
<trkpt lat="31.6220912" lon="34.9653834">
<ele>399.600006</ele>
<time>2016-09-02T05:40:56.000Z</time>
</trkpt>
<trkpt lat="31.6221904" lon="34.9653956">
<ele>400.600006</ele>
<time>2016-09-02T05:41:02.000Z</time>
</trkpt>
<trkpt lat="31.6222838" lon="34.9654156">
<ele>401.399994</ele>
<time>2016-09-02T05:41:08.000Z</time>
</trkpt>
<trkpt lat="31.6223775" lon="34.9654363">
<ele>402.200012</ele>
<time>2016-09-02T05:41:14.000Z</time>
</trkpt>
<trkpt lat="31.6224691" lon="34.9654594">
<ele>403.200012</ele>
<time>2016-09-02T05:41:20.000Z</time>
</trkpt>
<trkpt lat="31.6225591" lon="34.9654839">
<ele>404.200012</ele>
<time>2016-09-02T05:41:27.000Z</time>
</trkpt>
<trkpt lat="31.6226515" lon="34.9655245">
<ele>405.200012</ele>
<time>2016-09-02T05:41:35.000Z</time>
</trkpt>
<trkpt lat="31.6227414" lon="34.9655812">
<ele>406.200012</ele>
<time>2016-09-02T05:41:43.000Z</time>
</trkpt>
<trkpt lat="31.6228140" lon="34.9656503">
<ele>407.000000</ele>
<time>2016-09-02T05:41:50.000Z</time>
</trkpt>
<trkpt lat="31.6228599" lon="34.9657467">
<ele>407.399994</ele>
<time>2016-09-02T05:41:58.000Z</time>
</trkpt>
<trkpt lat="31.6228864" lon="34.9658458">
<ele>407.799988</ele>
<time>2016-09-02T05:42:06.000Z</time>
</trkpt>
<trkpt lat="31.6229510" lon="34.9659238">
<ele>408.399994</ele>
<time>2016-09-02T05:42:14.000Z</time>
</trkpt>
<trkpt lat="31.6230245" lon="34.9658482">
<ele>409.200043</ele>
<time>2016-09-02T05:42:22.000Z</time>
</trkpt>
<trkpt lat="31.6230850" lon="34.9657567">
<ele>409.799988</ele>
<time>2016-09-02T05:42:29.000Z</time>
</trkpt>
<trkpt lat="31.6231510" lon="34.9656693">
<ele>410.600006</ele>
<time>2016-09-02T05:42:36.000Z</time>
</trkpt>
<trkpt lat="31.6232008" lon="34.9655737">
<ele>411.000000</ele>
<time>2016-09-02T05:42:43.000Z</time>
</trkpt>
<trkpt lat="31.6232175" lon="34.9654735">
<ele>411.200012</ele>
<time>2016-09-02T05:42:49.000Z</time>
</trkpt>
<trkpt lat="31.6232487" lon="34.9654063">
<ele>411.200012</ele>
<time>2016-09-02T05:51:34.000Z</time>
</trkpt>
<trkpt lat="31.6232570" lon="34.9653081">
<ele>411.200012</ele>
<time>2016-09-02T05:51:48.000Z</time>
</trkpt>
<trkpt lat="31.6232933" lon="34.9651985">
<ele>411.200012</ele>
<time>2016-09-02T05:51:55.000Z</time>
</trkpt>
<trkpt lat="31.6233324" lon="34.9650800">
<ele>411.399994</ele>
<time>2016-09-02T05:52:02.000Z</time>
</trkpt>
<trkpt lat="31.6233709" lon="34.9649689">
<ele>411.399994</ele>
<time>2016-09-02T05:52:07.000Z</time>
</trkpt>
<trkpt lat="31.6234214" lon="34.9648758">
<ele>411.600006</ele>
<time>2016-09-02T05:52:12.000Z</time>
</trkpt>
<trkpt lat="31.6234822" lon="34.9647815">
<ele>411.000000</ele>
<time>2016-09-02T05:52:17.000Z</time>
</trkpt>
<trkpt lat="31.6235285" lon="34.9646904">
<ele>410.200012</ele>
<time>2016-09-02T05:52:26.000Z</time>
</trkpt>
<trkpt lat="31.6235803" lon="34.9645903">
<ele>409.200043</ele>
<time>2016-09-02T05:52:32.000Z</time>
</trkpt>
<trkpt lat="31.6236479" lon="34.9645028">
<ele>409.399963</ele>
<time>2016-09-02T05:52:37.000Z</time>
</trkpt>
<trkpt lat="31.6237150" lon="34.9643934">
<ele>409.799988</ele>
<time>2016-09-02T05:52:42.000Z</time>
</trkpt>
<trkpt lat="31.6237887" lon="34.9642883">
<ele>409.799988</ele>
<time>2016-09-02T05:52:46.000Z</time>
</trkpt>
<trkpt lat="31.6238569" lon="34.9642011">
<ele>409.000000</ele>
<time>2016-09-02T05:52:49.000Z</time>
</trkpt>
<trkpt lat="31.6239446" lon="34.9641163">
<ele>408.000000</ele>
<time>2016-09-02T05:52:52.000Z</time>
</trkpt>
<trkpt lat="31.6240393" lon="34.9640355">
<ele>406.799988</ele>
<time>2016-09-02T05:52:55.000Z</time>
</trkpt>
<trkpt lat="31.6241287" lon="34.9639848">
<ele>406.000000</ele>
<time>2016-09-02T05:52:58.000Z</time>
</trkpt>
<trkpt lat="31.6242458" lon="34.9639473">
<ele>404.799988</ele>
<time>2016-09-02T05:53:02.000Z</time>
</trkpt>
<trkpt lat="31.6243691" lon="34.9639052">
<ele>403.200012</ele>
<time>2016-09-02T05:53:05.000Z</time>
</trkpt>
<trkpt lat="31.6244773" lon="34.9638664">
<ele>401.799988</ele>
<time>2016-09-02T05:53:08.000Z</time>
</trkpt>
<trkpt lat="31.6246022" lon="34.9638776">
<ele>400.399994</ele>
<time>2016-09-02T05:53:12.000Z</time>
</trkpt>
<trkpt lat="31.6247126" lon="34.9639328">
<ele>399.200012</ele>
<time>2016-09-02T05:53:15.000Z</time>
</trkpt>
<trkpt lat="31.6248135" lon="34.9639437">
<ele>398.000000</ele>
<time>2016-09-02T05:53:18.000Z</time>
</trkpt>
<trkpt lat="31.6249011" lon="34.9639152">
<ele>397.200012</ele>
<time>2016-09-02T05:53:20.000Z</time>
</trkpt>
<trkpt lat="31.6249976" lon="34.9638727">
<ele>396.399994</ele>
<time>2016-09-02T05:53:22.000Z</time>
</trkpt>
<trkpt lat="31.6250958" lon="34.9638327">
<ele>395.000000</ele>
<time>2016-09-02T05:53:24.000Z</time>
</trkpt>
<trkpt lat="31.6251898" lon="34.9637964">
<ele>393.799988</ele>
<time>2016-09-02T05:53:26.000Z</time>
</trkpt>
<trkpt lat="31.6252915" lon="34.9637628">
<ele>392.400024</ele>
<time>2016-09-02T05:53:28.000Z</time>
</trkpt>
<trkpt lat="31.6254015" lon="34.9637236">
<ele>391.000000</ele>
<time>2016-09-02T05:53:30.000Z</time>
</trkpt>
<trkpt lat="31.6255089" lon="34.9636778">
<ele>389.799988</ele>
<time>2016-09-02T05:53:32.000Z</time>
</trkpt>
<trkpt lat="31.6256213" lon="34.9636400">
<ele>388.399994</ele>
<time>2016-09-02T05:53:34.000Z</time>
</trkpt>
<trkpt lat="31.6257279" lon="34.9636195">
<ele>386.600006</ele>
<time>2016-09-02T05:53:36.000Z</time>
</trkpt>
<trkpt lat="31.6258255" lon="34.9635982">
<ele>385.200012</ele>
<time>2016-09-02T05:53:38.000Z</time>
</trkpt>
<trkpt lat="31.6259231" lon="34.9635606">
<ele>383.599976</ele>
<time>2016-09-02T05:53:42.000Z</time>
</trkpt>
<trkpt lat="31.6259822" lon="34.9634744">
<ele>382.200012</ele>
<time>2016-09-02T05:53:45.000Z</time>
</trkpt>
<trkpt lat="31.6260340" lon="34.9633683">
<ele>380.799988</ele>
<time>2016-09-02T05:53:47.000Z</time>
</trkpt>
<trkpt lat="31.6260952" lon="34.9632754">
<ele>379.799988</ele>
<time>2016-09-02T05:53:50.000Z</time>
</trkpt>
<trkpt lat="31.6262073" lon="34.9632267">
<ele>379.399994</ele>
<time>2016-09-02T05:53:54.000Z</time>
</trkpt>
<trkpt lat="31.6262904" lon="34.9631713">
<ele>379.200012</ele>
<time>2016-09-02T05:53:57.000Z</time>
</trkpt>
<trkpt lat="31.6263414" lon="34.9630683">
<ele>379.200012</ele>
<time>2016-09-02T05:54:00.000Z</time>
</trkpt>
<trkpt lat="31.6264222" lon="34.9629497">
<ele>379.399994</ele>
<time>2016-09-02T05:54:03.000Z</time>
</trkpt>
<trkpt lat="31.6265173" lon="34.9628979">
<ele>379.000000</ele>
<time>2016-09-02T05:54:06.000Z</time>
</trkpt>
<trkpt lat="31.6266179" lon="34.9629512">
<ele>378.600006</ele>
<time>2016-09-02T05:54:09.000Z</time>
</trkpt>
<trkpt lat="31.6267236" lon="34.9630193">
<ele>378.000000</ele>
<time>2016-09-02T05:54:12.000Z</time>
</trkpt>
<trkpt lat="31.6268343" lon="34.9630912">
<ele>377.200012</ele>
<time>2016-09-02T05:54:15.000Z</time>
</trkpt>
<trkpt lat="31.6269466" lon="34.9631607">
<ele>376.600006</ele>
<time>2016-09-02T05:54:18.000Z</time>
</trkpt>
<trkpt lat="31.6270565" lon="34.9632179">
<ele>376.000000</ele>
<time>2016-09-02T05:54:21.000Z</time>
</trkpt>
<trkpt lat="31.6271627" lon="34.9632694">
<ele>375.600006</ele>
<time>2016-09-02T05:54:24.000Z</time>
</trkpt>
<trkpt lat="31.6272773" lon="34.9633250">
<ele>375.000000</ele>
<time>2016-09-02T05:54:27.000Z</time>
</trkpt>
<trkpt lat="31.6273957" lon="34.9633884">
<ele>374.200012</ele>
<time>2016-09-02T05:54:30.000Z</time>
</trkpt>
<trkpt lat="31.6274776" lon="34.9634338">
<ele>373.600006</ele>
<time>2016-09-02T05:54:32.000Z</time>
</trkpt>
<trkpt lat="31.6275641" lon="34.9634779">
<ele>372.799988</ele>
<time>2016-09-02T05:54:34.000Z</time>
</trkpt>
<trkpt lat="31.6276780" lon="34.9635660">
<ele>371.600006</ele>
<time>2016-09-02T05:54:37.000Z</time>
</trkpt>
<trkpt lat="31.6277643" lon="34.9636841">
<ele>370.000000</ele>
<time>2016-09-02T05:54:40.000Z</time>
</trkpt>
<trkpt lat="31.6278352" lon="34.9638086">
<ele>369.200012</ele>
<time>2016-09-02T05:54:43.000Z</time>
</trkpt>
<trkpt lat="31.6279080" lon="34.9639276">
<ele>368.799988</ele>
<time>2016-09-02T05:54:46.000Z</time>
</trkpt>
<trkpt lat="31.6279787" lon="34.9640548">
<ele>368.399994</ele>
<time>2016-09-02T05:54:49.000Z</time>
</trkpt>
<trkpt lat="31.6280361" lon="34.9641886">
<ele>368.000000</ele>
<time>2016-09-02T05:54:52.000Z</time>
</trkpt>
<trkpt lat="31.6280801" lon="34.9643239">
<ele>367.600006</ele>
<time>2016-09-02T05:54:55.000Z</time>
</trkpt>
<trkpt lat="31.6281132" lon="34.9644607">
<ele>367.400024</ele>
<time>2016-09-02T05:54:58.000Z</time>
</trkpt>
<trkpt lat="31.6281483" lon="34.9645829">
<ele>367.400024</ele>
<time>2016-09-02T05:55:01.000Z</time>
</trkpt>
<trkpt lat="31.6281084" lon="34.9646871">
<ele>368.000000</ele>
<time>2016-09-02T05:55:05.000Z</time>
</trkpt>
<trkpt lat="31.6280438" lon="34.9647603">
<ele>368.600006</ele>
<time>2016-09-02T05:55:08.000Z</time>
</trkpt>
<trkpt lat="31.6279734" lon="34.9648388">
<ele>369.399994</ele>
<time>2016-09-02T05:55:11.000Z</time>
</trkpt>
<trkpt lat="31.6279028" lon="34.9649177">
<ele>370.200012</ele>
<time>2016-09-02T05:55:14.000Z</time>
</trkpt>
<trkpt lat="31.6278351" lon="34.9649990">
<ele>371.000000</ele>
<time>2016-09-02T05:55:17.000Z</time>
</trkpt>
<trkpt lat="31.6277653" lon="34.9650826">
<ele>371.200012</ele>
<time>2016-09-02T05:55:20.000Z</time>
</trkpt>
<trkpt lat="31.6276983" lon="34.9651678">
<ele>371.000000</ele>
<time>2016-09-02T05:55:23.000Z</time>
</trkpt>
<trkpt lat="31.6276342" lon="34.9652527">
<ele>370.799988</ele>
<time>2016-09-02T05:55:26.000Z</time>
</trkpt>
<trkpt lat="31.6275707" lon="34.9653363">
<ele>370.799988</ele>
<time>2016-09-02T05:55:29.000Z</time>
</trkpt>
<trkpt lat="31.6275071" lon="34.9654208">
<ele>370.600006</ele>
<time>2016-09-02T05:55:32.000Z</time>
</trkpt>
<trkpt lat="31.6274383" lon="34.9655071">
<ele>371.200012</ele>
<time>2016-09-02T05:55:35.000Z</time>
</trkpt>
<trkpt lat="31.6273722" lon="34.9655939">
<ele>371.200012</ele>
<time>2016-09-02T05:55:38.000Z</time>
</trkpt>
<trkpt lat="31.6273028" lon="34.9656787">
<ele>372.200012</ele>
<time>2016-09-02T05:55:41.000Z</time>
</trkpt>
<trkpt lat="31.6272321" lon="34.9657701">
<ele>373.600006</ele>
<time>2016-09-02T05:55:44.000Z</time>
</trkpt>
<trkpt lat="31.6271618" lon="34.9658649">
<ele>375.000000</ele>
<time>2016-09-02T05:55:47.000Z</time>
</trkpt>
<trkpt lat="31.6270954" lon="34.9659648">
<ele>376.399994</ele>
<time>2016-09-02T05:55:50.000Z</time>
</trkpt>
<trkpt lat="31.6270356" lon="34.9660732">
<ele>376.199982</ele>
<time>2016-09-02T05:55:53.000Z</time>
</trkpt>
<trkpt lat="31.6269880" lon="34.9661903">
<ele>376.000000</ele>
<time>2016-09-02T05:55:56.000Z</time>
</trkpt>
<trkpt lat="31.6269581" lon="34.9663115">
<ele>376.199982</ele>
<time>2016-09-02T05:55:59.000Z</time>
</trkpt>
<trkpt lat="31.6269394" lon="34.9664317">
<ele>377.200012</ele>
<time>2016-09-02T05:56:02.000Z</time>
</trkpt>
<trkpt lat="31.6269349" lon="34.9665468">
<ele>377.799957</ele>
<time>2016-09-02T05:56:05.000Z</time>
</trkpt>
<trkpt lat="31.6269363" lon="34.9666594">
<ele>378.600006</ele>
<time>2016-09-02T05:56:08.000Z</time>
</trkpt>
<trkpt lat="31.6269472" lon="34.9667700">
<ele>378.000000</ele>
<time>2016-09-02T05:56:11.000Z</time>
</trkpt>
<trkpt lat="31.6269563" lon="34.9669105">
<ele>377.399994</ele>
<time>2016-09-02T05:56:15.000Z</time>
</trkpt>
<trkpt lat="31.6269494" lon="34.9670171">
<ele>376.799988</ele>
<time>2016-09-02T05:56:18.000Z</time>
</trkpt>
<trkpt lat="31.6269200" lon="34.9671439">
<ele>377.200012</ele>
<time>2016-09-02T05:56:22.000Z</time>
</trkpt>
<trkpt lat="31.6268672" lon="34.9672653">
<ele>378.600006</ele>
<time>2016-09-02T05:56:26.000Z</time>
</trkpt>
<trkpt lat="31.6268130" lon="34.9673707">
<ele>379.799988</ele>
<time>2016-09-02T05:56:29.000Z</time>
</trkpt>
<trkpt lat="31.6267540" lon="34.9674772">
<ele>379.200012</ele>
<time>2016-09-02T05:56:32.000Z</time>
</trkpt>
<trkpt lat="31.6266888" lon="34.9675846">
<ele>378.600006</ele>
<time>2016-09-02T05:56:35.000Z</time>
</trkpt>
<trkpt lat="31.6266201" lon="34.9677036">
<ele>378.000000</ele>
<time>2016-09-02T05:56:38.000Z</time>
</trkpt>
<trkpt lat="31.6265489" lon="34.9678156">
<ele>377.200012</ele>
<time>2016-09-02T05:56:41.000Z</time>
</trkpt>
<trkpt lat="31.6264762" lon="34.9679274">
<ele>377.399994</ele>
<time>2016-09-02T05:56:44.000Z</time>
</trkpt>
<trkpt lat="31.6264003" lon="34.9680360">
<ele>379.000000</ele>
<time>2016-09-02T05:56:47.000Z</time>
</trkpt>
<trkpt lat="31.6263299" lon="34.9681448">
<ele>380.399994</ele>
<time>2016-09-02T05:56:50.000Z</time>
</trkpt>
<trkpt lat="31.6262534" lon="34.9682514">
<ele>381.799988</ele>
<time>2016-09-02T05:56:53.000Z</time>
</trkpt>
<trkpt lat="31.6261759" lon="34.9683557">
<ele>383.399994</ele>
<time>2016-09-02T05:56:56.000Z</time>
</trkpt>
<trkpt lat="31.6261023" lon="34.9684610">
<ele>382.799988</ele>
<time>2016-09-02T05:56:59.000Z</time>
</trkpt>
<trkpt lat="31.6260320" lon="34.9685651">
<ele>381.799988</ele>
<time>2016-09-02T05:57:02.000Z</time>
</trkpt>
<trkpt lat="31.6259635" lon="34.9686709">
<ele>380.600037</ele>
<time>2016-09-02T05:57:05.000Z</time>
</trkpt>
<trkpt lat="31.6258940" lon="34.9687779">
<ele>380.200012</ele>
<time>2016-09-02T05:57:08.000Z</time>
</trkpt>
<trkpt lat="31.6258273" lon="34.9688826">
<ele>380.799988</ele>
<time>2016-09-02T05:57:11.000Z</time>
</trkpt>
<trkpt lat="31.6257654" lon="34.9689844">
<ele>380.600037</ele>
<time>2016-09-02T05:57:14.000Z</time>
</trkpt>
<trkpt lat="31.6257087" lon="34.9690891">
<ele>380.399994</ele>
<time>2016-09-02T05:57:17.000Z</time>
</trkpt>
<trkpt lat="31.6256546" lon="34.9691942">
<ele>380.799988</ele>
<time>2016-09-02T05:57:20.000Z</time>
</trkpt>
<trkpt lat="31.6255998" lon="34.9692965">
<ele>381.799988</ele>
<time>2016-09-02T05:57:23.000Z</time>
</trkpt>
<trkpt lat="31.6255481" lon="34.9694179">
<ele>382.799988</ele>
<time>2016-09-02T05:57:26.000Z</time>
</trkpt>
<trkpt lat="31.6255124" lon="34.9695419">
<ele>382.200012</ele>
<time>2016-09-02T05:57:29.000Z</time>
</trkpt>
<trkpt lat="31.6254907" lon="34.9696701">
<ele>382.399994</ele>
<time>2016-09-02T05:57:32.000Z</time>
</trkpt>
<trkpt lat="31.6254729" lon="34.9698001">
<ele>383.000000</ele>
<time>2016-09-02T05:57:35.000Z</time>
</trkpt>
<trkpt lat="31.6254704" lon="34.9699330">
<ele>383.599976</ele>
<time>2016-09-02T05:57:38.000Z</time>
</trkpt>
<trkpt lat="31.6254843" lon="34.9700608">
<ele>384.399963</ele>
<time>2016-09-02T05:57:41.000Z</time>
</trkpt>
<trkpt lat="31.6255107" lon="34.9701880">
<ele>385.000031</ele>
<time>2016-09-02T05:57:44.000Z</time>
</trkpt>
<trkpt lat="31.6255512" lon="34.9703110">
<ele>385.800018</ele>
<time>2016-09-02T05:57:47.000Z</time>
</trkpt>
<trkpt lat="31.6256010" lon="34.9704286">
<ele>386.399994</ele>
<time>2016-09-02T05:57:50.000Z</time>
</trkpt>
<trkpt lat="31.6256513" lon="34.9705391">
<ele>386.200012</ele>
<time>2016-09-02T05:57:53.000Z</time>
</trkpt>
<trkpt lat="31.6257061" lon="34.9706437">
<ele>386.399994</ele>
<time>2016-09-02T05:57:56.000Z</time>
</trkpt>
<trkpt lat="31.6257642" lon="34.9707447">
<ele>386.799988</ele>
<time>2016-09-02T05:57:59.000Z</time>
</trkpt>
<trkpt lat="31.6258222" lon="34.9708401">
<ele>387.000000</ele>
<time>2016-09-02T05:58:02.000Z</time>
</trkpt>
<trkpt lat="31.6258894" lon="34.9709307">
<ele>387.600006</ele>
<time>2016-09-02T05:58:05.000Z</time>
</trkpt>
<trkpt lat="31.6259668" lon="34.9710253">
<ele>388.200012</ele>
<time>2016-09-02T05:58:09.000Z</time>
</trkpt>
<trkpt lat="31.6260391" lon="34.9711079">
<ele>388.799957</ele>
<time>2016-09-02T05:58:13.000Z</time>
</trkpt>
<trkpt lat="31.6261085" lon="34.9711910">
<ele>389.200012</ele>
<time>2016-09-02T05:58:17.000Z</time>
</trkpt>
<trkpt lat="31.6261807" lon="34.9712731">
<ele>389.799988</ele>
<time>2016-09-02T05:58:21.000Z</time>
</trkpt>
<trkpt lat="31.6262516" lon="34.9713667">
<ele>390.199982</ele>
<time>2016-09-02T05:58:25.000Z</time>
</trkpt>
<trkpt lat="31.6263194" lon="34.9714701">
<ele>390.600006</ele>
<time>2016-09-02T05:58:29.000Z</time>
</trkpt>
<trkpt lat="31.6263770" lon="34.9715768">
<ele>390.600006</ele>
<time>2016-09-02T05:58:33.000Z</time>
</trkpt>
<trkpt lat="31.6264324" lon="34.9716937">
<ele>390.799988</ele>
<time>2016-09-02T05:58:37.000Z</time>
</trkpt>
<trkpt lat="31.6264794" lon="34.9718153">
<ele>390.799988</ele>
<time>2016-09-02T05:58:41.000Z</time>
</trkpt>
<trkpt lat="31.6265214" lon="34.9719374">
<ele>390.600006</ele>
<time>2016-09-02T05:58:45.000Z</time>
</trkpt>
<trkpt lat="31.6265640" lon="34.9720598">
<ele>390.799988</ele>
<time>2016-09-02T05:58:49.000Z</time>
</trkpt>
<trkpt lat="31.6265966" lon="34.9721857">
<ele>391.000000</ele>
<time>2016-09-02T05:58:53.000Z</time>
</trkpt>
<trkpt lat="31.6266283" lon="34.9723125">
<ele>391.200012</ele>
<time>2016-09-02T05:58:57.000Z</time>
</trkpt>
<trkpt lat="31.6266627" lon="34.9724263">
<ele>391.600037</ele>
<time>2016-09-02T05:59:01.000Z</time>
</trkpt>
<trkpt lat="31.6266990" lon="34.9725452">
<ele>392.000000</ele>
<time>2016-09-02T05:59:05.000Z</time>
</trkpt>
<trkpt lat="31.6267395" lon="34.9726694">
<ele>392.400024</ele>
<time>2016-09-02T05:59:09.000Z</time>
</trkpt>
<trkpt lat="31.6267813" lon="34.9727985">
<ele>392.799988</ele>
<time>2016-09-02T05:59:13.000Z</time>
</trkpt>
<trkpt lat="31.6268141" lon="34.9728970">
<ele>393.200012</ele>
<time>2016-09-02T05:59:16.000Z</time>
</trkpt>
<trkpt lat="31.6268493" lon="34.9729970">
<ele>393.200012</ele>
<time>2016-09-02T05:59:19.000Z</time>
</trkpt>
<trkpt lat="31.6268840" lon="34.9730982">
<ele>393.200012</ele>
<time>2016-09-02T05:59:22.000Z</time>
</trkpt>
<trkpt lat="31.6269249" lon="34.9731977">
<ele>393.200012</ele>
<time>2016-09-02T05:59:25.000Z</time>
</trkpt>
<trkpt lat="31.6269690" lon="34.9732996">
<ele>393.200012</ele>
<time>2016-09-02T05:59:28.000Z</time>
</trkpt>
<trkpt lat="31.6270190" lon="34.9734005">
<ele>393.200012</ele>
<time>2016-09-02T05:59:31.000Z</time>
</trkpt>
<trkpt lat="31.6270741" lon="34.9735069">
<ele>393.600006</ele>
<time>2016-09-02T05:59:34.000Z</time>
</trkpt>
<trkpt lat="31.6271332" lon="34.9736157">
<ele>394.000000</ele>
<time>2016-09-02T05:59:37.000Z</time>
</trkpt>
<trkpt lat="31.6271946" lon="34.9737220">
<ele>394.399994</ele>
<time>2016-09-02T05:59:40.000Z</time>
</trkpt>
<trkpt lat="31.6272561" lon="34.9738268">
<ele>394.599976</ele>
<time>2016-09-02T05:59:43.000Z</time>
</trkpt>
<trkpt lat="31.6273168" lon="34.9739303">
<ele>394.799988</ele>
<time>2016-09-02T05:59:46.000Z</time>
</trkpt>
<trkpt lat="31.6273782" lon="34.9740294">
<ele>394.799988</ele>
<time>2016-09-02T05:59:49.000Z</time>
</trkpt>
<trkpt lat="31.6274476" lon="34.9741182">
<ele>395.200012</ele>
<time>2016-09-02T05:59:52.000Z</time>
</trkpt>
<trkpt lat="31.6275256" lon="34.9741993">
<ele>395.399963</ele>
<time>2016-09-02T05:59:55.000Z</time>
</trkpt>
<trkpt lat="31.6275975" lon="34.9742702">
<ele>395.799988</ele>
<time>2016-09-02T05:59:58.000Z</time>
</trkpt>
<trkpt lat="31.6276652" lon="34.9743455">
<ele>396.200012</ele>
<time>2016-09-02T06:00:01.000Z</time>
</trkpt>
<trkpt lat="31.6277303" lon="34.9744218">
<ele>396.399994</ele>
<time>2016-09-02T06:00:04.000Z</time>
</trkpt>
<trkpt lat="31.6278203" lon="34.9745121">
<ele>396.799988</ele>
<time>2016-09-02T06:00:08.000Z</time>
</trkpt>
<trkpt lat="31.6279154" lon="34.9745847">
<ele>397.399994</ele>
<time>2016-09-02T06:00:12.000Z</time>
</trkpt>
<trkpt lat="31.6280150" lon="34.9746551">
<ele>398.000000</ele>
<time>2016-09-02T06:00:16.000Z</time>
</trkpt>
<trkpt lat="31.6281144" lon="34.9747244">
<ele>398.799988</ele>
<time>2016-09-02T06:00:20.000Z</time>
</trkpt>
<trkpt lat="31.6281930" lon="34.9747862">
<ele>399.200012</ele>
<time>2016-09-02T06:00:23.000Z</time>
</trkpt>
<trkpt lat="31.6282720" lon="34.9748608">
<ele>399.600006</ele>
<time>2016-09-02T06:00:26.000Z</time>
</trkpt>
<trkpt lat="31.6283494" lon="34.9749440">
<ele>399.800018</ele>
<time>2016-09-02T06:00:29.000Z</time>
</trkpt>
<trkpt lat="31.6284201" lon="34.9750296">
<ele>400.000000</ele>
<time>2016-09-02T06:00:32.000Z</time>
</trkpt>
<trkpt lat="31.6284903" lon="34.9751092">
<ele>400.200012</ele>
<time>2016-09-02T06:00:35.000Z</time>
</trkpt>
<trkpt lat="31.6285637" lon="34.9751868">
<ele>400.600006</ele>
<time>2016-09-02T06:00:38.000Z</time>
</trkpt>
<trkpt lat="31.6286399" lon="34.9752688">
<ele>400.799988</ele>
<time>2016-09-02T06:00:41.000Z</time>
</trkpt>
<trkpt lat="31.6287141" lon="34.9753455">
<ele>401.000000</ele>
<time>2016-09-02T06:00:44.000Z</time>
</trkpt>
<trkpt lat="31.6287840" lon="34.9754263">
<ele>401.199982</ele>
<time>2016-09-02T06:00:47.000Z</time>
</trkpt>
<trkpt lat="31.6288478" lon="34.9755074">
<ele>401.600006</ele>
<time>2016-09-02T06:00:50.000Z</time>
</trkpt>
<trkpt lat="31.6289209" lon="34.9756179">
<ele>401.799988</ele>
<time>2016-09-02T06:00:54.000Z</time>
</trkpt>
<trkpt lat="31.6289726" lon="34.9757073">
<ele>401.999969</ele>
<time>2016-09-02T06:00:57.000Z</time>
</trkpt>
<trkpt lat="31.6290204" lon="34.9757999">
<ele>401.999969</ele>
<time>2016-09-02T06:01:00.000Z</time>
</trkpt>
<trkpt lat="31.6290681" lon="34.9758977">
<ele>402.399994</ele>
<time>2016-09-02T06:01:03.000Z</time>
</trkpt>
<trkpt lat="31.6291128" lon="34.9759979">
<ele>402.600006</ele>
<time>2016-09-02T06:01:06.000Z</time>
</trkpt>
<trkpt lat="31.6291621" lon="34.9760979">
<ele>402.799957</ele>
<time>2016-09-02T06:01:09.000Z</time>
</trkpt>
<trkpt lat="31.6292084" lon="34.9761923">
<ele>403.200012</ele>
<time>2016-09-02T06:01:12.000Z</time>
</trkpt>
<trkpt lat="31.6292694" lon="34.9763071">
<ele>403.600006</ele>
<time>2016-09-02T06:01:16.000Z</time>
</trkpt>
<trkpt lat="31.6293378" lon="34.9764130">
<ele>404.000000</ele>
<time>2016-09-02T06:01:20.000Z</time>
</trkpt>
<trkpt lat="31.6294176" lon="34.9765004">
<ele>404.600006</ele>
<time>2016-09-02T06:01:24.000Z</time>
</trkpt>
<trkpt lat="31.6294903" lon="34.9765586">
<ele>405.399994</ele>
<time>2016-09-02T06:01:28.000Z</time>
</trkpt>
<trkpt lat="31.6295849" lon="34.9766187">
<ele>406.200012</ele>
<time>2016-09-02T06:01:33.000Z</time>
</trkpt>
<trkpt lat="31.6296766" lon="34.9766686">
<ele>407.000000</ele>
<time>2016-09-02T06:01:38.000Z</time>
</trkpt>
<trkpt lat="31.6297692" lon="34.9767168">
<ele>408.000000</ele>
<time>2016-09-02T06:01:43.000Z</time>
</trkpt>
<trkpt lat="31.6298605" lon="34.9767632">
<ele>408.799988</ele>
<time>2016-09-02T06:01:48.000Z</time>
</trkpt>
<trkpt lat="31.6299444" lon="34.9768122">
<ele>410.000031</ele>
<time>2016-09-02T06:01:53.000Z</time>
</trkpt>
<trkpt lat="31.6300320" lon="34.9768617">
<ele>411.000000</ele>
<time>2016-09-02T06:01:58.000Z</time>
</trkpt>
<trkpt lat="31.6301291" lon="34.9769201">
<ele>412.399994</ele>
<time>2016-09-02T06:02:04.000Z</time>
</trkpt>
<trkpt lat="31.6302189" lon="34.9769653">
<ele>413.600006</ele>
<time>2016-09-02T06:02:09.000Z</time>
</trkpt>
<trkpt lat="31.6303153" lon="34.9769982">
<ele>414.799988</ele>
<time>2016-09-02T06:02:16.000Z</time>
</trkpt>
<trkpt lat="31.6304167" lon="34.9769841">
<ele>416.399994</ele>
<time>2016-09-02T06:02:23.000Z</time>
</trkpt>
<trkpt lat="31.6305210" lon="34.9769679">
<ele>417.799988</ele>
<time>2016-09-02T06:02:30.000Z</time>
</trkpt>
<trkpt lat="31.6306190" lon="34.9769739">
<ele>419.399994</ele>
<time>2016-09-02T06:02:37.000Z</time>
</trkpt>
<trkpt lat="31.6307235" lon="34.9769792">
<ele>420.799988</ele>
<time>2016-09-02T06:02:44.000Z</time>
</trkpt>
<trkpt lat="31.6308248" lon="34.9769754">
<ele>421.399994</ele>
<time>2016-09-02T06:02:51.000Z</time>
</trkpt>
<trkpt lat="31.6309178" lon="34.9769691">
<ele>422.200012</ele>
<time>2016-09-02T06:02:58.000Z</time>
</trkpt>
<trkpt lat="31.6310171" lon="34.9769568">
<ele>423.000000</ele>
<time>2016-09-02T06:03:05.000Z</time>
</trkpt>
<trkpt lat="31.6311177" lon="34.9769396">
<ele>423.799988</ele>
<time>2016-09-02T06:03:12.000Z</time>
</trkpt>
<trkpt lat="31.6312109" lon="34.9769318">
<ele>424.399994</ele>
<time>2016-09-02T06:03:18.000Z</time>
</trkpt>
<trkpt lat="31.6313060" lon="34.9769277">
<ele>425.200012</ele>
<time>2016-09-02T06:03:23.000Z</time>
</trkpt>
<trkpt lat="31.6313973" lon="34.9769354">
<ele>425.799988</ele>
<time>2016-09-02T06:03:29.000Z</time>
</trkpt>
<trkpt lat="31.6314919" lon="34.9769494">
<ele>426.600006</ele>
<time>2016-09-02T06:03:35.000Z</time>
</trkpt>
<trkpt lat="31.6315863" lon="34.9769758">
<ele>426.799988</ele>
<time>2016-09-02T06:03:40.000Z</time>
</trkpt>
<trkpt lat="31.6316920" lon="34.9770062">
<ele>426.600006</ele>
<time>2016-09-02T06:03:45.000Z</time>
</trkpt>
<trkpt lat="31.6317832" lon="34.9770263">
<ele>426.399994</ele>
<time>2016-09-02T06:03:49.000Z</time>
</trkpt>
<trkpt lat="31.6318875" lon="34.9770475">
<ele>426.199982</ele>
<time>2016-09-02T06:03:53.000Z</time>
</trkpt>
<trkpt lat="31.6319875" lon="34.9770985">
<ele>425.799988</ele>
<time>2016-09-02T06:03:56.000Z</time>
</trkpt>
<trkpt lat="31.6321100" lon="34.9771598">
<ele>425.399994</ele>
<time>2016-09-02T06:03:59.000Z</time>
</trkpt>
<trkpt lat="31.6322192" lon="34.9771766">
<ele>425.200012</ele>
<time>2016-09-02T06:04:01.000Z</time>
</trkpt>
<trkpt lat="31.6323271" lon="34.9771620">
<ele>425.399994</ele>
<time>2016-09-02T06:04:03.000Z</time>
</trkpt>
<trkpt lat="31.6324425" lon="34.9771423">
<ele>424.600006</ele>
<time>2016-09-02T06:04:05.000Z</time>
</trkpt>
<trkpt lat="31.6325706" lon="34.9771312">
<ele>423.399994</ele>
<time>2016-09-02T06:04:07.000Z</time>
</trkpt>
<trkpt lat="31.6327049" lon="34.9771171">
<ele>422.000000</ele>
<time>2016-09-02T06:04:09.000Z</time>
</trkpt>
<trkpt lat="31.6328468" lon="34.9770972">
<ele>420.600006</ele>
<time>2016-09-02T06:04:11.000Z</time>
</trkpt>
<trkpt lat="31.6329957" lon="34.9770647">
<ele>419.200012</ele>
<time>2016-09-02T06:04:13.000Z</time>
</trkpt>
<trkpt lat="31.6331531" lon="34.9770256">
<ele>418.000000</ele>
<time>2016-09-02T06:04:15.000Z</time>
</trkpt>
<trkpt lat="31.6333163" lon="34.9769946">
<ele>417.000000</ele>
<time>2016-09-02T06:04:17.000Z</time>
</trkpt>
<trkpt lat="31.6334817" lon="34.9769665">
<ele>415.799988</ele>
<time>2016-09-02T06:04:19.000Z</time>
</trkpt>
<trkpt lat="31.6336444" lon="34.9769411">
<ele>414.799988</ele>
<time>2016-09-02T06:04:21.000Z</time>
</trkpt>
<trkpt lat="31.6337808" lon="34.9769013">
<ele>414.200012</ele>
<time>2016-09-02T06:04:23.000Z</time>
</trkpt>
<trkpt lat="31.6339148" lon="34.9768658">
<ele>413.200012</ele>
<time>2016-09-02T06:04:25.000Z</time>
</trkpt>
<trkpt lat="31.6340446" lon="34.9768380">
<ele>412.200043</ele>
<time>2016-09-02T06:04:27.000Z</time>
</trkpt>
<trkpt lat="31.6341698" lon="34.9768064">
<ele>411.399994</ele>
<time>2016-09-02T06:04:29.000Z</time>
</trkpt>
<trkpt lat="31.6342907" lon="34.9767658">
<ele>410.800018</ele>
<time>2016-09-02T06:04:31.000Z</time>
</trkpt>
<trkpt lat="31.6344085" lon="34.9767075">
<ele>410.399994</ele>
<time>2016-09-02T06:04:33.000Z</time>
</trkpt>
<trkpt lat="31.6345268" lon="34.9766393">
<ele>409.799988</ele>
<time>2016-09-02T06:04:35.000Z</time>
</trkpt>
<trkpt lat="31.6346477" lon="34.9765640">
<ele>409.399963</ele>
<time>2016-09-02T06:04:37.000Z</time>
</trkpt>
<trkpt lat="31.6347731" lon="34.9764854">
<ele>408.799988</ele>
<time>2016-09-02T06:04:39.000Z</time>
</trkpt>
<trkpt lat="31.6349071" lon="34.9764059">
<ele>408.599976</ele>
<time>2016-09-02T06:04:41.000Z</time>
</trkpt>
<trkpt lat="31.6350453" lon="34.9763398">
<ele>408.200012</ele>
<time>2016-09-02T06:04:43.000Z</time>
</trkpt>
<trkpt lat="31.6351897" lon="34.9762745">
<ele>407.200012</ele>
<time>2016-09-02T06:04:45.000Z</time>
</trkpt>
<trkpt lat="31.6353400" lon="34.9762028">
<ele>406.400024</ele>
<time>2016-09-02T06:04:47.000Z</time>
</trkpt>
<trkpt lat="31.6354981" lon="34.9761232">
<ele>406.000000</ele>
<time>2016-09-02T06:04:49.000Z</time>
</trkpt>
<trkpt lat="31.6356578" lon="34.9760500">
<ele>404.799988</ele>
<time>2016-09-02T06:04:51.000Z</time>
</trkpt>
<trkpt lat="31.6358178" lon="34.9759919">
<ele>403.799988</ele>
<time>2016-09-02T06:04:53.000Z</time>
</trkpt>
<trkpt lat="31.6359619" lon="34.9759662">
<ele>402.799957</ele>
<time>2016-09-02T06:04:55.000Z</time>
</trkpt>
<trkpt lat="31.6360911" lon="34.9759735">
<ele>401.600006</ele>
<time>2016-09-02T06:04:57.000Z</time>
</trkpt>
<trkpt lat="31.6362093" lon="34.9760308">
<ele>400.200012</ele>
<time>2016-09-02T06:04:59.000Z</time>
</trkpt>
<trkpt lat="31.6363040" lon="34.9761235">
<ele>398.799988</ele>
<time>2016-09-02T06:05:01.000Z</time>
</trkpt>
<trkpt lat="31.6363851" lon="34.9762131">
<ele>397.399994</ele>
<time>2016-09-02T06:05:03.000Z</time>
</trkpt>
<trkpt lat="31.6364604" lon="34.9762912">
<ele>396.799988</ele>
<time>2016-09-02T06:05:05.000Z</time>
</trkpt>
<trkpt lat="31.6365598" lon="34.9763640">
<ele>396.600006</ele>
<time>2016-09-02T06:05:08.000Z</time>
</trkpt>
<trkpt lat="31.6366373" lon="34.9764203">
<ele>396.799988</ele>
<time>2016-09-02T06:05:11.000Z</time>
</trkpt>
<trkpt lat="31.6367198" lon="34.9764716">
<ele>396.799988</ele>
<time>2016-09-02T06:05:14.000Z</time>
</trkpt>
<trkpt lat="31.6368140" lon="34.9765156">
<ele>396.799988</ele>
<time>2016-09-02T06:05:18.000Z</time>
</trkpt>
<trkpt lat="31.6369054" lon="34.9765517">
<ele>396.799988</ele>
<time>2016-09-02T06:05:21.000Z</time>
</trkpt>
<trkpt lat="31.6370090" lon="34.9765932">
<ele>396.799988</ele>
<time>2016-09-02T06:05:25.000Z</time>
</trkpt>
<trkpt lat="31.6370955" lon="34.9766403">
<ele>396.799988</ele>
<time>2016-09-02T06:05:29.000Z</time>
</trkpt>
<trkpt lat="31.6371686" lon="34.9767036">
<ele>397.000000</ele>
<time>2016-09-02T06:05:33.000Z</time>
</trkpt>
<trkpt lat="31.6372412" lon="34.9767733">
<ele>397.200012</ele>
<time>2016-09-02T06:05:37.000Z</time>
</trkpt>
<trkpt lat="31.6373065" lon="34.9768546">
<ele>397.600006</ele>
<time>2016-09-02T06:05:41.000Z</time>
</trkpt>
<trkpt lat="31.6373695" lon="34.9769568">
<ele>398.000000</ele>
<time>2016-09-02T06:05:46.000Z</time>
</trkpt>
<trkpt lat="31.6374131" lon="34.9770591">
<ele>398.799988</ele>
<time>2016-09-02T06:05:51.000Z</time>
</trkpt>
<trkpt lat="31.6374607" lon="34.9771651">
<ele>399.200012</ele>
<time>2016-09-02T06:05:55.000Z</time>
</trkpt>
<trkpt lat="31.6375372" lon="34.9772590">
<ele>399.600006</ele>
<time>2016-09-02T06:06:00.000Z</time>
</trkpt>
<trkpt lat="31.6375918" lon="34.9773628">
<ele>400.399994</ele>
<time>2016-09-02T06:06:05.000Z</time>
</trkpt>
<trkpt lat="31.6376247" lon="34.9774747">
<ele>401.199982</ele>
<time>2016-09-02T06:06:10.000Z</time>
</trkpt>
<trkpt lat="31.6376442" lon="34.9775954">
<ele>402.200012</ele>
<time>2016-09-02T06:06:15.000Z</time>
</trkpt>
<trkpt lat="31.6376580" lon="34.9777174">
<ele>403.400024</ele>
<time>2016-09-02T06:06:20.000Z</time>
</trkpt>
<trkpt lat="31.6376747" lon="34.9778379">
<ele>404.399994</ele>
<time>2016-09-02T06:06:24.000Z</time>
</trkpt>
<trkpt lat="31.6376912" lon="34.9779649">
<ele>405.200012</ele>
<time>2016-09-02T06:06:28.000Z</time>
</trkpt>
<trkpt lat="31.6376967" lon="34.9780850">
<ele>405.799988</ele>
<time>2016-09-02T06:06:32.000Z</time>
</trkpt>
<trkpt lat="31.6376886" lon="34.9782060">
<ele>406.400024</ele>
<time>2016-09-02T06:06:36.000Z</time>
</trkpt>
<trkpt lat="31.6376673" lon="34.9783199">
<ele>407.399994</ele>
<time>2016-09-02T06:06:40.000Z</time>
</trkpt>
<trkpt lat="31.6376388" lon="34.9784257">
<ele>408.599976</ele>
<time>2016-09-02T06:06:44.000Z</time>
</trkpt>
<trkpt lat="31.6376143" lon="34.9785288">
<ele>409.600006</ele>
<time>2016-09-02T06:06:48.000Z</time>
</trkpt>
<trkpt lat="31.6375887" lon="34.9786334">
<ele>410.800018</ele>
<time>2016-09-02T06:06:52.000Z</time>
</trkpt>
<trkpt lat="31.6375729" lon="34.9787414">
<ele>411.799988</ele>
<time>2016-09-02T06:06:56.000Z</time>
</trkpt>
<trkpt lat="31.6375698" lon="34.9788568">
<ele>412.799988</ele>
<time>2016-09-02T06:07:01.000Z</time>
</trkpt>
<trkpt lat="31.6375694" lon="34.9789871">
<ele>413.600006</ele>
<time>2016-09-02T06:07:06.000Z</time>
</trkpt>
<trkpt lat="31.6375843" lon="34.9791110">
<ele>414.200012</ele>
<time>2016-09-02T06:07:11.000Z</time>
</trkpt>
<trkpt lat="31.6375999" lon="34.9792416">
<ele>415.000000</ele>
<time>2016-09-02T06:07:16.000Z</time>
</trkpt>
<trkpt lat="31.6376147" lon="34.9793505">
<ele>415.399994</ele>
<time>2016-09-02T06:07:20.000Z</time>
</trkpt>
<trkpt lat="31.6376284" lon="34.9794662">
<ele>415.999969</ele>
<time>2016-09-02T06:07:24.000Z</time>
</trkpt>
<trkpt lat="31.6376514" lon="34.9795823">
<ele>416.600037</ele>
<time>2016-09-02T06:07:28.000Z</time>
</trkpt>
<trkpt lat="31.6376954" lon="34.9796855">
<ele>417.200012</ele>
<time>2016-09-02T06:07:32.000Z</time>
</trkpt>
<trkpt lat="31.6377607" lon="34.9797707">
<ele>417.400024</ele>
<time>2016-09-02T06:07:36.000Z</time>
</trkpt>
<trkpt lat="31.6378336" lon="34.9798456">
<ele>417.600006</ele>
<time>2016-09-02T06:07:40.000Z</time>
</trkpt>
<trkpt lat="31.6379236" lon="34.9799189">
<ele>417.400024</ele>
<time>2016-09-02T06:07:44.000Z</time>
</trkpt>
<trkpt lat="31.6380028" lon="34.9799797">
<ele>417.400024</ele>
<time>2016-09-02T06:07:47.000Z</time>
</trkpt>
<trkpt lat="31.6380977" lon="34.9800494">
<ele>417.200012</ele>
<time>2016-09-02T06:07:51.000Z</time>
</trkpt>
<trkpt lat="31.6381825" lon="34.9801101">
<ele>417.200012</ele>
<time>2016-09-02T06:07:55.000Z</time>
</trkpt>
<trkpt lat="31.6382626" lon="34.9801799">
<ele>418.200012</ele>
<time>2016-09-02T06:07:59.000Z</time>
</trkpt>
<trkpt lat="31.6383377" lon="34.9802384">
<ele>419.200012</ele>
<time>2016-09-02T06:08:03.000Z</time>
</trkpt>
<trkpt lat="31.6384198" lon="34.9803035">
<ele>420.399963</ele>
<time>2016-09-02T06:08:08.000Z</time>
</trkpt>
<trkpt lat="31.6385044" lon="34.9803725">
<ele>421.399994</ele>
<time>2016-09-02T06:08:13.000Z</time>
</trkpt>
<trkpt lat="31.6385910" lon="34.9804506">
<ele>422.399994</ele>
<time>2016-09-02T06:08:18.000Z</time>
</trkpt>
<trkpt lat="31.6386709" lon="34.9805322">
<ele>423.200043</ele>
<time>2016-09-02T06:08:23.000Z</time>
</trkpt>
<trkpt lat="31.6387457" lon="34.9806204">
<ele>423.799988</ele>
<time>2016-09-02T06:08:28.000Z</time>
</trkpt>
<trkpt lat="31.6388135" lon="34.9807238">
<ele>424.399994</ele>
<time>2016-09-02T06:08:33.000Z</time>
</trkpt>
<trkpt lat="31.6388624" lon="34.9808153">
<ele>425.000000</ele>
<time>2016-09-02T06:08:37.000Z</time>
</trkpt>
<trkpt lat="31.6388963" lon="34.9809236">
<ele>425.399994</ele>
<time>2016-09-02T06:08:41.000Z</time>
</trkpt>
<trkpt lat="31.6389228" lon="34.9810351">
<ele>425.799988</ele>
<time>2016-09-02T06:08:45.000Z</time>
</trkpt>
<trkpt lat="31.6389421" lon="34.9811686">
<ele>426.399994</ele>
<time>2016-09-02T06:08:49.000Z</time>
</trkpt>
<trkpt lat="31.6389567" lon="34.9812733">
<ele>426.999969</ele>
<time>2016-09-02T06:08:52.000Z</time>
</trkpt>
<trkpt lat="31.6389678" lon="34.9813861">
<ele>426.799988</ele>
<time>2016-09-02T06:08:55.000Z</time>
</trkpt>
<trkpt lat="31.6389702" lon="34.9815082">
<ele>426.600006</ele>
<time>2016-09-02T06:08:58.000Z</time>
</trkpt>
<trkpt lat="31.6389567" lon="34.9816379">
<ele>426.600006</ele>
<time>2016-09-02T06:09:01.000Z</time>
</trkpt>
<trkpt lat="31.6389474" lon="34.9817802">
<ele>426.399994</ele>
<time>2016-09-02T06:09:04.000Z</time>
</trkpt>
<trkpt lat="31.6389317" lon="34.9819203">
<ele>426.199982</ele>
<time>2016-09-02T06:09:07.000Z</time>
</trkpt>
<trkpt lat="31.6389158" lon="34.9820605">
<ele>426.600006</ele>
<time>2016-09-02T06:09:10.000Z</time>
</trkpt>
<trkpt lat="31.6388998" lon="34.9822083">
<ele>426.000000</ele>
<time>2016-09-02T06:09:13.000Z</time>
</trkpt>
<trkpt lat="31.6388841" lon="34.9823518">
<ele>425.200012</ele>
<time>2016-09-02T06:09:16.000Z</time>
</trkpt>
<trkpt lat="31.6388617" lon="34.9825043">
<ele>424.399994</ele>
<time>2016-09-02T06:09:19.000Z</time>
</trkpt>
<trkpt lat="31.6388391" lon="34.9826184">
<ele>423.799988</ele>
<time>2016-09-02T06:09:21.000Z</time>
</trkpt>
<trkpt lat="31.6388200" lon="34.9827286">
<ele>423.399994</ele>
<time>2016-09-02T06:09:23.000Z</time>
</trkpt>
<trkpt lat="31.6388086" lon="34.9828397">
<ele>423.399994</ele>
<time>2016-09-02T06:09:25.000Z</time>
</trkpt>
<trkpt lat="31.6387910" lon="34.9829557">
<ele>423.600006</ele>
<time>2016-09-02T06:09:27.000Z</time>
</trkpt>
<trkpt lat="31.6387712" lon="34.9830733">
<ele>424.200012</ele>
<time>2016-09-02T06:09:29.000Z</time>
</trkpt>
<trkpt lat="31.6387663" lon="34.9831899">
<ele>424.399994</ele>
<time>2016-09-02T06:09:31.000Z</time>
</trkpt>
<trkpt lat="31.6387967" lon="34.9833010">
<ele>424.399994</ele>
<time>2016-09-02T06:09:33.000Z</time>
</trkpt>
<trkpt lat="31.6388567" lon="34.9833903">
<ele>424.000031</ele>
<time>2016-09-02T06:09:35.000Z</time>
</trkpt>
<trkpt lat="31.6389399" lon="34.9834494">
<ele>423.200043</ele>
<time>2016-09-02T06:09:37.000Z</time>
</trkpt>
<trkpt lat="31.6390400" lon="34.9834835">
<ele>422.399994</ele>
<time>2016-09-02T06:09:39.000Z</time>
</trkpt>
<trkpt lat="31.6391527" lon="34.9834781">
<ele>422.200012</ele>
<time>2016-09-02T06:09:41.000Z</time>
</trkpt>
<trkpt lat="31.6392628" lon="34.9834297">
<ele>422.000000</ele>
<time>2016-09-02T06:09:43.000Z</time>
</trkpt>
<trkpt lat="31.6393653" lon="34.9833467">
<ele>421.600006</ele>
<time>2016-09-02T06:09:45.000Z</time>
</trkpt>
<trkpt lat="31.6394687" lon="34.9832463">
<ele>420.799988</ele>
<time>2016-09-02T06:09:47.000Z</time>
</trkpt>
<trkpt lat="31.6395826" lon="34.9831487">
<ele>419.799988</ele>
<time>2016-09-02T06:09:49.000Z</time>
</trkpt>
<trkpt lat="31.6397089" lon="34.9830601">
<ele>418.600006</ele>
<time>2016-09-02T06:09:51.000Z</time>
</trkpt>
<trkpt lat="31.6398481" lon="34.9829830">
<ele>417.400024</ele>
<time>2016-09-02T06:09:53.000Z</time>
</trkpt>
<trkpt lat="31.6399887" lon="34.9829227">
<ele>416.399994</ele>
<time>2016-09-02T06:09:55.000Z</time>
</trkpt>
<trkpt lat="31.6401290" lon="34.9828656">
<ele>415.600006</ele>
<time>2016-09-02T06:09:57.000Z</time>
</trkpt>
<trkpt lat="31.6402705" lon="34.9828220">
<ele>414.799988</ele>
<time>2016-09-02T06:09:59.000Z</time>
</trkpt>
<trkpt lat="31.6404104" lon="34.9827929">
<ele>414.200012</ele>
<time>2016-09-02T06:10:01.000Z</time>
</trkpt>
<trkpt lat="31.6405475" lon="34.9827874">
<ele>413.399994</ele>
<time>2016-09-02T06:10:03.000Z</time>
</trkpt>
<trkpt lat="31.6406810" lon="34.9828039">
<ele>412.600006</ele>
<time>2016-09-02T06:10:05.000Z</time>
</trkpt>
<trkpt lat="31.6408112" lon="34.9828226">
<ele>411.799988</ele>
<time>2016-09-02T06:10:07.000Z</time>
</trkpt>
<trkpt lat="31.6409367" lon="34.9828408">
<ele>411.200012</ele>
<time>2016-09-02T06:10:09.000Z</time>
</trkpt>
<trkpt lat="31.6410607" lon="34.9828817">
<ele>410.399994</ele>
<time>2016-09-02T06:10:11.000Z</time>
</trkpt>
<trkpt lat="31.6411826" lon="34.9829430">
<ele>409.799988</ele>
<time>2016-09-02T06:10:13.000Z</time>
</trkpt>
<trkpt lat="31.6413049" lon="34.9830132">
<ele>409.799988</ele>
<time>2016-09-02T06:10:15.000Z</time>
</trkpt>
<trkpt lat="31.6414276" lon="34.9830804">
<ele>409.600006</ele>
<time>2016-09-02T06:10:17.000Z</time>
</trkpt>
<trkpt lat="31.6415485" lon="34.9831444">
<ele>409.600006</ele>
<time>2016-09-02T06:10:19.000Z</time>
</trkpt>
<trkpt lat="31.6416599" lon="34.9832215">
<ele>409.799988</ele>
<time>2016-09-02T06:10:21.000Z</time>
</trkpt>
<trkpt lat="31.6417457" lon="34.9833297">
<ele>410.200012</ele>
<time>2016-09-02T06:10:23.000Z</time>
</trkpt>
<trkpt lat="31.6418031" lon="34.9834540">
<ele>410.800018</ele>
<time>2016-09-02T06:10:25.000Z</time>
</trkpt>
<trkpt lat="31.6418476" lon="34.9835911">
<ele>411.799988</ele>
<time>2016-09-02T06:10:27.000Z</time>
</trkpt>
<trkpt lat="31.6418758" lon="34.9837364">
<ele>412.600006</ele>
<time>2016-09-02T06:10:29.000Z</time>
</trkpt>
<trkpt lat="31.6418860" lon="34.9838850">
<ele>413.600006</ele>
<time>2016-09-02T06:10:31.000Z</time>
</trkpt>
<trkpt lat="31.6418965" lon="34.9840285">
<ele>414.399994</ele>
<time>2016-09-02T06:10:33.000Z</time>
</trkpt>
<trkpt lat="31.6419291" lon="34.9841623">
<ele>415.000000</ele>
<time>2016-09-02T06:10:35.000Z</time>
</trkpt>
<trkpt lat="31.6420021" lon="34.9842612">
<ele>415.199982</ele>
<time>2016-09-02T06:10:37.000Z</time>
</trkpt>
<trkpt lat="31.6421008" lon="34.9842901">
<ele>415.199982</ele>
<time>2016-09-02T06:10:39.000Z</time>
</trkpt>
<trkpt lat="31.6421920" lon="34.9842421">
<ele>414.600006</ele>
<time>2016-09-02T06:10:41.000Z</time>
</trkpt>
<trkpt lat="31.6422755" lon="34.9841705">
<ele>413.799957</ele>
<time>2016-09-02T06:10:43.000Z</time>
</trkpt>
<trkpt lat="31.6423570" lon="34.9840955">
<ele>412.999969</ele>
<time>2016-09-02T06:10:45.000Z</time>
</trkpt>
<trkpt lat="31.6424367" lon="34.9840271">
<ele>413.399994</ele>
<time>2016-09-02T06:10:47.000Z</time>
</trkpt>
<trkpt lat="31.6425227" lon="34.9839736">
<ele>414.000000</ele>
<time>2016-09-02T06:10:49.000Z</time>
</trkpt>
<trkpt lat="31.6426134" lon="34.9839323">
<ele>414.600006</ele>
<time>2016-09-02T06:10:51.000Z</time>
</trkpt>
<trkpt lat="31.6427047" lon="34.9838966">
<ele>415.399994</ele>
<time>2016-09-02T06:10:53.000Z</time>
</trkpt>
<trkpt lat="31.6427878" lon="34.9838401">
<ele>415.999969</ele>
<time>2016-09-02T06:10:55.000Z</time>
</trkpt>
<trkpt lat="31.6428511" lon="34.9837555">
<ele>416.399994</ele>
<time>2016-09-02T06:10:57.000Z</time>
</trkpt>
<trkpt lat="31.6428913" lon="34.9836555">
<ele>416.399994</ele>
<time>2016-09-02T06:10:59.000Z</time>
</trkpt>
<trkpt lat="31.6429092" lon="34.9835432">
<ele>416.200012</ele>
<time>2016-09-02T06:11:01.000Z</time>
</trkpt>
<trkpt lat="31.6429089" lon="34.9833853">
<ele>415.399994</ele>
<time>2016-09-02T06:11:04.000Z</time>
</trkpt>
<trkpt lat="31.6429163" lon="34.9832733">
<ele>414.600006</ele>
<time>2016-09-02T06:11:06.000Z</time>
</trkpt>
<trkpt lat="31.6429408" lon="34.9831640">
<ele>414.000000</ele>
<time>2016-09-02T06:11:08.000Z</time>
</trkpt>
<trkpt lat="31.6429789" lon="34.9830622">
<ele>413.600006</ele>
<time>2016-09-02T06:11:10.000Z</time>
</trkpt>
<trkpt lat="31.6430345" lon="34.9829703">
<ele>413.200012</ele>
<time>2016-09-02T06:11:12.000Z</time>
</trkpt>
<trkpt lat="31.6431252" lon="34.9828627">
<ele>413.399994</ele>
<time>2016-09-02T06:11:15.000Z</time>
</trkpt>
<trkpt lat="31.6432220" lon="34.9827866">
<ele>412.600006</ele>
<time>2016-09-02T06:11:18.000Z</time>
</trkpt>
<trkpt lat="31.6433336" lon="34.9827276">
<ele>412.200043</ele>
<time>2016-09-02T06:11:21.000Z</time>
</trkpt>
<trkpt lat="31.6434448" lon="34.9826849">
<ele>411.799988</ele>
<time>2016-09-02T06:11:24.000Z</time>
</trkpt>
<trkpt lat="31.6435603" lon="34.9826598">
<ele>411.799988</ele>
<time>2016-09-02T06:11:27.000Z</time>
</trkpt>
<trkpt lat="31.6436761" lon="34.9826361">
<ele>411.799988</ele>
<time>2016-09-02T06:11:30.000Z</time>
</trkpt>
<trkpt lat="31.6437998" lon="34.9826234">
<ele>412.000000</ele>
<time>2016-09-02T06:11:33.000Z</time>
</trkpt>
<trkpt lat="31.6439241" lon="34.9826152">
<ele>412.399994</ele>
<time>2016-09-02T06:11:36.000Z</time>
</trkpt>
<trkpt lat="31.6440538" lon="34.9826163">
<ele>412.799988</ele>
<time>2016-09-02T06:11:39.000Z</time>
</trkpt>
<trkpt lat="31.6441479" lon="34.9826112">
<ele>412.600006</ele>
<time>2016-09-02T06:11:41.000Z</time>
</trkpt>
<trkpt lat="31.6442487" lon="34.9826068">
<ele>412.399994</ele>
<time>2016-09-02T06:11:43.000Z</time>
</trkpt>
<trkpt lat="31.6443548" lon="34.9826069">
<ele>412.200043</ele>
<time>2016-09-02T06:11:45.000Z</time>
</trkpt>
<trkpt lat="31.6444657" lon="34.9826158">
<ele>412.200043</ele>
<time>2016-09-02T06:11:47.000Z</time>
</trkpt>
<trkpt lat="31.6445803" lon="34.9826316">
<ele>412.200043</ele>
<time>2016-09-02T06:11:49.000Z</time>
</trkpt>
<trkpt lat="31.6446975" lon="34.9826527">
<ele>412.399994</ele>
<time>2016-09-02T06:11:51.000Z</time>
</trkpt>
<trkpt lat="31.6448173" lon="34.9826703">
<ele>412.600006</ele>
<time>2016-09-02T06:11:53.000Z</time>
</trkpt>
<trkpt lat="31.6449401" lon="34.9826778">
<ele>412.999969</ele>
<time>2016-09-02T06:11:55.000Z</time>
</trkpt>
<trkpt lat="31.6450635" lon="34.9826625">
<ele>413.399994</ele>
<time>2016-09-02T06:11:57.000Z</time>
</trkpt>
<trkpt lat="31.6451812" lon="34.9826140">
<ele>413.200012</ele>
<time>2016-09-02T06:11:59.000Z</time>
</trkpt>
<trkpt lat="31.6452887" lon="34.9825418">
<ele>412.999969</ele>
<time>2016-09-02T06:12:01.000Z</time>
</trkpt>
<trkpt lat="31.6453841" lon="34.9824541">
<ele>413.200012</ele>
<time>2016-09-02T06:12:03.000Z</time>
</trkpt>
<trkpt lat="31.6454696" lon="34.9823509">
<ele>413.399994</ele>
<time>2016-09-02T06:12:05.000Z</time>
</trkpt>
<trkpt lat="31.6455488" lon="34.9822463">
<ele>413.600006</ele>
<time>2016-09-02T06:12:07.000Z</time>
</trkpt>
<trkpt lat="31.6456231" lon="34.9821369">
<ele>413.799957</ele>
<time>2016-09-02T06:12:09.000Z</time>
</trkpt>
<trkpt lat="31.6456981" lon="34.9820292">
<ele>413.799957</ele>
<time>2016-09-02T06:12:11.000Z</time>
</trkpt>
<trkpt lat="31.6457783" lon="34.9819275">
<ele>413.399994</ele>
<time>2016-09-02T06:12:13.000Z</time>
</trkpt>
<trkpt lat="31.6458618" lon="34.9818269">
<ele>412.799988</ele>
<time>2016-09-02T06:12:15.000Z</time>
</trkpt>
<trkpt lat="31.6459405" lon="34.9817203">
<ele>412.200043</ele>
<time>2016-09-02T06:12:17.000Z</time>
</trkpt>
<trkpt lat="31.6460081" lon="34.9816011">
<ele>411.799988</ele>
<time>2016-09-02T06:12:19.000Z</time>
</trkpt>
<trkpt lat="31.6460708" lon="34.9814773">
<ele>411.600006</ele>
<time>2016-09-02T06:12:21.000Z</time>
</trkpt>
<trkpt lat="31.6461310" lon="34.9813504">
<ele>411.399994</ele>
<time>2016-09-02T06:12:23.000Z</time>
</trkpt>
<trkpt lat="31.6461893" lon="34.9812213">
<ele>411.399994</ele>
<time>2016-09-02T06:12:25.000Z</time>
</trkpt>
<trkpt lat="31.6462473" lon="34.9810919">
<ele>410.800018</ele>
<time>2016-09-02T06:12:27.000Z</time>
</trkpt>
<trkpt lat="31.6463125" lon="34.9809721">
<ele>410.600006</ele>
<time>2016-09-02T06:12:29.000Z</time>
</trkpt>
<trkpt lat="31.6463865" lon="34.9808644">
<ele>411.000000</ele>
<time>2016-09-02T06:12:31.000Z</time>
</trkpt>
<trkpt lat="31.6464720" lon="34.9807690">
<ele>411.399994</ele>
<time>2016-09-02T06:12:33.000Z</time>
</trkpt>
<trkpt lat="31.6465671" lon="34.9806899">
<ele>411.200012</ele>
<time>2016-09-02T06:12:35.000Z</time>
</trkpt>
<trkpt lat="31.6466715" lon="34.9806685">
<ele>409.799988</ele>
<time>2016-09-02T06:12:37.000Z</time>
</trkpt>
<trkpt lat="31.6467720" lon="34.9807149">
<ele>408.399994</ele>
<time>2016-09-02T06:12:39.000Z</time>
</trkpt>
<trkpt lat="31.6468450" lon="34.9808306">
<ele>407.200012</ele>
<time>2016-09-02T06:12:41.000Z</time>
</trkpt>
<trkpt lat="31.6469119" lon="34.9809748">
<ele>406.200012</ele>
<time>2016-09-02T06:12:43.000Z</time>
</trkpt>
<trkpt lat="31.6469718" lon="34.9811282">
<ele>405.200012</ele>
<time>2016-09-02T06:12:45.000Z</time>
</trkpt>
<trkpt lat="31.6470277" lon="34.9813015">
<ele>404.600006</ele>
<time>2016-09-02T06:12:47.000Z</time>
</trkpt>
<trkpt lat="31.6470846" lon="34.9814846">
<ele>404.799988</ele>
<time>2016-09-02T06:12:49.000Z</time>
</trkpt>
<trkpt lat="31.6471505" lon="34.9816520">
<ele>404.600006</ele>
<time>2016-09-02T06:12:51.000Z</time>
</trkpt>
<trkpt lat="31.6472445" lon="34.9817691">
<ele>404.000000</ele>
<time>2016-09-02T06:12:53.000Z</time>
</trkpt>
<trkpt lat="31.6473714" lon="34.9818125">
<ele>402.600006</ele>
<time>2016-09-02T06:12:55.000Z</time>
</trkpt>
<trkpt lat="31.6474985" lon="34.9817752">
<ele>402.200012</ele>
<time>2016-09-02T06:12:57.000Z</time>
</trkpt>
<trkpt lat="31.6476179" lon="34.9816800">
<ele>401.399994</ele>
<time>2016-09-02T06:12:59.000Z</time>
</trkpt>
<trkpt lat="31.6477461" lon="34.9815811">
<ele>400.399994</ele>
<time>2016-09-02T06:13:01.000Z</time>
</trkpt>
<trkpt lat="31.6478950" lon="34.9815046">
<ele>399.000031</ele>
<time>2016-09-02T06:13:03.000Z</time>
</trkpt>
<trkpt lat="31.6480492" lon="34.9814382">
<ele>397.399994</ele>
<time>2016-09-02T06:13:05.000Z</time>
</trkpt>
<trkpt lat="31.6482120" lon="34.9813882">
<ele>396.000000</ele>
<time>2016-09-02T06:13:07.000Z</time>
</trkpt>
<trkpt lat="31.6483821" lon="34.9813600">
<ele>394.599976</ele>
<time>2016-09-02T06:13:09.000Z</time>
</trkpt>
<trkpt lat="31.6484684" lon="34.9813500">
<ele>393.799988</ele>
<time>2016-09-02T06:13:10.000Z</time>
</trkpt>
<trkpt lat="31.6486423" lon="34.9813412">
<ele>392.600006</ele>
<time>2016-09-02T06:13:12.000Z</time>
</trkpt>
<trkpt lat="31.6488192" lon="34.9813364">
<ele>391.200012</ele>
<time>2016-09-02T06:13:14.000Z</time>
</trkpt>
<trkpt lat="31.6490003" lon="34.9813394">
<ele>390.000000</ele>
<time>2016-09-02T06:13:16.000Z</time>
</trkpt>
<trkpt lat="31.6491815" lon="34.9813354">
<ele>387.399994</ele>
<time>2016-09-02T06:13:18.000Z</time>
</trkpt>
<trkpt lat="31.6492725" lon="34.9813355">
<ele>386.600006</ele>
<time>2016-09-02T06:13:19.000Z</time>
</trkpt>
<trkpt lat="31.6494454" lon="34.9813442">
<ele>384.799988</ele>
<time>2016-09-02T06:13:21.000Z</time>
</trkpt>
<trkpt lat="31.6496011" lon="34.9813878">
<ele>383.200012</ele>
<time>2016-09-02T06:13:23.000Z</time>
</trkpt>
<trkpt lat="31.6497464" lon="34.9814933">
<ele>381.799988</ele>
<time>2016-09-02T06:13:25.000Z</time>
</trkpt>
<trkpt lat="31.6498172" lon="34.9815618">
<ele>381.000000</ele>
<time>2016-09-02T06:13:26.000Z</time>
</trkpt>
<trkpt lat="31.6499408" lon="34.9817150">
<ele>379.399994</ele>
<time>2016-09-02T06:13:28.000Z</time>
</trkpt>
<trkpt lat="31.6500387" lon="34.9818983">
<ele>377.799957</ele>
<time>2016-09-02T06:13:30.000Z</time>
</trkpt>
<trkpt lat="31.6500719" lon="34.9819991">
<ele>377.200012</ele>
<time>2016-09-02T06:13:31.000Z</time>
</trkpt>
<trkpt lat="31.6500967" lon="34.9821040">
<ele>376.999969</ele>
<time>2016-09-02T06:13:32.000Z</time>
</trkpt>
<trkpt lat="31.6501173" lon="34.9822113">
<ele>377.200012</ele>
<time>2016-09-02T06:13:33.000Z</time>
</trkpt>
<trkpt lat="31.6501354" lon="34.9823168">
<ele>377.399994</ele>
<time>2016-09-02T06:13:34.000Z</time>
</trkpt>
<trkpt lat="31.6501416" lon="34.9825210">
<ele>377.600037</ele>
<time>2016-09-02T06:13:36.000Z</time>
</trkpt>
<trkpt lat="31.6501012" lon="34.9827193">
<ele>378.000000</ele>
<time>2016-09-02T06:13:38.000Z</time>
</trkpt>
<trkpt lat="31.6500428" lon="34.9829169">
<ele>378.400024</ele>
<time>2016-09-02T06:13:40.000Z</time>
</trkpt>
<trkpt lat="31.6499961" lon="34.9831062">
<ele>380.799988</ele>
<time>2016-09-02T06:13:42.000Z</time>
</trkpt>
<trkpt lat="31.6499944" lon="34.9832644">
<ele>380.600037</ele>
<time>2016-09-02T06:13:44.000Z</time>
</trkpt>
<trkpt lat="31.6500429" lon="34.9833508">
<ele>380.799988</ele>
<time>2016-09-02T06:13:46.000Z</time>
</trkpt>
<trkpt lat="31.6501600" lon="34.9833508">
<ele>381.600006</ele>
<time>2016-09-02T06:13:49.000Z</time>
</trkpt>
<trkpt lat="31.6502704" lon="34.9832877">
<ele>382.000000</ele>
<time>2016-09-02T06:13:52.000Z</time>
</trkpt>
<trkpt lat="31.6503710" lon="34.9832168">
<ele>380.000000</ele>
<time>2016-09-02T06:13:55.000Z</time>
</trkpt>
<trkpt lat="31.6504634" lon="34.9831629">
<ele>378.600006</ele>
<time>2016-09-02T06:13:58.000Z</time>
</trkpt>
<trkpt lat="31.6505696" lon="34.9831087">
<ele>376.799988</ele>
<time>2016-09-02T06:14:02.000Z</time>
</trkpt>
<trkpt lat="31.6506842" lon="34.9830679">
<ele>375.200012</ele>
<time>2016-09-02T06:14:06.000Z</time>
</trkpt>
<trkpt lat="31.6507892" lon="34.9830460">
<ele>375.000000</ele>
<time>2016-09-02T06:14:09.000Z</time>
</trkpt>
<trkpt lat="31.6509007" lon="34.9830364">
<ele>374.800018</ele>
<time>2016-09-02T06:14:13.000Z</time>
</trkpt>
<trkpt lat="31.6510004" lon="34.9830481">
<ele>375.000000</ele>
<time>2016-09-02T06:14:17.000Z</time>
</trkpt>
<trkpt lat="31.6510981" lon="34.9830764">
<ele>375.399994</ele>
<time>2016-09-02T06:14:21.000Z</time>
</trkpt>
<trkpt lat="31.6511919" lon="34.9831118">
<ele>375.799988</ele>
<time>2016-09-02T06:14:25.000Z</time>
</trkpt>
<trkpt lat="31.6512810" lon="34.9831573">
<ele>376.600006</ele>
<time>2016-09-02T06:14:30.000Z</time>
</trkpt>
<trkpt lat="31.6513716" lon="34.9832014">
<ele>377.200012</ele>
<time>2016-09-02T06:14:34.000Z</time>
</trkpt>
<trkpt lat="31.6514548" lon="34.9832764">
<ele>378.200012</ele>
<time>2016-09-02T06:14:39.000Z</time>
</trkpt>
<trkpt lat="31.6515187" lon="34.9833648">
<ele>379.399994</ele>
<time>2016-09-02T06:14:44.000Z</time>
</trkpt>
<trkpt lat="31.6515677" lon="34.9834521">
<ele>380.399994</ele>
<time>2016-09-02T06:14:49.000Z</time>
</trkpt>
<trkpt lat="31.6516095" lon="34.9835508">
<ele>381.399963</ele>
<time>2016-09-02T06:14:54.000Z</time>
</trkpt>
<trkpt lat="31.6516586" lon="34.9836462">
<ele>382.200012</ele>
<time>2016-09-02T06:14:59.000Z</time>
</trkpt>
<trkpt lat="31.6517016" lon="34.9837577">
<ele>383.399994</ele>
<time>2016-09-02T06:15:04.000Z</time>
</trkpt>
<trkpt lat="31.6517486" lon="34.9838582">
<ele>384.399963</ele>
<time>2016-09-02T06:15:09.000Z</time>
</trkpt>
<trkpt lat="31.6517769" lon="34.9839719">
<ele>385.600006</ele>
<time>2016-09-02T06:15:14.000Z</time>
</trkpt>
<trkpt lat="31.6518045" lon="34.9840683">
<ele>386.600006</ele>
<time>2016-09-02T06:15:19.000Z</time>
</trkpt>
<trkpt lat="31.6518261" lon="34.9841692">
<ele>387.600006</ele>
<time>2016-09-02T06:15:24.000Z</time>
</trkpt>
<trkpt lat="31.6518370" lon="34.9842803">
<ele>389.000000</ele>
<time>2016-09-02T06:15:29.000Z</time>
</trkpt>
<trkpt lat="31.6518479" lon="34.9843973">
<ele>390.399994</ele>
<time>2016-09-02T06:15:34.000Z</time>
</trkpt>
<trkpt lat="31.6518785" lon="34.9845012">
<ele>391.600037</ele>
<time>2016-09-02T06:15:38.000Z</time>
</trkpt>
<trkpt lat="31.6519317" lon="34.9846014">
<ele>392.400024</ele>
<time>2016-09-02T06:15:43.000Z</time>
</trkpt>
<trkpt lat="31.6520009" lon="34.9846879">
<ele>393.399994</ele>
<time>2016-09-02T06:15:48.000Z</time>
</trkpt>
<trkpt lat="31.6520887" lon="34.9847513">
<ele>393.600006</ele>
<time>2016-09-02T06:15:53.000Z</time>
</trkpt>
<trkpt lat="31.6521826" lon="34.9847995">
<ele>393.600006</ele>
<time>2016-09-02T06:15:58.000Z</time>
</trkpt>
<trkpt lat="31.6522776" lon="34.9848324">
<ele>393.399994</ele>
<time>2016-09-02T06:16:03.000Z</time>
</trkpt>
<trkpt lat="31.6523914" lon="34.9848430">
<ele>392.200012</ele>
<time>2016-09-02T06:16:08.000Z</time>
</trkpt>
<trkpt lat="31.6524955" lon="34.9848857">
<ele>391.399994</ele>
<time>2016-09-02T06:16:13.000Z</time>
</trkpt>
<trkpt lat="31.6525999" lon="34.9849419">
<ele>390.799988</ele>
<time>2016-09-02T06:16:18.000Z</time>
</trkpt>
<trkpt lat="31.6526939" lon="34.9850107">
<ele>390.600006</ele>
<time>2016-09-02T06:16:23.000Z</time>
</trkpt>
<trkpt lat="31.6527949" lon="34.9850837">
<ele>390.199982</ele>
<time>2016-09-02T06:16:27.000Z</time>
</trkpt>
<trkpt lat="31.6528763" lon="34.9851412">
<ele>390.000000</ele>
<time>2016-09-02T06:16:30.000Z</time>
</trkpt>
<trkpt lat="31.6529601" lon="34.9852261">
<ele>390.199982</ele>
<time>2016-09-02T06:16:34.000Z</time>
</trkpt>
<trkpt lat="31.6530417" lon="34.9853187">
<ele>390.600006</ele>
<time>2016-09-02T06:16:38.000Z</time>
</trkpt>
<trkpt lat="31.6531126" lon="34.9854261">
<ele>391.399994</ele>
<time>2016-09-02T06:16:42.000Z</time>
</trkpt>
<trkpt lat="31.6531742" lon="34.9855081">
<ele>391.799988</ele>
<time>2016-09-02T06:16:45.000Z</time>
</trkpt>
<trkpt lat="31.6532341" lon="34.9855994">
<ele>391.799988</ele>
<time>2016-09-02T06:16:48.000Z</time>
</trkpt>
<trkpt lat="31.6532931" lon="34.9856960">
<ele>391.799988</ele>
<time>2016-09-02T06:16:51.000Z</time>
</trkpt>
<trkpt lat="31.6533574" lon="34.9857930">
<ele>391.799988</ele>
<time>2016-09-02T06:16:54.000Z</time>
</trkpt>
<trkpt lat="31.6534089" lon="34.9859004">
<ele>392.200012</ele>
<time>2016-09-02T06:16:57.000Z</time>
</trkpt>
<trkpt lat="31.6534561" lon="34.9860140">
<ele>392.799988</ele>
<time>2016-09-02T06:17:00.000Z</time>
</trkpt>
<trkpt lat="31.6535032" lon="34.9861399">
<ele>393.399994</ele>
<time>2016-09-02T06:17:03.000Z</time>
</trkpt>
<trkpt lat="31.6535351" lon="34.9862440">
<ele>394.399994</ele>
<time>2016-09-02T06:17:05.000Z</time>
</trkpt>
<trkpt lat="31.6535544" lon="34.9863517">
<ele>394.399994</ele>
<time>2016-09-02T06:17:07.000Z</time>
</trkpt>
<trkpt lat="31.6535683" lon="34.9865103">
<ele>394.799988</ele>
<time>2016-09-02T06:17:10.000Z</time>
</trkpt>
<trkpt lat="31.6535571" lon="34.9866270">
<ele>395.600006</ele>
<time>2016-09-02T06:17:12.000Z</time>
</trkpt>
<trkpt lat="31.6535349" lon="34.9867439">
<ele>396.399994</ele>
<time>2016-09-02T06:17:14.000Z</time>
</trkpt>
<trkpt lat="31.6534968" lon="34.9868562">
<ele>397.600006</ele>
<time>2016-09-02T06:17:16.000Z</time>
</trkpt>
<trkpt lat="31.6534470" lon="34.9869612">
<ele>399.000031</ele>
<time>2016-09-02T06:17:18.000Z</time>
</trkpt>
<trkpt lat="31.6533844" lon="34.9870540">
<ele>400.600006</ele>
<time>2016-09-02T06:17:20.000Z</time>
</trkpt>
<trkpt lat="31.6533157" lon="34.9871464">
<ele>402.200012</ele>
<time>2016-09-02T06:17:22.000Z</time>
</trkpt>
<trkpt lat="31.6532368" lon="34.9872323">
<ele>403.000000</ele>
<time>2016-09-02T06:17:24.000Z</time>
</trkpt>
<trkpt lat="31.6531471" lon="34.9873179">
<ele>403.400024</ele>
<time>2016-09-02T06:17:26.000Z</time>
</trkpt>
<trkpt lat="31.6530588" lon="34.9874163">
<ele>403.799988</ele>
<time>2016-09-02T06:17:28.000Z</time>
</trkpt>
<trkpt lat="31.6529726" lon="34.9875089">
<ele>404.399994</ele>
<time>2016-09-02T06:17:30.000Z</time>
</trkpt>
<trkpt lat="31.6528805" lon="34.9876004">
<ele>404.799988</ele>
<time>2016-09-02T06:17:32.000Z</time>
</trkpt>
<trkpt lat="31.6527907" lon="34.9876971">
<ele>405.399994</ele>
<time>2016-09-02T06:17:34.000Z</time>
</trkpt>
<trkpt lat="31.6527114" lon="34.9878002">
<ele>405.600037</ele>
<time>2016-09-02T06:17:36.000Z</time>
</trkpt>
<trkpt lat="31.6526405" lon="34.9879085">
<ele>405.600037</ele>
<time>2016-09-02T06:17:38.000Z</time>
</trkpt>
<trkpt lat="31.6525829" lon="34.9880267">
<ele>405.799988</ele>
<time>2016-09-02T06:17:40.000Z</time>
</trkpt>
<trkpt lat="31.6525445" lon="34.9881554">
<ele>405.399994</ele>
<time>2016-09-02T06:17:42.000Z</time>
</trkpt>
<trkpt lat="31.6525256" lon="34.9882932">
<ele>403.799988</ele>
<time>2016-09-02T06:17:44.000Z</time>
</trkpt>
<trkpt lat="31.6525215" lon="34.9884203">
<ele>402.399994</ele>
<time>2016-09-02T06:17:46.000Z</time>
</trkpt>
<trkpt lat="31.6525255" lon="34.9885508">
<ele>400.799988</ele>
<time>2016-09-02T06:17:48.000Z</time>
</trkpt>
<trkpt lat="31.6525432" lon="34.9886855">
<ele>399.000031</ele>
<time>2016-09-02T06:17:50.000Z</time>
</trkpt>
<trkpt lat="31.6525646" lon="34.9888252">
<ele>398.000000</ele>
<time>2016-09-02T06:17:52.000Z</time>
</trkpt>
<trkpt lat="31.6525885" lon="34.9889666">
<ele>397.600006</ele>
<time>2016-09-02T06:17:54.000Z</time>
</trkpt>
<trkpt lat="31.6526108" lon="34.9891084">
<ele>397.000000</ele>
<time>2016-09-02T06:17:56.000Z</time>
</trkpt>
<trkpt lat="31.6526326" lon="34.9892524">
<ele>396.399994</ele>
<time>2016-09-02T06:17:58.000Z</time>
</trkpt>
<trkpt lat="31.6526510" lon="34.9894079">
<ele>396.000000</ele>
<time>2016-09-02T06:18:00.000Z</time>
</trkpt>
<trkpt lat="31.6526739" lon="34.9895567">
<ele>395.399963</ele>
<time>2016-09-02T06:18:02.000Z</time>
</trkpt>
<trkpt lat="31.6527055" lon="34.9897046">
<ele>395.000000</ele>
<time>2016-09-02T06:18:04.000Z</time>
</trkpt>
<trkpt lat="31.6527271" lon="34.9898562">
<ele>394.599976</ele>
<time>2016-09-02T06:18:06.000Z</time>
</trkpt>
<trkpt lat="31.6527177" lon="34.9900120">
<ele>394.200012</ele>
<time>2016-09-02T06:18:08.000Z</time>
</trkpt>
<trkpt lat="31.6526870" lon="34.9901654">
<ele>393.600006</ele>
<time>2016-09-02T06:18:10.000Z</time>
</trkpt>
<trkpt lat="31.6526431" lon="34.9903150">
<ele>393.200012</ele>
<time>2016-09-02T06:18:12.000Z</time>
</trkpt>
<trkpt lat="31.6525891" lon="34.9904652">
<ele>393.000000</ele>
<time>2016-09-02T06:18:14.000Z</time>
</trkpt>
<trkpt lat="31.6525233" lon="34.9906225">
<ele>393.799988</ele>
<time>2016-09-02T06:18:16.000Z</time>
</trkpt>
<trkpt lat="31.6524957" lon="34.9907877">
<ele>393.600006</ele>
<time>2016-09-02T06:18:18.000Z</time>
</trkpt>
<trkpt lat="31.6525219" lon="34.9909331">
<ele>393.399994</ele>
<time>2016-09-02T06:18:20.000Z</time>
</trkpt>
<trkpt lat="31.6525829" lon="34.9910527">
<ele>393.200012</ele>
<time>2016-09-02T06:18:22.000Z</time>
</trkpt>
<trkpt lat="31.6526498" lon="34.9911603">
<ele>393.200012</ele>
<time>2016-09-02T06:18:24.000Z</time>
</trkpt>
<trkpt lat="31.6527165" lon="34.9912568">
<ele>393.000000</ele>
<time>2016-09-02T06:18:26.000Z</time>
</trkpt>
<trkpt lat="31.6527774" lon="34.9913482">
<ele>393.600006</ele>
<time>2016-09-02T06:18:28.000Z</time>
</trkpt>
<trkpt lat="31.6528581" lon="34.9914509">
<ele>394.200012</ele>
<time>2016-09-02T06:18:31.000Z</time>
</trkpt>
<trkpt lat="31.6529476" lon="34.9914993">
<ele>394.599976</ele>
<time>2016-09-02T06:18:34.000Z</time>
</trkpt>
<trkpt lat="31.6530371" lon="34.9915368">
<ele>394.799988</ele>
<time>2016-09-02T06:18:37.000Z</time>
</trkpt>
<trkpt lat="31.6531442" lon="34.9915765">
<ele>395.000000</ele>
<time>2016-09-02T06:18:41.000Z</time>
</trkpt>
<trkpt lat="31.6532117" lon="34.9916205">
<ele>395.399963</ele>
<time>2016-09-02T06:21:15.000Z</time>
</trkpt>
<trkpt lat="31.6532750" lon="34.9915210">
<ele>395.000000</ele>
<time>2016-09-02T06:24:31.000Z</time>
</trkpt>
<trkpt lat="31.6532941" lon="34.9913820">
<ele>394.200012</ele>
<time>2016-09-02T06:24:35.000Z</time>
</trkpt>
<trkpt lat="31.6532917" lon="34.9912328">
<ele>393.799988</ele>
<time>2016-09-02T06:24:38.000Z</time>
</trkpt>
<trkpt lat="31.6532930" lon="34.9911062">
<ele>393.399994</ele>
<time>2016-09-02T06:24:40.000Z</time>
</trkpt>
<trkpt lat="31.6533019" lon="34.9909594">
<ele>393.000000</ele>
<time>2016-09-02T06:24:42.000Z</time>
</trkpt>
<trkpt lat="31.6533151" lon="34.9907959">
<ele>392.600006</ele>
<time>2016-09-02T06:24:44.000Z</time>
</trkpt>
<trkpt lat="31.6533513" lon="34.9906211">
<ele>392.200012</ele>
<time>2016-09-02T06:24:46.000Z</time>
</trkpt>
<trkpt lat="31.6534059" lon="34.9904371">
<ele>391.399994</ele>
<time>2016-09-02T06:24:48.000Z</time>
</trkpt>
<trkpt lat="31.6534637" lon="34.9902443">
<ele>391.799988</ele>
<time>2016-09-02T06:24:50.000Z</time>
</trkpt>
<trkpt lat="31.6535133" lon="34.9900450">
<ele>392.400024</ele>
<time>2016-09-02T06:24:52.000Z</time>
</trkpt>
<trkpt lat="31.6535570" lon="34.9898405">
<ele>392.200012</ele>
<time>2016-09-02T06:24:54.000Z</time>
</trkpt>
<trkpt lat="31.6535810" lon="34.9897373">
<ele>391.399994</ele>
<time>2016-09-02T06:24:55.000Z</time>
</trkpt>
<trkpt lat="31.6536076" lon="34.9896344">
<ele>390.799988</ele>
<time>2016-09-02T06:24:56.000Z</time>
</trkpt>
<trkpt lat="31.6536366" lon="34.9895321">
<ele>390.600006</ele>
<time>2016-09-02T06:24:57.000Z</time>
</trkpt>
<trkpt lat="31.6536666" lon="34.9894304">
<ele>390.600006</ele>
<time>2016-09-02T06:24:58.000Z</time>
</trkpt>
<trkpt lat="31.6537335" lon="34.9892319">
<ele>390.399994</ele>
<time>2016-09-02T06:25:00.000Z</time>
</trkpt>
<trkpt lat="31.6538152" lon="34.9890406">
<ele>389.000000</ele>
<time>2016-09-02T06:25:02.000Z</time>
</trkpt>
<trkpt lat="31.6539156" lon="34.9888667">
<ele>387.399994</ele>
<time>2016-09-02T06:25:04.000Z</time>
</trkpt>
<trkpt lat="31.6540339" lon="34.9887147">
<ele>386.000000</ele>
<time>2016-09-02T06:25:06.000Z</time>
</trkpt>
<trkpt lat="31.6541565" lon="34.9885736">
<ele>386.799988</ele>
<time>2016-09-02T06:25:08.000Z</time>
</trkpt>
<trkpt lat="31.6542726" lon="34.9884328">
<ele>387.399994</ele>
<time>2016-09-02T06:25:10.000Z</time>
</trkpt>
<trkpt lat="31.6543858" lon="34.9882881">
<ele>388.200012</ele>
<time>2016-09-02T06:25:12.000Z</time>
</trkpt>
<trkpt lat="31.6544950" lon="34.9881330">
<ele>386.799988</ele>
<time>2016-09-02T06:25:14.000Z</time>
</trkpt>
<trkpt lat="31.6545966" lon="34.9879696">
<ele>385.000031</ele>
<time>2016-09-02T06:25:16.000Z</time>
</trkpt>
<trkpt lat="31.6546883" lon="34.9878016">
<ele>384.399963</ele>
<time>2016-09-02T06:25:18.000Z</time>
</trkpt>
<trkpt lat="31.6547694" lon="34.9876348">
<ele>382.799988</ele>
<time>2016-09-02T06:25:20.000Z</time>
</trkpt>
<trkpt lat="31.6548430" lon="34.9874691">
<ele>381.000000</ele>
<time>2016-09-02T06:25:22.000Z</time>
</trkpt>
<trkpt lat="31.6549089" lon="34.9872987">
<ele>380.200012</ele>
<time>2016-09-02T06:25:24.000Z</time>
</trkpt>
<trkpt lat="31.6549676" lon="34.9871252">
<ele>379.399994</ele>
<time>2016-09-02T06:25:26.000Z</time>
</trkpt>
<trkpt lat="31.6550201" lon="34.9869539">
<ele>378.799988</ele>
<time>2016-09-02T06:25:28.000Z</time>
</trkpt>
<trkpt lat="31.6550596" lon="34.9867825">
<ele>378.600006</ele>
<time>2016-09-02T06:25:30.000Z</time>
</trkpt>
<trkpt lat="31.6550815" lon="34.9866103">
<ele>378.200012</ele>
<time>2016-09-02T06:25:32.000Z</time>
</trkpt>
<trkpt lat="31.6550952" lon="34.9864368">
<ele>377.399994</ele>
<time>2016-09-02T06:25:34.000Z</time>
</trkpt>
<trkpt lat="31.6551051" lon="34.9862575">
<ele>376.199982</ele>
<time>2016-09-02T06:25:36.000Z</time>
</trkpt>
<trkpt lat="31.6551112" lon="34.9860673">
<ele>376.600006</ele>
<time>2016-09-02T06:25:38.000Z</time>
</trkpt>
<trkpt lat="31.6550914" lon="34.9858642">
<ele>376.999969</ele>
<time>2016-09-02T06:25:40.000Z</time>
</trkpt>
<trkpt lat="31.6550315" lon="34.9856542">
<ele>377.200012</ele>
<time>2016-09-02T06:25:42.000Z</time>
</trkpt>
<trkpt lat="31.6549917" lon="34.9855523">
<ele>377.399994</ele>
<time>2016-09-02T06:25:43.000Z</time>
</trkpt>
<trkpt lat="31.6549505" lon="34.9854538">
<ele>377.399994</ele>
<time>2016-09-02T06:25:44.000Z</time>
</trkpt>
<trkpt lat="31.6549103" lon="34.9853564">
<ele>377.799957</ele>
<time>2016-09-02T06:25:45.000Z</time>
</trkpt>
<trkpt lat="31.6548708" lon="34.9852590">
<ele>378.200012</ele>
<time>2016-09-02T06:25:46.000Z</time>
</trkpt>
<trkpt lat="31.6547980" lon="34.9850663">
<ele>379.000000</ele>
<time>2016-09-02T06:25:48.000Z</time>
</trkpt>
<trkpt lat="31.6547174" lon="34.9848888">
<ele>379.399994</ele>
<time>2016-09-02T06:25:50.000Z</time>
</trkpt>
<trkpt lat="31.6546130" lon="34.9847337">
<ele>379.600006</ele>
<time>2016-09-02T06:25:52.000Z</time>
</trkpt>
<trkpt lat="31.6544989" lon="34.9845865">
<ele>379.600006</ele>
<time>2016-09-02T06:25:54.000Z</time>
</trkpt>
<trkpt lat="31.6543836" lon="34.9844389">
<ele>379.600006</ele>
<time>2016-09-02T06:25:56.000Z</time>
</trkpt>
<trkpt lat="31.6542702" lon="34.9842915">
<ele>379.799988</ele>
<time>2016-09-02T06:25:58.000Z</time>
</trkpt>
<trkpt lat="31.6541541" lon="34.9841458">
<ele>379.799988</ele>
<time>2016-09-02T06:26:00.000Z</time>
</trkpt>
<trkpt lat="31.6540347" lon="34.9840038">
<ele>380.000000</ele>
<time>2016-09-02T06:26:02.000Z</time>
</trkpt>
<trkpt lat="31.6539168" lon="34.9838635">
<ele>379.399994</ele>
<time>2016-09-02T06:26:04.000Z</time>
</trkpt>
<trkpt lat="31.6538046" lon="34.9837180">
<ele>378.799988</ele>
<time>2016-09-02T06:26:06.000Z</time>
</trkpt>
<trkpt lat="31.6536980" lon="34.9835641">
<ele>377.600037</ele>
<time>2016-09-02T06:26:08.000Z</time>
</trkpt>
<trkpt lat="31.6536029" lon="34.9833985">
<ele>376.399994</ele>
<time>2016-09-02T06:26:10.000Z</time>
</trkpt>
<trkpt lat="31.6535195" lon="34.9832292">
<ele>375.399994</ele>
<time>2016-09-02T06:26:12.000Z</time>
</trkpt>
<trkpt lat="31.6534371" lon="34.9830611">
<ele>374.600006</ele>
<time>2016-09-02T06:26:14.000Z</time>
</trkpt>
<trkpt lat="31.6533540" lon="34.9828967">
<ele>374.000031</ele>
<time>2016-09-02T06:26:16.000Z</time>
</trkpt>
<trkpt lat="31.6532708" lon="34.9827361">
<ele>373.399994</ele>
<time>2016-09-02T06:26:18.000Z</time>
</trkpt>
<trkpt lat="31.6531910" lon="34.9825744">
<ele>373.000000</ele>
<time>2016-09-02T06:26:20.000Z</time>
</trkpt>
<trkpt lat="31.6531109" lon="34.9824115">
<ele>372.799988</ele>
<time>2016-09-02T06:26:22.000Z</time>
</trkpt>
<trkpt lat="31.6530241" lon="34.9822523">
<ele>372.600006</ele>
<time>2016-09-02T06:26:24.000Z</time>
</trkpt>
<trkpt lat="31.6529254" lon="34.9821005">
<ele>372.000000</ele>
<time>2016-09-02T06:26:26.000Z</time>
</trkpt>
<trkpt lat="31.6528235" lon="34.9819476">
<ele>370.600006</ele>
<time>2016-09-02T06:26:28.000Z</time>
</trkpt>
<trkpt lat="31.6527229" lon="34.9817892">
<ele>368.799988</ele>
<time>2016-09-02T06:26:30.000Z</time>
</trkpt>
<trkpt lat="31.6526267" lon="34.9816245">
<ele>367.400024</ele>
<time>2016-09-02T06:26:32.000Z</time>
</trkpt>
<trkpt lat="31.6525413" lon="34.9814483">
<ele>365.799988</ele>
<time>2016-09-02T06:26:34.000Z</time>
</trkpt>
<trkpt lat="31.6525005" lon="34.9812508">
<ele>365.000000</ele>
<time>2016-09-02T06:26:36.000Z</time>
</trkpt>
<trkpt lat="31.6525188" lon="34.9810473">
<ele>365.600006</ele>
<time>2016-09-02T06:26:38.000Z</time>
</trkpt>
<trkpt lat="31.6525510" lon="34.9808447">
<ele>366.200012</ele>
<time>2016-09-02T06:26:40.000Z</time>
</trkpt>
<trkpt lat="31.6525780" lon="34.9806407">
<ele>366.799988</ele>
<time>2016-09-02T06:26:42.000Z</time>
</trkpt>
<trkpt lat="31.6526212" lon="34.9804427">
<ele>366.000000</ele>
<time>2016-09-02T06:26:44.000Z</time>
</trkpt>
<trkpt lat="31.6526888" lon="34.9802570">
<ele>366.600037</ele>
<time>2016-09-02T06:26:46.000Z</time>
</trkpt>
<trkpt lat="31.6527552" lon="34.9800753">
<ele>367.200012</ele>
<time>2016-09-02T06:26:48.000Z</time>
</trkpt>
<trkpt lat="31.6528153" lon="34.9798952">
<ele>366.799988</ele>
<time>2016-09-02T06:26:50.000Z</time>
</trkpt>
<trkpt lat="31.6528765" lon="34.9797226">
<ele>365.399994</ele>
<time>2016-09-02T06:26:52.000Z</time>
</trkpt>
<trkpt lat="31.6529378" lon="34.9795540">
<ele>364.200012</ele>
<time>2016-09-02T06:26:54.000Z</time>
</trkpt>
<trkpt lat="31.6529927" lon="34.9793818">
<ele>364.000000</ele>
<time>2016-09-02T06:26:56.000Z</time>
</trkpt>
<trkpt lat="31.6530396" lon="34.9792034">
<ele>362.999969</ele>
<time>2016-09-02T06:26:58.000Z</time>
</trkpt>
<trkpt lat="31.6530927" lon="34.9790269">
<ele>361.799988</ele>
<time>2016-09-02T06:27:00.000Z</time>
</trkpt>
<trkpt lat="31.6531461" lon="34.9788523">
<ele>360.800018</ele>
<time>2016-09-02T06:27:02.000Z</time>
</trkpt>
<trkpt lat="31.6531926" lon="34.9786745">
<ele>360.000031</ele>
<time>2016-09-02T06:27:04.000Z</time>
</trkpt>
<trkpt lat="31.6532367" lon="34.9784952">
<ele>360.800018</ele>
<time>2016-09-02T06:27:06.000Z</time>
</trkpt>
<trkpt lat="31.6532619" lon="34.9783080">
<ele>361.200012</ele>
<time>2016-09-02T06:27:08.000Z</time>
</trkpt>
<trkpt lat="31.6532586" lon="34.9781179">
<ele>361.399994</ele>
<time>2016-09-02T06:27:10.000Z</time>
</trkpt>
<trkpt lat="31.6532146" lon="34.9779393">
<ele>361.200012</ele>
<time>2016-09-02T06:27:12.000Z</time>
</trkpt>
<trkpt lat="31.6531532" lon="34.9777615">
<ele>360.600006</ele>
<time>2016-09-02T06:27:14.000Z</time>
</trkpt>
<trkpt lat="31.6530913" lon="34.9775748">
<ele>360.000031</ele>
<time>2016-09-02T06:27:16.000Z</time>
</trkpt>
<trkpt lat="31.6530400" lon="34.9773801">
<ele>359.399994</ele>
<time>2016-09-02T06:27:18.000Z</time>
</trkpt>
<trkpt lat="31.6530026" lon="34.9771797">
<ele>359.000000</ele>
<time>2016-09-02T06:27:20.000Z</time>
</trkpt>
<trkpt lat="31.6529647" lon="34.9769744">
<ele>358.399994</ele>
<time>2016-09-02T06:27:22.000Z</time>
</trkpt>
<trkpt lat="31.6529248" lon="34.9767661">
<ele>357.799988</ele>
<time>2016-09-02T06:27:24.000Z</time>
</trkpt>
<trkpt lat="31.6529024" lon="34.9766622">
<ele>357.799988</ele>
<time>2016-09-02T06:27:25.000Z</time>
</trkpt>
<trkpt lat="31.6528751" lon="34.9765588">
<ele>357.600006</ele>
<time>2016-09-02T06:27:26.000Z</time>
</trkpt>
<trkpt lat="31.6528418" lon="34.9764583">
<ele>357.399994</ele>
<time>2016-09-02T06:27:27.000Z</time>
</trkpt>
<trkpt lat="31.6528016" lon="34.9763612">
<ele>357.200012</ele>
<time>2016-09-02T06:27:28.000Z</time>
</trkpt>
<trkpt lat="31.6527038" lon="34.9761791">
<ele>356.000000</ele>
<time>2016-09-02T06:27:30.000Z</time>
</trkpt>
<trkpt lat="31.6526498" lon="34.9760929">
<ele>355.200012</ele>
<time>2016-09-02T06:27:31.000Z</time>
</trkpt>
<trkpt lat="31.6525982" lon="34.9760052">
<ele>354.399994</ele>
<time>2016-09-02T06:27:32.000Z</time>
</trkpt>
<trkpt lat="31.6525452" lon="34.9759195">
<ele>353.600006</ele>
<time>2016-09-02T06:27:33.000Z</time>
</trkpt>
<trkpt lat="31.6524910" lon="34.9758334">
<ele>352.799957</ele>
<time>2016-09-02T06:27:34.000Z</time>
</trkpt>
<trkpt lat="31.6524142" lon="34.9756444">
<ele>351.399994</ele>
<time>2016-09-02T06:27:36.000Z</time>
</trkpt>
<trkpt lat="31.6524004" lon="34.9754399">
<ele>350.399994</ele>
<time>2016-09-02T06:27:38.000Z</time>
</trkpt>
<trkpt lat="31.6524338" lon="34.9752405">
<ele>350.399994</ele>
<time>2016-09-02T06:27:40.000Z</time>
</trkpt>
<trkpt lat="31.6524818" lon="34.9750481">
<ele>350.600006</ele>
<time>2016-09-02T06:27:42.000Z</time>
</trkpt>
<trkpt lat="31.6525602" lon="34.9748687">
<ele>351.000000</ele>
<time>2016-09-02T06:27:44.000Z</time>
</trkpt>
<trkpt lat="31.6526509" lon="34.9746940">
<ele>350.799988</ele>
<time>2016-09-02T06:27:46.000Z</time>
</trkpt>
<trkpt lat="31.6527436" lon="34.9745203">
<ele>350.399994</ele>
<time>2016-09-02T06:27:48.000Z</time>
</trkpt>
<trkpt lat="31.6528427" lon="34.9743512">
<ele>351.000000</ele>
<time>2016-09-02T06:27:50.000Z</time>
</trkpt>
<trkpt lat="31.6529439" lon="34.9741809">
<ele>350.799988</ele>
<time>2016-09-02T06:27:52.000Z</time>
</trkpt>
<trkpt lat="31.6530298" lon="34.9740016">
<ele>350.200012</ele>
<time>2016-09-02T06:27:54.000Z</time>
</trkpt>
<trkpt lat="31.6530765" lon="34.9738078">
<ele>349.399994</ele>
<time>2016-09-02T06:27:56.000Z</time>
</trkpt>
<trkpt lat="31.6530928" lon="34.9736070">
<ele>349.200012</ele>
<time>2016-09-02T06:27:58.000Z</time>
</trkpt>
<trkpt lat="31.6530990" lon="34.9734057">
<ele>348.600006</ele>
<time>2016-09-02T06:28:00.000Z</time>
</trkpt>
<trkpt lat="31.6531116" lon="34.9732088">
<ele>348.000000</ele>
<time>2016-09-02T06:28:02.000Z</time>
</trkpt>
<trkpt lat="31.6531487" lon="34.9730201">
<ele>347.399994</ele>
<time>2016-09-02T06:28:04.000Z</time>
</trkpt>
<trkpt lat="31.6532029" lon="34.9728410">
<ele>347.000000</ele>
<time>2016-09-02T06:28:06.000Z</time>
</trkpt>
<trkpt lat="31.6532592" lon="34.9726648">
<ele>347.399994</ele>
<time>2016-09-02T06:28:08.000Z</time>
</trkpt>
<trkpt lat="31.6533160" lon="34.9724897">
<ele>347.799988</ele>
<time>2016-09-02T06:28:10.000Z</time>
</trkpt>
<trkpt lat="31.6533804" lon="34.9723189">
<ele>348.200043</ele>
<time>2016-09-02T06:28:12.000Z</time>
</trkpt>
<trkpt lat="31.6534548" lon="34.9721568">
<ele>347.799988</ele>
<time>2016-09-02T06:28:14.000Z</time>
</trkpt>
<trkpt lat="31.6535364" lon="34.9719978">
<ele>347.799988</ele>
<time>2016-09-02T06:28:16.000Z</time>
</trkpt>
<trkpt lat="31.6536185" lon="34.9718383">
<ele>348.600006</ele>
<time>2016-09-02T06:28:18.000Z</time>
</trkpt>
<trkpt lat="31.6536890" lon="34.9716740">
<ele>348.600006</ele>
<time>2016-09-02T06:28:20.000Z</time>
</trkpt>
<trkpt lat="31.6537347" lon="34.9715019">
<ele>347.200012</ele>
<time>2016-09-02T06:28:22.000Z</time>
</trkpt>
<trkpt lat="31.6537621" lon="34.9713274">
<ele>345.600006</ele>
<time>2016-09-02T06:28:24.000Z</time>
</trkpt>
<trkpt lat="31.6537822" lon="34.9711561">
<ele>345.200012</ele>
<time>2016-09-02T06:28:26.000Z</time>
</trkpt>
<trkpt lat="31.6538055" lon="34.9709967">
<ele>345.200012</ele>
<time>2016-09-02T06:28:28.000Z</time>
</trkpt>
<trkpt lat="31.6538513" lon="34.9708477">
<ele>344.200012</ele>
<time>2016-09-02T06:28:30.000Z</time>
</trkpt>
<trkpt lat="31.6539246" lon="34.9707117">
<ele>343.000000</ele>
<time>2016-09-02T06:28:32.000Z</time>
</trkpt>
<trkpt lat="31.6540018" lon="34.9705786">
<ele>342.000000</ele>
<time>2016-09-02T06:28:34.000Z</time>
</trkpt>
<trkpt lat="31.6540784" lon="34.9704439">
<ele>341.600037</ele>
<time>2016-09-02T06:28:36.000Z</time>
</trkpt>
<trkpt lat="31.6541536" lon="34.9703061">
<ele>341.600037</ele>
<time>2016-09-02T06:28:38.000Z</time>
</trkpt>
<trkpt lat="31.6542270" lon="34.9701632">
<ele>341.600037</ele>
<time>2016-09-02T06:28:40.000Z</time>
</trkpt>
<trkpt lat="31.6542940" lon="34.9700147">
<ele>341.600037</ele>
<time>2016-09-02T06:28:42.000Z</time>
</trkpt>
<trkpt lat="31.6543603" lon="34.9698602">
<ele>341.799988</ele>
<time>2016-09-02T06:28:44.000Z</time>
</trkpt>
<trkpt lat="31.6544208" lon="34.9696970">
<ele>342.600006</ele>
<time>2016-09-02T06:28:46.000Z</time>
</trkpt>
<trkpt lat="31.6544644" lon="34.9695282">
<ele>343.200012</ele>
<time>2016-09-02T06:28:48.000Z</time>
</trkpt>
<trkpt lat="31.6544910" lon="34.9693574">
<ele>343.399994</ele>
<time>2016-09-02T06:28:50.000Z</time>
</trkpt>
<trkpt lat="31.6545110" lon="34.9691847">
<ele>343.600006</ele>
<time>2016-09-02T06:28:52.000Z</time>
</trkpt>
<trkpt lat="31.6545294" lon="34.9690081">
<ele>343.799988</ele>
<time>2016-09-02T06:28:54.000Z</time>
</trkpt>
<trkpt lat="31.6545302" lon="34.9688226">
<ele>343.799988</ele>
<time>2016-09-02T06:28:56.000Z</time>
</trkpt>
<trkpt lat="31.6545246" lon="34.9686311">
<ele>344.000000</ele>
<time>2016-09-02T06:28:58.000Z</time>
</trkpt>
<trkpt lat="31.6545193" lon="34.9684401">
<ele>344.399994</ele>
<time>2016-09-02T06:29:00.000Z</time>
</trkpt>
<trkpt lat="31.6545092" lon="34.9682463">
<ele>343.799988</ele>
<time>2016-09-02T06:29:02.000Z</time>
</trkpt>
<trkpt lat="31.6545069" lon="34.9680503">
<ele>342.799988</ele>
<time>2016-09-02T06:29:04.000Z</time>
</trkpt>
<trkpt lat="31.6545224" lon="34.9678587">
<ele>342.799988</ele>
<time>2016-09-02T06:29:06.000Z</time>
</trkpt>
<trkpt lat="31.6545784" lon="34.9676828">
<ele>345.399963</ele>
<time>2016-09-02T06:29:08.000Z</time>
</trkpt>
<trkpt lat="31.6546601" lon="34.9675315">
<ele>343.799988</ele>
<time>2016-09-02T06:29:10.000Z</time>
</trkpt>
<trkpt lat="31.6547415" lon="34.9673874">
<ele>341.399994</ele>
<time>2016-09-02T06:29:12.000Z</time>
</trkpt>
<trkpt lat="31.6548246" lon="34.9672395">
<ele>338.799957</ele>
<time>2016-09-02T06:29:14.000Z</time>
</trkpt>
<trkpt lat="31.6549108" lon="34.9670889">
<ele>337.799988</ele>
<time>2016-09-02T06:29:16.000Z</time>
</trkpt>
<trkpt lat="31.6549893" lon="34.9669277">
<ele>338.799957</ele>
<time>2016-09-02T06:29:18.000Z</time>
</trkpt>
<trkpt lat="31.6550630" lon="34.9667621">
<ele>339.600006</ele>
<time>2016-09-02T06:29:20.000Z</time>
</trkpt>
<trkpt lat="31.6551342" lon="34.9665959">
<ele>340.600006</ele>
<time>2016-09-02T06:29:22.000Z</time>
</trkpt>
<trkpt lat="31.6552083" lon="34.9664278">
<ele>340.399994</ele>
<time>2016-09-02T06:29:24.000Z</time>
</trkpt>
<trkpt lat="31.6552847" lon="34.9662560">
<ele>339.600006</ele>
<time>2016-09-02T06:29:26.000Z</time>
</trkpt>
<trkpt lat="31.6553636" lon="34.9660815">
<ele>340.600006</ele>
<time>2016-09-02T06:29:28.000Z</time>
</trkpt>
<trkpt lat="31.6554397" lon="34.9659076">
<ele>340.399994</ele>
<time>2016-09-02T06:29:30.000Z</time>
</trkpt>
<trkpt lat="31.6555155" lon="34.9657345">
<ele>337.999969</ele>
<time>2016-09-02T06:29:32.000Z</time>
</trkpt>
<trkpt lat="31.6555868" lon="34.9655611">
<ele>335.600006</ele>
<time>2016-09-02T06:29:34.000Z</time>
</trkpt>
<trkpt lat="31.6556555" lon="34.9653827">
<ele>333.600006</ele>
<time>2016-09-02T06:29:36.000Z</time>
</trkpt>
<trkpt lat="31.6557212" lon="34.9652016">
<ele>333.200012</ele>
<time>2016-09-02T06:29:38.000Z</time>
</trkpt>
<trkpt lat="31.6557973" lon="34.9650264">
<ele>333.600006</ele>
<time>2016-09-02T06:29:40.000Z</time>
</trkpt>
<trkpt lat="31.6558827" lon="34.9648611">
<ele>334.000000</ele>
<time>2016-09-02T06:29:42.000Z</time>
</trkpt>
<trkpt lat="31.6559718" lon="34.9647070">
<ele>333.200012</ele>
<time>2016-09-02T06:29:44.000Z</time>
</trkpt>
<trkpt lat="31.6560630" lon="34.9645614">
<ele>332.200012</ele>
<time>2016-09-02T06:29:46.000Z</time>
</trkpt>
<trkpt lat="31.6561630" lon="34.9644218">
<ele>333.000000</ele>
<time>2016-09-02T06:29:48.000Z</time>
</trkpt>
<trkpt lat="31.6562708" lon="34.9642815">
<ele>333.399994</ele>
<time>2016-09-02T06:29:50.000Z</time>
</trkpt>
<trkpt lat="31.6563766" lon="34.9641349">
<ele>332.000000</ele>
<time>2016-09-02T06:29:52.000Z</time>
</trkpt>
<trkpt lat="31.6564633" lon="34.9639759">
<ele>331.000000</ele>
<time>2016-09-02T06:29:54.000Z</time>
</trkpt>
<trkpt lat="31.6565285" lon="34.9638117">
<ele>330.200012</ele>
<time>2016-09-02T06:29:56.000Z</time>
</trkpt>
<trkpt lat="31.6565891" lon="34.9636453">
<ele>330.399994</ele>
<time>2016-09-02T06:29:58.000Z</time>
</trkpt>
<trkpt lat="31.6566450" lon="34.9634740">
<ele>330.399994</ele>
<time>2016-09-02T06:30:00.000Z</time>
</trkpt>
<trkpt lat="31.6567012" lon="34.9633012">
<ele>330.399994</ele>
<time>2016-09-02T06:30:02.000Z</time>
</trkpt>
<trkpt lat="31.6567631" lon="34.9631237">
<ele>330.399994</ele>
<time>2016-09-02T06:30:04.000Z</time>
</trkpt>
<trkpt lat="31.6568231" lon="34.9629383">
<ele>329.799988</ele>
<time>2016-09-02T06:30:06.000Z</time>
</trkpt>
<trkpt lat="31.6568871" lon="34.9627518">
<ele>330.399994</ele>
<time>2016-09-02T06:30:08.000Z</time>
</trkpt>
<trkpt lat="31.6569597" lon="34.9625683">
<ele>331.200012</ele>
<time>2016-09-02T06:30:10.000Z</time>
</trkpt>
<trkpt lat="31.6570234" lon="34.9623821">
<ele>330.799988</ele>
<time>2016-09-02T06:30:12.000Z</time>
</trkpt>
<trkpt lat="31.6570638" lon="34.9621878">
<ele>329.799988</ele>
<time>2016-09-02T06:30:14.000Z</time>
</trkpt>
<trkpt lat="31.6570929" lon="34.9619940">
<ele>329.200012</ele>
<time>2016-09-02T06:30:16.000Z</time>
</trkpt>
<trkpt lat="31.6571252" lon="34.9618016">
<ele>328.400024</ele>
<time>2016-09-02T06:30:18.000Z</time>
</trkpt>
<trkpt lat="31.6571600" lon="34.9616099">
<ele>327.200012</ele>
<time>2016-09-02T06:30:20.000Z</time>
</trkpt>
<trkpt lat="31.6572010" lon="34.9614231">
<ele>326.000000</ele>
<time>2016-09-02T06:30:22.000Z</time>
</trkpt>
<trkpt lat="31.6572487" lon="34.9612397">
<ele>324.799957</ele>
<time>2016-09-02T06:30:24.000Z</time>
</trkpt>
<trkpt lat="31.6573014" lon="34.9610581">
<ele>324.600006</ele>
<time>2016-09-02T06:30:26.000Z</time>
</trkpt>
<trkpt lat="31.6573534" lon="34.9608715">
<ele>323.200043</ele>
<time>2016-09-02T06:30:28.000Z</time>
</trkpt>
<trkpt lat="31.6574084" lon="34.9606787">
<ele>323.000000</ele>
<time>2016-09-02T06:30:30.000Z</time>
</trkpt>
<trkpt lat="31.6574746" lon="34.9604849">
<ele>322.799988</ele>
<time>2016-09-02T06:30:32.000Z</time>
</trkpt>
<trkpt lat="31.6575127" lon="34.9603883">
<ele>322.200012</ele>
<time>2016-09-02T06:30:33.000Z</time>
</trkpt>
<trkpt lat="31.6575571" lon="34.9602945">
<ele>322.600006</ele>
<time>2016-09-02T06:30:34.000Z</time>
</trkpt>
<trkpt lat="31.6576568" lon="34.9601156">
<ele>323.799988</ele>
<time>2016-09-02T06:30:36.000Z</time>
</trkpt>
<trkpt lat="31.6577641" lon="34.9599514">
<ele>324.600006</ele>
<time>2016-09-02T06:30:38.000Z</time>
</trkpt>
<trkpt lat="31.6578837" lon="34.9598118">
<ele>322.399994</ele>
<time>2016-09-02T06:30:40.000Z</time>
</trkpt>
<trkpt lat="31.6580092" lon="34.9596911">
<ele>320.399963</ele>
<time>2016-09-02T06:30:42.000Z</time>
</trkpt>
<trkpt lat="31.6581446" lon="34.9596088">
<ele>318.600006</ele>
<time>2016-09-02T06:30:44.000Z</time>
</trkpt>
<trkpt lat="31.6582814" lon="34.9595496">
<ele>318.399994</ele>
<time>2016-09-02T06:30:46.000Z</time>
</trkpt>
<trkpt lat="31.6584125" lon="34.9594941">
<ele>319.000000</ele>
<time>2016-09-02T06:30:48.000Z</time>
</trkpt>
<trkpt lat="31.6585398" lon="34.9594444">
<ele>319.399994</ele>
<time>2016-09-02T06:30:50.000Z</time>
</trkpt>
<trkpt lat="31.6586626" lon="34.9594033">
<ele>320.000000</ele>
<time>2016-09-02T06:30:52.000Z</time>
</trkpt>
<trkpt lat="31.6587830" lon="34.9593676">
<ele>320.600006</ele>
<time>2016-09-02T06:30:54.000Z</time>
</trkpt>
<trkpt lat="31.6589012" lon="34.9593322">
<ele>321.000031</ele>
<time>2016-09-02T06:30:56.000Z</time>
</trkpt>
<trkpt lat="31.6590208" lon="34.9592961">
<ele>321.600006</ele>
<time>2016-09-02T06:30:58.000Z</time>
</trkpt>
<trkpt lat="31.6591400" lon="34.9592533">
<ele>321.399994</ele>
<time>2016-09-02T06:31:00.000Z</time>
</trkpt>
<trkpt lat="31.6592586" lon="34.9592081">
<ele>321.200012</ele>
<time>2016-09-02T06:31:02.000Z</time>
</trkpt>
<trkpt lat="31.6593766" lon="34.9591593">
<ele>321.000031</ele>
<time>2016-09-02T06:31:04.000Z</time>
</trkpt>
<trkpt lat="31.6594872" lon="34.9590807">
<ele>322.000000</ele>
<time>2016-09-02T06:31:06.000Z</time>
</trkpt>
<trkpt lat="31.6595740" lon="34.9589473">
<ele>323.600006</ele>
<time>2016-09-02T06:31:08.000Z</time>
</trkpt>
<trkpt lat="31.6596220" lon="34.9587770">
<ele>325.200012</ele>
<time>2016-09-02T06:31:10.000Z</time>
</trkpt>
<trkpt lat="31.6595917" lon="34.9586244">
<ele>326.000000</ele>
<time>2016-09-02T06:31:12.000Z</time>
</trkpt>
<trkpt lat="31.6595021" lon="34.9585129">
<ele>325.799988</ele>
<time>2016-09-02T06:31:14.000Z</time>
</trkpt>
<trkpt lat="31.6594018" lon="34.9584035">
<ele>325.399994</ele>
<time>2016-09-02T06:31:16.000Z</time>
</trkpt>
<trkpt lat="31.6592921" lon="34.9582900">
<ele>325.200012</ele>
<time>2016-09-02T06:31:18.000Z</time>
</trkpt>
<trkpt lat="31.6591697" lon="34.9581726">
<ele>324.600006</ele>
<time>2016-09-02T06:31:20.000Z</time>
</trkpt>
<trkpt lat="31.6590405" lon="34.9580461">
<ele>324.200012</ele>
<time>2016-09-02T06:31:22.000Z</time>
</trkpt>
<trkpt lat="31.6589038" lon="34.9579164">
<ele>323.399994</ele>
<time>2016-09-02T06:31:24.000Z</time>
</trkpt>
<trkpt lat="31.6587622" lon="34.9577801">
<ele>321.800018</ele>
<time>2016-09-02T06:31:26.000Z</time>
</trkpt>
<trkpt lat="31.6586940" lon="34.9577012">
<ele>321.000031</ele>
<time>2016-09-02T06:31:27.000Z</time>
</trkpt>
<trkpt lat="31.6586328" lon="34.9576105">
<ele>320.200012</ele>
<time>2016-09-02T06:31:28.000Z</time>
</trkpt>
<trkpt lat="31.6585833" lon="34.9575087">
<ele>319.599976</ele>
<time>2016-09-02T06:31:29.000Z</time>
</trkpt>
<trkpt lat="31.6585443" lon="34.9573983">
<ele>319.200012</ele>
<time>2016-09-02T06:31:30.000Z</time>
</trkpt>
<trkpt lat="31.6585121" lon="34.9572852">
<ele>319.000000</ele>
<time>2016-09-02T06:31:31.000Z</time>
</trkpt>
<trkpt lat="31.6584845" lon="34.9571720">
<ele>319.000000</ele>
<time>2016-09-02T06:31:32.000Z</time>
</trkpt>
<trkpt lat="31.6584611" lon="34.9570590">
<ele>318.799988</ele>
<time>2016-09-02T06:31:33.000Z</time>
</trkpt>
<trkpt lat="31.6584424" lon="34.9569453">
<ele>318.200012</ele>
<time>2016-09-02T06:31:34.000Z</time>
</trkpt>
<trkpt lat="31.6584290" lon="34.9568300">
<ele>317.799988</ele>
<time>2016-09-02T06:31:35.000Z</time>
</trkpt>
<trkpt lat="31.6584210" lon="34.9567140">
<ele>317.400024</ele>
<time>2016-09-02T06:31:36.000Z</time>
</trkpt>
<trkpt lat="31.6584184" lon="34.9565985">
<ele>317.200012</ele>
<time>2016-09-02T06:31:37.000Z</time>
</trkpt>
<trkpt lat="31.6584241" lon="34.9564848">
<ele>317.000000</ele>
<time>2016-09-02T06:31:38.000Z</time>
</trkpt>
<trkpt lat="31.6584409" lon="34.9563735">
<ele>316.399994</ele>
<time>2016-09-02T06:31:39.000Z</time>
</trkpt>
<trkpt lat="31.6584692" lon="34.9562662">
<ele>316.200012</ele>
<time>2016-09-02T06:31:40.000Z</time>
</trkpt>
<trkpt lat="31.6585059" lon="34.9561631">
<ele>316.399994</ele>
<time>2016-09-02T06:31:41.000Z</time>
</trkpt>
<trkpt lat="31.6585464" lon="34.9560632">
<ele>317.000000</ele>
<time>2016-09-02T06:31:42.000Z</time>
</trkpt>
<trkpt lat="31.6585919" lon="34.9559687">
<ele>317.600006</ele>
<time>2016-09-02T06:31:43.000Z</time>
</trkpt>
<trkpt lat="31.6586394" lon="34.9558767">
<ele>318.200012</ele>
<time>2016-09-02T06:31:44.000Z</time>
</trkpt>
<trkpt lat="31.6587283" lon="34.9556942">
<ele>316.799988</ele>
<time>2016-09-02T06:31:46.000Z</time>
</trkpt>
<trkpt lat="31.6588195" lon="34.9555185">
<ele>315.000000</ele>
<time>2016-09-02T06:31:48.000Z</time>
</trkpt>
<trkpt lat="31.6589070" lon="34.9553476">
<ele>313.799957</ele>
<time>2016-09-02T06:31:50.000Z</time>
</trkpt>
<trkpt lat="31.6589913" lon="34.9551796">
<ele>313.200012</ele>
<time>2016-09-02T06:31:52.000Z</time>
</trkpt>
<trkpt lat="31.6590664" lon="34.9550087">
<ele>313.200012</ele>
<time>2016-09-02T06:31:54.000Z</time>
</trkpt>
<trkpt lat="31.6591124" lon="34.9548270">
<ele>313.399994</ele>
<time>2016-09-02T06:31:56.000Z</time>
</trkpt>
<trkpt lat="31.6591255" lon="34.9546344">
<ele>313.200012</ele>
<time>2016-09-02T06:31:58.000Z</time>
</trkpt>
<trkpt lat="31.6591301" lon="34.9544413">
<ele>312.999969</ele>
<time>2016-09-02T06:32:00.000Z</time>
</trkpt>
<trkpt lat="31.6591331" lon="34.9542492">
<ele>312.600006</ele>
<time>2016-09-02T06:32:02.000Z</time>
</trkpt>
<trkpt lat="31.6591374" lon="34.9540552">
<ele>312.199982</ele>
<time>2016-09-02T06:32:04.000Z</time>
</trkpt>
<trkpt lat="31.6591411" lon="34.9538612">
<ele>311.799988</ele>
<time>2016-09-02T06:32:06.000Z</time>
</trkpt>
<trkpt lat="31.6591436" lon="34.9536687">
<ele>310.799988</ele>
<time>2016-09-02T06:32:08.000Z</time>
</trkpt>
<trkpt lat="31.6591547" lon="34.9534804">
<ele>310.000000</ele>
<time>2016-09-02T06:32:10.000Z</time>
</trkpt>
<trkpt lat="31.6591855" lon="34.9532955">
<ele>309.799988</ele>
<time>2016-09-02T06:32:12.000Z</time>
</trkpt>
<trkpt lat="31.6592151" lon="34.9531104">
<ele>309.399994</ele>
<time>2016-09-02T06:32:14.000Z</time>
</trkpt>
<trkpt lat="31.6592460" lon="34.9529280">
<ele>308.600006</ele>
<time>2016-09-02T06:32:16.000Z</time>
</trkpt>
<trkpt lat="31.6592845" lon="34.9527520">
<ele>308.799988</ele>
<time>2016-09-02T06:32:18.000Z</time>
</trkpt>
<trkpt lat="31.6593272" lon="34.9525823">
<ele>309.200012</ele>
<time>2016-09-02T06:32:20.000Z</time>
</trkpt>
<trkpt lat="31.6593724" lon="34.9524202">
<ele>309.799988</ele>
<time>2016-09-02T06:32:22.000Z</time>
</trkpt>
<trkpt lat="31.6594233" lon="34.9522647">
<ele>308.399994</ele>
<time>2016-09-02T06:32:24.000Z</time>
</trkpt>
<trkpt lat="31.6594705" lon="34.9521053">
<ele>307.000000</ele>
<time>2016-09-02T06:32:26.000Z</time>
</trkpt>
<trkpt lat="31.6595128" lon="34.9519401">
<ele>307.000000</ele>
<time>2016-09-02T06:32:28.000Z</time>
</trkpt>
<trkpt lat="31.6595457" lon="34.9517635">
<ele>307.200012</ele>
<time>2016-09-02T06:32:30.000Z</time>
</trkpt>
<trkpt lat="31.6595901" lon="34.9515821">
<ele>305.200012</ele>
<time>2016-09-02T06:32:32.000Z</time>
</trkpt>
<trkpt lat="31.6596651" lon="34.9514099">
<ele>303.399994</ele>
<time>2016-09-02T06:32:34.000Z</time>
</trkpt>
<trkpt lat="31.6597688" lon="34.9512566">
<ele>301.399994</ele>
<time>2016-09-02T06:32:36.000Z</time>
</trkpt>
<trkpt lat="31.6598787" lon="34.9511064">
<ele>301.000000</ele>
<time>2016-09-02T06:32:38.000Z</time>
</trkpt>
<trkpt lat="31.6599888" lon="34.9509524">
<ele>301.200012</ele>
<time>2016-09-02T06:32:40.000Z</time>
</trkpt>
<trkpt lat="31.6601063" lon="34.9507987">
<ele>301.200012</ele>
<time>2016-09-02T06:32:42.000Z</time>
</trkpt>
<trkpt lat="31.6602570" lon="34.9506920">
<ele>301.000000</ele>
<time>2016-09-02T06:32:44.000Z</time>
</trkpt>
<trkpt lat="31.6604262" lon="34.9506511">
<ele>300.200012</ele>
<time>2016-09-02T06:32:46.000Z</time>
</trkpt>
<trkpt lat="31.6605995" lon="34.9506576">
<ele>299.600006</ele>
<time>2016-09-02T06:32:48.000Z</time>
</trkpt>
<trkpt lat="31.6607650" lon="34.9507089">
<ele>299.600006</ele>
<time>2016-09-02T06:32:50.000Z</time>
</trkpt>
<trkpt lat="31.6609221" lon="34.9507759">
<ele>300.399994</ele>
<time>2016-09-02T06:32:52.000Z</time>
</trkpt>
<trkpt lat="31.6610731" lon="34.9508437">
<ele>301.000000</ele>
<time>2016-09-02T06:32:54.000Z</time>
</trkpt>
<trkpt lat="31.6612215" lon="34.9508925">
<ele>301.600006</ele>
<time>2016-09-02T06:32:56.000Z</time>
</trkpt>
<trkpt lat="31.6613685" lon="34.9508768">
<ele>301.600006</ele>
<time>2016-09-02T06:32:58.000Z</time>
</trkpt>
<trkpt lat="31.6615018" lon="34.9508173">
<ele>301.399994</ele>
<time>2016-09-02T06:33:00.000Z</time>
</trkpt>
<trkpt lat="31.6616232" lon="34.9507534">
<ele>302.600006</ele>
<time>2016-09-02T06:33:02.000Z</time>
</trkpt>
<trkpt lat="31.6617312" lon="34.9506881">
<ele>304.200012</ele>
<time>2016-09-02T06:33:04.000Z</time>
</trkpt>
<trkpt lat="31.6618268" lon="34.9506182">
<ele>304.799988</ele>
<time>2016-09-02T06:33:06.000Z</time>
</trkpt>
<trkpt lat="31.6619173" lon="34.9505467">
<ele>305.200012</ele>
<time>2016-09-02T06:33:08.000Z</time>
</trkpt>
<trkpt lat="31.6620011" lon="34.9504627">
<ele>305.200012</ele>
<time>2016-09-02T06:33:10.000Z</time>
</trkpt>
<trkpt lat="31.6620776" lon="34.9503575">
<ele>305.399994</ele>
<time>2016-09-02T06:33:12.000Z</time>
</trkpt>
<trkpt lat="31.6621432" lon="34.9502325">
<ele>305.600006</ele>
<time>2016-09-02T06:33:14.000Z</time>
</trkpt>
<trkpt lat="31.6622036" lon="34.9500868">
<ele>304.600006</ele>
<time>2016-09-02T06:33:16.000Z</time>
</trkpt>
<trkpt lat="31.6622481" lon="34.9499074">
<ele>303.000000</ele>
<time>2016-09-02T06:33:18.000Z</time>
</trkpt>
<trkpt lat="31.6622764" lon="34.9496946">
<ele>300.799988</ele>
<time>2016-09-02T06:33:20.000Z</time>
</trkpt>
<trkpt lat="31.6622904" lon="34.9495806">
<ele>299.600006</ele>
<time>2016-09-02T06:33:21.000Z</time>
</trkpt>
<trkpt lat="31.6623050" lon="34.9494633">
<ele>299.200012</ele>
<time>2016-09-02T06:33:22.000Z</time>
</trkpt>
<trkpt lat="31.6623190" lon="34.9493439">
<ele>298.399994</ele>
<time>2016-09-02T06:33:23.000Z</time>
</trkpt>
<trkpt lat="31.6623283" lon="34.9492229">
<ele>297.600006</ele>
<time>2016-09-02T06:33:24.000Z</time>
</trkpt>
<trkpt lat="31.6623335" lon="34.9491012">
<ele>296.600006</ele>
<time>2016-09-02T06:33:25.000Z</time>
</trkpt>
<trkpt lat="31.6623407" lon="34.9489779">
<ele>295.799988</ele>
<time>2016-09-02T06:33:26.000Z</time>
</trkpt>
<trkpt lat="31.6623509" lon="34.9488541">
<ele>294.799988</ele>
<time>2016-09-02T06:33:27.000Z</time>
</trkpt>
<trkpt lat="31.6623640" lon="34.9487301">
<ele>294.000000</ele>
<time>2016-09-02T06:33:28.000Z</time>
</trkpt>
<trkpt lat="31.6623874" lon="34.9486095">
<ele>293.799988</ele>
<time>2016-09-02T06:33:29.000Z</time>
</trkpt>
<trkpt lat="31.6624274" lon="34.9484944">
<ele>293.600006</ele>
<time>2016-09-02T06:33:30.000Z</time>
</trkpt>
<trkpt lat="31.6624772" lon="34.9483848">
<ele>293.600006</ele>
<time>2016-09-02T06:33:31.000Z</time>
</trkpt>
<trkpt lat="31.6625322" lon="34.9482775">
<ele>293.799988</ele>
<time>2016-09-02T06:33:32.000Z</time>
</trkpt>
<trkpt lat="31.6625886" lon="34.9481724">
<ele>293.799988</ele>
<time>2016-09-02T06:33:33.000Z</time>
</trkpt>
<trkpt lat="31.6626495" lon="34.9480724">
<ele>292.799988</ele>
<time>2016-09-02T06:33:34.000Z</time>
</trkpt>
<trkpt lat="31.6627173" lon="34.9479783">
<ele>291.600006</ele>
<time>2016-09-02T06:33:35.000Z</time>
</trkpt>
<trkpt lat="31.6627909" lon="34.9478894">
<ele>290.600006</ele>
<time>2016-09-02T06:33:36.000Z</time>
</trkpt>
<trkpt lat="31.6628691" lon="34.9478056">
<ele>291.399994</ele>
<time>2016-09-02T06:33:37.000Z</time>
</trkpt>
<trkpt lat="31.6629507" lon="34.9477272">
<ele>292.000000</ele>
<time>2016-09-02T06:33:38.000Z</time>
</trkpt>
<trkpt lat="31.6630347" lon="34.9476539">
<ele>291.799988</ele>
<time>2016-09-02T06:33:39.000Z</time>
</trkpt>
<trkpt lat="31.6631193" lon="34.9475827">
<ele>290.799988</ele>
<time>2016-09-02T06:33:40.000Z</time>
</trkpt>
<trkpt lat="31.6632012" lon="34.9475109">
<ele>290.000000</ele>
<time>2016-09-02T06:33:41.000Z</time>
</trkpt>
<trkpt lat="31.6632846" lon="34.9474461">
<ele>290.600006</ele>
<time>2016-09-02T06:33:42.000Z</time>
</trkpt>
<trkpt lat="31.6633716" lon="34.9473982">
<ele>291.000000</ele>
<time>2016-09-02T06:33:43.000Z</time>
</trkpt>
<trkpt lat="31.6634617" lon="34.9473705">
<ele>291.600006</ele>
<time>2016-09-02T06:33:44.000Z</time>
</trkpt>
<trkpt lat="31.6636364" lon="34.9473523">
<ele>291.399994</ele>
<time>2016-09-02T06:33:46.000Z</time>
</trkpt>
<trkpt lat="31.6638006" lon="34.9473466">
<ele>291.200012</ele>
<time>2016-09-02T06:33:48.000Z</time>
</trkpt>
<trkpt lat="31.6639468" lon="34.9472995">
<ele>290.799988</ele>
<time>2016-09-02T06:33:50.000Z</time>
</trkpt>
<trkpt lat="31.6640429" lon="34.9471700">
<ele>290.000000</ele>
<time>2016-09-02T06:33:52.000Z</time>
</trkpt>
<trkpt lat="31.6640961" lon="34.9469949">
<ele>289.200012</ele>
<time>2016-09-02T06:33:54.000Z</time>
</trkpt>
<trkpt lat="31.6641445" lon="34.9468062">
<ele>288.799988</ele>
<time>2016-09-02T06:33:56.000Z</time>
</trkpt>
<trkpt lat="31.6641956" lon="34.9466113">
<ele>288.399994</ele>
<time>2016-09-02T06:33:58.000Z</time>
</trkpt>
<trkpt lat="31.6642569" lon="34.9464137">
<ele>287.399994</ele>
<time>2016-09-02T06:34:00.000Z</time>
</trkpt>
<trkpt lat="31.6643059" lon="34.9463250">
<ele>286.200012</ele>
<time>2016-09-02T06:34:01.000Z</time>
</trkpt>
<trkpt lat="31.6643709" lon="34.9462531">
<ele>285.200012</ele>
<time>2016-09-02T06:34:02.000Z</time>
</trkpt>
<trkpt lat="31.6645238" lon="34.9461401">
<ele>286.000000</ele>
<time>2016-09-02T06:34:04.000Z</time>
</trkpt>
<trkpt lat="31.6646863" lon="34.9460488">
<ele>286.799988</ele>
<time>2016-09-02T06:34:06.000Z</time>
</trkpt>
<trkpt lat="31.6648575" lon="34.9459838">
<ele>286.000000</ele>
<time>2016-09-02T06:34:08.000Z</time>
</trkpt>
<trkpt lat="31.6650316" lon="34.9459475">
<ele>285.799988</ele>
<time>2016-09-02T06:34:10.000Z</time>
</trkpt>
<trkpt lat="31.6652020" lon="34.9459326">
<ele>285.799988</ele>
<time>2016-09-02T06:34:12.000Z</time>
</trkpt>
<trkpt lat="31.6653649" lon="34.9459223">
<ele>285.600006</ele>
<time>2016-09-02T06:34:14.000Z</time>
</trkpt>
<trkpt lat="31.6655234" lon="34.9459082">
<ele>285.200012</ele>
<time>2016-09-02T06:34:16.000Z</time>
</trkpt>
<trkpt lat="31.6656811" lon="34.9458906">
<ele>284.799988</ele>
<time>2016-09-02T06:34:18.000Z</time>
</trkpt>
<trkpt lat="31.6658393" lon="34.9458599">
<ele>285.000000</ele>
<time>2016-09-02T06:34:20.000Z</time>
</trkpt>
<trkpt lat="31.6659971" lon="34.9458187">
<ele>285.000000</ele>
<time>2016-09-02T06:34:22.000Z</time>
</trkpt>
<trkpt lat="31.6661573" lon="34.9457727">
<ele>284.600006</ele>
<time>2016-09-02T06:34:24.000Z</time>
</trkpt>
<trkpt lat="31.6663232" lon="34.9457289">
<ele>283.799988</ele>
<time>2016-09-02T06:34:26.000Z</time>
</trkpt>
<trkpt lat="31.6664964" lon="34.9456896">
<ele>282.799988</ele>
<time>2016-09-02T06:34:28.000Z</time>
</trkpt>
<trkpt lat="31.6666729" lon="34.9456392">
<ele>283.000000</ele>
<time>2016-09-02T06:34:30.000Z</time>
</trkpt>
<trkpt lat="31.6667617" lon="34.9456171">
<ele>283.200012</ele>
<time>2016-09-02T06:34:31.000Z</time>
</trkpt>
<trkpt lat="31.6669374" lon="34.9455849">
<ele>282.200012</ele>
<time>2016-09-02T06:34:33.000Z</time>
</trkpt>
<trkpt lat="31.6671047" lon="34.9455542">
<ele>281.399994</ele>
<time>2016-09-02T06:34:35.000Z</time>
</trkpt>
<trkpt lat="31.6672633" lon="34.9455274">
<ele>280.600006</ele>
<time>2016-09-02T06:34:37.000Z</time>
</trkpt>
<trkpt lat="31.6674134" lon="34.9455145">
<ele>279.799988</ele>
<time>2016-09-02T06:34:39.000Z</time>
</trkpt>
<trkpt lat="31.6675486" lon="34.9455265">
<ele>279.799988</ele>
<time>2016-09-02T06:34:41.000Z</time>
</trkpt>
<trkpt lat="31.6676652" lon="34.9455603">
<ele>280.200012</ele>
<time>2016-09-02T06:34:43.000Z</time>
</trkpt>
<trkpt lat="31.6677745" lon="34.9455925">
<ele>280.600006</ele>
<time>2016-09-02T06:34:45.000Z</time>
</trkpt>
<trkpt lat="31.6678824" lon="34.9456255">
<ele>281.000000</ele>
<time>2016-09-02T06:34:47.000Z</time>
</trkpt>
<trkpt lat="31.6679874" lon="34.9456429">
<ele>281.399994</ele>
<time>2016-09-02T06:34:49.000Z</time>
</trkpt>
<trkpt lat="31.6681082" lon="34.9456546">
<ele>281.600006</ele>
<time>2016-09-02T06:34:52.000Z</time>
</trkpt>
<trkpt lat="31.6681880" lon="34.9456753">
<ele>282.000000</ele>
<time>2016-09-02T06:34:57.000Z</time>
</trkpt>
<trkpt lat="31.6682616" lon="34.9457528">
<ele>282.799988</ele>
<time>2016-09-02T06:35:03.000Z</time>
</trkpt>
<trkpt lat="31.6683399" lon="34.9458092">
<ele>283.600006</ele>
<time>2016-09-02T06:42:19.000Z</time>
</trkpt>
<trkpt lat="31.6684285" lon="34.9457716">
<ele>284.200012</ele>
<time>2016-09-02T06:42:31.000Z</time>
</trkpt>
<trkpt lat="31.6684881" lon="34.9456699">
<ele>284.399994</ele>
<time>2016-09-02T06:42:37.000Z</time>
</trkpt>
<trkpt lat="31.6685584" lon="34.9455869">
<ele>284.399994</ele>
<time>2016-09-02T06:42:42.000Z</time>
</trkpt>
<trkpt lat="31.6686223" lon="34.9454964">
<ele>284.600006</ele>
<time>2016-09-02T06:42:46.000Z</time>
</trkpt>
<trkpt lat="31.6686764" lon="34.9453979">
<ele>284.399994</ele>
<time>2016-09-02T06:42:50.000Z</time>
</trkpt>
<trkpt lat="31.6687342" lon="34.9452974">
<ele>284.399994</ele>
<time>2016-09-02T06:42:54.000Z</time>
</trkpt>
<trkpt lat="31.6688040" lon="34.9451877">
<ele>284.399994</ele>
<time>2016-09-02T06:42:58.000Z</time>
</trkpt>
<trkpt lat="31.6688747" lon="34.9450703">
<ele>283.799988</ele>
<time>2016-09-02T06:43:02.000Z</time>
</trkpt>
<trkpt lat="31.6689464" lon="34.9449483">
<ele>283.399994</ele>
<time>2016-09-02T06:43:06.000Z</time>
</trkpt>
<trkpt lat="31.6690076" lon="34.9448504">
<ele>282.799988</ele>
<time>2016-09-02T06:43:09.000Z</time>
</trkpt>
<trkpt lat="31.6690702" lon="34.9447499">
<ele>282.600006</ele>
<time>2016-09-02T06:43:12.000Z</time>
</trkpt>
<trkpt lat="31.6691394" lon="34.9446491">
<ele>282.399994</ele>
<time>2016-09-02T06:43:15.000Z</time>
</trkpt>
<trkpt lat="31.6692096" lon="34.9445319">
<ele>282.200012</ele>
<time>2016-09-02T06:43:18.000Z</time>
</trkpt>
<trkpt lat="31.6692623" lon="34.9444464">
<ele>282.000000</ele>
<time>2016-09-02T06:43:20.000Z</time>
</trkpt>
<trkpt lat="31.6693429" lon="34.9443206">
<ele>282.000000</ele>
<time>2016-09-02T06:43:23.000Z</time>
</trkpt>
<trkpt lat="31.6693908" lon="34.9442262">
<ele>282.000000</ele>
<time>2016-09-02T06:43:25.000Z</time>
</trkpt>
<trkpt lat="31.6694494" lon="34.9441311">
<ele>281.799988</ele>
<time>2016-09-02T06:43:27.000Z</time>
</trkpt>
<trkpt lat="31.6695114" lon="34.9440448">
<ele>280.799988</ele>
<time>2016-09-02T06:43:29.000Z</time>
</trkpt>
<trkpt lat="31.6695744" lon="34.9439581">
<ele>280.000000</ele>
<time>2016-09-02T06:43:31.000Z</time>
</trkpt>
<trkpt lat="31.6696444" lon="34.9438674">
<ele>279.200012</ele>
<time>2016-09-02T06:43:33.000Z</time>
</trkpt>
<trkpt lat="31.6697207" lon="34.9437761">
<ele>278.200012</ele>
<time>2016-09-02T06:43:35.000Z</time>
</trkpt>
<trkpt lat="31.6698006" lon="34.9436849">
<ele>277.799988</ele>
<time>2016-09-02T06:43:37.000Z</time>
</trkpt>
<trkpt lat="31.6698757" lon="34.9435913">
<ele>277.000000</ele>
<time>2016-09-02T06:43:39.000Z</time>
</trkpt>
<trkpt lat="31.6699423" lon="34.9435049">
<ele>276.799988</ele>
<time>2016-09-02T06:43:41.000Z</time>
</trkpt>
<trkpt lat="31.6700073" lon="34.9434207">
<ele>276.600006</ele>
<time>2016-09-02T06:43:43.000Z</time>
</trkpt>
<trkpt lat="31.6700541" lon="34.9432816">
<ele>275.799988</ele>
<time>2016-09-02T06:43:46.000Z</time>
</trkpt>
<trkpt lat="31.6700133" lon="34.9431844">
<ele>275.000000</ele>
<time>2016-09-02T06:43:48.000Z</time>
</trkpt>
<trkpt lat="31.6699290" lon="34.9431249">
<ele>274.000000</ele>
<time>2016-09-02T06:43:50.000Z</time>
</trkpt>
<trkpt lat="31.6698252" lon="34.9430820">
<ele>273.399994</ele>
<time>2016-09-02T06:43:52.000Z</time>
</trkpt>
<trkpt lat="31.6697198" lon="34.9430265">
<ele>273.399994</ele>
<time>2016-09-02T06:43:54.000Z</time>
</trkpt>
<trkpt lat="31.6696119" lon="34.9429680">
<ele>273.399994</ele>
<time>2016-09-02T06:43:56.000Z</time>
</trkpt>
<trkpt lat="31.6695010" lon="34.9429076">
<ele>273.399994</ele>
<time>2016-09-02T06:43:58.000Z</time>
</trkpt>
<trkpt lat="31.6693940" lon="34.9428389">
<ele>274.000000</ele>
<time>2016-09-02T06:44:00.000Z</time>
</trkpt>
<trkpt lat="31.6693053" lon="34.9427596">
<ele>274.600006</ele>
<time>2016-09-02T06:44:02.000Z</time>
</trkpt>
<trkpt lat="31.6692394" lon="34.9426782">
<ele>275.000000</ele>
<time>2016-09-02T06:44:04.000Z</time>
</trkpt>
<trkpt lat="31.6691878" lon="34.9425795">
<ele>275.600006</ele>
<time>2016-09-02T06:44:07.000Z</time>
</trkpt>
<trkpt lat="31.6691789" lon="34.9424585">
<ele>276.000000</ele>
<time>2016-09-02T06:44:11.000Z</time>
</trkpt>
<trkpt lat="31.6691795" lon="34.9423264">
<ele>276.600006</ele>
<time>2016-09-02T06:44:15.000Z</time>
</trkpt>
<trkpt lat="31.6691534" lon="34.9422233">
<ele>277.000000</ele>
<time>2016-09-02T06:44:18.000Z</time>
</trkpt>
<trkpt lat="31.6690954" lon="34.9421182">
<ele>277.600006</ele>
<time>2016-09-02T06:44:22.000Z</time>
</trkpt>
<trkpt lat="31.6690297" lon="34.9420234">
<ele>278.600006</ele>
<time>2016-09-02T06:44:27.000Z</time>
</trkpt>
<trkpt lat="31.6689659" lon="34.9419423">
<ele>279.399994</ele>
<time>2016-09-02T06:44:32.000Z</time>
</trkpt>
<trkpt lat="31.6688931" lon="34.9418697">
<ele>280.000000</ele>
<time>2016-09-02T06:44:37.000Z</time>
</trkpt>
<trkpt lat="31.6688236" lon="34.9417929">
<ele>280.799988</ele>
<time>2016-09-02T06:44:42.000Z</time>
</trkpt>
<trkpt lat="31.6687527" lon="34.9417178">
<ele>281.600006</ele>
<time>2016-09-02T06:44:47.000Z</time>
</trkpt>
<trkpt lat="31.6686827" lon="34.9416446">
<ele>282.200012</ele>
<time>2016-09-02T06:44:52.000Z</time>
</trkpt>
<trkpt lat="31.6686096" lon="34.9415737">
<ele>282.799988</ele>
<time>2016-09-02T06:44:57.000Z</time>
</trkpt>
<trkpt lat="31.6685395" lon="34.9415024">
<ele>283.600006</ele>
<time>2016-09-02T06:45:02.000Z</time>
</trkpt>
<trkpt lat="31.6684700" lon="34.9414297">
<ele>284.200012</ele>
<time>2016-09-02T06:45:07.000Z</time>
</trkpt>
<trkpt lat="31.6683985" lon="34.9413622">
<ele>285.000000</ele>
<time>2016-09-02T06:45:12.000Z</time>
</trkpt>
<trkpt lat="31.6683302" lon="34.9412917">
<ele>285.600006</ele>
<time>2016-09-02T06:45:17.000Z</time>
</trkpt>
<trkpt lat="31.6682638" lon="34.9412168">
<ele>286.399994</ele>
<time>2016-09-02T06:45:22.000Z</time>
</trkpt>
<trkpt lat="31.6681853" lon="34.9411321">
<ele>287.399994</ele>
<time>2016-09-02T06:45:28.000Z</time>
</trkpt>
<trkpt lat="31.6681030" lon="34.9410472">
<ele>288.600006</ele>
<time>2016-09-02T06:45:34.000Z</time>
</trkpt>
<trkpt lat="31.6680323" lon="34.9409783">
<ele>289.399994</ele>
<time>2016-09-02T06:45:39.000Z</time>
</trkpt>
<trkpt lat="31.6679595" lon="34.9409121">
<ele>290.399994</ele>
<time>2016-09-02T06:45:44.000Z</time>
</trkpt>
<trkpt lat="31.6678864" lon="34.9408423">
<ele>291.200012</ele>
<time>2016-09-02T06:45:49.000Z</time>
</trkpt>
<trkpt lat="31.6678102" lon="34.9407562">
<ele>292.399994</ele>
<time>2016-09-02T06:45:55.000Z</time>
</trkpt>
<trkpt lat="31.6677393" lon="34.9406699">
<ele>293.600006</ele>
<time>2016-09-02T06:46:01.000Z</time>
</trkpt>
<trkpt lat="31.6676741" lon="34.9405954">
<ele>294.600006</ele>
<time>2016-09-02T06:46:06.000Z</time>
</trkpt>
<trkpt lat="31.6676044" lon="34.9405245">
<ele>295.399994</ele>
<time>2016-09-02T06:46:11.000Z</time>
</trkpt>
<trkpt lat="31.6675053" lon="34.9404903">
<ele>295.799988</ele>
<time>2016-09-02T06:46:17.000Z</time>
</trkpt>
<trkpt lat="31.6674051" lon="34.9404860">
<ele>296.200012</ele>
<time>2016-09-02T06:46:23.000Z</time>
</trkpt>
<trkpt lat="31.6673077" lon="34.9404774">
<ele>297.399994</ele>
<time>2016-09-02T06:46:29.000Z</time>
</trkpt>
<trkpt lat="31.6672100" lon="34.9404764">
<ele>298.799988</ele>
<time>2016-09-02T06:46:36.000Z</time>
</trkpt>
<trkpt lat="31.6671055" lon="34.9404721">
<ele>300.399994</ele>
<time>2016-09-02T06:46:43.000Z</time>
</trkpt>
<trkpt lat="31.6670106" lon="34.9404727">
<ele>301.799988</ele>
<time>2016-09-02T06:46:49.000Z</time>
</trkpt>
<trkpt lat="31.6669029" lon="34.9404695">
<ele>303.200012</ele>
<time>2016-09-02T06:46:56.000Z</time>
</trkpt>
<trkpt lat="31.6668024" lon="34.9404656">
<ele>304.799988</ele>
<time>2016-09-02T06:47:03.000Z</time>
</trkpt>
<trkpt lat="31.6667080" lon="34.9404623">
<ele>306.200012</ele>
<time>2016-09-02T06:47:09.000Z</time>
</trkpt>
<trkpt lat="31.6666053" lon="34.9404547">
<ele>307.600006</ele>
<time>2016-09-02T06:47:16.000Z</time>
</trkpt>
<trkpt lat="31.6665031" lon="34.9404497">
<ele>308.799988</ele>
<time>2016-09-02T06:47:23.000Z</time>
</trkpt>
<trkpt lat="31.6664087" lon="34.9404522">
<ele>309.200012</ele>
<time>2016-09-02T06:47:29.000Z</time>
</trkpt>
<trkpt lat="31.6663066" lon="34.9404485">
<ele>310.000000</ele>
<time>2016-09-02T06:47:35.000Z</time>
</trkpt>
<trkpt lat="31.6662107" lon="34.9404396">
<ele>310.600006</ele>
<time>2016-09-02T06:47:41.000Z</time>
</trkpt>
<trkpt lat="31.6661173" lon="34.9404436">
<ele>311.200012</ele>
<time>2016-09-02T06:47:47.000Z</time>
</trkpt>
<trkpt lat="31.6660202" lon="34.9404193">
<ele>312.000000</ele>
<time>2016-09-02T06:47:54.000Z</time>
</trkpt>
<trkpt lat="31.6659220" lon="34.9403951">
<ele>312.799988</ele>
<time>2016-09-02T06:48:01.000Z</time>
</trkpt>
<trkpt lat="31.6658301" lon="34.9403832">
<ele>313.600006</ele>
<time>2016-09-02T06:48:07.000Z</time>
</trkpt>
<trkpt lat="31.6657363" lon="34.9403594">
<ele>314.600006</ele>
<time>2016-09-02T06:48:13.000Z</time>
</trkpt>
<trkpt lat="31.6656518" lon="34.9403110">
<ele>315.600006</ele>
<time>2016-09-02T06:48:19.000Z</time>
</trkpt>
<trkpt lat="31.6656371" lon="34.9402147">
<ele>317.000000</ele>
<time>2016-09-02T06:48:26.000Z</time>
</trkpt>
<trkpt lat="31.6657278" lon="34.9401662">
<ele>317.799988</ele>
<time>2016-09-02T06:48:32.000Z</time>
</trkpt>
<trkpt lat="31.6658293" lon="34.9401398">
<ele>317.600006</ele>
<time>2016-09-02T06:48:37.000Z</time>
</trkpt>
<trkpt lat="31.6659289" lon="34.9401134">
<ele>317.600006</ele>
<time>2016-09-02T06:48:41.000Z</time>
</trkpt>
<trkpt lat="31.6660177" lon="34.9400925">
<ele>317.400024</ele>
<time>2016-09-02T06:48:44.000Z</time>
</trkpt>
<trkpt lat="31.6661212" lon="34.9400666">
<ele>317.200012</ele>
<time>2016-09-02T06:48:47.000Z</time>
</trkpt>
<trkpt lat="31.6662353" lon="34.9400401">
<ele>317.000000</ele>
<time>2016-09-02T06:48:50.000Z</time>
</trkpt>
<trkpt lat="31.6663584" lon="34.9400103">
<ele>317.000000</ele>
<time>2016-09-02T06:48:53.000Z</time>
</trkpt>
<trkpt lat="31.6664837" lon="34.9399781">
<ele>317.000000</ele>
<time>2016-09-02T06:48:56.000Z</time>
</trkpt>
<trkpt lat="31.6666029" lon="34.9399464">
<ele>316.200012</ele>
<time>2016-09-02T06:48:59.000Z</time>
</trkpt>
<trkpt lat="31.6667185" lon="34.9399102">
<ele>315.200012</ele>
<time>2016-09-02T06:49:02.000Z</time>
</trkpt>
<trkpt lat="31.6668325" lon="34.9398592">
<ele>314.400024</ele>
<time>2016-09-02T06:49:05.000Z</time>
</trkpt>
<trkpt lat="31.6669350" lon="34.9397909">
<ele>313.600006</ele>
<time>2016-09-02T06:49:08.000Z</time>
</trkpt>
<trkpt lat="31.6670363" lon="34.9396953">
<ele>312.999969</ele>
<time>2016-09-02T06:49:11.000Z</time>
</trkpt>
<trkpt lat="31.6671028" lon="34.9396113">
<ele>313.200012</ele>
<time>2016-09-02T06:49:13.000Z</time>
</trkpt>
<trkpt lat="31.6671772" lon="34.9395178">
<ele>312.799988</ele>
<time>2016-09-02T06:49:15.000Z</time>
</trkpt>
<trkpt lat="31.6672597" lon="34.9394257">
<ele>312.199982</ele>
<time>2016-09-02T06:49:17.000Z</time>
</trkpt>
<trkpt lat="31.6673429" lon="34.9393289">
<ele>312.199982</ele>
<time>2016-09-02T06:49:19.000Z</time>
</trkpt>
<trkpt lat="31.6674218" lon="34.9392296">
<ele>313.200012</ele>
<time>2016-09-02T06:49:21.000Z</time>
</trkpt>
<trkpt lat="31.6674899" lon="34.9391294">
<ele>314.400024</ele>
<time>2016-09-02T06:49:23.000Z</time>
</trkpt>
<trkpt lat="31.6675421" lon="34.9390239">
<ele>315.799988</ele>
<time>2016-09-02T06:49:25.000Z</time>
</trkpt>
<trkpt lat="31.6675840" lon="34.9389175">
<ele>317.000000</ele>
<time>2016-09-02T06:49:27.000Z</time>
</trkpt>
<trkpt lat="31.6676194" lon="34.9388109">
<ele>318.200012</ele>
<time>2016-09-02T06:49:29.000Z</time>
</trkpt>
<trkpt lat="31.6676700" lon="34.9387152">
<ele>319.200012</ele>
<time>2016-09-02T06:49:31.000Z</time>
</trkpt>
<trkpt lat="31.6677493" lon="34.9386560">
<ele>320.000000</ele>
<time>2016-09-02T06:49:33.000Z</time>
</trkpt>
<trkpt lat="31.6678382" lon="34.9386527">
<ele>320.000000</ele>
<time>2016-09-02T06:49:35.000Z</time>
</trkpt>
<trkpt lat="31.6679120" lon="34.9387175">
<ele>319.200012</ele>
<time>2016-09-02T06:49:37.000Z</time>
</trkpt>
<trkpt lat="31.6679608" lon="34.9388207">
<ele>318.200012</ele>
<time>2016-09-02T06:49:39.000Z</time>
</trkpt>
<trkpt lat="31.6680083" lon="34.9389259">
<ele>317.000000</ele>
<time>2016-09-02T06:49:41.000Z</time>
</trkpt>
<trkpt lat="31.6680652" lon="34.9390321">
<ele>315.799988</ele>
<time>2016-09-02T06:49:43.000Z</time>
</trkpt>
<trkpt lat="31.6681224" lon="34.9391424">
<ele>314.600006</ele>
<time>2016-09-02T06:49:45.000Z</time>
</trkpt>
<trkpt lat="31.6681892" lon="34.9392492">
<ele>313.399994</ele>
<time>2016-09-02T06:49:47.000Z</time>
</trkpt>
<trkpt lat="31.6682656" lon="34.9393494">
<ele>312.399994</ele>
<time>2016-09-02T06:49:49.000Z</time>
</trkpt>
<trkpt lat="31.6683483" lon="34.9394500">
<ele>311.200012</ele>
<time>2016-09-02T06:49:51.000Z</time>
</trkpt>
<trkpt lat="31.6684382" lon="34.9395448">
<ele>310.000000</ele>
<time>2016-09-02T06:49:53.000Z</time>
</trkpt>
<trkpt lat="31.6685399" lon="34.9396232">
<ele>309.000000</ele>
<time>2016-09-02T06:49:55.000Z</time>
</trkpt>
<trkpt lat="31.6686486" lon="34.9396860">
<ele>308.200012</ele>
<time>2016-09-02T06:49:57.000Z</time>
</trkpt>
<trkpt lat="31.6687636" lon="34.9397195">
<ele>307.799988</ele>
<time>2016-09-02T06:49:59.000Z</time>
</trkpt>
<trkpt lat="31.6688760" lon="34.9397282">
<ele>307.600006</ele>
<time>2016-09-02T06:50:01.000Z</time>
</trkpt>
<trkpt lat="31.6689879" lon="34.9397205">
<ele>307.399994</ele>
<time>2016-09-02T06:50:03.000Z</time>
</trkpt>
<trkpt lat="31.6690997" lon="34.9396856">
<ele>307.399994</ele>
<time>2016-09-02T06:50:05.000Z</time>
</trkpt>
<trkpt lat="31.6692006" lon="34.9396261">
<ele>307.000000</ele>
<time>2016-09-02T06:50:07.000Z</time>
</trkpt>
<trkpt lat="31.6692873" lon="34.9395547">
<ele>306.600006</ele>
<time>2016-09-02T06:50:09.000Z</time>
</trkpt>
<trkpt lat="31.6693574" lon="34.9394741">
<ele>306.600006</ele>
<time>2016-09-02T06:50:11.000Z</time>
</trkpt>
<trkpt lat="31.6694212" lon="34.9393871">
<ele>306.600006</ele>
<time>2016-09-02T06:50:13.000Z</time>
</trkpt>
<trkpt lat="31.6694847" lon="34.9392963">
<ele>306.600006</ele>
<time>2016-09-02T06:50:15.000Z</time>
</trkpt>
<trkpt lat="31.6695349" lon="34.9391954">
<ele>306.600006</ele>
<time>2016-09-02T06:50:17.000Z</time>
</trkpt>
<trkpt lat="31.6695685" lon="34.9390878">
<ele>306.200012</ele>
<time>2016-09-02T06:50:19.000Z</time>
</trkpt>
<trkpt lat="31.6695944" lon="34.9389803">
<ele>305.799988</ele>
<time>2016-09-02T06:50:21.000Z</time>
</trkpt>
<trkpt lat="31.6696173" lon="34.9388727">
<ele>305.600006</ele>
<time>2016-09-02T06:50:23.000Z</time>
</trkpt>
<trkpt lat="31.6696485" lon="34.9387201">
<ele>305.399994</ele>
<time>2016-09-02T06:50:26.000Z</time>
</trkpt>
<trkpt lat="31.6696761" lon="34.9385721">
<ele>305.200012</ele>
<time>2016-09-02T06:50:29.000Z</time>
</trkpt>
<trkpt lat="31.6696904" lon="34.9384313">
<ele>305.399994</ele>
<time>2016-09-02T06:50:32.000Z</time>
</trkpt>
<trkpt lat="31.6697058" lon="34.9382938">
<ele>305.399994</ele>
<time>2016-09-02T06:50:35.000Z</time>
</trkpt>
<trkpt lat="31.6697141" lon="34.9381578">
<ele>305.600006</ele>
<time>2016-09-02T06:50:38.000Z</time>
</trkpt>
<trkpt lat="31.6697153" lon="34.9380180">
<ele>306.000000</ele>
<time>2016-09-02T06:50:41.000Z</time>
</trkpt>
<trkpt lat="31.6697122" lon="34.9378775">
<ele>306.200012</ele>
<time>2016-09-02T06:50:44.000Z</time>
</trkpt>
<trkpt lat="31.6697005" lon="34.9377350">
<ele>306.000000</ele>
<time>2016-09-02T06:50:47.000Z</time>
</trkpt>
<trkpt lat="31.6696821" lon="34.9375925">
<ele>305.399994</ele>
<time>2016-09-02T06:50:50.000Z</time>
</trkpt>
<trkpt lat="31.6696502" lon="34.9374619">
<ele>305.200012</ele>
<time>2016-09-02T06:50:53.000Z</time>
</trkpt>
<trkpt lat="31.6696136" lon="34.9373539">
<ele>305.000000</ele>
<time>2016-09-02T06:50:56.000Z</time>
</trkpt>
<trkpt lat="31.6695678" lon="34.9372457">
<ele>305.200012</ele>
<time>2016-09-02T06:51:00.000Z</time>
</trkpt>
<trkpt lat="31.6695230" lon="34.9371399">
<ele>305.399994</ele>
<time>2016-09-02T06:51:03.000Z</time>
</trkpt>
<trkpt lat="31.6694835" lon="34.9370293">
<ele>305.200012</ele>
<time>2016-09-02T06:51:06.000Z</time>
</trkpt>
<trkpt lat="31.6694428" lon="34.9369291">
<ele>305.200012</ele>
<time>2016-09-02T06:51:09.000Z</time>
</trkpt>
<trkpt lat="31.6694016" lon="34.9368324">
<ele>305.000000</ele>
<time>2016-09-02T06:51:12.000Z</time>
</trkpt>
<trkpt lat="31.6693604" lon="34.9367287">
<ele>305.000000</ele>
<time>2016-09-02T06:51:15.000Z</time>
</trkpt>
<trkpt lat="31.6693217" lon="34.9366194">
<ele>304.600006</ele>
<time>2016-09-02T06:51:18.000Z</time>
</trkpt>
<trkpt lat="31.6692795" lon="34.9365123">
<ele>304.399994</ele>
<time>2016-09-02T06:51:21.000Z</time>
</trkpt>
<trkpt lat="31.6692360" lon="34.9364004">
<ele>304.399994</ele>
<time>2016-09-02T06:51:24.000Z</time>
</trkpt>
<trkpt lat="31.6691852" lon="34.9362916">
<ele>304.200012</ele>
<time>2016-09-02T06:51:27.000Z</time>
</trkpt>
<trkpt lat="31.6691386" lon="34.9361860">
<ele>303.600006</ele>
<time>2016-09-02T06:51:30.000Z</time>
</trkpt>
<trkpt lat="31.6690889" lon="34.9360865">
<ele>302.600006</ele>
<time>2016-09-02T06:51:33.000Z</time>
</trkpt>
<trkpt lat="31.6690393" lon="34.9359980">
<ele>301.799988</ele>
<time>2016-09-02T06:51:36.000Z</time>
</trkpt>
<trkpt lat="31.6689863" lon="34.9359129">
<ele>301.200012</ele>
<time>2016-09-02T06:54:26.000Z</time>
</trkpt>
<trkpt lat="31.6689275" lon="34.9358118">
<ele>300.399994</ele>
<time>2016-09-02T06:54:31.000Z</time>
</trkpt>
<trkpt lat="31.6688720" lon="34.9357254">
<ele>299.799988</ele>
<time>2016-09-02T06:54:34.000Z</time>
</trkpt>
<trkpt lat="31.6688149" lon="34.9356390">
<ele>299.399994</ele>
<time>2016-09-02T06:54:37.000Z</time>
</trkpt>
<trkpt lat="31.6687516" lon="34.9355588">
<ele>299.000000</ele>
<time>2016-09-02T06:54:40.000Z</time>
</trkpt>
<trkpt lat="31.6686747" lon="34.9354757">
<ele>299.000000</ele>
<time>2016-09-02T06:54:43.000Z</time>
</trkpt>
<trkpt lat="31.6685791" lon="34.9353990">
<ele>299.600006</ele>
<time>2016-09-02T06:54:46.000Z</time>
</trkpt>
<trkpt lat="31.6684754" lon="34.9353264">
<ele>300.000000</ele>
<time>2016-09-02T06:54:49.000Z</time>
</trkpt>
<trkpt lat="31.6683659" lon="34.9352374">
<ele>300.000000</ele>
<time>2016-09-02T06:54:52.000Z</time>
</trkpt>
<trkpt lat="31.6682479" lon="34.9351453">
<ele>300.200012</ele>
<time>2016-09-02T06:54:55.000Z</time>
</trkpt>
<trkpt lat="31.6681646" lon="34.9350821">
<ele>300.200012</ele>
<time>2016-09-02T06:54:57.000Z</time>
</trkpt>
<trkpt lat="31.6680772" lon="34.9350220">
<ele>299.799988</ele>
<time>2016-09-02T06:54:59.000Z</time>
</trkpt>
<trkpt lat="31.6679899" lon="34.9349626">
<ele>299.600006</ele>
<time>2016-09-02T06:55:01.000Z</time>
</trkpt>
<trkpt lat="31.6679000" lon="34.9349075">
<ele>299.399994</ele>
<time>2016-09-02T06:55:03.000Z</time>
</trkpt>
<trkpt lat="31.6678063" lon="34.9348533">
<ele>299.200012</ele>
<time>2016-09-02T06:55:05.000Z</time>
</trkpt>
<trkpt lat="31.6677093" lon="34.9348006">
<ele>299.200012</ele>
<time>2016-09-02T06:55:07.000Z</time>
</trkpt>
<trkpt lat="31.6676053" lon="34.9347664">
<ele>299.600006</ele>
<time>2016-09-02T06:55:09.000Z</time>
</trkpt>
<trkpt lat="31.6674967" lon="34.9347495">
<ele>300.600006</ele>
<time>2016-09-02T06:55:11.000Z</time>
</trkpt>
<trkpt lat="31.6673864" lon="34.9347555">
<ele>302.000000</ele>
<time>2016-09-02T06:55:13.000Z</time>
</trkpt>
<trkpt lat="31.6672784" lon="34.9347913">
<ele>303.399994</ele>
<time>2016-09-02T06:55:15.000Z</time>
</trkpt>
<trkpt lat="31.6671720" lon="34.9348458">
<ele>305.200012</ele>
<time>2016-09-02T06:55:17.000Z</time>
</trkpt>
<trkpt lat="31.6670626" lon="34.9349012">
<ele>307.000000</ele>
<time>2016-09-02T06:55:19.000Z</time>
</trkpt>
<trkpt lat="31.6669518" lon="34.9349586">
<ele>308.799988</ele>
<time>2016-09-02T06:55:21.000Z</time>
</trkpt>
<trkpt lat="31.6668379" lon="34.9350165">
<ele>309.200012</ele>
<time>2016-09-02T06:55:23.000Z</time>
</trkpt>
<trkpt lat="31.6667185" lon="34.9350675">
<ele>309.000000</ele>
<time>2016-09-02T06:55:25.000Z</time>
</trkpt>
<trkpt lat="31.6666035" lon="34.9351280">
<ele>309.200012</ele>
<time>2016-09-02T06:55:27.000Z</time>
</trkpt>
<trkpt lat="31.6664945" lon="34.9351955">
<ele>309.600006</ele>
<time>2016-09-02T06:55:29.000Z</time>
</trkpt>
<trkpt lat="31.6663874" lon="34.9352523">
<ele>310.399994</ele>
<time>2016-09-02T06:55:31.000Z</time>
</trkpt>
<trkpt lat="31.6662916" lon="34.9353060">
<ele>310.600006</ele>
<time>2016-09-02T06:55:33.000Z</time>
</trkpt>
<trkpt lat="31.6662072" lon="34.9353532">
<ele>310.799988</ele>
<time>2016-09-02T06:55:35.000Z</time>
</trkpt>
<trkpt lat="31.6661084" lon="34.9353945">
<ele>310.799988</ele>
<time>2016-09-02T06:55:38.000Z</time>
</trkpt>
<trkpt lat="31.6660088" lon="34.9353920">
<ele>310.600006</ele>
<time>2016-09-02T06:55:50.000Z</time>
</trkpt>
<trkpt lat="31.6659124" lon="34.9354547">
<ele>310.799988</ele>
<time>2016-09-02T06:55:54.000Z</time>
</trkpt>
<trkpt lat="31.6658860" lon="34.9355903">
<ele>311.799988</ele>
<time>2016-09-02T06:55:57.000Z</time>
</trkpt>
<trkpt lat="31.6659130" lon="34.9357417">
<ele>312.000000</ele>
<time>2016-09-02T06:56:00.000Z</time>
</trkpt>
<trkpt lat="31.6659023" lon="34.9358560">
<ele>311.799988</ele>
<time>2016-09-02T06:56:03.000Z</time>
</trkpt>
<trkpt lat="31.6658137" lon="34.9359729">
<ele>310.600006</ele>
<time>2016-09-02T06:56:06.000Z</time>
</trkpt>
<trkpt lat="31.6657435" lon="34.9360516">
<ele>309.799988</ele>
<time>2016-09-02T06:56:08.000Z</time>
</trkpt>
<trkpt lat="31.6656561" lon="34.9361394">
<ele>308.600006</ele>
<time>2016-09-02T06:56:11.000Z</time>
</trkpt>
<trkpt lat="31.6655680" lon="34.9362236">
<ele>307.600006</ele>
<time>2016-09-02T06:56:14.000Z</time>
</trkpt>
<trkpt lat="31.6654651" lon="34.9362371">
<ele>306.200012</ele>
<time>2016-09-02T06:56:17.000Z</time>
</trkpt>
<trkpt lat="31.6653550" lon="34.9361591">
<ele>305.000000</ele>
<time>2016-09-02T06:56:20.000Z</time>
</trkpt>
<trkpt lat="31.6652654" lon="34.9360851">
<ele>304.000000</ele>
<time>2016-09-02T06:56:22.000Z</time>
</trkpt>
<trkpt lat="31.6651655" lon="34.9360042">
<ele>303.000000</ele>
<time>2016-09-02T06:56:24.000Z</time>
</trkpt>
<trkpt lat="31.6650544" lon="34.9359182">
<ele>301.799988</ele>
<time>2016-09-02T06:56:26.000Z</time>
</trkpt>
<trkpt lat="31.6649333" lon="34.9358224">
<ele>300.399994</ele>
<time>2016-09-02T06:56:28.000Z</time>
</trkpt>
<trkpt lat="31.6648035" lon="34.9357174">
<ele>298.600006</ele>
<time>2016-09-02T06:56:30.000Z</time>
</trkpt>
<trkpt lat="31.6646798" lon="34.9356038">
<ele>296.600006</ele>
<time>2016-09-02T06:56:32.000Z</time>
</trkpt>
<trkpt lat="31.6645683" lon="34.9354902">
<ele>294.600006</ele>
<time>2016-09-02T06:56:34.000Z</time>
</trkpt>
<trkpt lat="31.6644791" lon="34.9353792">
<ele>293.000000</ele>
<time>2016-09-02T06:56:36.000Z</time>
</trkpt>
<trkpt lat="31.6644067" lon="34.9352827">
<ele>291.600006</ele>
<time>2016-09-02T06:56:38.000Z</time>
</trkpt>
<trkpt lat="31.6643629" lon="34.9351452">
<ele>290.399994</ele>
<time>2016-09-02T06:56:41.000Z</time>
</trkpt>
<trkpt lat="31.6643789" lon="34.9350383">
<ele>290.399994</ele>
<time>2016-09-02T06:56:43.000Z</time>
</trkpt>
<trkpt lat="31.6643974" lon="34.9349160">
<ele>290.399994</ele>
<time>2016-09-02T06:56:45.000Z</time>
</trkpt>
<trkpt lat="31.6644206" lon="34.9347820">
<ele>290.399994</ele>
<time>2016-09-02T06:56:47.000Z</time>
</trkpt>
<trkpt lat="31.6644522" lon="34.9346403">
<ele>290.399994</ele>
<time>2016-09-02T06:56:49.000Z</time>
</trkpt>
<trkpt lat="31.6644897" lon="34.9344909">
<ele>291.000000</ele>
<time>2016-09-02T06:56:51.000Z</time>
</trkpt>
<trkpt lat="31.6645366" lon="34.9343395">
<ele>292.399994</ele>
<time>2016-09-02T06:56:53.000Z</time>
</trkpt>
<trkpt lat="31.6645988" lon="34.9341949">
<ele>292.200012</ele>
<time>2016-09-02T06:56:55.000Z</time>
</trkpt>
<trkpt lat="31.6646695" lon="34.9340565">
<ele>291.000000</ele>
<time>2016-09-02T06:56:57.000Z</time>
</trkpt>
<trkpt lat="31.6647315" lon="34.9339394">
<ele>289.799988</ele>
<time>2016-09-02T06:56:59.000Z</time>
</trkpt>
<trkpt lat="31.6647955" lon="34.9338332">
<ele>288.799988</ele>
<time>2016-09-02T06:57:01.000Z</time>
</trkpt>
<trkpt lat="31.6648599" lon="34.9337325">
<ele>288.000000</ele>
<time>2016-09-02T06:57:03.000Z</time>
</trkpt>
<trkpt lat="31.6649194" lon="34.9336321">
<ele>287.600006</ele>
<time>2016-09-02T06:57:05.000Z</time>
</trkpt>
<trkpt lat="31.6649783" lon="34.9335324">
<ele>287.399994</ele>
<time>2016-09-02T06:57:07.000Z</time>
</trkpt>
<trkpt lat="31.6650312" lon="34.9334298">
<ele>287.000000</ele>
<time>2016-09-02T06:57:09.000Z</time>
</trkpt>
<trkpt lat="31.6650761" lon="34.9333247">
<ele>286.600006</ele>
<time>2016-09-02T06:57:11.000Z</time>
</trkpt>
<trkpt lat="31.6651238" lon="34.9332226">
<ele>286.200012</ele>
<time>2016-09-02T06:57:13.000Z</time>
</trkpt>
<trkpt lat="31.6651752" lon="34.9331262">
<ele>285.600006</ele>
<time>2016-09-02T06:57:15.000Z</time>
</trkpt>
<trkpt lat="31.6652262" lon="34.9330291">
<ele>285.000000</ele>
<time>2016-09-02T06:57:17.000Z</time>
</trkpt>
<trkpt lat="31.6652695" lon="34.9329344">
<ele>284.200012</ele>
<time>2016-09-02T06:57:19.000Z</time>
</trkpt>
<trkpt lat="31.6653067" lon="34.9328327">
<ele>284.000000</ele>
<time>2016-09-02T06:57:21.000Z</time>
</trkpt>
<trkpt lat="31.6653486" lon="34.9327336">
<ele>283.799988</ele>
<time>2016-09-02T06:57:23.000Z</time>
</trkpt>
<trkpt lat="31.6653928" lon="34.9326331">
<ele>283.799988</ele>
<time>2016-09-02T06:57:25.000Z</time>
</trkpt>
<trkpt lat="31.6654338" lon="34.9325249">
<ele>282.799988</ele>
<time>2016-09-02T06:57:27.000Z</time>
</trkpt>
<trkpt lat="31.6654742" lon="34.9324135">
<ele>281.600006</ele>
<time>2016-09-02T06:57:29.000Z</time>
</trkpt>
<trkpt lat="31.6655178" lon="34.9323078">
<ele>280.600006</ele>
<time>2016-09-02T06:57:31.000Z</time>
</trkpt>
<trkpt lat="31.6655791" lon="34.9322151">
<ele>279.600006</ele>
<time>2016-09-02T06:57:33.000Z</time>
</trkpt>
<trkpt lat="31.6656608" lon="34.9321430">
<ele>278.799988</ele>
<time>2016-09-02T06:57:35.000Z</time>
</trkpt>
<trkpt lat="31.6657472" lon="34.9320844">
<ele>278.000000</ele>
<time>2016-09-02T06:57:37.000Z</time>
</trkpt>
<trkpt lat="31.6658376" lon="34.9320390">
<ele>277.600006</ele>
<time>2016-09-02T06:57:39.000Z</time>
</trkpt>
<trkpt lat="31.6659274" lon="34.9320065">
<ele>277.399994</ele>
<time>2016-09-02T06:57:41.000Z</time>
</trkpt>
<trkpt lat="31.6660208" lon="34.9319853">
<ele>277.200012</ele>
<time>2016-09-02T06:57:43.000Z</time>
</trkpt>
<trkpt lat="31.6661207" lon="34.9319773">
<ele>277.000000</ele>
<time>2016-09-02T06:57:45.000Z</time>
</trkpt>
<trkpt lat="31.6662274" lon="34.9319769">
<ele>276.799988</ele>
<time>2016-09-02T06:57:47.000Z</time>
</trkpt>
<trkpt lat="31.6663374" lon="34.9319876">
<ele>276.399994</ele>
<time>2016-09-02T06:57:49.000Z</time>
</trkpt>
<trkpt lat="31.6664499" lon="34.9320136">
<ele>276.200012</ele>
<time>2016-09-02T06:57:51.000Z</time>
</trkpt>
<trkpt lat="31.6665602" lon="34.9320505">
<ele>276.000000</ele>
<time>2016-09-02T06:57:53.000Z</time>
</trkpt>
<trkpt lat="31.6666632" lon="34.9321104">
<ele>276.000000</ele>
<time>2016-09-02T06:57:55.000Z</time>
</trkpt>
<trkpt lat="31.6667563" lon="34.9321969">
<ele>275.799988</ele>
<time>2016-09-02T06:57:57.000Z</time>
</trkpt>
<trkpt lat="31.6668381" lon="34.9323002">
<ele>275.799988</ele>
<time>2016-09-02T06:57:59.000Z</time>
</trkpt>
<trkpt lat="31.6669104" lon="34.9324121">
<ele>275.600006</ele>
<time>2016-09-02T06:58:01.000Z</time>
</trkpt>
<trkpt lat="31.6669738" lon="34.9325231">
<ele>275.600006</ele>
<time>2016-09-02T06:58:03.000Z</time>
</trkpt>
<trkpt lat="31.6670325" lon="34.9326287">
<ele>275.799988</ele>
<time>2016-09-02T06:58:05.000Z</time>
</trkpt>
<trkpt lat="31.6670888" lon="34.9327310">
<ele>276.000000</ele>
<time>2016-09-02T06:58:07.000Z</time>
</trkpt>
<trkpt lat="31.6671424" lon="34.9328287">
<ele>276.200012</ele>
<time>2016-09-02T06:58:09.000Z</time>
</trkpt>
<trkpt lat="31.6671988" lon="34.9329225">
<ele>276.399994</ele>
<time>2016-09-02T06:58:11.000Z</time>
</trkpt>
<trkpt lat="31.6672552" lon="34.9330079">
<ele>276.600006</ele>
<time>2016-09-02T06:58:13.000Z</time>
</trkpt>
<trkpt lat="31.6673181" lon="34.9330856">
<ele>276.600006</ele>
<time>2016-09-02T06:58:15.000Z</time>
</trkpt>
<trkpt lat="31.6674130" lon="34.9331894">
<ele>276.600006</ele>
<time>2016-09-02T06:58:18.000Z</time>
</trkpt>
<trkpt lat="31.6675041" lon="34.9332874">
<ele>276.600006</ele>
<time>2016-09-02T06:58:21.000Z</time>
</trkpt>
<trkpt lat="31.6675784" lon="34.9333827">
<ele>276.600006</ele>
<time>2016-09-02T06:58:24.000Z</time>
</trkpt>
<trkpt lat="31.6676799" lon="34.9334166">
<ele>276.000000</ele>
<time>2016-09-02T06:58:27.000Z</time>
</trkpt>
<trkpt lat="31.6677815" lon="34.9333520">
<ele>274.600006</ele>
<time>2016-09-02T06:58:30.000Z</time>
</trkpt>
<trkpt lat="31.6678409" lon="34.9332539">
<ele>274.799988</ele>
<time>2016-09-02T06:58:32.000Z</time>
</trkpt>
<trkpt lat="31.6679089" lon="34.9331338">
<ele>275.399994</ele>
<time>2016-09-02T06:58:34.000Z</time>
</trkpt>
<trkpt lat="31.6679895" lon="34.9329971">
<ele>276.200012</ele>
<time>2016-09-02T06:58:36.000Z</time>
</trkpt>
<trkpt lat="31.6680599" lon="34.9328538">
<ele>276.799988</ele>
<time>2016-09-02T06:58:38.000Z</time>
</trkpt>
<trkpt lat="31.6681066" lon="34.9327423">
<ele>277.399994</ele>
<time>2016-09-02T06:58:40.000Z</time>
</trkpt>
<trkpt lat="31.6681277" lon="34.9326253">
<ele>278.399994</ele>
<time>2016-09-02T06:58:45.000Z</time>
</trkpt>
<trkpt lat="31.6681695" lon="34.9324915">
<ele>279.799988</ele>
<time>2016-09-02T06:58:49.000Z</time>
</trkpt>
<trkpt lat="31.6681773" lon="34.9323731">
<ele>280.600006</ele>
<time>2016-09-02T06:58:52.000Z</time>
</trkpt>
<trkpt lat="31.6682326" lon="34.9322860">
<ele>281.600006</ele>
<time>2016-09-02T06:58:57.000Z</time>
</trkpt>
<trkpt lat="31.6682791" lon="34.9323746">
<ele>281.399994</ele>
<time>2016-09-02T06:59:01.000Z</time>
</trkpt>
<trkpt lat="31.6683162" lon="34.9324831">
<ele>280.799988</ele>
<time>2016-09-02T06:59:04.000Z</time>
</trkpt>
<trkpt lat="31.6683746" lon="34.9325972">
<ele>280.200012</ele>
<time>2016-09-02T06:59:07.000Z</time>
</trkpt>
<trkpt lat="31.6684553" lon="34.9327050">
<ele>280.000000</ele>
<time>2016-09-02T06:59:10.000Z</time>
</trkpt>
<trkpt lat="31.6685463" lon="34.9328117">
<ele>279.799988</ele>
<time>2016-09-02T06:59:13.000Z</time>
</trkpt>
<trkpt lat="31.6686500" lon="34.9329068">
<ele>279.799988</ele>
<time>2016-09-02T06:59:16.000Z</time>
</trkpt>
<trkpt lat="31.6687568" lon="34.9329913">
<ele>279.399994</ele>
<time>2016-09-02T06:59:19.000Z</time>
</trkpt>
<trkpt lat="31.6688741" lon="34.9330481">
<ele>279.399994</ele>
<time>2016-09-02T06:59:22.000Z</time>
</trkpt>
<trkpt lat="31.6689879" lon="34.9330731">
<ele>279.799988</ele>
<time>2016-09-02T06:59:25.000Z</time>
</trkpt>
<trkpt lat="31.6690843" lon="34.9330758">
<ele>280.200012</ele>
<time>2016-09-02T06:59:28.000Z</time>
</trkpt>
<trkpt lat="31.6691921" lon="34.9330460">
<ele>281.000000</ele>
<time>2016-09-02T06:59:32.000Z</time>
</trkpt>
<trkpt lat="31.6692811" lon="34.9329843">
<ele>282.600006</ele>
<time>2016-09-02T06:59:36.000Z</time>
</trkpt>
<trkpt lat="31.6693614" lon="34.9329165">
<ele>284.200012</ele>
<time>2016-09-02T06:59:40.000Z</time>
</trkpt>
<trkpt lat="31.6694464" lon="34.9328504">
<ele>285.799988</ele>
<time>2016-09-02T06:59:44.000Z</time>
</trkpt>
<trkpt lat="31.6695374" lon="34.9328005">
<ele>287.200012</ele>
<time>2016-09-02T06:59:48.000Z</time>
</trkpt>
<trkpt lat="31.6696353" lon="34.9327652">
<ele>288.399994</ele>
<time>2016-09-02T06:59:52.000Z</time>
</trkpt>
<trkpt lat="31.6697326" lon="34.9327323">
<ele>289.600006</ele>
<time>2016-09-02T06:59:56.000Z</time>
</trkpt>
<trkpt lat="31.6698308" lon="34.9327253">
<ele>290.799988</ele>
<time>2016-09-02T07:00:00.000Z</time>
</trkpt>
<trkpt lat="31.6699408" lon="34.9327427">
<ele>290.799988</ele>
<time>2016-09-02T07:00:04.000Z</time>
</trkpt>
<trkpt lat="31.6700377" lon="34.9327616">
<ele>290.399994</ele>
<time>2016-09-02T07:00:08.000Z</time>
</trkpt>
<trkpt lat="31.6701537" lon="34.9327927">
<ele>289.799988</ele>
<time>2016-09-02T07:00:12.000Z</time>
</trkpt>
<trkpt lat="31.6702730" lon="34.9328449">
<ele>289.000000</ele>
<time>2016-09-02T07:00:15.000Z</time>
</trkpt>
<trkpt lat="31.6703624" lon="34.9329040">
<ele>288.000000</ele>
<time>2016-09-02T07:00:17.000Z</time>
</trkpt>
<trkpt lat="31.6704522" lon="34.9329757">
<ele>287.399994</ele>
<time>2016-09-02T07:00:19.000Z</time>
</trkpt>
<trkpt lat="31.6705372" lon="34.9330539">
<ele>286.600006</ele>
<time>2016-09-02T07:00:21.000Z</time>
</trkpt>
<trkpt lat="31.6706083" lon="34.9331418">
<ele>285.799988</ele>
<time>2016-09-02T07:00:23.000Z</time>
</trkpt>
<trkpt lat="31.6706771" lon="34.9332247">
<ele>285.000000</ele>
<time>2016-09-02T07:00:25.000Z</time>
</trkpt>
<trkpt lat="31.6707420" lon="34.9333082">
<ele>284.799988</ele>
<time>2016-09-02T07:00:27.000Z</time>
</trkpt>
<trkpt lat="31.6708062" lon="34.9333903">
<ele>285.000000</ele>
<time>2016-09-02T07:00:29.000Z</time>
</trkpt>
<trkpt lat="31.6708750" lon="34.9334744">
<ele>285.399994</ele>
<time>2016-09-02T07:00:31.000Z</time>
</trkpt>
<trkpt lat="31.6709475" lon="34.9335593">
<ele>285.600006</ele>
<time>2016-09-02T07:00:33.000Z</time>
</trkpt>
<trkpt lat="31.6710280" lon="34.9336416">
<ele>286.200012</ele>
<time>2016-09-02T07:00:35.000Z</time>
</trkpt>
<trkpt lat="31.6711136" lon="34.9337213">
<ele>286.600006</ele>
<time>2016-09-02T07:00:37.000Z</time>
</trkpt>
<trkpt lat="31.6712052" lon="34.9337919">
<ele>287.000000</ele>
<time>2016-09-02T07:00:39.000Z</time>
</trkpt>
<trkpt lat="31.6713013" lon="34.9338644">
<ele>287.000000</ele>
<time>2016-09-02T07:00:41.000Z</time>
</trkpt>
<trkpt lat="31.6713997" lon="34.9339407">
<ele>287.200012</ele>
<time>2016-09-02T07:00:43.000Z</time>
</trkpt>
<trkpt lat="31.6714934" lon="34.9340208">
<ele>287.000000</ele>
<time>2016-09-02T07:00:45.000Z</time>
</trkpt>
<trkpt lat="31.6715912" lon="34.9341025">
<ele>286.399994</ele>
<time>2016-09-02T07:00:47.000Z</time>
</trkpt>
<trkpt lat="31.6716945" lon="34.9341835">
<ele>285.399994</ele>
<time>2016-09-02T07:00:49.000Z</time>
</trkpt>
<trkpt lat="31.6718001" lon="34.9342607">
<ele>284.600006</ele>
<time>2016-09-02T07:00:51.000Z</time>
</trkpt>
<trkpt lat="31.6719115" lon="34.9343196">
<ele>284.200012</ele>
<time>2016-09-02T07:00:53.000Z</time>
</trkpt>
<trkpt lat="31.6720263" lon="34.9343617">
<ele>284.000000</ele>
<time>2016-09-02T07:00:55.000Z</time>
</trkpt>
<trkpt lat="31.6721396" lon="34.9343773">
<ele>284.399994</ele>
<time>2016-09-02T07:00:57.000Z</time>
</trkpt>
<trkpt lat="31.6722522" lon="34.9343762">
<ele>285.399994</ele>
<time>2016-09-02T07:00:59.000Z</time>
</trkpt>
<trkpt lat="31.6723637" lon="34.9343544">
<ele>286.799988</ele>
<time>2016-09-02T07:01:01.000Z</time>
</trkpt>
<trkpt lat="31.6724686" lon="34.9343239">
<ele>287.799988</ele>
<time>2016-09-02T07:01:03.000Z</time>
</trkpt>
<trkpt lat="31.6725589" lon="34.9342988">
<ele>288.799988</ele>
<time>2016-09-02T07:01:05.000Z</time>
</trkpt>
<trkpt lat="31.6726561" lon="34.9342394">
<ele>290.600006</ele>
<time>2016-09-02T07:01:08.000Z</time>
</trkpt>
<trkpt lat="31.6727455" lon="34.9341540">
<ele>292.799988</ele>
<time>2016-09-02T07:01:12.000Z</time>
</trkpt>
<trkpt lat="31.6728389" lon="34.9340777">
<ele>293.399994</ele>
<time>2016-09-02T07:01:16.000Z</time>
</trkpt>
<trkpt lat="31.6729221" lon="34.9339914">
<ele>293.600006</ele>
<time>2016-09-02T07:01:20.000Z</time>
</trkpt>
<trkpt lat="31.6730075" lon="34.9339170">
<ele>293.600006</ele>
<time>2016-09-02T07:01:24.000Z</time>
</trkpt>
<trkpt lat="31.6731017" lon="34.9338478">
<ele>293.600006</ele>
<time>2016-09-02T07:01:28.000Z</time>
</trkpt>
<trkpt lat="31.6731920" lon="34.9337729">
<ele>293.600006</ele>
<time>2016-09-02T07:01:32.000Z</time>
</trkpt>
<trkpt lat="31.6732825" lon="34.9336945">
<ele>294.600006</ele>
<time>2016-09-02T07:01:36.000Z</time>
</trkpt>
<trkpt lat="31.6733718" lon="34.9336101">
<ele>296.000000</ele>
<time>2016-09-02T07:01:40.000Z</time>
</trkpt>
<trkpt lat="31.6734439" lon="34.9335281">
<ele>297.200012</ele>
<time>2016-09-02T07:01:44.000Z</time>
</trkpt>
<trkpt lat="31.6735145" lon="34.9334468">
<ele>298.600006</ele>
<time>2016-09-02T07:01:48.000Z</time>
</trkpt>
<trkpt lat="31.6735878" lon="34.9333631">
<ele>299.799988</ele>
<time>2016-09-02T07:01:52.000Z</time>
</trkpt>
<trkpt lat="31.6736663" lon="34.9332753">
<ele>300.000000</ele>
<time>2016-09-02T07:01:56.000Z</time>
</trkpt>
<trkpt lat="31.6737461" lon="34.9331822">
<ele>299.399994</ele>
<time>2016-09-02T07:02:00.000Z</time>
</trkpt>
<trkpt lat="31.6738230" lon="34.9330921">
<ele>298.799988</ele>
<time>2016-09-02T07:02:04.000Z</time>
</trkpt>
<trkpt lat="31.6739002" lon="34.9329939">
<ele>298.200012</ele>
<time>2016-09-02T07:02:08.000Z</time>
</trkpt>
<trkpt lat="31.6739759" lon="34.9329077">
<ele>297.600006</ele>
<time>2016-09-02T07:02:12.000Z</time>
</trkpt>
<trkpt lat="31.6740452" lon="34.9328306">
<ele>298.200012</ele>
<time>2016-09-02T07:02:16.000Z</time>
</trkpt>
<trkpt lat="31.6741172" lon="34.9327474">
<ele>299.399994</ele>
<time>2016-09-02T07:02:20.000Z</time>
</trkpt>
<trkpt lat="31.6741970" lon="34.9326643">
<ele>300.799988</ele>
<time>2016-09-02T07:02:24.000Z</time>
</trkpt>
<trkpt lat="31.6742733" lon="34.9325856">
<ele>302.000000</ele>
<time>2016-09-02T07:02:28.000Z</time>
</trkpt>
<trkpt lat="31.6743543" lon="34.9325131">
<ele>303.200012</ele>
<time>2016-09-02T07:02:32.000Z</time>
</trkpt>
<trkpt lat="31.6744160" lon="34.9324284">
<ele>304.200012</ele>
<time>2016-09-02T07:02:36.000Z</time>
</trkpt>
<trkpt lat="31.6744931" lon="34.9323470">
<ele>303.600006</ele>
<time>2016-09-02T07:02:40.000Z</time>
</trkpt>
<trkpt lat="31.6745679" lon="34.9322598">
<ele>303.200012</ele>
<time>2016-09-02T07:02:44.000Z</time>
</trkpt>
<trkpt lat="31.6746575" lon="34.9321902">
<ele>302.600006</ele>
<time>2016-09-02T07:02:48.000Z</time>
</trkpt>
<trkpt lat="31.6747349" lon="34.9321317">
<ele>302.000000</ele>
<time>2016-09-02T07:02:52.000Z</time>
</trkpt>
<trkpt lat="31.6748163" lon="34.9320400">
<ele>302.000000</ele>
<time>2016-09-02T07:02:57.000Z</time>
</trkpt>
<trkpt lat="31.6748732" lon="34.9319533">
<ele>302.200012</ele>
<time>2016-09-02T07:03:01.000Z</time>
</trkpt>
<trkpt lat="31.6749287" lon="34.9318588">
<ele>303.399994</ele>
<time>2016-09-02T07:03:05.000Z</time>
</trkpt>
<trkpt lat="31.6749643" lon="34.9317566">
<ele>304.600006</ele>
<time>2016-09-02T07:03:09.000Z</time>
</trkpt>
<trkpt lat="31.6749974" lon="34.9316318">
<ele>305.799988</ele>
<time>2016-09-02T07:03:14.000Z</time>
</trkpt>
<trkpt lat="31.6750315" lon="34.9315224">
<ele>307.000000</ele>
<time>2016-09-02T07:03:21.000Z</time>
</trkpt>
<trkpt lat="31.6750414" lon="34.9314141">
<ele>308.200012</ele>
<time>2016-09-02T07:03:28.000Z</time>
</trkpt>
<trkpt lat="31.6750322" lon="34.9313001">
<ele>308.000000</ele>
<time>2016-09-02T07:03:34.000Z</time>
</trkpt>
<trkpt lat="31.6750273" lon="34.9311835">
<ele>308.600006</ele>
<time>2016-09-02T07:03:40.000Z</time>
</trkpt>
<trkpt lat="31.6750766" lon="34.9310784">
<ele>309.799988</ele>
<time>2016-09-02T07:03:46.000Z</time>
</trkpt>
<trkpt lat="31.6751489" lon="34.9309988">
<ele>310.399994</ele>
<time>2016-09-02T07:03:51.000Z</time>
</trkpt>
<trkpt lat="31.6752369" lon="34.9309226">
<ele>310.799988</ele>
<time>2016-09-02T07:03:56.000Z</time>
</trkpt>
<trkpt lat="31.6753355" lon="34.9308640">
<ele>311.000000</ele>
<time>2016-09-02T07:04:01.000Z</time>
</trkpt>
<trkpt lat="31.6754175" lon="34.9308124">
<ele>311.000000</ele>
<time>2016-09-02T07:04:05.000Z</time>
</trkpt>
<trkpt lat="31.6754853" lon="34.9307399">
<ele>311.399994</ele>
<time>2016-09-02T07:04:09.000Z</time>
</trkpt>
<trkpt lat="31.6755830" lon="34.9306787">
<ele>311.399994</ele>
<time>2016-09-02T07:04:14.000Z</time>
</trkpt>
<trkpt lat="31.6756761" lon="34.9306091">
<ele>311.399994</ele>
<time>2016-09-02T07:04:19.000Z</time>
</trkpt>
<trkpt lat="31.6757689" lon="34.9305477">
<ele>312.399994</ele>
<time>2016-09-02T07:04:23.000Z</time>
</trkpt>
<trkpt lat="31.6758544" lon="34.9305054">
<ele>313.399994</ele>
<time>2016-09-02T07:04:26.000Z</time>
</trkpt>
<trkpt lat="31.6759509" lon="34.9304875">
<ele>314.000000</ele>
<time>2016-09-02T07:04:29.000Z</time>
</trkpt>
<trkpt lat="31.6760649" lon="34.9305087">
<ele>314.000000</ele>
<time>2016-09-02T07:04:33.000Z</time>
</trkpt>
<trkpt lat="31.6761687" lon="34.9305422">
<ele>314.000000</ele>
<time>2016-09-02T07:04:37.000Z</time>
</trkpt>
<trkpt lat="31.6762630" lon="34.9305580">
<ele>314.200012</ele>
<time>2016-09-02T07:04:41.000Z</time>
</trkpt>
<trkpt lat="31.6763737" lon="34.9305509">
<ele>314.600006</ele>
<time>2016-09-02T07:04:46.000Z</time>
</trkpt>
<trkpt lat="31.6764710" lon="34.9305496">
<ele>315.000000</ele>
<time>2016-09-02T07:04:50.000Z</time>
</trkpt>
<trkpt lat="31.6765692" lon="34.9305545">
<ele>315.600006</ele>
<time>2016-09-02T07:04:54.000Z</time>
</trkpt>
<trkpt lat="31.6766601" lon="34.9305394">
<ele>316.600037</ele>
<time>2016-09-02T07:04:58.000Z</time>
</trkpt>
<trkpt lat="31.6767585" lon="34.9305111">
<ele>317.200012</ele>
<time>2016-09-02T07:05:04.000Z</time>
</trkpt>
<trkpt lat="31.6768519" lon="34.9304880">
<ele>317.600006</ele>
<time>2016-09-02T07:05:09.000Z</time>
</trkpt>
<trkpt lat="31.6769401" lon="34.9304823">
<ele>318.000000</ele>
<time>2016-09-02T07:05:14.000Z</time>
</trkpt>
<trkpt lat="31.6770316" lon="34.9304883">
<ele>318.399994</ele>
<time>2016-09-02T07:05:19.000Z</time>
</trkpt>
<trkpt lat="31.6771248" lon="34.9304591">
<ele>318.799988</ele>
<time>2016-09-02T07:05:24.000Z</time>
</trkpt>
<trkpt lat="31.6772191" lon="34.9304456">
<ele>319.200012</ele>
<time>2016-09-02T07:05:29.000Z</time>
</trkpt>
<trkpt lat="31.6773092" lon="34.9304924">
<ele>319.200012</ele>
<time>2016-09-02T07:05:34.000Z</time>
</trkpt>
<trkpt lat="31.6773901" lon="34.9305886">
<ele>318.799988</ele>
<time>2016-09-02T07:05:39.000Z</time>
</trkpt>
<trkpt lat="31.6774611" lon="34.9306654">
<ele>318.200012</ele>
<time>2016-09-02T07:05:43.000Z</time>
</trkpt>
<trkpt lat="31.6775526" lon="34.9307042">
<ele>317.799988</ele>
<time>2016-09-02T07:05:48.000Z</time>
</trkpt>
<trkpt lat="31.6776209" lon="34.9306305">
<ele>318.000000</ele>
<time>2016-09-02T07:05:53.000Z</time>
</trkpt>
<trkpt lat="31.6776231" lon="34.9305056">
<ele>318.600006</ele>
<time>2016-09-02T07:05:58.000Z</time>
</trkpt>
<trkpt lat="31.6776354" lon="34.9303903">
<ele>319.200012</ele>
<time>2016-09-02T07:06:03.000Z</time>
</trkpt>
<trkpt lat="31.6776306" lon="34.9302772">
<ele>320.399963</ele>
<time>2016-09-02T07:06:08.000Z</time>
</trkpt>
<trkpt lat="31.6776120" lon="34.9301597">
<ele>321.800018</ele>
<time>2016-09-02T07:06:13.000Z</time>
</trkpt>
<trkpt lat="31.6775480" lon="34.9300682">
<ele>323.000000</ele>
<time>2016-09-02T07:06:19.000Z</time>
</trkpt>
<trkpt lat="31.6775033" lon="34.9300502">
<ele>323.399994</ele>
<time>2016-09-02T07:15:44.000Z</time>
</trkpt>
</trkseg>
</trk>
</gpx>
